<?xml version="1.0" encoding="UTF-8" standalone="no" ?>
<gpx xmlns="http://www.topografix.com/GPX/1/1" xmlns:xsi="http://www.w3.org/2001/XMLSchema-instance" xsi:schemaLocation="http://www.topografix.com/GPX/1/1 http://www.topografix.com/GPX/1/1/gpx.xsd" version="1.1" creator="VisuGPX - https://www.visugpx.com">
  <metadata>
    <name>Marche autour de vitré le 28.11.2010</name>
    <desc><![CDATA[Marche au alentour de vitré le 28.11.2010. ]]></desc>
  </metadata>
  <trk>
    <name><![CDATA[2010-11-28 14:22:42]]></name>
    <trkseg>
      <trkpt lat="46.29212" lon="-0.18022">
        <ele>132.5755</ele>
        <time>2010-11-28T13:22:43Z</time>
      </trkpt>
      <trkpt lat="46.29213" lon="-0.18021">
        <ele>132.7642</ele>
        <time>2010-11-28T13:22:44Z</time>
      </trkpt>
      <trkpt lat="46.29213" lon="-0.18021">
        <ele>132.946</ele>
        <time>2010-11-28T13:22:45Z</time>
      </trkpt>
      <trkpt lat="46.29214" lon="-0.1802">
        <ele>133.121</ele>
        <time>2010-11-28T13:22:46Z</time>
      </trkpt>
      <trkpt lat="46.29215" lon="-0.18019">
        <ele>133.29</ele>
        <time>2010-11-28T13:22:47Z</time>
      </trkpt>
      <trkpt lat="46.29216" lon="-0.18019">
        <ele>133.4556</ele>
        <time>2010-11-28T13:22:48Z</time>
      </trkpt>
      <trkpt lat="46.29216" lon="-0.18018">
        <ele>133.6189</ele>
        <time>2010-11-28T13:22:49Z</time>
      </trkpt>
      <trkpt lat="46.29217" lon="-0.18018">
        <ele>133.7789</ele>
        <time>2010-11-28T13:22:50Z</time>
      </trkpt>
      <trkpt lat="46.29218" lon="-0.18017">
        <ele>133.9476</ele>
        <time>2010-11-28T13:22:51Z</time>
      </trkpt>
      <trkpt lat="46.29218" lon="-0.18017">
        <ele>134.1081</ele>
        <time>2010-11-28T13:22:52Z</time>
      </trkpt>
      <trkpt lat="46.29219" lon="-0.18016">
        <ele>134.2586</ele>
        <time>2010-11-28T13:22:53Z</time>
      </trkpt>
      <trkpt lat="46.2922" lon="-0.18016">
        <ele>134.3995</ele>
        <time>2010-11-28T13:22:54Z</time>
      </trkpt>
      <trkpt lat="46.29221" lon="-0.18016">
        <ele>134.532</ele>
        <time>2010-11-28T13:22:55Z</time>
      </trkpt>
      <trkpt lat="46.29221" lon="-0.18015">
        <ele>134.6558</ele>
        <time>2010-11-28T13:22:56Z</time>
      </trkpt>
      <trkpt lat="46.29222" lon="-0.18015">
        <ele>134.7752</ele>
        <time>2010-11-28T13:22:57Z</time>
      </trkpt>
      <trkpt lat="46.29223" lon="-0.18015">
        <ele>134.8932</ele>
        <time>2010-11-28T13:22:58Z</time>
      </trkpt>
      <trkpt lat="46.29227" lon="-0.18012">
        <ele>135.454</ele>
        <time>2010-11-28T13:23:03Z</time>
      </trkpt>
      <trkpt lat="46.29231" lon="-0.18009">
        <ele>135.8665</ele>
        <time>2010-11-28T13:23:07Z</time>
      </trkpt>
      <trkpt lat="46.29232" lon="-0.18008">
        <ele>135.991</ele>
        <time>2010-11-28T13:23:08Z</time>
      </trkpt>
      <trkpt lat="46.29234" lon="-0.18007">
        <ele>136.1151</ele>
        <time>2010-11-28T13:23:09Z</time>
      </trkpt>
      <trkpt lat="46.29235" lon="-0.18006">
        <ele>136.2415</ele>
        <time>2010-11-28T13:23:10Z</time>
      </trkpt>
      <trkpt lat="46.29236" lon="-0.18005">
        <ele>136.3674</ele>
        <time>2010-11-28T13:23:11Z</time>
      </trkpt>
      <trkpt lat="46.29237" lon="-0.18004">
        <ele>136.4807</ele>
        <time>2010-11-28T13:23:12Z</time>
      </trkpt>
      <trkpt lat="46.29239" lon="-0.18003">
        <ele>136.583</ele>
        <time>2010-11-28T13:23:13Z</time>
      </trkpt>
      <trkpt lat="46.2924" lon="-0.18002">
        <ele>136.6828</ele>
        <time>2010-11-28T13:23:14Z</time>
      </trkpt>
      <trkpt lat="46.2924" lon="-0.18002">
        <ele>136.7818</ele>
        <time>2010-11-28T13:23:15Z</time>
      </trkpt>
      <trkpt lat="46.29245" lon="-0.17999">
        <ele>137.1053</ele>
        <time>2010-11-28T13:23:21Z</time>
      </trkpt>
      <trkpt lat="46.29249" lon="-0.17996">
        <ele>137.3369</ele>
        <time>2010-11-28T13:23:26Z</time>
      </trkpt>
      <trkpt lat="46.29253" lon="-0.17992">
        <ele>137.5683</ele>
        <time>2010-11-28T13:23:32Z</time>
      </trkpt>
      <trkpt lat="46.29257" lon="-0.17988">
        <ele>137.6921</ele>
        <time>2010-11-28T13:23:37Z</time>
      </trkpt>
      <trkpt lat="46.29259" lon="-0.17987">
        <ele>137.6814</ele>
        <time>2010-11-28T13:23:39Z</time>
      </trkpt>
      <trkpt lat="46.2926" lon="-0.17986">
        <ele>137.6752</ele>
        <time>2010-11-28T13:23:40Z</time>
      </trkpt>
      <trkpt lat="46.29261" lon="-0.17985">
        <ele>137.6675</ele>
        <time>2010-11-28T13:23:41Z</time>
      </trkpt>
      <trkpt lat="46.29263" lon="-0.17984">
        <ele>137.6601</ele>
        <time>2010-11-28T13:23:42Z</time>
      </trkpt>
      <trkpt lat="46.29263" lon="-0.17984">
        <ele>137.6526</ele>
        <time>2010-11-28T13:23:43Z</time>
      </trkpt>
      <trkpt lat="46.29265" lon="-0.17983">
        <ele>137.6378</ele>
        <time>2010-11-28T13:23:44Z</time>
      </trkpt>
      <trkpt lat="46.29265" lon="-0.17982">
        <ele>137.6236</ele>
        <time>2010-11-28T13:23:45Z</time>
      </trkpt>
      <trkpt lat="46.29266" lon="-0.17981">
        <ele>137.6148</ele>
        <time>2010-11-28T13:23:46Z</time>
      </trkpt>
      <trkpt lat="46.29268" lon="-0.17981">
        <ele>137.6082</ele>
        <time>2010-11-28T13:23:47Z</time>
      </trkpt>
      <trkpt lat="46.29268" lon="-0.1798">
        <ele>137.6055</ele>
        <time>2010-11-28T13:23:48Z</time>
      </trkpt>
      <trkpt lat="46.29273" lon="-0.17979">
        <ele>137.65</ele>
        <time>2010-11-28T13:23:53Z</time>
      </trkpt>
      <trkpt lat="46.29279" lon="-0.17978">
        <ele>137.7762</ele>
        <time>2010-11-28T13:23:57Z</time>
      </trkpt>
      <trkpt lat="46.29282" lon="-0.17977">
        <ele>137.849</ele>
        <time>2010-11-28T13:23:59Z</time>
      </trkpt>
      <trkpt lat="46.29283" lon="-0.17976">
        <ele>137.8811</ele>
        <time>2010-11-28T13:24:00Z</time>
      </trkpt>
      <trkpt lat="46.29285" lon="-0.17976">
        <ele>137.9353</ele>
        <time>2010-11-28T13:24:01Z</time>
      </trkpt>
      <trkpt lat="46.29287" lon="-0.17976">
        <ele>138.0055</ele>
        <time>2010-11-28T13:24:02Z</time>
      </trkpt>
      <trkpt lat="46.29289" lon="-0.17976">
        <ele>138.0731</ele>
        <time>2010-11-28T13:24:03Z</time>
      </trkpt>
      <trkpt lat="46.29291" lon="-0.17976">
        <ele>138.1413</ele>
        <time>2010-11-28T13:24:04Z</time>
      </trkpt>
      <trkpt lat="46.29293" lon="-0.17976">
        <ele>138.2193</ele>
        <time>2010-11-28T13:24:05Z</time>
      </trkpt>
      <trkpt lat="46.29294" lon="-0.17975">
        <ele>138.3002</ele>
        <time>2010-11-28T13:24:06Z</time>
      </trkpt>
      <trkpt lat="46.29295" lon="-0.17975">
        <ele>138.3776</ele>
        <time>2010-11-28T13:24:07Z</time>
      </trkpt>
      <trkpt lat="46.293" lon="-0.17975">
        <ele>138.6703</ele>
        <time>2010-11-28T13:24:11Z</time>
      </trkpt>
      <trkpt lat="46.29305" lon="-0.17974">
        <ele>139.251</ele>
        <time>2010-11-28T13:24:17Z</time>
      </trkpt>
      <trkpt lat="46.29305" lon="-0.17974">
        <ele>139.3749</ele>
        <time>2010-11-28T13:24:18Z</time>
      </trkpt>
      <trkpt lat="46.29306" lon="-0.17973">
        <ele>139.4953</ele>
        <time>2010-11-28T13:24:19Z</time>
      </trkpt>
      <trkpt lat="46.29306" lon="-0.17972">
        <ele>139.6075</ele>
        <time>2010-11-28T13:24:20Z</time>
      </trkpt>
      <trkpt lat="46.29307" lon="-0.17971">
        <ele>139.741</ele>
        <time>2010-11-28T13:24:21Z</time>
      </trkpt>
      <trkpt lat="46.29308" lon="-0.17971">
        <ele>139.8703</ele>
        <time>2010-11-28T13:24:22Z</time>
      </trkpt>
      <trkpt lat="46.29311" lon="-0.17967">
        <ele>140.5151</ele>
        <time>2010-11-28T13:24:30Z</time>
      </trkpt>
      <trkpt lat="46.29311" lon="-0.17966">
        <ele>140.6042</ele>
        <time>2010-11-28T13:24:31Z</time>
      </trkpt>
      <trkpt lat="46.29312" lon="-0.17965">
        <ele>140.686</ele>
        <time>2010-11-28T13:24:32Z</time>
      </trkpt>
      <trkpt lat="46.29313" lon="-0.17964">
        <ele>140.758</ele>
        <time>2010-11-28T13:24:33Z</time>
      </trkpt>
      <trkpt lat="46.29314" lon="-0.17963">
        <ele>140.8243</ele>
        <time>2010-11-28T13:24:34Z</time>
      </trkpt>
      <trkpt lat="46.29314" lon="-0.17963">
        <ele>140.8927</ele>
        <time>2010-11-28T13:24:35Z</time>
      </trkpt>
      <trkpt lat="46.29315" lon="-0.17962">
        <ele>140.9648</ele>
        <time>2010-11-28T13:24:36Z</time>
      </trkpt>
      <trkpt lat="46.29316" lon="-0.17961">
        <ele>141.0389</ele>
        <time>2010-11-28T13:24:37Z</time>
      </trkpt>
      <trkpt lat="46.29317" lon="-0.17961">
        <ele>141.1075</ele>
        <time>2010-11-28T13:24:38Z</time>
      </trkpt>
      <trkpt lat="46.29318" lon="-0.1796">
        <ele>141.1693</ele>
        <time>2010-11-28T13:24:39Z</time>
      </trkpt>
      <trkpt lat="46.29319" lon="-0.1796">
        <ele>141.2332</ele>
        <time>2010-11-28T13:24:40Z</time>
      </trkpt>
      <trkpt lat="46.29319" lon="-0.17959">
        <ele>141.3033</ele>
        <time>2010-11-28T13:24:41Z</time>
      </trkpt>
      <trkpt lat="46.29321" lon="-0.17959">
        <ele>141.3746</ele>
        <time>2010-11-28T13:24:42Z</time>
      </trkpt>
      <trkpt lat="46.29321" lon="-0.17959">
        <ele>141.4466</ele>
        <time>2010-11-28T13:24:43Z</time>
      </trkpt>
      <trkpt lat="46.29322" lon="-0.17959">
        <ele>141.5128</ele>
        <time>2010-11-28T13:24:44Z</time>
      </trkpt>
      <trkpt lat="46.29323" lon="-0.17958">
        <ele>141.5721</ele>
        <time>2010-11-28T13:24:45Z</time>
      </trkpt>
      <trkpt lat="46.29324" lon="-0.17958">
        <ele>141.6288</ele>
        <time>2010-11-28T13:24:46Z</time>
      </trkpt>
      <trkpt lat="46.29325" lon="-0.17958">
        <ele>141.6995</ele>
        <time>2010-11-28T13:24:47Z</time>
      </trkpt>
      <trkpt lat="46.29326" lon="-0.17957">
        <ele>141.7729</ele>
        <time>2010-11-28T13:24:48Z</time>
      </trkpt>
      <trkpt lat="46.29327" lon="-0.17957">
        <ele>141.8409</ele>
        <time>2010-11-28T13:24:49Z</time>
      </trkpt>
      <trkpt lat="46.29328" lon="-0.17957">
        <ele>141.8987</ele>
        <time>2010-11-28T13:24:50Z</time>
      </trkpt>
      <trkpt lat="46.29329" lon="-0.17956">
        <ele>141.95</ele>
        <time>2010-11-28T13:24:51Z</time>
      </trkpt>
      <trkpt lat="46.2933" lon="-0.17956">
        <ele>141.9895</ele>
        <time>2010-11-28T13:24:52Z</time>
      </trkpt>
      <trkpt lat="46.29331" lon="-0.17956">
        <ele>142.0219</ele>
        <time>2010-11-28T13:24:53Z</time>
      </trkpt>
      <trkpt lat="46.29332" lon="-0.17956">
        <ele>142.0428</ele>
        <time>2010-11-28T13:24:54Z</time>
      </trkpt>
      <trkpt lat="46.29333" lon="-0.17956">
        <ele>142.0486</ele>
        <time>2010-11-28T13:24:55Z</time>
      </trkpt>
      <trkpt lat="46.29334" lon="-0.17956">
        <ele>142.053</ele>
        <time>2010-11-28T13:24:56Z</time>
      </trkpt>
      <trkpt lat="46.29335" lon="-0.17956">
        <ele>142.0562</ele>
        <time>2010-11-28T13:24:57Z</time>
      </trkpt>
      <trkpt lat="46.29337" lon="-0.17956">
        <ele>142.0653</ele>
        <time>2010-11-28T13:24:58Z</time>
      </trkpt>
      <trkpt lat="46.29338" lon="-0.17955">
        <ele>142.075</ele>
        <time>2010-11-28T13:24:59Z</time>
      </trkpt>
      <trkpt lat="46.29339" lon="-0.17955">
        <ele>142.0867</ele>
        <time>2010-11-28T13:25:00Z</time>
      </trkpt>
      <trkpt lat="46.2934" lon="-0.17955">
        <ele>142.0999</ele>
        <time>2010-11-28T13:25:01Z</time>
      </trkpt>
      <trkpt lat="46.2934" lon="-0.17955">
        <ele>142.1127</ele>
        <time>2010-11-28T13:25:02Z</time>
      </trkpt>
      <trkpt lat="46.29342" lon="-0.17955">
        <ele>142.1284</ele>
        <time>2010-11-28T13:25:03Z</time>
      </trkpt>
      <trkpt lat="46.29343" lon="-0.17954">
        <ele>142.1325</ele>
        <time>2010-11-28T13:25:04Z</time>
      </trkpt>
      <trkpt lat="46.29344" lon="-0.17954">
        <ele>142.1253</ele>
        <time>2010-11-28T13:25:05Z</time>
      </trkpt>
      <trkpt lat="46.29345" lon="-0.17953">
        <ele>142.1133</ele>
        <time>2010-11-28T13:25:06Z</time>
      </trkpt>
      <trkpt lat="46.29346" lon="-0.17953">
        <ele>142.0979</ele>
        <time>2010-11-28T13:25:07Z</time>
      </trkpt>
      <trkpt lat="46.29347" lon="-0.17952">
        <ele>142.0786</ele>
        <time>2010-11-28T13:25:08Z</time>
      </trkpt>
      <trkpt lat="46.29348" lon="-0.17952">
        <ele>142.0557</ele>
        <time>2010-11-28T13:25:09Z</time>
      </trkpt>
      <trkpt lat="46.2935" lon="-0.17951">
        <ele>142.0323</ele>
        <time>2010-11-28T13:25:10Z</time>
      </trkpt>
      <trkpt lat="46.2935" lon="-0.17951">
        <ele>142.0034</ele>
        <time>2010-11-28T13:25:11Z</time>
      </trkpt>
      <trkpt lat="46.29351" lon="-0.1795">
        <ele>141.9721</ele>
        <time>2010-11-28T13:25:12Z</time>
      </trkpt>
      <trkpt lat="46.29353" lon="-0.1795">
        <ele>141.9599</ele>
        <time>2010-11-28T13:25:13Z</time>
      </trkpt>
      <trkpt lat="46.29354" lon="-0.1795">
        <ele>141.9531</ele>
        <time>2010-11-28T13:25:14Z</time>
      </trkpt>
      <trkpt lat="46.29356" lon="-0.1795">
        <ele>141.9446</ele>
        <time>2010-11-28T13:25:15Z</time>
      </trkpt>
      <trkpt lat="46.29357" lon="-0.1795">
        <ele>141.9597</ele>
        <time>2010-11-28T13:25:16Z</time>
      </trkpt>
      <trkpt lat="46.29358" lon="-0.17949">
        <ele>141.9729</ele>
        <time>2010-11-28T13:25:17Z</time>
      </trkpt>
      <trkpt lat="46.29359" lon="-0.17949">
        <ele>141.9881</ele>
        <time>2010-11-28T13:25:18Z</time>
      </trkpt>
      <trkpt lat="46.2936" lon="-0.17949">
        <ele>142.0003</ele>
        <time>2010-11-28T13:25:19Z</time>
      </trkpt>
      <trkpt lat="46.29362" lon="-0.17948">
        <ele>142.0261</ele>
        <time>2010-11-28T13:25:20Z</time>
      </trkpt>
      <trkpt lat="46.29363" lon="-0.17948">
        <ele>142.0595</ele>
        <time>2010-11-28T13:25:21Z</time>
      </trkpt>
      <trkpt lat="46.29365" lon="-0.17947">
        <ele>142.0922</ele>
        <time>2010-11-28T13:25:22Z</time>
      </trkpt>
      <trkpt lat="46.29366" lon="-0.17947">
        <ele>142.1395</ele>
        <time>2010-11-28T13:25:23Z</time>
      </trkpt>
      <trkpt lat="46.29367" lon="-0.17946">
        <ele>142.1888</ele>
        <time>2010-11-28T13:25:24Z</time>
      </trkpt>
      <trkpt lat="46.29369" lon="-0.17945">
        <ele>142.2804</ele>
        <time>2010-11-28T13:25:25Z</time>
      </trkpt>
      <trkpt lat="46.29371" lon="-0.17945">
        <ele>142.369</ele>
        <time>2010-11-28T13:25:26Z</time>
      </trkpt>
      <trkpt lat="46.29373" lon="-0.17945">
        <ele>142.4578</ele>
        <time>2010-11-28T13:25:27Z</time>
      </trkpt>
      <trkpt lat="46.29374" lon="-0.17944">
        <ele>142.5467</ele>
        <time>2010-11-28T13:25:28Z</time>
      </trkpt>
      <trkpt lat="46.29379" lon="-0.17942">
        <ele>143.3636</ele>
        <time>2010-11-28T13:25:38Z</time>
      </trkpt>
      <trkpt lat="46.2938" lon="-0.17942">
        <ele>143.5163</ele>
        <time>2010-11-28T13:25:39Z</time>
      </trkpt>
      <trkpt lat="46.2938" lon="-0.17941">
        <ele>143.6724</ele>
        <time>2010-11-28T13:25:40Z</time>
      </trkpt>
      <trkpt lat="46.29381" lon="-0.1794">
        <ele>143.8215</ele>
        <time>2010-11-28T13:25:41Z</time>
      </trkpt>
      <trkpt lat="46.29382" lon="-0.1794">
        <ele>143.9602</ele>
        <time>2010-11-28T13:25:42Z</time>
      </trkpt>
      <trkpt lat="46.29383" lon="-0.17939">
        <ele>144.0938</ele>
        <time>2010-11-28T13:25:43Z</time>
      </trkpt>
      <trkpt lat="46.29384" lon="-0.17939">
        <ele>144.2196</ele>
        <time>2010-11-28T13:25:44Z</time>
      </trkpt>
      <trkpt lat="46.29388" lon="-0.17935">
        <ele>145.0094</ele>
        <time>2010-11-28T13:25:53Z</time>
      </trkpt>
      <trkpt lat="46.29389" lon="-0.17934">
        <ele>145.1048</ele>
        <time>2010-11-28T13:25:54Z</time>
      </trkpt>
      <trkpt lat="46.2939" lon="-0.17933">
        <ele>145.197</ele>
        <time>2010-11-28T13:25:55Z</time>
      </trkpt>
      <trkpt lat="46.29392" lon="-0.17933">
        <ele>145.2865</ele>
        <time>2010-11-28T13:25:56Z</time>
      </trkpt>
      <trkpt lat="46.29392" lon="-0.17932">
        <ele>145.3737</ele>
        <time>2010-11-28T13:25:57Z</time>
      </trkpt>
      <trkpt lat="46.29393" lon="-0.17932">
        <ele>145.4589</ele>
        <time>2010-11-28T13:25:58Z</time>
      </trkpt>
      <trkpt lat="46.29395" lon="-0.17932">
        <ele>145.5455</ele>
        <time>2010-11-28T13:25:59Z</time>
      </trkpt>
      <trkpt lat="46.29395" lon="-0.17931">
        <ele>145.6286</ele>
        <time>2010-11-28T13:26:00Z</time>
      </trkpt>
      <trkpt lat="46.29396" lon="-0.17931">
        <ele>145.7037</ele>
        <time>2010-11-28T13:26:01Z</time>
      </trkpt>
      <trkpt lat="46.29397" lon="-0.1793">
        <ele>145.7701</ele>
        <time>2010-11-28T13:26:02Z</time>
      </trkpt>
      <trkpt lat="46.29398" lon="-0.1793">
        <ele>145.8448</ele>
        <time>2010-11-28T13:26:03Z</time>
      </trkpt>
      <trkpt lat="46.29399" lon="-0.17929">
        <ele>145.9251</ele>
        <time>2010-11-28T13:26:04Z</time>
      </trkpt>
      <trkpt lat="46.294" lon="-0.17928">
        <ele>146.0067</ele>
        <time>2010-11-28T13:26:05Z</time>
      </trkpt>
      <trkpt lat="46.294" lon="-0.17927">
        <ele>146.0861</ele>
        <time>2010-11-28T13:26:06Z</time>
      </trkpt>
      <trkpt lat="46.294" lon="-0.17926">
        <ele>146.1611</ele>
        <time>2010-11-28T13:26:07Z</time>
      </trkpt>
      <trkpt lat="46.29401" lon="-0.17925">
        <ele>146.2368</ele>
        <time>2010-11-28T13:26:08Z</time>
      </trkpt>
      <trkpt lat="46.29401" lon="-0.17922">
        <ele>146.4572</ele>
        <time>2010-11-28T13:26:13Z</time>
      </trkpt>
      <trkpt lat="46.29402" lon="-0.17921">
        <ele>146.5213</ele>
        <time>2010-11-28T13:26:14Z</time>
      </trkpt>
      <trkpt lat="46.29402" lon="-0.1792">
        <ele>146.5853</ele>
        <time>2010-11-28T13:26:15Z</time>
      </trkpt>
      <trkpt lat="46.29402" lon="-0.17918">
        <ele>146.6486</ele>
        <time>2010-11-28T13:26:16Z</time>
      </trkpt>
      <trkpt lat="46.29403" lon="-0.17917">
        <ele>146.7101</ele>
        <time>2010-11-28T13:26:17Z</time>
      </trkpt>
      <trkpt lat="46.29403" lon="-0.17916">
        <ele>146.7604</ele>
        <time>2010-11-28T13:26:18Z</time>
      </trkpt>
      <trkpt lat="46.29403" lon="-0.17915">
        <ele>146.8066</ele>
        <time>2010-11-28T13:26:19Z</time>
      </trkpt>
      <trkpt lat="46.29403" lon="-0.17914">
        <ele>146.8468</ele>
        <time>2010-11-28T13:26:20Z</time>
      </trkpt>
      <trkpt lat="46.29403" lon="-0.17912">
        <ele>146.8824</ele>
        <time>2010-11-28T13:26:21Z</time>
      </trkpt>
      <trkpt lat="46.29403" lon="-0.17911">
        <ele>146.9157</ele>
        <time>2010-11-28T13:26:22Z</time>
      </trkpt>
      <trkpt lat="46.29405" lon="-0.17912">
        <ele>146.8875</ele>
        <time>2010-11-28T13:26:32Z</time>
      </trkpt>
      <trkpt lat="46.29406" lon="-0.17911">
        <ele>146.851</ele>
        <time>2010-11-28T13:26:33Z</time>
      </trkpt>
      <trkpt lat="46.29406" lon="-0.1791">
        <ele>146.8059</ele>
        <time>2010-11-28T13:26:34Z</time>
      </trkpt>
      <trkpt lat="46.29406" lon="-0.17909">
        <ele>146.7516</ele>
        <time>2010-11-28T13:26:35Z</time>
      </trkpt>
      <trkpt lat="46.29407" lon="-0.17907">
        <ele>146.6903</ele>
        <time>2010-11-28T13:26:36Z</time>
      </trkpt>
      <trkpt lat="46.29407" lon="-0.17906">
        <ele>146.6241</ele>
        <time>2010-11-28T13:26:37Z</time>
      </trkpt>
      <trkpt lat="46.29407" lon="-0.17905">
        <ele>146.5669</ele>
        <time>2010-11-28T13:26:38Z</time>
      </trkpt>
      <trkpt lat="46.29408" lon="-0.17905">
        <ele>146.5217</ele>
        <time>2010-11-28T13:26:39Z</time>
      </trkpt>
      <trkpt lat="46.29409" lon="-0.17907">
        <ele>147.174</ele>
        <time>2010-11-28T13:28:15Z</time>
      </trkpt>
      <trkpt lat="46.29409" lon="-0.17906">
        <ele>147.234</ele>
        <time>2010-11-28T13:28:16Z</time>
      </trkpt>
      <trkpt lat="46.29409" lon="-0.17904">
        <ele>147.2771</ele>
        <time>2010-11-28T13:28:17Z</time>
      </trkpt>
      <trkpt lat="46.29409" lon="-0.17902">
        <ele>147.3104</ele>
        <time>2010-11-28T13:28:18Z</time>
      </trkpt>
      <trkpt lat="46.29408" lon="-0.17901">
        <ele>147.3383</ele>
        <time>2010-11-28T13:28:19Z</time>
      </trkpt>
      <trkpt lat="46.29408" lon="-0.17899">
        <ele>147.4061</ele>
        <time>2010-11-28T13:28:23Z</time>
      </trkpt>
      <trkpt lat="46.29409" lon="-0.17898">
        <ele>147.4417</ele>
        <time>2010-11-28T13:28:24Z</time>
      </trkpt>
      <trkpt lat="46.29409" lon="-0.17897">
        <ele>147.4781</ele>
        <time>2010-11-28T13:28:25Z</time>
      </trkpt>
      <trkpt lat="46.29409" lon="-0.17896">
        <ele>147.5178</ele>
        <time>2010-11-28T13:28:26Z</time>
      </trkpt>
      <trkpt lat="46.2941" lon="-0.17894">
        <ele>147.5551</ele>
        <time>2010-11-28T13:28:27Z</time>
      </trkpt>
      <trkpt lat="46.2941" lon="-0.17893">
        <ele>147.5949</ele>
        <time>2010-11-28T13:28:28Z</time>
      </trkpt>
      <trkpt lat="46.2941" lon="-0.17891">
        <ele>147.6326</ele>
        <time>2010-11-28T13:28:29Z</time>
      </trkpt>
      <trkpt lat="46.2941" lon="-0.1789">
        <ele>147.6708</ele>
        <time>2010-11-28T13:28:30Z</time>
      </trkpt>
      <trkpt lat="46.2941" lon="-0.17888">
        <ele>147.7066</ele>
        <time>2010-11-28T13:28:31Z</time>
      </trkpt>
      <trkpt lat="46.2941" lon="-0.17886">
        <ele>147.7442</ele>
        <time>2010-11-28T13:28:32Z</time>
      </trkpt>
      <trkpt lat="46.2941" lon="-0.17885">
        <ele>147.7786</ele>
        <time>2010-11-28T13:28:33Z</time>
      </trkpt>
      <trkpt lat="46.29411" lon="-0.17883">
        <ele>147.8098</ele>
        <time>2010-11-28T13:28:34Z</time>
      </trkpt>
      <trkpt lat="46.29411" lon="-0.17881">
        <ele>147.8384</ele>
        <time>2010-11-28T13:28:35Z</time>
      </trkpt>
      <trkpt lat="46.29411" lon="-0.17879">
        <ele>147.8662</ele>
        <time>2010-11-28T13:28:36Z</time>
      </trkpt>
      <trkpt lat="46.29411" lon="-0.17877">
        <ele>147.887</ele>
        <time>2010-11-28T13:28:37Z</time>
      </trkpt>
      <trkpt lat="46.29411" lon="-0.17876">
        <ele>147.9024</ele>
        <time>2010-11-28T13:28:38Z</time>
      </trkpt>
      <trkpt lat="46.29411" lon="-0.17874">
        <ele>147.9154</ele>
        <time>2010-11-28T13:28:39Z</time>
      </trkpt>
      <trkpt lat="46.29411" lon="-0.17872">
        <ele>147.9271</ele>
        <time>2010-11-28T13:28:40Z</time>
      </trkpt>
      <trkpt lat="46.29411" lon="-0.1787">
        <ele>147.9369</ele>
        <time>2010-11-28T13:28:41Z</time>
      </trkpt>
      <trkpt lat="46.29411" lon="-0.17869">
        <ele>147.9418</ele>
        <time>2010-11-28T13:28:42Z</time>
      </trkpt>
      <trkpt lat="46.29411" lon="-0.17867">
        <ele>147.9462</ele>
        <time>2010-11-28T13:28:43Z</time>
      </trkpt>
      <trkpt lat="46.29411" lon="-0.17865">
        <ele>147.9472</ele>
        <time>2010-11-28T13:28:44Z</time>
      </trkpt>
      <trkpt lat="46.29411" lon="-0.17864">
        <ele>147.9476</ele>
        <time>2010-11-28T13:28:45Z</time>
      </trkpt>
      <trkpt lat="46.29411" lon="-0.17862">
        <ele>147.9476</ele>
        <time>2010-11-28T13:28:46Z</time>
      </trkpt>
      <trkpt lat="46.29411" lon="-0.1786">
        <ele>147.9492</ele>
        <time>2010-11-28T13:28:47Z</time>
      </trkpt>
      <trkpt lat="46.29412" lon="-0.17859">
        <ele>147.9495</ele>
        <time>2010-11-28T13:28:48Z</time>
      </trkpt>
      <trkpt lat="46.29412" lon="-0.17858">
        <ele>147.9503</ele>
        <time>2010-11-28T13:28:49Z</time>
      </trkpt>
      <trkpt lat="46.29412" lon="-0.17856">
        <ele>147.9498</ele>
        <time>2010-11-28T13:28:50Z</time>
      </trkpt>
      <trkpt lat="46.29412" lon="-0.17854">
        <ele>147.9472</ele>
        <time>2010-11-28T13:28:51Z</time>
      </trkpt>
      <trkpt lat="46.29413" lon="-0.17853">
        <ele>147.9429</ele>
        <time>2010-11-28T13:28:52Z</time>
      </trkpt>
      <trkpt lat="46.29413" lon="-0.17851">
        <ele>147.9371</ele>
        <time>2010-11-28T13:28:53Z</time>
      </trkpt>
      <trkpt lat="46.29413" lon="-0.17852">
        <ele>147.9247</ele>
        <time>2010-11-28T13:28:54Z</time>
      </trkpt>
      <trkpt lat="46.29412" lon="-0.17849">
        <ele>147.7992</ele>
        <time>2010-11-28T13:29:17Z</time>
      </trkpt>
      <trkpt lat="46.29412" lon="-0.17847">
        <ele>147.81</ele>
        <time>2010-11-28T13:29:18Z</time>
      </trkpt>
      <trkpt lat="46.29413" lon="-0.17846">
        <ele>147.8267</ele>
        <time>2010-11-28T13:29:19Z</time>
      </trkpt>
      <trkpt lat="46.29413" lon="-0.17845">
        <ele>147.8438</ele>
        <time>2010-11-28T13:29:20Z</time>
      </trkpt>
      <trkpt lat="46.29413" lon="-0.17845">
        <ele>147.8721</ele>
        <time>2010-11-28T13:29:21Z</time>
      </trkpt>
      <trkpt lat="46.29413" lon="-0.17842">
        <ele>148.1917</ele>
        <time>2010-11-28T13:29:50Z</time>
      </trkpt>
      <trkpt lat="46.29413" lon="-0.17842">
        <ele>148.2231</ele>
        <time>2010-11-28T13:29:51Z</time>
      </trkpt>
      <trkpt lat="46.29413" lon="-0.17841">
        <ele>148.2575</ele>
        <time>2010-11-28T13:29:52Z</time>
      </trkpt>
      <trkpt lat="46.29413" lon="-0.1784">
        <ele>148.291</ele>
        <time>2010-11-28T13:29:53Z</time>
      </trkpt>
      <trkpt lat="46.29413" lon="-0.17839">
        <ele>148.3225</ele>
        <time>2010-11-28T13:29:54Z</time>
      </trkpt>
      <trkpt lat="46.29413" lon="-0.17838">
        <ele>148.3503</ele>
        <time>2010-11-28T13:29:55Z</time>
      </trkpt>
      <trkpt lat="46.29413" lon="-0.17837">
        <ele>148.3737</ele>
        <time>2010-11-28T13:29:56Z</time>
      </trkpt>
      <trkpt lat="46.29413" lon="-0.17836">
        <ele>148.3946</ele>
        <time>2010-11-28T13:29:57Z</time>
      </trkpt>
      <trkpt lat="46.29413" lon="-0.17836">
        <ele>148.4224</ele>
        <time>2010-11-28T13:29:58Z</time>
      </trkpt>
      <trkpt lat="46.29415" lon="-0.17836">
        <ele>148.5352</ele>
        <time>2010-11-28T13:30:19Z</time>
      </trkpt>
      <trkpt lat="46.29415" lon="-0.17833">
        <ele>148.5779</ele>
        <time>2010-11-28T13:30:20Z</time>
      </trkpt>
      <trkpt lat="46.29415" lon="-0.17831">
        <ele>148.6191</ele>
        <time>2010-11-28T13:30:21Z</time>
      </trkpt>
      <trkpt lat="46.29415" lon="-0.17829">
        <ele>148.6584</ele>
        <time>2010-11-28T13:30:22Z</time>
      </trkpt>
      <trkpt lat="46.29416" lon="-0.17827">
        <ele>148.6985</ele>
        <time>2010-11-28T13:30:23Z</time>
      </trkpt>
      <trkpt lat="46.29416" lon="-0.17825">
        <ele>148.7383</ele>
        <time>2010-11-28T13:30:24Z</time>
      </trkpt>
      <trkpt lat="46.29416" lon="-0.17823">
        <ele>148.7794</ele>
        <time>2010-11-28T13:30:25Z</time>
      </trkpt>
      <trkpt lat="46.29415" lon="-0.17823">
        <ele>148.8822</ele>
        <time>2010-11-28T13:30:33Z</time>
      </trkpt>
      <trkpt lat="46.29414" lon="-0.17821">
        <ele>148.9496</ele>
        <time>2010-11-28T13:30:34Z</time>
      </trkpt>
      <trkpt lat="46.29414" lon="-0.1782">
        <ele>149.017</ele>
        <time>2010-11-28T13:30:35Z</time>
      </trkpt>
      <trkpt lat="46.29414" lon="-0.17818">
        <ele>149.0853</ele>
        <time>2010-11-28T13:30:36Z</time>
      </trkpt>
      <trkpt lat="46.29414" lon="-0.17817">
        <ele>149.1539</ele>
        <time>2010-11-28T13:30:37Z</time>
      </trkpt>
      <trkpt lat="46.29414" lon="-0.17817">
        <ele>149.2237</ele>
        <time>2010-11-28T13:30:38Z</time>
      </trkpt>
      <trkpt lat="46.29414" lon="-0.17816">
        <ele>149.2954</ele>
        <time>2010-11-28T13:30:39Z</time>
      </trkpt>
      <trkpt lat="46.29414" lon="-0.17815">
        <ele>149.3652</ele>
        <time>2010-11-28T13:30:40Z</time>
      </trkpt>
      <trkpt lat="46.29413" lon="-0.17814">
        <ele>149.4344</ele>
        <time>2010-11-28T13:30:41Z</time>
      </trkpt>
      <trkpt lat="46.29413" lon="-0.17813">
        <ele>149.5029</ele>
        <time>2010-11-28T13:30:42Z</time>
      </trkpt>
      <trkpt lat="46.29413" lon="-0.17811">
        <ele>149.5712</ele>
        <time>2010-11-28T13:30:43Z</time>
      </trkpt>
      <trkpt lat="46.29413" lon="-0.1781">
        <ele>149.6393</ele>
        <time>2010-11-28T13:30:44Z</time>
      </trkpt>
      <trkpt lat="46.29413" lon="-0.17808">
        <ele>149.7068</ele>
        <time>2010-11-28T13:30:45Z</time>
      </trkpt>
      <trkpt lat="46.29412" lon="-0.17806">
        <ele>149.7728</ele>
        <time>2010-11-28T13:30:46Z</time>
      </trkpt>
      <trkpt lat="46.29413" lon="-0.17804">
        <ele>149.837</ele>
        <time>2010-11-28T13:30:47Z</time>
      </trkpt>
      <trkpt lat="46.29413" lon="-0.17803">
        <ele>149.8987</ele>
        <time>2010-11-28T13:30:48Z</time>
      </trkpt>
      <trkpt lat="46.29413" lon="-0.17801">
        <ele>149.9579</ele>
        <time>2010-11-28T13:30:49Z</time>
      </trkpt>
      <trkpt lat="46.29413" lon="-0.17799">
        <ele>150.0156</ele>
        <time>2010-11-28T13:30:50Z</time>
      </trkpt>
      <trkpt lat="46.29412" lon="-0.17798">
        <ele>150.0724</ele>
        <time>2010-11-28T13:30:51Z</time>
      </trkpt>
      <trkpt lat="46.29412" lon="-0.17796">
        <ele>150.1305</ele>
        <time>2010-11-28T13:30:52Z</time>
      </trkpt>
      <trkpt lat="46.29412" lon="-0.17795">
        <ele>150.1888</ele>
        <time>2010-11-28T13:30:53Z</time>
      </trkpt>
      <trkpt lat="46.29412" lon="-0.17793">
        <ele>150.2462</ele>
        <time>2010-11-28T13:30:54Z</time>
      </trkpt>
      <trkpt lat="46.29411" lon="-0.17792">
        <ele>150.3034</ele>
        <time>2010-11-28T13:30:55Z</time>
      </trkpt>
      <trkpt lat="46.29411" lon="-0.17791">
        <ele>150.3583</ele>
        <time>2010-11-28T13:30:56Z</time>
      </trkpt>
      <trkpt lat="46.29411" lon="-0.1779">
        <ele>150.413</ele>
        <time>2010-11-28T13:30:57Z</time>
      </trkpt>
      <trkpt lat="46.29411" lon="-0.17789">
        <ele>150.466</ele>
        <time>2010-11-28T13:30:58Z</time>
      </trkpt>
      <trkpt lat="46.29411" lon="-0.17788">
        <ele>150.514</ele>
        <time>2010-11-28T13:30:59Z</time>
      </trkpt>
      <trkpt lat="46.29411" lon="-0.17787">
        <ele>150.5614</ele>
        <time>2010-11-28T13:31:00Z</time>
      </trkpt>
      <trkpt lat="46.2941" lon="-0.17785">
        <ele>150.6085</ele>
        <time>2010-11-28T13:31:01Z</time>
      </trkpt>
      <trkpt lat="46.2941" lon="-0.17784">
        <ele>150.654</ele>
        <time>2010-11-28T13:31:02Z</time>
      </trkpt>
      <trkpt lat="46.2941" lon="-0.17783">
        <ele>150.7004</ele>
        <time>2010-11-28T13:31:03Z</time>
      </trkpt>
      <trkpt lat="46.29409" lon="-0.17781">
        <ele>150.7464</ele>
        <time>2010-11-28T13:31:04Z</time>
      </trkpt>
      <trkpt lat="46.29409" lon="-0.1778">
        <ele>150.7875</ele>
        <time>2010-11-28T13:31:05Z</time>
      </trkpt>
      <trkpt lat="46.29409" lon="-0.17778">
        <ele>150.8255</ele>
        <time>2010-11-28T13:31:06Z</time>
      </trkpt>
      <trkpt lat="46.29409" lon="-0.17777">
        <ele>150.8624</ele>
        <time>2010-11-28T13:31:07Z</time>
      </trkpt>
      <trkpt lat="46.29408" lon="-0.17775">
        <ele>150.8995</ele>
        <time>2010-11-28T13:31:08Z</time>
      </trkpt>
      <trkpt lat="46.29408" lon="-0.17774">
        <ele>150.9366</ele>
        <time>2010-11-28T13:31:09Z</time>
      </trkpt>
      <trkpt lat="46.29408" lon="-0.17772">
        <ele>150.9366</ele>
        <time>2010-11-28T13:31:10Z</time>
      </trkpt>
      <trkpt lat="46.29407" lon="-0.1777">
        <ele>150.9715</ele>
        <time>2010-11-28T13:31:11Z</time>
      </trkpt>
      <trkpt lat="46.29407" lon="-0.17768">
        <ele>150.9922</ele>
        <time>2010-11-28T13:31:12Z</time>
      </trkpt>
      <trkpt lat="46.29406" lon="-0.17767">
        <ele>151.0063</ele>
        <time>2010-11-28T13:31:13Z</time>
      </trkpt>
      <trkpt lat="46.29406" lon="-0.17765">
        <ele>151.0218</ele>
        <time>2010-11-28T13:31:14Z</time>
      </trkpt>
      <trkpt lat="46.29406" lon="-0.17764">
        <ele>151.0396</ele>
        <time>2010-11-28T13:31:15Z</time>
      </trkpt>
      <trkpt lat="46.29405" lon="-0.17762">
        <ele>151.0614</ele>
        <time>2010-11-28T13:31:16Z</time>
      </trkpt>
      <trkpt lat="46.29405" lon="-0.17761">
        <ele>151.0855</ele>
        <time>2010-11-28T13:31:17Z</time>
      </trkpt>
      <trkpt lat="46.29405" lon="-0.17761">
        <ele>151.1087</ele>
        <time>2010-11-28T13:31:18Z</time>
      </trkpt>
      <trkpt lat="46.29405" lon="-0.1776">
        <ele>151.1298</ele>
        <time>2010-11-28T13:31:19Z</time>
      </trkpt>
      <trkpt lat="46.29405" lon="-0.1776">
        <ele>151.1564</ele>
        <time>2010-11-28T13:31:21Z</time>
      </trkpt>
      <trkpt lat="46.29405" lon="-0.17759">
        <ele>151.1817</ele>
        <time>2010-11-28T13:31:22Z</time>
      </trkpt>
      <trkpt lat="46.29405" lon="-0.17758">
        <ele>151.2089</ele>
        <time>2010-11-28T13:31:23Z</time>
      </trkpt>
      <trkpt lat="46.29404" lon="-0.17757">
        <ele>151.2387</ele>
        <time>2010-11-28T13:31:24Z</time>
      </trkpt>
      <trkpt lat="46.29404" lon="-0.17756">
        <ele>151.2722</ele>
        <time>2010-11-28T13:31:25Z</time>
      </trkpt>
      <trkpt lat="46.29404" lon="-0.17754">
        <ele>151.3047</ele>
        <time>2010-11-28T13:31:26Z</time>
      </trkpt>
      <trkpt lat="46.29404" lon="-0.17753">
        <ele>151.3359</ele>
        <time>2010-11-28T13:31:27Z</time>
      </trkpt>
      <trkpt lat="46.29404" lon="-0.17751">
        <ele>151.3676</ele>
        <time>2010-11-28T13:31:28Z</time>
      </trkpt>
      <trkpt lat="46.29403" lon="-0.1775">
        <ele>151.4014</ele>
        <time>2010-11-28T13:31:29Z</time>
      </trkpt>
      <trkpt lat="46.29403" lon="-0.17748">
        <ele>151.4343</ele>
        <time>2010-11-28T13:31:30Z</time>
      </trkpt>
      <trkpt lat="46.29403" lon="-0.17747">
        <ele>151.4656</ele>
        <time>2010-11-28T13:31:31Z</time>
      </trkpt>
      <trkpt lat="46.29403" lon="-0.17745">
        <ele>151.5</ele>
        <time>2010-11-28T13:31:32Z</time>
      </trkpt>
      <trkpt lat="46.29402" lon="-0.17744">
        <ele>151.5347</ele>
        <time>2010-11-28T13:31:33Z</time>
      </trkpt>
      <trkpt lat="46.29402" lon="-0.17742">
        <ele>151.5749</ele>
        <time>2010-11-28T13:31:34Z</time>
      </trkpt>
      <trkpt lat="46.29401" lon="-0.17741">
        <ele>151.6215</ele>
        <time>2010-11-28T13:31:35Z</time>
      </trkpt>
      <trkpt lat="46.29401" lon="-0.17739">
        <ele>151.6677</ele>
        <time>2010-11-28T13:31:36Z</time>
      </trkpt>
      <trkpt lat="46.29401" lon="-0.17738">
        <ele>151.7139</ele>
        <time>2010-11-28T13:31:37Z</time>
      </trkpt>
      <trkpt lat="46.294" lon="-0.17736">
        <ele>151.7623</ele>
        <time>2010-11-28T13:31:38Z</time>
      </trkpt>
      <trkpt lat="46.294" lon="-0.17735">
        <ele>151.8114</ele>
        <time>2010-11-28T13:31:39Z</time>
      </trkpt>
      <trkpt lat="46.294" lon="-0.17733">
        <ele>151.8593</ele>
        <time>2010-11-28T13:31:40Z</time>
      </trkpt>
      <trkpt lat="46.294" lon="-0.17732">
        <ele>151.9056</ele>
        <time>2010-11-28T13:31:41Z</time>
      </trkpt>
      <trkpt lat="46.294" lon="-0.1773">
        <ele>151.9513</ele>
        <time>2010-11-28T13:31:42Z</time>
      </trkpt>
      <trkpt lat="46.294" lon="-0.17729">
        <ele>151.9997</ele>
        <time>2010-11-28T13:31:43Z</time>
      </trkpt>
      <trkpt lat="46.29399" lon="-0.17728">
        <ele>152.0544</ele>
        <time>2010-11-28T13:31:44Z</time>
      </trkpt>
      <trkpt lat="46.29399" lon="-0.17727">
        <ele>152.1092</ele>
        <time>2010-11-28T13:31:45Z</time>
      </trkpt>
      <trkpt lat="46.29399" lon="-0.17726">
        <ele>152.1675</ele>
        <time>2010-11-28T13:31:46Z</time>
      </trkpt>
      <trkpt lat="46.29399" lon="-0.17725">
        <ele>152.2259</ele>
        <time>2010-11-28T13:31:47Z</time>
      </trkpt>
      <trkpt lat="46.29399" lon="-0.17724">
        <ele>152.2842</ele>
        <time>2010-11-28T13:31:48Z</time>
      </trkpt>
      <trkpt lat="46.29398" lon="-0.17723">
        <ele>152.3434</ele>
        <time>2010-11-28T13:31:49Z</time>
      </trkpt>
      <trkpt lat="46.29398" lon="-0.17722">
        <ele>152.4005</ele>
        <time>2010-11-28T13:31:50Z</time>
      </trkpt>
      <trkpt lat="46.29398" lon="-0.17721">
        <ele>152.4583</ele>
        <time>2010-11-28T13:31:51Z</time>
      </trkpt>
      <trkpt lat="46.29398" lon="-0.17719">
        <ele>152.5173</ele>
        <time>2010-11-28T13:31:52Z</time>
      </trkpt>
      <trkpt lat="46.29398" lon="-0.17718">
        <ele>152.5173</ele>
        <time>2010-11-28T13:31:53Z</time>
      </trkpt>
      <trkpt lat="46.29398" lon="-0.17718">
        <ele>152.5742</ele>
        <time>2010-11-28T13:31:54Z</time>
      </trkpt>
      <trkpt lat="46.29398" lon="-0.17717">
        <ele>152.6211</ele>
        <time>2010-11-28T13:31:55Z</time>
      </trkpt>
      <trkpt lat="46.29398" lon="-0.17716">
        <ele>152.6793</ele>
        <time>2010-11-28T13:31:56Z</time>
      </trkpt>
      <trkpt lat="46.29398" lon="-0.1771">
        <ele>152.9016</ele>
        <time>2010-11-28T13:32:01Z</time>
      </trkpt>
      <trkpt lat="46.29397" lon="-0.17708">
        <ele>153.0015</ele>
        <time>2010-11-28T13:32:02Z</time>
      </trkpt>
      <trkpt lat="46.29397" lon="-0.17707">
        <ele>153.0968</ele>
        <time>2010-11-28T13:32:03Z</time>
      </trkpt>
      <trkpt lat="46.29396" lon="-0.17702">
        <ele>153.642</ele>
        <time>2010-11-28T13:32:29Z</time>
      </trkpt>
      <trkpt lat="46.29397" lon="-0.17701">
        <ele>153.7181</ele>
        <time>2010-11-28T13:32:30Z</time>
      </trkpt>
      <trkpt lat="46.29397" lon="-0.17699">
        <ele>153.778</ele>
        <time>2010-11-28T13:32:31Z</time>
      </trkpt>
      <trkpt lat="46.29398" lon="-0.17698">
        <ele>153.8288</ele>
        <time>2010-11-28T13:32:32Z</time>
      </trkpt>
      <trkpt lat="46.29399" lon="-0.17698">
        <ele>153.8578</ele>
        <time>2010-11-28T13:32:35Z</time>
      </trkpt>
      <trkpt lat="46.294" lon="-0.17697">
        <ele>153.8752</ele>
        <time>2010-11-28T13:32:36Z</time>
      </trkpt>
      <trkpt lat="46.294" lon="-0.17697">
        <ele>153.8903</ele>
        <time>2010-11-28T13:32:37Z</time>
      </trkpt>
      <trkpt lat="46.29401" lon="-0.17697">
        <ele>153.9024</ele>
        <time>2010-11-28T13:32:38Z</time>
      </trkpt>
      <trkpt lat="46.29401" lon="-0.17697">
        <ele>153.913</ele>
        <time>2010-11-28T13:32:39Z</time>
      </trkpt>
      <trkpt lat="46.29402" lon="-0.17698">
        <ele>153.9223</ele>
        <time>2010-11-28T13:32:40Z</time>
      </trkpt>
      <trkpt lat="46.29403" lon="-0.17698">
        <ele>153.9302</ele>
        <time>2010-11-28T13:32:41Z</time>
      </trkpt>
      <trkpt lat="46.29404" lon="-0.17698">
        <ele>153.9346</ele>
        <time>2010-11-28T13:32:42Z</time>
      </trkpt>
      <trkpt lat="46.29404" lon="-0.17699">
        <ele>153.9423</ele>
        <time>2010-11-28T13:32:43Z</time>
      </trkpt>
      <trkpt lat="46.29405" lon="-0.17699">
        <ele>153.9474</ele>
        <time>2010-11-28T13:32:44Z</time>
      </trkpt>
      <trkpt lat="46.29406" lon="-0.177">
        <ele>153.9463</ele>
        <time>2010-11-28T13:32:45Z</time>
      </trkpt>
      <trkpt lat="46.29407" lon="-0.177">
        <ele>153.9373</ele>
        <time>2010-11-28T13:32:46Z</time>
      </trkpt>
      <trkpt lat="46.29408" lon="-0.177">
        <ele>153.9232</ele>
        <time>2010-11-28T13:32:47Z</time>
      </trkpt>
      <trkpt lat="46.29409" lon="-0.177">
        <ele>153.9043</ele>
        <time>2010-11-28T13:32:48Z</time>
      </trkpt>
      <trkpt lat="46.29409" lon="-0.17701">
        <ele>153.8825</ele>
        <time>2010-11-28T13:32:49Z</time>
      </trkpt>
      <trkpt lat="46.2941" lon="-0.17701">
        <ele>153.8546</ele>
        <time>2010-11-28T13:32:50Z</time>
      </trkpt>
      <trkpt lat="46.29411" lon="-0.17701">
        <ele>153.822</ele>
        <time>2010-11-28T13:32:51Z</time>
      </trkpt>
      <trkpt lat="46.29411" lon="-0.17702">
        <ele>153.7887</ele>
        <time>2010-11-28T13:32:52Z</time>
      </trkpt>
      <trkpt lat="46.29413" lon="-0.17702">
        <ele>153.7558</ele>
        <time>2010-11-28T13:32:53Z</time>
      </trkpt>
      <trkpt lat="46.29413" lon="-0.17703">
        <ele>153.7186</ele>
        <time>2010-11-28T13:32:54Z</time>
      </trkpt>
      <trkpt lat="46.29414" lon="-0.17703">
        <ele>153.6818</ele>
        <time>2010-11-28T13:32:55Z</time>
      </trkpt>
      <trkpt lat="46.29414" lon="-0.17703">
        <ele>153.6419</ele>
        <time>2010-11-28T13:32:56Z</time>
      </trkpt>
      <trkpt lat="46.29415" lon="-0.17703">
        <ele>153.5882</ele>
        <time>2010-11-28T13:32:57Z</time>
      </trkpt>
      <trkpt lat="46.2942" lon="-0.17705">
        <ele>153.5454</ele>
        <time>2010-11-28T13:33:03Z</time>
      </trkpt>
      <trkpt lat="46.29421" lon="-0.17705">
        <ele>153.4726</ele>
        <time>2010-11-28T13:33:04Z</time>
      </trkpt>
      <trkpt lat="46.29422" lon="-0.17706">
        <ele>153.4018</ele>
        <time>2010-11-28T13:33:05Z</time>
      </trkpt>
      <trkpt lat="46.29424" lon="-0.17707">
        <ele>153.3338</ele>
        <time>2010-11-28T13:33:06Z</time>
      </trkpt>
      <trkpt lat="46.29425" lon="-0.17708">
        <ele>153.2625</ele>
        <time>2010-11-28T13:33:07Z</time>
      </trkpt>
      <trkpt lat="46.29426" lon="-0.17708">
        <ele>153.1927</ele>
        <time>2010-11-28T13:33:08Z</time>
      </trkpt>
      <trkpt lat="46.29427" lon="-0.17708">
        <ele>153.1277</ele>
        <time>2010-11-28T13:33:09Z</time>
      </trkpt>
      <trkpt lat="46.29429" lon="-0.17709">
        <ele>153.0625</ele>
        <time>2010-11-28T13:33:10Z</time>
      </trkpt>
      <trkpt lat="46.2943" lon="-0.17709">
        <ele>152.9986</ele>
        <time>2010-11-28T13:33:11Z</time>
      </trkpt>
      <trkpt lat="46.29431" lon="-0.17709">
        <ele>152.9374</ele>
        <time>2010-11-28T13:33:12Z</time>
      </trkpt>
      <trkpt lat="46.29432" lon="-0.17709">
        <ele>152.873</ele>
        <time>2010-11-28T13:33:13Z</time>
      </trkpt>
      <trkpt lat="46.29433" lon="-0.17709">
        <ele>152.8083</ele>
        <time>2010-11-28T13:33:14Z</time>
      </trkpt>
      <trkpt lat="46.29434" lon="-0.1771">
        <ele>152.7451</ele>
        <time>2010-11-28T13:33:15Z</time>
      </trkpt>
      <trkpt lat="46.29435" lon="-0.1771">
        <ele>152.6834</ele>
        <time>2010-11-28T13:33:16Z</time>
      </trkpt>
      <trkpt lat="46.29436" lon="-0.1771">
        <ele>152.6216</ele>
        <time>2010-11-28T13:33:17Z</time>
      </trkpt>
      <trkpt lat="46.29437" lon="-0.17711">
        <ele>152.5634</ele>
        <time>2010-11-28T13:33:18Z</time>
      </trkpt>
      <trkpt lat="46.29437" lon="-0.17711">
        <ele>152.5076</ele>
        <time>2010-11-28T13:33:19Z</time>
      </trkpt>
      <trkpt lat="46.29438" lon="-0.17711">
        <ele>152.45</ele>
        <time>2010-11-28T13:33:20Z</time>
      </trkpt>
      <trkpt lat="46.29439" lon="-0.17711">
        <ele>152.3882</ele>
        <time>2010-11-28T13:33:21Z</time>
      </trkpt>
      <trkpt lat="46.2944" lon="-0.17711">
        <ele>152.3262</ele>
        <time>2010-11-28T13:33:22Z</time>
      </trkpt>
      <trkpt lat="46.2944" lon="-0.17712">
        <ele>152.2653</ele>
        <time>2010-11-28T13:33:23Z</time>
      </trkpt>
      <trkpt lat="46.29441" lon="-0.17712">
        <ele>152.2078</ele>
        <time>2010-11-28T13:33:24Z</time>
      </trkpt>
      <trkpt lat="46.29442" lon="-0.17712">
        <ele>152.1506</ele>
        <time>2010-11-28T13:33:25Z</time>
      </trkpt>
      <trkpt lat="46.29443" lon="-0.17712">
        <ele>152.1009</ele>
        <time>2010-11-28T13:33:26Z</time>
      </trkpt>
      <trkpt lat="46.29443" lon="-0.17713">
        <ele>152.0502</ele>
        <time>2010-11-28T13:33:27Z</time>
      </trkpt>
      <trkpt lat="46.29444" lon="-0.17713">
        <ele>151.9977</ele>
        <time>2010-11-28T13:33:28Z</time>
      </trkpt>
      <trkpt lat="46.29445" lon="-0.17713">
        <ele>151.9451</ele>
        <time>2010-11-28T13:33:29Z</time>
      </trkpt>
      <trkpt lat="46.29446" lon="-0.17713">
        <ele>151.8905</ele>
        <time>2010-11-28T13:33:30Z</time>
      </trkpt>
      <trkpt lat="46.29446" lon="-0.17713">
        <ele>151.8352</ele>
        <time>2010-11-28T13:33:31Z</time>
      </trkpt>
      <trkpt lat="46.29447" lon="-0.17713">
        <ele>151.7819</ele>
        <time>2010-11-28T13:33:32Z</time>
      </trkpt>
      <trkpt lat="46.29447" lon="-0.17713">
        <ele>151.7235</ele>
        <time>2010-11-28T13:33:33Z</time>
      </trkpt>
      <trkpt lat="46.29448" lon="-0.17713">
        <ele>151.6643</ele>
        <time>2010-11-28T13:33:34Z</time>
      </trkpt>
      <trkpt lat="46.29449" lon="-0.17713">
        <ele>151.6052</ele>
        <time>2010-11-28T13:33:35Z</time>
      </trkpt>
      <trkpt lat="46.2945" lon="-0.17714">
        <ele>151.5467</ele>
        <time>2010-11-28T13:33:36Z</time>
      </trkpt>
      <trkpt lat="46.2945" lon="-0.17714">
        <ele>151.4892</ele>
        <time>2010-11-28T13:33:37Z</time>
      </trkpt>
      <trkpt lat="46.29451" lon="-0.17715">
        <ele>151.4299</ele>
        <time>2010-11-28T13:33:38Z</time>
      </trkpt>
      <trkpt lat="46.29452" lon="-0.17715">
        <ele>151.3737</ele>
        <time>2010-11-28T13:33:39Z</time>
      </trkpt>
      <trkpt lat="46.29453" lon="-0.17715">
        <ele>151.3182</ele>
        <time>2010-11-28T13:33:40Z</time>
      </trkpt>
      <trkpt lat="46.29454" lon="-0.17715">
        <ele>151.2622</ele>
        <time>2010-11-28T13:33:41Z</time>
      </trkpt>
      <trkpt lat="46.29455" lon="-0.17716">
        <ele>151.2054</ele>
        <time>2010-11-28T13:33:42Z</time>
      </trkpt>
      <trkpt lat="46.29457" lon="-0.17716">
        <ele>151.1396</ele>
        <time>2010-11-28T13:33:43Z</time>
      </trkpt>
      <trkpt lat="46.29458" lon="-0.17716">
        <ele>151.0727</ele>
        <time>2010-11-28T13:33:44Z</time>
      </trkpt>
      <trkpt lat="46.29459" lon="-0.17717">
        <ele>151.0068</ele>
        <time>2010-11-28T13:33:45Z</time>
      </trkpt>
      <trkpt lat="46.2946" lon="-0.17717">
        <ele>150.937</ele>
        <time>2010-11-28T13:33:46Z</time>
      </trkpt>
      <trkpt lat="46.29461" lon="-0.17717">
        <ele>150.8643</ele>
        <time>2010-11-28T13:33:47Z</time>
      </trkpt>
      <trkpt lat="46.29462" lon="-0.17717">
        <ele>150.7874</ele>
        <time>2010-11-28T13:33:48Z</time>
      </trkpt>
      <trkpt lat="46.29464" lon="-0.17717">
        <ele>150.72</ele>
        <time>2010-11-28T13:33:49Z</time>
      </trkpt>
      <trkpt lat="46.29465" lon="-0.17718">
        <ele>150.6643</ele>
        <time>2010-11-28T13:33:50Z</time>
      </trkpt>
      <trkpt lat="46.29467" lon="-0.17718">
        <ele>150.6086</ele>
        <time>2010-11-28T13:33:51Z</time>
      </trkpt>
      <trkpt lat="46.29468" lon="-0.17719">
        <ele>150.555</ele>
        <time>2010-11-28T13:33:52Z</time>
      </trkpt>
      <trkpt lat="46.29469" lon="-0.17719">
        <ele>150.5009</ele>
        <time>2010-11-28T13:33:53Z</time>
      </trkpt>
      <trkpt lat="46.2947" lon="-0.17719">
        <ele>150.4451</ele>
        <time>2010-11-28T13:33:54Z</time>
      </trkpt>
      <trkpt lat="46.29471" lon="-0.1772">
        <ele>150.3951</ele>
        <time>2010-11-28T13:33:55Z</time>
      </trkpt>
      <trkpt lat="46.29472" lon="-0.1772">
        <ele>150.3447</ele>
        <time>2010-11-28T13:33:56Z</time>
      </trkpt>
      <trkpt lat="46.29473" lon="-0.1772">
        <ele>150.2939</ele>
        <time>2010-11-28T13:33:57Z</time>
      </trkpt>
      <trkpt lat="46.29474" lon="-0.17721">
        <ele>150.2425</ele>
        <time>2010-11-28T13:33:58Z</time>
      </trkpt>
      <trkpt lat="46.29474" lon="-0.17721">
        <ele>150.1862</ele>
        <time>2010-11-28T13:33:59Z</time>
      </trkpt>
      <trkpt lat="46.29475" lon="-0.17721">
        <ele>150.1328</ele>
        <time>2010-11-28T13:34:00Z</time>
      </trkpt>
      <trkpt lat="46.29477" lon="-0.17722">
        <ele>150.0851</ele>
        <time>2010-11-28T13:34:01Z</time>
      </trkpt>
      <trkpt lat="46.29477" lon="-0.17722">
        <ele>150.0385</ele>
        <time>2010-11-28T13:34:02Z</time>
      </trkpt>
      <trkpt lat="46.2948" lon="-0.17722">
        <ele>149.9669</ele>
        <time>2010-11-28T13:34:07Z</time>
      </trkpt>
      <trkpt lat="46.29482" lon="-0.17723">
        <ele>149.918</ele>
        <time>2010-11-28T13:34:08Z</time>
      </trkpt>
      <trkpt lat="46.29483" lon="-0.17723">
        <ele>149.8626</ele>
        <time>2010-11-28T13:34:09Z</time>
      </trkpt>
      <trkpt lat="46.29485" lon="-0.17723">
        <ele>149.805</ele>
        <time>2010-11-28T13:34:10Z</time>
      </trkpt>
      <trkpt lat="46.29486" lon="-0.17724">
        <ele>149.7515</ele>
        <time>2010-11-28T13:34:11Z</time>
      </trkpt>
      <trkpt lat="46.2949" lon="-0.17726">
        <ele>149.6215</ele>
        <time>2010-11-28T13:34:17Z</time>
      </trkpt>
      <trkpt lat="46.29492" lon="-0.17727">
        <ele>149.5777</ele>
        <time>2010-11-28T13:34:18Z</time>
      </trkpt>
      <trkpt lat="46.29493" lon="-0.17727">
        <ele>149.5379</ele>
        <time>2010-11-28T13:34:19Z</time>
      </trkpt>
      <trkpt lat="46.29494" lon="-0.17727">
        <ele>149.5013</ele>
        <time>2010-11-28T13:34:20Z</time>
      </trkpt>
      <trkpt lat="46.29495" lon="-0.17727">
        <ele>149.4678</ele>
        <time>2010-11-28T13:34:21Z</time>
      </trkpt>
      <trkpt lat="46.29496" lon="-0.17728">
        <ele>149.4371</ele>
        <time>2010-11-28T13:34:22Z</time>
      </trkpt>
      <trkpt lat="46.29498" lon="-0.17728">
        <ele>149.4006</ele>
        <time>2010-11-28T13:34:25Z</time>
      </trkpt>
      <trkpt lat="46.29498" lon="-0.17728">
        <ele>149.3869</ele>
        <time>2010-11-28T13:34:26Z</time>
      </trkpt>
      <trkpt lat="46.29499" lon="-0.17729">
        <ele>149.373</ele>
        <time>2010-11-28T13:34:27Z</time>
      </trkpt>
      <trkpt lat="46.29501" lon="-0.17729">
        <ele>149.361</ele>
        <time>2010-11-28T13:34:28Z</time>
      </trkpt>
      <trkpt lat="46.29502" lon="-0.17729">
        <ele>149.3478</ele>
        <time>2010-11-28T13:34:29Z</time>
      </trkpt>
      <trkpt lat="46.29503" lon="-0.17729">
        <ele>149.3303</ele>
        <time>2010-11-28T13:34:30Z</time>
      </trkpt>
      <trkpt lat="46.29504" lon="-0.1773">
        <ele>149.3068</ele>
        <time>2010-11-28T13:34:31Z</time>
      </trkpt>
      <trkpt lat="46.29505" lon="-0.1773">
        <ele>149.2784</ele>
        <time>2010-11-28T13:34:32Z</time>
      </trkpt>
      <trkpt lat="46.29506" lon="-0.1773">
        <ele>149.2484</ele>
        <time>2010-11-28T13:34:33Z</time>
      </trkpt>
      <trkpt lat="46.29506" lon="-0.1773">
        <ele>149.2178</ele>
        <time>2010-11-28T13:34:34Z</time>
      </trkpt>
      <trkpt lat="46.29507" lon="-0.1773">
        <ele>149.1862</ele>
        <time>2010-11-28T13:34:35Z</time>
      </trkpt>
      <trkpt lat="46.29508" lon="-0.1773">
        <ele>149.1553</ele>
        <time>2010-11-28T13:34:36Z</time>
      </trkpt>
      <trkpt lat="46.29508" lon="-0.1773">
        <ele>149.124</ele>
        <time>2010-11-28T13:34:37Z</time>
      </trkpt>
      <trkpt lat="46.29509" lon="-0.1773">
        <ele>149.0929</ele>
        <time>2010-11-28T13:34:38Z</time>
      </trkpt>
      <trkpt lat="46.29509" lon="-0.1773">
        <ele>149.0621</ele>
        <time>2010-11-28T13:34:39Z</time>
      </trkpt>
      <trkpt lat="46.29511" lon="-0.1773">
        <ele>149.0267</ele>
        <time>2010-11-28T13:34:40Z</time>
      </trkpt>
      <trkpt lat="46.29511" lon="-0.1773">
        <ele>148.9899</ele>
        <time>2010-11-28T13:34:41Z</time>
      </trkpt>
      <trkpt lat="46.29512" lon="-0.17731">
        <ele>148.9522</ele>
        <time>2010-11-28T13:34:42Z</time>
      </trkpt>
      <trkpt lat="46.29513" lon="-0.17731">
        <ele>148.9126</ele>
        <time>2010-11-28T13:34:43Z</time>
      </trkpt>
      <trkpt lat="46.29514" lon="-0.17731">
        <ele>148.8698</ele>
        <time>2010-11-28T13:34:44Z</time>
      </trkpt>
      <trkpt lat="46.29514" lon="-0.17731">
        <ele>148.8329</ele>
        <time>2010-11-28T13:34:45Z</time>
      </trkpt>
      <trkpt lat="46.29516" lon="-0.17731">
        <ele>148.7961</ele>
        <time>2010-11-28T13:34:46Z</time>
      </trkpt>
      <trkpt lat="46.29516" lon="-0.17731">
        <ele>148.7577</ele>
        <time>2010-11-28T13:34:47Z</time>
      </trkpt>
      <trkpt lat="46.29517" lon="-0.17731">
        <ele>148.7154</ele>
        <time>2010-11-28T13:34:48Z</time>
      </trkpt>
      <trkpt lat="46.29518" lon="-0.17731">
        <ele>148.6769</ele>
        <time>2010-11-28T13:34:49Z</time>
      </trkpt>
      <trkpt lat="46.29519" lon="-0.17731">
        <ele>148.6469</ele>
        <time>2010-11-28T13:34:50Z</time>
      </trkpt>
      <trkpt lat="46.2952" lon="-0.17731">
        <ele>148.631</ele>
        <time>2010-11-28T13:34:51Z</time>
      </trkpt>
      <trkpt lat="46.29522" lon="-0.17731">
        <ele>148.6257</ele>
        <time>2010-11-28T13:34:52Z</time>
      </trkpt>
      <trkpt lat="46.29523" lon="-0.17731">
        <ele>148.6211</ele>
        <time>2010-11-28T13:34:53Z</time>
      </trkpt>
      <trkpt lat="46.29524" lon="-0.17731">
        <ele>148.6175</ele>
        <time>2010-11-28T13:34:54Z</time>
      </trkpt>
      <trkpt lat="46.29525" lon="-0.17731">
        <ele>148.6159</ele>
        <time>2010-11-28T13:34:55Z</time>
      </trkpt>
      <trkpt lat="46.29526" lon="-0.17731">
        <ele>148.6163</ele>
        <time>2010-11-28T13:34:56Z</time>
      </trkpt>
      <trkpt lat="46.29527" lon="-0.17731">
        <ele>148.6126</ele>
        <time>2010-11-28T13:34:57Z</time>
      </trkpt>
      <trkpt lat="46.29528" lon="-0.17731">
        <ele>148.5974</ele>
        <time>2010-11-28T13:34:58Z</time>
      </trkpt>
      <trkpt lat="46.29529" lon="-0.17731">
        <ele>148.5743</ele>
        <time>2010-11-28T13:34:59Z</time>
      </trkpt>
      <trkpt lat="46.2953" lon="-0.17731">
        <ele>148.5514</ele>
        <time>2010-11-28T13:35:00Z</time>
      </trkpt>
      <trkpt lat="46.2953" lon="-0.17732">
        <ele>148.5257</ele>
        <time>2010-11-28T13:35:01Z</time>
      </trkpt>
      <trkpt lat="46.29531" lon="-0.17732">
        <ele>148.4979</ele>
        <time>2010-11-28T13:35:02Z</time>
      </trkpt>
      <trkpt lat="46.29532" lon="-0.17732">
        <ele>148.4656</ele>
        <time>2010-11-28T13:35:03Z</time>
      </trkpt>
      <trkpt lat="46.29533" lon="-0.17732">
        <ele>148.4365</ele>
        <time>2010-11-28T13:35:04Z</time>
      </trkpt>
      <trkpt lat="46.29533" lon="-0.17732">
        <ele>148.4094</ele>
        <time>2010-11-28T13:35:05Z</time>
      </trkpt>
      <trkpt lat="46.29534" lon="-0.17732">
        <ele>148.3819</ele>
        <time>2010-11-28T13:35:06Z</time>
      </trkpt>
      <trkpt lat="46.29535" lon="-0.17732">
        <ele>148.3495</ele>
        <time>2010-11-28T13:35:07Z</time>
      </trkpt>
      <trkpt lat="46.29536" lon="-0.17732">
        <ele>148.304</ele>
        <time>2010-11-28T13:35:08Z</time>
      </trkpt>
      <trkpt lat="46.29536" lon="-0.17732">
        <ele>148.2566</ele>
        <time>2010-11-28T13:35:09Z</time>
      </trkpt>
      <trkpt lat="46.29541" lon="-0.17732">
        <ele>148.0644</ele>
        <time>2010-11-28T13:35:18Z</time>
      </trkpt>
      <trkpt lat="46.29546" lon="-0.17733">
        <ele>147.5381</ele>
        <time>2010-11-28T13:35:25Z</time>
      </trkpt>
      <trkpt lat="46.29546" lon="-0.17733">
        <ele>147.4596</ele>
        <time>2010-11-28T13:35:26Z</time>
      </trkpt>
      <trkpt lat="46.29552" lon="-0.17735">
        <ele>147.4119</ele>
        <time>2010-11-28T13:35:32Z</time>
      </trkpt>
      <trkpt lat="46.29556" lon="-0.17736">
        <ele>147.3192</ele>
        <time>2010-11-28T13:35:40Z</time>
      </trkpt>
      <trkpt lat="46.2956" lon="-0.1774">
        <ele>146.8524</ele>
        <time>2010-11-28T13:35:51Z</time>
      </trkpt>
      <trkpt lat="46.29565" lon="-0.17743">
        <ele>146.4367</ele>
        <time>2010-11-28T13:35:56Z</time>
      </trkpt>
      <trkpt lat="46.29569" lon="-0.17744">
        <ele>146.4108</ele>
        <time>2010-11-28T13:35:59Z</time>
      </trkpt>
      <trkpt lat="46.29574" lon="-0.17746">
        <ele>146.3784</ele>
        <time>2010-11-28T13:36:03Z</time>
      </trkpt>
      <trkpt lat="46.29578" lon="-0.17749">
        <ele>146.2764</ele>
        <time>2010-11-28T13:36:08Z</time>
      </trkpt>
      <trkpt lat="46.29583" lon="-0.17751">
        <ele>146.1076</ele>
        <time>2010-11-28T13:36:15Z</time>
      </trkpt>
      <trkpt lat="46.29588" lon="-0.17755">
        <ele>145.6353</ele>
        <time>2010-11-28T13:36:21Z</time>
      </trkpt>
      <trkpt lat="46.29592" lon="-0.17757">
        <ele>145.0794</ele>
        <time>2010-11-28T13:36:28Z</time>
      </trkpt>
      <trkpt lat="46.29593" lon="-0.17757">
        <ele>145.0075</ele>
        <time>2010-11-28T13:36:29Z</time>
      </trkpt>
      <trkpt lat="46.29594" lon="-0.17757">
        <ele>144.9359</ele>
        <time>2010-11-28T13:36:30Z</time>
      </trkpt>
      <trkpt lat="46.29594" lon="-0.17758">
        <ele>144.8686</ele>
        <time>2010-11-28T13:36:31Z</time>
      </trkpt>
      <trkpt lat="46.29595" lon="-0.17758">
        <ele>144.8046</ele>
        <time>2010-11-28T13:36:32Z</time>
      </trkpt>
      <trkpt lat="46.29596" lon="-0.17759">
        <ele>144.7469</ele>
        <time>2010-11-28T13:36:33Z</time>
      </trkpt>
      <trkpt lat="46.29598" lon="-0.1776">
        <ele>144.6865</ele>
        <time>2010-11-28T13:36:34Z</time>
      </trkpt>
      <trkpt lat="46.29598" lon="-0.1776">
        <ele>144.6214</ele>
        <time>2010-11-28T13:36:35Z</time>
      </trkpt>
      <trkpt lat="46.29599" lon="-0.1776">
        <ele>144.5486</ele>
        <time>2010-11-28T13:36:36Z</time>
      </trkpt>
      <trkpt lat="46.296" lon="-0.17761">
        <ele>144.473</ele>
        <time>2010-11-28T13:36:37Z</time>
      </trkpt>
      <trkpt lat="46.29601" lon="-0.17761">
        <ele>144.3938</ele>
        <time>2010-11-28T13:36:38Z</time>
      </trkpt>
      <trkpt lat="46.29602" lon="-0.17762">
        <ele>144.3097</ele>
        <time>2010-11-28T13:36:39Z</time>
      </trkpt>
      <trkpt lat="46.29604" lon="-0.17762">
        <ele>144.2356</ele>
        <time>2010-11-28T13:36:40Z</time>
      </trkpt>
      <trkpt lat="46.29604" lon="-0.17763">
        <ele>144.156</ele>
        <time>2010-11-28T13:36:41Z</time>
      </trkpt>
      <trkpt lat="46.29606" lon="-0.17763">
        <ele>144.0726</ele>
        <time>2010-11-28T13:36:42Z</time>
      </trkpt>
      <trkpt lat="46.29607" lon="-0.17763">
        <ele>143.9861</ele>
        <time>2010-11-28T13:36:43Z</time>
      </trkpt>
      <trkpt lat="46.29607" lon="-0.17763">
        <ele>143.8971</ele>
        <time>2010-11-28T13:36:44Z</time>
      </trkpt>
      <trkpt lat="46.29608" lon="-0.17764">
        <ele>143.807</ele>
        <time>2010-11-28T13:36:45Z</time>
      </trkpt>
      <trkpt lat="46.29609" lon="-0.17764">
        <ele>143.7148</ele>
        <time>2010-11-28T13:36:46Z</time>
      </trkpt>
      <trkpt lat="46.2961" lon="-0.17765">
        <ele>143.6282</ele>
        <time>2010-11-28T13:36:47Z</time>
      </trkpt>
      <trkpt lat="46.29611" lon="-0.17765">
        <ele>143.5453</ele>
        <time>2010-11-28T13:36:48Z</time>
      </trkpt>
      <trkpt lat="46.29611" lon="-0.17765">
        <ele>143.4641</ele>
        <time>2010-11-28T13:36:49Z</time>
      </trkpt>
      <trkpt lat="46.29612" lon="-0.17766">
        <ele>143.3698</ele>
        <time>2010-11-28T13:36:50Z</time>
      </trkpt>
      <trkpt lat="46.29612" lon="-0.17766">
        <ele>143.2677</ele>
        <time>2010-11-28T13:36:51Z</time>
      </trkpt>
      <trkpt lat="46.29613" lon="-0.17767">
        <ele>143.1622</ele>
        <time>2010-11-28T13:36:52Z</time>
      </trkpt>
      <trkpt lat="46.29617" lon="-0.17769">
        <ele>143.0276</ele>
        <time>2010-11-28T13:36:58Z</time>
      </trkpt>
      <trkpt lat="46.29618" lon="-0.1777">
        <ele>142.9419</ele>
        <time>2010-11-28T13:36:59Z</time>
      </trkpt>
      <trkpt lat="46.29619" lon="-0.1777">
        <ele>142.8611</ele>
        <time>2010-11-28T13:37:00Z</time>
      </trkpt>
      <trkpt lat="46.2962" lon="-0.1777">
        <ele>142.7779</ele>
        <time>2010-11-28T13:37:01Z</time>
      </trkpt>
      <trkpt lat="46.2962" lon="-0.1777">
        <ele>142.6956</ele>
        <time>2010-11-28T13:37:02Z</time>
      </trkpt>
      <trkpt lat="46.29621" lon="-0.1777">
        <ele>142.6163</ele>
        <time>2010-11-28T13:37:03Z</time>
      </trkpt>
      <trkpt lat="46.29622" lon="-0.17771">
        <ele>142.5389</ele>
        <time>2010-11-28T13:37:04Z</time>
      </trkpt>
      <trkpt lat="46.29623" lon="-0.17771">
        <ele>142.4638</ele>
        <time>2010-11-28T13:37:05Z</time>
      </trkpt>
      <trkpt lat="46.29623" lon="-0.17771">
        <ele>142.3965</ele>
        <time>2010-11-28T13:37:06Z</time>
      </trkpt>
      <trkpt lat="46.29624" lon="-0.17771">
        <ele>142.3292</ele>
        <time>2010-11-28T13:37:07Z</time>
      </trkpt>
      <trkpt lat="46.29625" lon="-0.17771">
        <ele>142.2648</ele>
        <time>2010-11-28T13:37:08Z</time>
      </trkpt>
      <trkpt lat="46.29626" lon="-0.17772">
        <ele>142.2064</ele>
        <time>2010-11-28T13:37:09Z</time>
      </trkpt>
      <trkpt lat="46.29627" lon="-0.17772">
        <ele>142.1389</ele>
        <time>2010-11-28T13:37:10Z</time>
      </trkpt>
      <trkpt lat="46.29628" lon="-0.17773">
        <ele>142.06</ele>
        <time>2010-11-28T13:37:11Z</time>
      </trkpt>
      <trkpt lat="46.2963" lon="-0.17773">
        <ele>141.9919</ele>
        <time>2010-11-28T13:37:12Z</time>
      </trkpt>
      <trkpt lat="46.29631" lon="-0.17774">
        <ele>141.9308</ele>
        <time>2010-11-28T13:37:13Z</time>
      </trkpt>
      <trkpt lat="46.29633" lon="-0.17774">
        <ele>141.8647</ele>
        <time>2010-11-28T13:37:14Z</time>
      </trkpt>
      <trkpt lat="46.29634" lon="-0.17775">
        <ele>141.7939</ele>
        <time>2010-11-28T13:37:15Z</time>
      </trkpt>
      <trkpt lat="46.29635" lon="-0.17775">
        <ele>141.7201</ele>
        <time>2010-11-28T13:37:16Z</time>
      </trkpt>
      <trkpt lat="46.29636" lon="-0.17775">
        <ele>141.6452</ele>
        <time>2010-11-28T13:37:17Z</time>
      </trkpt>
      <trkpt lat="46.29637" lon="-0.17775">
        <ele>141.5761</ele>
        <time>2010-11-28T13:37:18Z</time>
      </trkpt>
      <trkpt lat="46.29638" lon="-0.17776">
        <ele>141.5019</ele>
        <time>2010-11-28T13:37:19Z</time>
      </trkpt>
      <trkpt lat="46.29638" lon="-0.17776">
        <ele>141.4291</ele>
        <time>2010-11-28T13:37:20Z</time>
      </trkpt>
      <trkpt lat="46.29639" lon="-0.17777">
        <ele>141.3554</ele>
        <time>2010-11-28T13:37:21Z</time>
      </trkpt>
      <trkpt lat="46.2964" lon="-0.17777">
        <ele>141.2822</ele>
        <time>2010-11-28T13:37:22Z</time>
      </trkpt>
      <trkpt lat="46.29641" lon="-0.17778">
        <ele>141.2094</ele>
        <time>2010-11-28T13:37:23Z</time>
      </trkpt>
      <trkpt lat="46.29642" lon="-0.17779">
        <ele>141.1371</ele>
        <time>2010-11-28T13:37:24Z</time>
      </trkpt>
      <trkpt lat="46.29643" lon="-0.17779">
        <ele>141.0611</ele>
        <time>2010-11-28T13:37:25Z</time>
      </trkpt>
      <trkpt lat="46.29643" lon="-0.1778">
        <ele>140.981</ele>
        <time>2010-11-28T13:37:26Z</time>
      </trkpt>
      <trkpt lat="46.29644" lon="-0.1778">
        <ele>140.9002</ele>
        <time>2010-11-28T13:37:27Z</time>
      </trkpt>
      <trkpt lat="46.29644" lon="-0.17781">
        <ele>140.8188</ele>
        <time>2010-11-28T13:37:28Z</time>
      </trkpt>
      <trkpt lat="46.29645" lon="-0.17781">
        <ele>140.7406</ele>
        <time>2010-11-28T13:37:29Z</time>
      </trkpt>
      <trkpt lat="46.29646" lon="-0.17782">
        <ele>140.6615</ele>
        <time>2010-11-28T13:37:30Z</time>
      </trkpt>
      <trkpt lat="46.29647" lon="-0.17782">
        <ele>140.5795</ele>
        <time>2010-11-28T13:37:31Z</time>
      </trkpt>
      <trkpt lat="46.29647" lon="-0.17782">
        <ele>140.4995</ele>
        <time>2010-11-28T13:37:32Z</time>
      </trkpt>
      <trkpt lat="46.29648" lon="-0.17782">
        <ele>140.4203</ele>
        <time>2010-11-28T13:37:33Z</time>
      </trkpt>
      <trkpt lat="46.29649" lon="-0.17783">
        <ele>140.3422</ele>
        <time>2010-11-28T13:37:34Z</time>
      </trkpt>
      <trkpt lat="46.29649" lon="-0.17783">
        <ele>140.2637</ele>
        <time>2010-11-28T13:37:35Z</time>
      </trkpt>
      <trkpt lat="46.2965" lon="-0.17783">
        <ele>140.1847</ele>
        <time>2010-11-28T13:37:36Z</time>
      </trkpt>
      <trkpt lat="46.29651" lon="-0.17783">
        <ele>140.1066</ele>
        <time>2010-11-28T13:37:37Z</time>
      </trkpt>
      <trkpt lat="46.29651" lon="-0.17784">
        <ele>140.0252</ele>
        <time>2010-11-28T13:37:38Z</time>
      </trkpt>
      <trkpt lat="46.29653" lon="-0.17785">
        <ele>139.6661</ele>
        <time>2010-11-28T13:37:45Z</time>
      </trkpt>
      <trkpt lat="46.29654" lon="-0.17786">
        <ele>139.5902</ele>
        <time>2010-11-28T13:37:46Z</time>
      </trkpt>
      <trkpt lat="46.29654" lon="-0.17787">
        <ele>139.5175</ele>
        <time>2010-11-28T13:37:47Z</time>
      </trkpt>
      <trkpt lat="46.29654" lon="-0.17787">
        <ele>139.4454</ele>
        <time>2010-11-28T13:37:48Z</time>
      </trkpt>
      <trkpt lat="46.29655" lon="-0.17788">
        <ele>139.3692</ele>
        <time>2010-11-28T13:37:49Z</time>
      </trkpt>
      <trkpt lat="46.29655" lon="-0.17788">
        <ele>139.2928</ele>
        <time>2010-11-28T13:37:50Z</time>
      </trkpt>
      <trkpt lat="46.29656" lon="-0.17789">
        <ele>139.2196</ele>
        <time>2010-11-28T13:37:51Z</time>
      </trkpt>
      <trkpt lat="46.29657" lon="-0.17789">
        <ele>139.1436</ele>
        <time>2010-11-28T13:37:52Z</time>
      </trkpt>
      <trkpt lat="46.29657" lon="-0.17789">
        <ele>139.0674</ele>
        <time>2010-11-28T13:37:53Z</time>
      </trkpt>
      <trkpt lat="46.29658" lon="-0.1779">
        <ele>138.9872</ele>
        <time>2010-11-28T13:37:54Z</time>
      </trkpt>
      <trkpt lat="46.29659" lon="-0.1779">
        <ele>138.9097</ele>
        <time>2010-11-28T13:37:55Z</time>
      </trkpt>
      <trkpt lat="46.2966" lon="-0.17791">
        <ele>138.836</ele>
        <time>2010-11-28T13:37:56Z</time>
      </trkpt>
      <trkpt lat="46.2966" lon="-0.17791">
        <ele>138.7681</ele>
        <time>2010-11-28T13:37:57Z</time>
      </trkpt>
      <trkpt lat="46.29662" lon="-0.17792">
        <ele>138.7018</ele>
        <time>2010-11-28T13:37:58Z</time>
      </trkpt>
      <trkpt lat="46.29662" lon="-0.17793">
        <ele>138.6406</ele>
        <time>2010-11-28T13:37:59Z</time>
      </trkpt>
      <trkpt lat="46.29663" lon="-0.17793">
        <ele>138.5817</ele>
        <time>2010-11-28T13:38:00Z</time>
      </trkpt>
      <trkpt lat="46.29664" lon="-0.17793">
        <ele>138.5274</ele>
        <time>2010-11-28T13:38:01Z</time>
      </trkpt>
      <trkpt lat="46.29664" lon="-0.17794">
        <ele>138.4785</ele>
        <time>2010-11-28T13:38:02Z</time>
      </trkpt>
      <trkpt lat="46.29665" lon="-0.17795">
        <ele>138.4279</ele>
        <time>2010-11-28T13:38:03Z</time>
      </trkpt>
      <trkpt lat="46.29665" lon="-0.17795">
        <ele>138.3774</ele>
        <time>2010-11-28T13:38:04Z</time>
      </trkpt>
      <trkpt lat="46.29666" lon="-0.17796">
        <ele>138.3235</ele>
        <time>2010-11-28T13:38:05Z</time>
      </trkpt>
      <trkpt lat="46.29667" lon="-0.17796">
        <ele>138.2657</ele>
        <time>2010-11-28T13:38:06Z</time>
      </trkpt>
      <trkpt lat="46.29668" lon="-0.17797">
        <ele>138.1988</ele>
        <time>2010-11-28T13:38:07Z</time>
      </trkpt>
      <trkpt lat="46.29669" lon="-0.17797">
        <ele>138.1273</ele>
        <time>2010-11-28T13:38:08Z</time>
      </trkpt>
      <trkpt lat="46.29669" lon="-0.17797">
        <ele>138.0544</ele>
        <time>2010-11-28T13:38:09Z</time>
      </trkpt>
      <trkpt lat="46.2967" lon="-0.17798">
        <ele>137.979</ele>
        <time>2010-11-28T13:38:10Z</time>
      </trkpt>
      <trkpt lat="46.29671" lon="-0.17799">
        <ele>137.9076</ele>
        <time>2010-11-28T13:38:11Z</time>
      </trkpt>
      <trkpt lat="46.29672" lon="-0.17799">
        <ele>137.8311</ele>
        <time>2010-11-28T13:38:12Z</time>
      </trkpt>
      <trkpt lat="46.29673" lon="-0.178">
        <ele>137.7624</ele>
        <time>2010-11-28T13:38:13Z</time>
      </trkpt>
      <trkpt lat="46.29674" lon="-0.17801">
        <ele>137.7045</ele>
        <time>2010-11-28T13:38:14Z</time>
      </trkpt>
      <trkpt lat="46.29675" lon="-0.17802">
        <ele>137.6464</ele>
        <time>2010-11-28T13:38:15Z</time>
      </trkpt>
      <trkpt lat="46.29676" lon="-0.17803">
        <ele>137.5899</ele>
        <time>2010-11-28T13:38:16Z</time>
      </trkpt>
      <trkpt lat="46.29677" lon="-0.17803">
        <ele>137.5392</ele>
        <time>2010-11-28T13:38:17Z</time>
      </trkpt>
      <trkpt lat="46.29678" lon="-0.17804">
        <ele>137.4817</ele>
        <time>2010-11-28T13:38:18Z</time>
      </trkpt>
      <trkpt lat="46.29679" lon="-0.17805">
        <ele>137.4211</ele>
        <time>2010-11-28T13:38:19Z</time>
      </trkpt>
      <trkpt lat="46.2968" lon="-0.17805">
        <ele>137.3623</ele>
        <time>2010-11-28T13:38:20Z</time>
      </trkpt>
      <trkpt lat="46.29681" lon="-0.17806">
        <ele>137.3005</ele>
        <time>2010-11-28T13:38:21Z</time>
      </trkpt>
      <trkpt lat="46.29681" lon="-0.17806">
        <ele>137.2384</ele>
        <time>2010-11-28T13:38:22Z</time>
      </trkpt>
      <trkpt lat="46.29682" lon="-0.17807">
        <ele>137.1764</ele>
        <time>2010-11-28T13:38:23Z</time>
      </trkpt>
      <trkpt lat="46.29683" lon="-0.17808">
        <ele>137.1198</ele>
        <time>2010-11-28T13:38:24Z</time>
      </trkpt>
      <trkpt lat="46.29684" lon="-0.17809">
        <ele>137.0719</ele>
        <time>2010-11-28T13:38:25Z</time>
      </trkpt>
      <trkpt lat="46.29685" lon="-0.1781">
        <ele>137.0254</ele>
        <time>2010-11-28T13:38:26Z</time>
      </trkpt>
      <trkpt lat="46.29686" lon="-0.1781">
        <ele>136.9806</ele>
        <time>2010-11-28T13:38:27Z</time>
      </trkpt>
      <trkpt lat="46.29686" lon="-0.17811">
        <ele>136.9342</ele>
        <time>2010-11-28T13:38:28Z</time>
      </trkpt>
      <trkpt lat="46.29687" lon="-0.17812">
        <ele>136.8824</ele>
        <time>2010-11-28T13:38:29Z</time>
      </trkpt>
      <trkpt lat="46.29688" lon="-0.17813">
        <ele>136.8291</ele>
        <time>2010-11-28T13:38:30Z</time>
      </trkpt>
      <trkpt lat="46.29689" lon="-0.17814">
        <ele>136.7779</ele>
        <time>2010-11-28T13:38:31Z</time>
      </trkpt>
      <trkpt lat="46.2969" lon="-0.17815">
        <ele>136.7221</ele>
        <time>2010-11-28T13:38:32Z</time>
      </trkpt>
      <trkpt lat="46.29691" lon="-0.17815">
        <ele>136.6802</ele>
        <time>2010-11-28T13:38:33Z</time>
      </trkpt>
      <trkpt lat="46.29692" lon="-0.17816">
        <ele>136.6404</ele>
        <time>2010-11-28T13:38:34Z</time>
      </trkpt>
      <trkpt lat="46.29693" lon="-0.17816">
        <ele>136.5953</ele>
        <time>2010-11-28T13:38:35Z</time>
      </trkpt>
      <trkpt lat="46.29694" lon="-0.17817">
        <ele>136.5529</ele>
        <time>2010-11-28T13:38:36Z</time>
      </trkpt>
      <trkpt lat="46.29694" lon="-0.17817">
        <ele>136.5078</ele>
        <time>2010-11-28T13:38:37Z</time>
      </trkpt>
      <trkpt lat="46.29696" lon="-0.17818">
        <ele>136.4037</ele>
        <time>2010-11-28T13:38:41Z</time>
      </trkpt>
      <trkpt lat="46.29696" lon="-0.17818">
        <ele>136.3566</ele>
        <time>2010-11-28T13:38:42Z</time>
      </trkpt>
      <trkpt lat="46.29697" lon="-0.17818">
        <ele>136.2985</ele>
        <time>2010-11-28T13:38:43Z</time>
      </trkpt>
      <trkpt lat="46.29697" lon="-0.17818">
        <ele>136.2303</ele>
        <time>2010-11-28T13:38:44Z</time>
      </trkpt>
      <trkpt lat="46.29698" lon="-0.17819">
        <ele>136.1627</ele>
        <time>2010-11-28T13:38:45Z</time>
      </trkpt>
      <trkpt lat="46.29699" lon="-0.17819">
        <ele>136.0956</ele>
        <time>2010-11-28T13:38:46Z</time>
      </trkpt>
      <trkpt lat="46.29699" lon="-0.17819">
        <ele>136.0302</ele>
        <time>2010-11-28T13:38:47Z</time>
      </trkpt>
      <trkpt lat="46.297" lon="-0.1782">
        <ele>135.9648</ele>
        <time>2010-11-28T13:38:48Z</time>
      </trkpt>
      <trkpt lat="46.29701" lon="-0.17821">
        <ele>135.8903</ele>
        <time>2010-11-28T13:38:49Z</time>
      </trkpt>
      <trkpt lat="46.29701" lon="-0.17821">
        <ele>135.8</ele>
        <time>2010-11-28T13:38:50Z</time>
      </trkpt>
      <trkpt lat="46.29702" lon="-0.17821">
        <ele>135.6956</ele>
        <time>2010-11-28T13:38:51Z</time>
      </trkpt>
      <trkpt lat="46.29702" lon="-0.17822">
        <ele>135.5915</ele>
        <time>2010-11-28T13:38:52Z</time>
      </trkpt>
      <trkpt lat="46.29704" lon="-0.17822">
        <ele>135.5297</ele>
        <time>2010-11-28T13:38:53Z</time>
      </trkpt>
      <trkpt lat="46.29705" lon="-0.17823">
        <ele>135.4974</ele>
        <time>2010-11-28T13:38:54Z</time>
      </trkpt>
      <trkpt lat="46.29708" lon="-0.17824">
        <ele>135.4806</ele>
        <time>2010-11-28T13:38:55Z</time>
      </trkpt>
      <trkpt lat="46.2971" lon="-0.17825">
        <ele>135.4506</ele>
        <time>2010-11-28T13:38:56Z</time>
      </trkpt>
      <trkpt lat="46.29712" lon="-0.17826">
        <ele>135.4116</ele>
        <time>2010-11-28T13:38:57Z</time>
      </trkpt>
      <trkpt lat="46.29714" lon="-0.17826">
        <ele>135.3607</ele>
        <time>2010-11-28T13:38:58Z</time>
      </trkpt>
      <trkpt lat="46.29715" lon="-0.17826">
        <ele>135.3177</ele>
        <time>2010-11-28T13:38:59Z</time>
      </trkpt>
      <trkpt lat="46.29717" lon="-0.17827">
        <ele>135.2671</ele>
        <time>2010-11-28T13:39:00Z</time>
      </trkpt>
      <trkpt lat="46.29718" lon="-0.17827">
        <ele>135.2081</ele>
        <time>2010-11-28T13:39:01Z</time>
      </trkpt>
      <trkpt lat="46.29719" lon="-0.17827">
        <ele>135.1496</ele>
        <time>2010-11-28T13:39:02Z</time>
      </trkpt>
      <trkpt lat="46.2972" lon="-0.17828">
        <ele>135.0899</ele>
        <time>2010-11-28T13:39:03Z</time>
      </trkpt>
      <trkpt lat="46.29724" lon="-0.17829">
        <ele>135.0268</ele>
        <time>2010-11-28T13:39:11Z</time>
      </trkpt>
      <trkpt lat="46.29726" lon="-0.17829">
        <ele>134.9759</ele>
        <time>2010-11-28T13:39:12Z</time>
      </trkpt>
      <trkpt lat="46.29727" lon="-0.17829">
        <ele>134.9197</ele>
        <time>2010-11-28T13:39:13Z</time>
      </trkpt>
      <trkpt lat="46.29728" lon="-0.17829">
        <ele>134.8617</ele>
        <time>2010-11-28T13:39:14Z</time>
      </trkpt>
      <trkpt lat="46.29729" lon="-0.17828">
        <ele>134.8016</ele>
        <time>2010-11-28T13:39:15Z</time>
      </trkpt>
      <trkpt lat="46.2973" lon="-0.17827">
        <ele>134.7412</ele>
        <time>2010-11-28T13:39:16Z</time>
      </trkpt>
      <trkpt lat="46.29731" lon="-0.17827">
        <ele>134.6856</ele>
        <time>2010-11-28T13:39:17Z</time>
      </trkpt>
      <trkpt lat="46.29732" lon="-0.17826">
        <ele>134.6335</ele>
        <time>2010-11-28T13:39:18Z</time>
      </trkpt>
      <trkpt lat="46.29733" lon="-0.17826">
        <ele>134.5815</ele>
        <time>2010-11-28T13:39:19Z</time>
      </trkpt>
      <trkpt lat="46.29733" lon="-0.17825">
        <ele>134.5302</ele>
        <time>2010-11-28T13:39:20Z</time>
      </trkpt>
      <trkpt lat="46.29734" lon="-0.17825">
        <ele>134.4931</ele>
        <time>2010-11-28T13:39:21Z</time>
      </trkpt>
      <trkpt lat="46.29735" lon="-0.17825">
        <ele>134.4585</ele>
        <time>2010-11-28T13:39:22Z</time>
      </trkpt>
      <trkpt lat="46.29736" lon="-0.17824">
        <ele>134.4232</ele>
        <time>2010-11-28T13:39:23Z</time>
      </trkpt>
      <trkpt lat="46.29737" lon="-0.17823">
        <ele>134.386</ele>
        <time>2010-11-28T13:39:24Z</time>
      </trkpt>
      <trkpt lat="46.29738" lon="-0.17823">
        <ele>134.3459</ele>
        <time>2010-11-28T13:39:25Z</time>
      </trkpt>
      <trkpt lat="46.29739" lon="-0.17822">
        <ele>134.3061</ele>
        <time>2010-11-28T13:39:26Z</time>
      </trkpt>
      <trkpt lat="46.29739" lon="-0.17822">
        <ele>134.2661</ele>
        <time>2010-11-28T13:39:27Z</time>
      </trkpt>
      <trkpt lat="46.2974" lon="-0.17821">
        <ele>134.2303</ele>
        <time>2010-11-28T13:39:28Z</time>
      </trkpt>
      <trkpt lat="46.29741" lon="-0.17821">
        <ele>134.196</ele>
        <time>2010-11-28T13:39:29Z</time>
      </trkpt>
      <trkpt lat="46.29742" lon="-0.1782">
        <ele>134.1662</ele>
        <time>2010-11-28T13:39:30Z</time>
      </trkpt>
      <trkpt lat="46.29743" lon="-0.1782">
        <ele>134.1442</ele>
        <time>2010-11-28T13:39:31Z</time>
      </trkpt>
      <trkpt lat="46.29744" lon="-0.1782">
        <ele>134.1337</ele>
        <time>2010-11-28T13:39:32Z</time>
      </trkpt>
      <trkpt lat="46.29746" lon="-0.1782">
        <ele>134.1298</ele>
        <time>2010-11-28T13:39:33Z</time>
      </trkpt>
      <trkpt lat="46.29747" lon="-0.17819">
        <ele>134.1165</ele>
        <time>2010-11-28T13:39:34Z</time>
      </trkpt>
      <trkpt lat="46.29748" lon="-0.17819">
        <ele>134.0959</ele>
        <time>2010-11-28T13:39:35Z</time>
      </trkpt>
      <trkpt lat="46.29749" lon="-0.17819">
        <ele>134.0747</ele>
        <time>2010-11-28T13:39:36Z</time>
      </trkpt>
      <trkpt lat="46.2975" lon="-0.17819">
        <ele>134.0518</ele>
        <time>2010-11-28T13:39:37Z</time>
      </trkpt>
      <trkpt lat="46.29751" lon="-0.1782">
        <ele>134.0221</ele>
        <time>2010-11-28T13:39:38Z</time>
      </trkpt>
      <trkpt lat="46.29754" lon="-0.17822">
        <ele>133.7565</ele>
        <time>2010-11-28T13:39:50Z</time>
      </trkpt>
      <trkpt lat="46.29755" lon="-0.17822">
        <ele>133.6912</ele>
        <time>2010-11-28T13:39:51Z</time>
      </trkpt>
      <trkpt lat="46.29755" lon="-0.17823">
        <ele>133.6296</ele>
        <time>2010-11-28T13:39:52Z</time>
      </trkpt>
      <trkpt lat="46.29756" lon="-0.17823">
        <ele>133.5744</ele>
        <time>2010-11-28T13:39:53Z</time>
      </trkpt>
      <trkpt lat="46.29757" lon="-0.17824">
        <ele>133.5204</ele>
        <time>2010-11-28T13:39:54Z</time>
      </trkpt>
      <trkpt lat="46.29757" lon="-0.17825">
        <ele>133.4692</ele>
        <time>2010-11-28T13:39:55Z</time>
      </trkpt>
      <trkpt lat="46.29758" lon="-0.17826">
        <ele>133.4178</ele>
        <time>2010-11-28T13:39:56Z</time>
      </trkpt>
      <trkpt lat="46.29759" lon="-0.17826">
        <ele>133.3681</ele>
        <time>2010-11-28T13:39:57Z</time>
      </trkpt>
      <trkpt lat="46.2976" lon="-0.17827">
        <ele>133.3186</ele>
        <time>2010-11-28T13:39:58Z</time>
      </trkpt>
      <trkpt lat="46.29761" lon="-0.17827">
        <ele>133.2844</ele>
        <time>2010-11-28T13:39:59Z</time>
      </trkpt>
      <trkpt lat="46.29762" lon="-0.17828">
        <ele>133.2622</ele>
        <time>2010-11-28T13:40:00Z</time>
      </trkpt>
      <trkpt lat="46.29763" lon="-0.17828">
        <ele>133.2552</ele>
        <time>2010-11-28T13:40:01Z</time>
      </trkpt>
      <trkpt lat="46.29765" lon="-0.17829">
        <ele>133.2548</ele>
        <time>2010-11-28T13:40:02Z</time>
      </trkpt>
      <trkpt lat="46.29766" lon="-0.1783">
        <ele>133.2549</ele>
        <time>2010-11-28T13:40:03Z</time>
      </trkpt>
      <trkpt lat="46.29767" lon="-0.1783">
        <ele>133.2553</ele>
        <time>2010-11-28T13:40:04Z</time>
      </trkpt>
      <trkpt lat="46.29768" lon="-0.17831">
        <ele>133.2544</ele>
        <time>2010-11-28T13:40:05Z</time>
      </trkpt>
      <trkpt lat="46.29769" lon="-0.17832">
        <ele>133.2545</ele>
        <time>2010-11-28T13:40:06Z</time>
      </trkpt>
      <trkpt lat="46.2977" lon="-0.17832">
        <ele>133.2482</ele>
        <time>2010-11-28T13:40:07Z</time>
      </trkpt>
      <trkpt lat="46.2977" lon="-0.17833">
        <ele>133.24</ele>
        <time>2010-11-28T13:40:08Z</time>
      </trkpt>
      <trkpt lat="46.29771" lon="-0.17834">
        <ele>133.2307</ele>
        <time>2010-11-28T13:40:09Z</time>
      </trkpt>
      <trkpt lat="46.29772" lon="-0.17836">
        <ele>133.2199</ele>
        <time>2010-11-28T13:40:10Z</time>
      </trkpt>
      <trkpt lat="46.29772" lon="-0.17837">
        <ele>133.1994</ele>
        <time>2010-11-28T13:40:11Z</time>
      </trkpt>
      <trkpt lat="46.29773" lon="-0.17838">
        <ele>133.164</ele>
        <time>2010-11-28T13:40:12Z</time>
      </trkpt>
      <trkpt lat="46.29773" lon="-0.17839">
        <ele>133.1184</ele>
        <time>2010-11-28T13:40:13Z</time>
      </trkpt>
      <trkpt lat="46.29774" lon="-0.17839">
        <ele>133.0641</ele>
        <time>2010-11-28T13:40:14Z</time>
      </trkpt>
      <trkpt lat="46.29774" lon="-0.1784">
        <ele>133.0091</ele>
        <time>2010-11-28T13:40:15Z</time>
      </trkpt>
      <trkpt lat="46.29775" lon="-0.17841">
        <ele>132.9608</ele>
        <time>2010-11-28T13:40:16Z</time>
      </trkpt>
      <trkpt lat="46.29775" lon="-0.17843">
        <ele>132.9136</ele>
        <time>2010-11-28T13:40:17Z</time>
      </trkpt>
      <trkpt lat="46.29776" lon="-0.17844">
        <ele>132.859</ele>
        <time>2010-11-28T13:40:18Z</time>
      </trkpt>
      <trkpt lat="46.29776" lon="-0.17846">
        <ele>132.8012</ele>
        <time>2010-11-28T13:40:19Z</time>
      </trkpt>
      <trkpt lat="46.29777" lon="-0.17849">
        <ele>132.6972</ele>
        <time>2010-11-28T13:40:23Z</time>
      </trkpt>
      <trkpt lat="46.29778" lon="-0.1785">
        <ele>132.6571</ele>
        <time>2010-11-28T13:40:24Z</time>
      </trkpt>
      <trkpt lat="46.29778" lon="-0.17851">
        <ele>132.6219</ele>
        <time>2010-11-28T13:40:25Z</time>
      </trkpt>
      <trkpt lat="46.29779" lon="-0.17852">
        <ele>132.5886</ele>
        <time>2010-11-28T13:40:26Z</time>
      </trkpt>
      <trkpt lat="46.2978" lon="-0.17853">
        <ele>132.5635</ele>
        <time>2010-11-28T13:40:27Z</time>
      </trkpt>
      <trkpt lat="46.2978" lon="-0.17854">
        <ele>132.5436</ele>
        <time>2010-11-28T13:40:28Z</time>
      </trkpt>
      <trkpt lat="46.29781" lon="-0.17855">
        <ele>132.5247</ele>
        <time>2010-11-28T13:40:29Z</time>
      </trkpt>
      <trkpt lat="46.29782" lon="-0.17856">
        <ele>132.5104</ele>
        <time>2010-11-28T13:40:30Z</time>
      </trkpt>
      <trkpt lat="46.29782" lon="-0.17857">
        <ele>132.4984</ele>
        <time>2010-11-28T13:40:31Z</time>
      </trkpt>
      <trkpt lat="46.29783" lon="-0.17858">
        <ele>132.4854</ele>
        <time>2010-11-28T13:40:32Z</time>
      </trkpt>
      <trkpt lat="46.29783" lon="-0.17859">
        <ele>132.4691</ele>
        <time>2010-11-28T13:40:33Z</time>
      </trkpt>
      <trkpt lat="46.29783" lon="-0.1786">
        <ele>132.4478</ele>
        <time>2010-11-28T13:40:34Z</time>
      </trkpt>
      <trkpt lat="46.29784" lon="-0.17861">
        <ele>132.4347</ele>
        <time>2010-11-28T13:40:35Z</time>
      </trkpt>
      <trkpt lat="46.29784" lon="-0.17862">
        <ele>132.4207</ele>
        <time>2010-11-28T13:40:36Z</time>
      </trkpt>
      <trkpt lat="46.29784" lon="-0.17864">
        <ele>132.4074</ele>
        <time>2010-11-28T13:40:37Z</time>
      </trkpt>
      <trkpt lat="46.29784" lon="-0.17865">
        <ele>132.3887</ele>
        <time>2010-11-28T13:40:38Z</time>
      </trkpt>
      <trkpt lat="46.29784" lon="-0.17866">
        <ele>132.3635</ele>
        <time>2010-11-28T13:40:39Z</time>
      </trkpt>
      <trkpt lat="46.29784" lon="-0.17867">
        <ele>132.336</ele>
        <time>2010-11-28T13:40:40Z</time>
      </trkpt>
      <trkpt lat="46.29785" lon="-0.17869">
        <ele>132.3201</ele>
        <time>2010-11-28T13:40:41Z</time>
      </trkpt>
      <trkpt lat="46.29786" lon="-0.17871">
        <ele>132.3199</ele>
        <time>2010-11-28T13:40:42Z</time>
      </trkpt>
      <trkpt lat="46.29786" lon="-0.17872">
        <ele>132.3323</ele>
        <time>2010-11-28T13:40:43Z</time>
      </trkpt>
      <trkpt lat="46.29787" lon="-0.17874">
        <ele>132.3452</ele>
        <time>2010-11-28T13:40:44Z</time>
      </trkpt>
      <trkpt lat="46.29787" lon="-0.17875">
        <ele>132.3572</ele>
        <time>2010-11-28T13:40:45Z</time>
      </trkpt>
      <trkpt lat="46.29788" lon="-0.17876">
        <ele>132.3683</ele>
        <time>2010-11-28T13:40:46Z</time>
      </trkpt>
      <trkpt lat="46.29788" lon="-0.17878">
        <ele>132.3779</ele>
        <time>2010-11-28T13:40:47Z</time>
      </trkpt>
      <trkpt lat="46.29789" lon="-0.17879">
        <ele>132.3802</ele>
        <time>2010-11-28T13:40:48Z</time>
      </trkpt>
      <trkpt lat="46.29789" lon="-0.1788">
        <ele>132.3817</ele>
        <time>2010-11-28T13:40:49Z</time>
      </trkpt>
      <trkpt lat="46.2979" lon="-0.17881">
        <ele>132.3852</ele>
        <time>2010-11-28T13:40:50Z</time>
      </trkpt>
      <trkpt lat="46.2979" lon="-0.17882">
        <ele>132.3933</ele>
        <time>2010-11-28T13:40:51Z</time>
      </trkpt>
      <trkpt lat="46.29791" lon="-0.17883">
        <ele>132.4034</ele>
        <time>2010-11-28T13:40:52Z</time>
      </trkpt>
      <trkpt lat="46.29792" lon="-0.17883">
        <ele>132.4117</ele>
        <time>2010-11-28T13:40:53Z</time>
      </trkpt>
      <trkpt lat="46.29793" lon="-0.17884">
        <ele>132.4155</ele>
        <time>2010-11-28T13:40:54Z</time>
      </trkpt>
      <trkpt lat="46.29794" lon="-0.17885">
        <ele>132.4135</ele>
        <time>2010-11-28T13:40:55Z</time>
      </trkpt>
      <trkpt lat="46.29794" lon="-0.17886">
        <ele>132.4032</ele>
        <time>2010-11-28T13:40:56Z</time>
      </trkpt>
      <trkpt lat="46.29795" lon="-0.17887">
        <ele>132.3821</ele>
        <time>2010-11-28T13:40:57Z</time>
      </trkpt>
      <trkpt lat="46.29796" lon="-0.17888">
        <ele>132.3514</ele>
        <time>2010-11-28T13:40:58Z</time>
      </trkpt>
      <trkpt lat="46.29796" lon="-0.17889">
        <ele>132.3377</ele>
        <time>2010-11-28T13:40:59Z</time>
      </trkpt>
      <trkpt lat="46.29796" lon="-0.17891">
        <ele>132.3194</ele>
        <time>2010-11-28T13:41:00Z</time>
      </trkpt>
      <trkpt lat="46.29796" lon="-0.17892">
        <ele>132.2983</ele>
        <time>2010-11-28T13:41:01Z</time>
      </trkpt>
      <trkpt lat="46.29797" lon="-0.17893">
        <ele>132.2788</ele>
        <time>2010-11-28T13:41:02Z</time>
      </trkpt>
      <trkpt lat="46.29797" lon="-0.17894">
        <ele>132.2558</ele>
        <time>2010-11-28T13:41:03Z</time>
      </trkpt>
      <trkpt lat="46.29797" lon="-0.17896">
        <ele>132.2553</ele>
        <time>2010-11-28T13:41:04Z</time>
      </trkpt>
      <trkpt lat="46.29797" lon="-0.17897">
        <ele>132.2564</ele>
        <time>2010-11-28T13:41:05Z</time>
      </trkpt>
      <trkpt lat="46.29797" lon="-0.17898">
        <ele>132.2552</ele>
        <time>2010-11-28T13:41:06Z</time>
      </trkpt>
      <trkpt lat="46.29795" lon="-0.17906">
        <ele>132.2638</ele>
        <time>2010-11-28T13:41:12Z</time>
      </trkpt>
      <trkpt lat="46.29793" lon="-0.17912">
        <ele>132.1608</ele>
        <time>2010-11-28T13:41:27Z</time>
      </trkpt>
      <trkpt lat="46.29793" lon="-0.17915">
        <ele>131.8002</ele>
        <time>2010-11-28T13:41:34Z</time>
      </trkpt>
      <trkpt lat="46.29794" lon="-0.17917">
        <ele>131.5006</ele>
        <time>2010-11-28T13:41:37Z</time>
      </trkpt>
      <trkpt lat="46.29794" lon="-0.17918">
        <ele>131.3639</ele>
        <time>2010-11-28T13:41:38Z</time>
      </trkpt>
      <trkpt lat="46.29794" lon="-0.17919">
        <ele>131.2292</ele>
        <time>2010-11-28T13:41:39Z</time>
      </trkpt>
      <trkpt lat="46.29796" lon="-0.17918">
        <ele>130.9497</ele>
        <time>2010-11-28T13:41:47Z</time>
      </trkpt>
      <trkpt lat="46.29797" lon="-0.17919">
        <ele>130.8629</ele>
        <time>2010-11-28T13:41:48Z</time>
      </trkpt>
      <trkpt lat="46.29797" lon="-0.1792">
        <ele>130.7859</ele>
        <time>2010-11-28T13:41:49Z</time>
      </trkpt>
      <trkpt lat="46.29798" lon="-0.17922">
        <ele>130.7221</ele>
        <time>2010-11-28T13:41:50Z</time>
      </trkpt>
      <trkpt lat="46.29799" lon="-0.17923">
        <ele>130.6697</ele>
        <time>2010-11-28T13:41:51Z</time>
      </trkpt>
      <trkpt lat="46.298" lon="-0.17924">
        <ele>130.6211</ele>
        <time>2010-11-28T13:41:52Z</time>
      </trkpt>
      <trkpt lat="46.298" lon="-0.17925">
        <ele>130.5776</ele>
        <time>2010-11-28T13:41:53Z</time>
      </trkpt>
      <trkpt lat="46.298" lon="-0.17927">
        <ele>130.5395</ele>
        <time>2010-11-28T13:41:54Z</time>
      </trkpt>
      <trkpt lat="46.29801" lon="-0.17928">
        <ele>130.5034</ele>
        <time>2010-11-28T13:41:55Z</time>
      </trkpt>
      <trkpt lat="46.29802" lon="-0.17929">
        <ele>130.4611</ele>
        <time>2010-11-28T13:41:56Z</time>
      </trkpt>
      <trkpt lat="46.29802" lon="-0.1793">
        <ele>130.4146</ele>
        <time>2010-11-28T13:41:57Z</time>
      </trkpt>
      <trkpt lat="46.29802" lon="-0.17931">
        <ele>130.3793</ele>
        <time>2010-11-28T13:41:58Z</time>
      </trkpt>
      <trkpt lat="46.29803" lon="-0.17933">
        <ele>130.3579</ele>
        <time>2010-11-28T13:41:59Z</time>
      </trkpt>
      <trkpt lat="46.29803" lon="-0.17934">
        <ele>130.3378</ele>
        <time>2010-11-28T13:42:00Z</time>
      </trkpt>
      <trkpt lat="46.29804" lon="-0.17935">
        <ele>130.3132</ele>
        <time>2010-11-28T13:42:01Z</time>
      </trkpt>
      <trkpt lat="46.29804" lon="-0.17937">
        <ele>130.2899</ele>
        <time>2010-11-28T13:42:02Z</time>
      </trkpt>
      <trkpt lat="46.29805" lon="-0.17938">
        <ele>130.2741</ele>
        <time>2010-11-28T13:42:03Z</time>
      </trkpt>
      <trkpt lat="46.29805" lon="-0.17939">
        <ele>130.2636</ele>
        <time>2010-11-28T13:42:04Z</time>
      </trkpt>
      <trkpt lat="46.29806" lon="-0.1794">
        <ele>130.2588</ele>
        <time>2010-11-28T13:42:05Z</time>
      </trkpt>
      <trkpt lat="46.29807" lon="-0.1794">
        <ele>130.2597</ele>
        <time>2010-11-28T13:42:06Z</time>
      </trkpt>
      <trkpt lat="46.29807" lon="-0.17941">
        <ele>130.2682</ele>
        <time>2010-11-28T13:42:07Z</time>
      </trkpt>
      <trkpt lat="46.29808" lon="-0.17942">
        <ele>130.2682</ele>
        <time>2010-11-28T13:42:08Z</time>
      </trkpt>
      <trkpt lat="46.29808" lon="-0.17943">
        <ele>130.2692</ele>
        <time>2010-11-28T13:42:09Z</time>
      </trkpt>
      <trkpt lat="46.29809" lon="-0.17943">
        <ele>130.2725</ele>
        <time>2010-11-28T13:42:10Z</time>
      </trkpt>
      <trkpt lat="46.2981" lon="-0.17944">
        <ele>130.2748</ele>
        <time>2010-11-28T13:42:11Z</time>
      </trkpt>
      <trkpt lat="46.2981" lon="-0.17945">
        <ele>130.2774</ele>
        <time>2010-11-28T13:42:12Z</time>
      </trkpt>
      <trkpt lat="46.29811" lon="-0.17947">
        <ele>130.2854</ele>
        <time>2010-11-28T13:42:13Z</time>
      </trkpt>
      <trkpt lat="46.29812" lon="-0.17948">
        <ele>130.2834</ele>
        <time>2010-11-28T13:42:14Z</time>
      </trkpt>
      <trkpt lat="46.29812" lon="-0.17949">
        <ele>130.2799</ele>
        <time>2010-11-28T13:42:15Z</time>
      </trkpt>
      <trkpt lat="46.29813" lon="-0.1795">
        <ele>130.2766</ele>
        <time>2010-11-28T13:42:16Z</time>
      </trkpt>
      <trkpt lat="46.29813" lon="-0.17951">
        <ele>130.2766</ele>
        <time>2010-11-28T13:42:17Z</time>
      </trkpt>
      <trkpt lat="46.29813" lon="-0.17952">
        <ele>130.277</ele>
        <time>2010-11-28T13:42:18Z</time>
      </trkpt>
      <trkpt lat="46.29814" lon="-0.17953">
        <ele>130.2722</ele>
        <time>2010-11-28T13:42:19Z</time>
      </trkpt>
      <trkpt lat="46.29814" lon="-0.17954">
        <ele>130.2691</ele>
        <time>2010-11-28T13:42:20Z</time>
      </trkpt>
      <trkpt lat="46.29815" lon="-0.17955">
        <ele>130.2755</ele>
        <time>2010-11-28T13:42:21Z</time>
      </trkpt>
      <trkpt lat="46.29815" lon="-0.17957">
        <ele>130.2907</ele>
        <time>2010-11-28T13:42:22Z</time>
      </trkpt>
      <trkpt lat="46.29815" lon="-0.17958">
        <ele>130.3133</ele>
        <time>2010-11-28T13:42:23Z</time>
      </trkpt>
      <trkpt lat="46.29815" lon="-0.17959">
        <ele>130.3364</ele>
        <time>2010-11-28T13:42:24Z</time>
      </trkpt>
      <trkpt lat="46.29815" lon="-0.1796">
        <ele>130.3593</ele>
        <time>2010-11-28T13:42:25Z</time>
      </trkpt>
      <trkpt lat="46.29815" lon="-0.17961">
        <ele>130.3773</ele>
        <time>2010-11-28T13:42:26Z</time>
      </trkpt>
      <trkpt lat="46.29818" lon="-0.17967">
        <ele>130.4789</ele>
        <time>2010-11-28T13:42:32Z</time>
      </trkpt>
      <trkpt lat="46.29821" lon="-0.17973">
        <ele>130.4838</ele>
        <time>2010-11-28T13:42:39Z</time>
      </trkpt>
      <trkpt lat="46.29823" lon="-0.17979">
        <ele>130.4077</ele>
        <time>2010-11-28T13:42:50Z</time>
      </trkpt>
      <trkpt lat="46.29825" lon="-0.17981">
        <ele>130.3645</ele>
        <time>2010-11-28T13:42:52Z</time>
      </trkpt>
      <trkpt lat="46.29828" lon="-0.17986">
        <ele>130.3058</ele>
        <time>2010-11-28T13:43:05Z</time>
      </trkpt>
      <trkpt lat="46.29828" lon="-0.17986">
        <ele>130.2918</ele>
        <time>2010-11-28T13:43:06Z</time>
      </trkpt>
      <trkpt lat="46.29833" lon="-0.17989">
        <ele>130.2713</ele>
        <time>2010-11-28T13:43:16Z</time>
      </trkpt>
      <trkpt lat="46.29837" lon="-0.17995">
        <ele>129.9729</ele>
        <time>2010-11-28T13:43:22Z</time>
      </trkpt>
      <trkpt lat="46.29841" lon="-0.17998">
        <ele>129.8639</ele>
        <time>2010-11-28T13:43:30Z</time>
      </trkpt>
      <trkpt lat="46.29845" lon="-0.17998">
        <ele>129.8202</ele>
        <time>2010-11-28T13:43:41Z</time>
      </trkpt>
      <trkpt lat="46.29849" lon="-0.17994">
        <ele>129.7461</ele>
        <time>2010-11-28T13:43:49Z</time>
      </trkpt>
      <trkpt lat="46.29845" lon="-0.17997">
        <ele>129.3279</ele>
        <time>2010-11-28T13:44:14Z</time>
      </trkpt>
      <trkpt lat="46.29849" lon="-0.18001">
        <ele>127.6664</ele>
        <time>2010-11-28T13:44:27Z</time>
      </trkpt>
      <trkpt lat="46.2985" lon="-0.18008">
        <ele>127.0567</ele>
        <time>2010-11-28T13:44:41Z</time>
      </trkpt>
      <trkpt lat="46.29853" lon="-0.18014">
        <ele>127.0126</ele>
        <time>2010-11-28T13:44:48Z</time>
      </trkpt>
      <trkpt lat="46.29855" lon="-0.1802">
        <ele>126.9793</ele>
        <time>2010-11-28T13:44:56Z</time>
      </trkpt>
      <trkpt lat="46.29859" lon="-0.18026">
        <ele>126.9584</ele>
        <time>2010-11-28T13:45:03Z</time>
      </trkpt>
      <trkpt lat="46.29863" lon="-0.1803">
        <ele>126.8943</ele>
        <time>2010-11-28T13:45:09Z</time>
      </trkpt>
      <trkpt lat="46.29868" lon="-0.18032">
        <ele>126.8731</ele>
        <time>2010-11-28T13:45:16Z</time>
      </trkpt>
      <trkpt lat="46.29873" lon="-0.18035">
        <ele>126.8282</ele>
        <time>2010-11-28T13:45:19Z</time>
      </trkpt>
      <trkpt lat="46.29876" lon="-0.18039">
        <ele>126.4199</ele>
        <time>2010-11-28T13:45:25Z</time>
      </trkpt>
      <trkpt lat="46.29878" lon="-0.18042">
        <ele>125.9245</ele>
        <time>2010-11-28T13:45:29Z</time>
      </trkpt>
      <trkpt lat="46.29879" lon="-0.18043">
        <ele>125.8316</ele>
        <time>2010-11-28T13:45:30Z</time>
      </trkpt>
      <trkpt lat="46.29879" lon="-0.18044">
        <ele>125.7451</ele>
        <time>2010-11-28T13:45:31Z</time>
      </trkpt>
      <trkpt lat="46.29881" lon="-0.1805">
        <ele>125.658</ele>
        <time>2010-11-28T13:45:43Z</time>
      </trkpt>
      <trkpt lat="46.29885" lon="-0.18053">
        <ele>125.4942</ele>
        <time>2010-11-28T13:45:58Z</time>
      </trkpt>
      <trkpt lat="46.29881" lon="-0.18049">
        <ele>125.3383</ele>
        <time>2010-11-28T13:46:06Z</time>
      </trkpt>
      <trkpt lat="46.29877" lon="-0.18045">
        <ele>125.0875</ele>
        <time>2010-11-28T13:46:13Z</time>
      </trkpt>
      <trkpt lat="46.29878" lon="-0.18051">
        <ele>123.1656</ele>
        <time>2010-11-28T13:46:49Z</time>
      </trkpt>
      <trkpt lat="46.29878" lon="-0.18052">
        <ele>122.9478</ele>
        <time>2010-11-28T13:46:50Z</time>
      </trkpt>
      <trkpt lat="46.29879" lon="-0.18053">
        <ele>122.7371</ele>
        <time>2010-11-28T13:46:51Z</time>
      </trkpt>
      <trkpt lat="46.2988" lon="-0.18054">
        <ele>122.5372</ele>
        <time>2010-11-28T13:46:52Z</time>
      </trkpt>
      <trkpt lat="46.29882" lon="-0.18055">
        <ele>122.3614</ele>
        <time>2010-11-28T13:46:53Z</time>
      </trkpt>
      <trkpt lat="46.29883" lon="-0.18057">
        <ele>122.1756</ele>
        <time>2010-11-28T13:46:54Z</time>
      </trkpt>
      <trkpt lat="46.29885" lon="-0.18058">
        <ele>121.986</ele>
        <time>2010-11-28T13:46:55Z</time>
      </trkpt>
      <trkpt lat="46.29886" lon="-0.18059">
        <ele>121.788</ele>
        <time>2010-11-28T13:46:56Z</time>
      </trkpt>
      <trkpt lat="46.29887" lon="-0.1806">
        <ele>121.5725</ele>
        <time>2010-11-28T13:46:57Z</time>
      </trkpt>
      <trkpt lat="46.29888" lon="-0.18061">
        <ele>121.3591</ele>
        <time>2010-11-28T13:46:58Z</time>
      </trkpt>
      <trkpt lat="46.29889" lon="-0.18061">
        <ele>121.1604</ele>
        <time>2010-11-28T13:46:59Z</time>
      </trkpt>
      <trkpt lat="46.2989" lon="-0.18062">
        <ele>120.9797</ele>
        <time>2010-11-28T13:47:00Z</time>
      </trkpt>
      <trkpt lat="46.2989" lon="-0.18062">
        <ele>120.8077</ele>
        <time>2010-11-28T13:47:01Z</time>
      </trkpt>
      <trkpt lat="46.29891" lon="-0.18063">
        <ele>120.6555</ele>
        <time>2010-11-28T13:47:02Z</time>
      </trkpt>
      <trkpt lat="46.29891" lon="-0.18063">
        <ele>120.518</ele>
        <time>2010-11-28T13:47:03Z</time>
      </trkpt>
      <trkpt lat="46.29892" lon="-0.18064">
        <ele>120.3972</ele>
        <time>2010-11-28T13:47:04Z</time>
      </trkpt>
      <trkpt lat="46.29892" lon="-0.18065">
        <ele>120.2958</ele>
        <time>2010-11-28T13:47:05Z</time>
      </trkpt>
      <trkpt lat="46.29892" lon="-0.18067">
        <ele>120.2186</ele>
        <time>2010-11-28T13:47:06Z</time>
      </trkpt>
      <trkpt lat="46.29892" lon="-0.18067">
        <ele>120.1462</ele>
        <time>2010-11-28T13:47:07Z</time>
      </trkpt>
      <trkpt lat="46.29893" lon="-0.18068">
        <ele>120.0735</ele>
        <time>2010-11-28T13:47:08Z</time>
      </trkpt>
      <trkpt lat="46.29893" lon="-0.18069">
        <ele>120.002</ele>
        <time>2010-11-28T13:47:09Z</time>
      </trkpt>
      <trkpt lat="46.29893" lon="-0.1807">
        <ele>119.9276</ele>
        <time>2010-11-28T13:47:10Z</time>
      </trkpt>
      <trkpt lat="46.29893" lon="-0.18071">
        <ele>119.8562</ele>
        <time>2010-11-28T13:47:11Z</time>
      </trkpt>
      <trkpt lat="46.29895" lon="-0.18077">
        <ele>119.5346</ele>
        <time>2010-11-28T13:47:20Z</time>
      </trkpt>
      <trkpt lat="46.29896" lon="-0.18078">
        <ele>119.5118</ele>
        <time>2010-11-28T13:47:21Z</time>
      </trkpt>
      <trkpt lat="46.29896" lon="-0.18079">
        <ele>119.4827</ele>
        <time>2010-11-28T13:47:22Z</time>
      </trkpt>
      <trkpt lat="46.299" lon="-0.18083">
        <ele>119.4744</ele>
        <time>2010-11-28T13:47:31Z</time>
      </trkpt>
      <trkpt lat="46.29902" lon="-0.18085">
        <ele>119.5771</ele>
        <time>2010-11-28T13:47:35Z</time>
      </trkpt>
      <trkpt lat="46.29903" lon="-0.18085">
        <ele>119.6379</ele>
        <time>2010-11-28T13:47:36Z</time>
      </trkpt>
      <trkpt lat="46.29903" lon="-0.18086">
        <ele>119.7019</ele>
        <time>2010-11-28T13:47:37Z</time>
      </trkpt>
      <trkpt lat="46.29905" lon="-0.18086">
        <ele>119.7731</ele>
        <time>2010-11-28T13:47:38Z</time>
      </trkpt>
      <trkpt lat="46.29909" lon="-0.18091">
        <ele>119.8323</ele>
        <time>2010-11-28T13:47:46Z</time>
      </trkpt>
      <trkpt lat="46.29914" lon="-0.18089">
        <ele>120.1803</ele>
        <time>2010-11-28T13:47:54Z</time>
      </trkpt>
      <trkpt lat="46.29919" lon="-0.18085">
        <ele>120.2393</ele>
        <time>2010-11-28T13:47:58Z</time>
      </trkpt>
      <trkpt lat="46.29923" lon="-0.18083">
        <ele>120.3156</ele>
        <time>2010-11-28T13:48:01Z</time>
      </trkpt>
      <trkpt lat="46.29928" lon="-0.1808">
        <ele>120.4306</ele>
        <time>2010-11-28T13:48:05Z</time>
      </trkpt>
      <trkpt lat="46.29932" lon="-0.18078">
        <ele>120.5447</ele>
        <time>2010-11-28T13:48:10Z</time>
      </trkpt>
      <trkpt lat="46.29937" lon="-0.18075">
        <ele>120.6655</ele>
        <time>2010-11-28T13:48:16Z</time>
      </trkpt>
      <trkpt lat="46.29941" lon="-0.18073">
        <ele>120.7292</ele>
        <time>2010-11-28T13:48:21Z</time>
      </trkpt>
      <trkpt lat="46.29947" lon="-0.18071">
        <ele>120.9679</ele>
        <time>2010-11-28T13:48:25Z</time>
      </trkpt>
      <trkpt lat="46.29952" lon="-0.1807">
        <ele>121.1682</ele>
        <time>2010-11-28T13:48:31Z</time>
      </trkpt>
      <trkpt lat="46.29957" lon="-0.18068">
        <ele>121.4814</ele>
        <time>2010-11-28T13:48:37Z</time>
      </trkpt>
      <trkpt lat="46.2996" lon="-0.18069">
        <ele>121.5757</ele>
        <time>2010-11-28T13:48:39Z</time>
      </trkpt>
      <trkpt lat="46.29961" lon="-0.18069">
        <ele>121.6271</ele>
        <time>2010-11-28T13:48:40Z</time>
      </trkpt>
      <trkpt lat="46.29962" lon="-0.18069">
        <ele>121.6726</ele>
        <time>2010-11-28T13:48:41Z</time>
      </trkpt>
      <trkpt lat="46.29963" lon="-0.18069">
        <ele>121.7182</ele>
        <time>2010-11-28T13:48:42Z</time>
      </trkpt>
      <trkpt lat="46.29964" lon="-0.18068">
        <ele>121.7633</ele>
        <time>2010-11-28T13:48:43Z</time>
      </trkpt>
      <trkpt lat="46.29965" lon="-0.18068">
        <ele>121.8036</ele>
        <time>2010-11-28T13:48:44Z</time>
      </trkpt>
      <trkpt lat="46.29966" lon="-0.18068">
        <ele>121.8391</ele>
        <time>2010-11-28T13:48:45Z</time>
      </trkpt>
      <trkpt lat="46.29966" lon="-0.18067">
        <ele>121.868</ele>
        <time>2010-11-28T13:48:46Z</time>
      </trkpt>
      <trkpt lat="46.29967" lon="-0.18067">
        <ele>121.9012</ele>
        <time>2010-11-28T13:48:47Z</time>
      </trkpt>
      <trkpt lat="46.29968" lon="-0.18067">
        <ele>121.9327</ele>
        <time>2010-11-28T13:48:48Z</time>
      </trkpt>
      <trkpt lat="46.29969" lon="-0.18066">
        <ele>121.964</ele>
        <time>2010-11-28T13:48:49Z</time>
      </trkpt>
      <trkpt lat="46.2997" lon="-0.18066">
        <ele>121.9928</ele>
        <time>2010-11-28T13:48:50Z</time>
      </trkpt>
      <trkpt lat="46.29971" lon="-0.18065">
        <ele>122.0295</ele>
        <time>2010-11-28T13:48:53Z</time>
      </trkpt>
      <trkpt lat="46.29971" lon="-0.18065">
        <ele>122.0648</ele>
        <time>2010-11-28T13:48:54Z</time>
      </trkpt>
      <trkpt lat="46.29973" lon="-0.18065">
        <ele>122.0986</ele>
        <time>2010-11-28T13:48:55Z</time>
      </trkpt>
      <trkpt lat="46.29973" lon="-0.18065">
        <ele>122.1303</ele>
        <time>2010-11-28T13:48:56Z</time>
      </trkpt>
      <trkpt lat="46.29974" lon="-0.18065">
        <ele>122.1509</ele>
        <time>2010-11-28T13:48:57Z</time>
      </trkpt>
      <trkpt lat="46.29975" lon="-0.18064">
        <ele>122.1684</ele>
        <time>2010-11-28T13:48:58Z</time>
      </trkpt>
      <trkpt lat="46.29976" lon="-0.18064">
        <ele>122.1734</ele>
        <time>2010-11-28T13:48:59Z</time>
      </trkpt>
      <trkpt lat="46.29977" lon="-0.18064">
        <ele>122.1729</ele>
        <time>2010-11-28T13:49:00Z</time>
      </trkpt>
      <trkpt lat="46.29977" lon="-0.18063">
        <ele>122.1633</ele>
        <time>2010-11-28T13:49:01Z</time>
      </trkpt>
      <trkpt lat="46.29979" lon="-0.18063">
        <ele>122.1602</ele>
        <time>2010-11-28T13:49:02Z</time>
      </trkpt>
      <trkpt lat="46.29979" lon="-0.18064">
        <ele>122.1543</ele>
        <time>2010-11-28T13:49:03Z</time>
      </trkpt>
      <trkpt lat="46.29984" lon="-0.18064">
        <ele>122.1149</ele>
        <time>2010-11-28T13:49:09Z</time>
      </trkpt>
      <trkpt lat="46.29989" lon="-0.18064">
        <ele>122.0564</ele>
        <time>2010-11-28T13:49:15Z</time>
      </trkpt>
      <trkpt lat="46.29994" lon="-0.18062">
        <ele>122.0102</ele>
        <time>2010-11-28T13:49:22Z</time>
      </trkpt>
      <trkpt lat="46.29998" lon="-0.18062">
        <ele>121.7553</ele>
        <time>2010-11-28T13:49:27Z</time>
      </trkpt>
      <trkpt lat="46.30003" lon="-0.1806">
        <ele>120.74</ele>
        <time>2010-11-28T13:49:32Z</time>
      </trkpt>
      <trkpt lat="46.30004" lon="-0.18059">
        <ele>120.5779</ele>
        <time>2010-11-28T13:49:33Z</time>
      </trkpt>
      <trkpt lat="46.30005" lon="-0.18059">
        <ele>120.4265</ele>
        <time>2010-11-28T13:49:34Z</time>
      </trkpt>
      <trkpt lat="46.30006" lon="-0.18058">
        <ele>120.2878</ele>
        <time>2010-11-28T13:49:35Z</time>
      </trkpt>
      <trkpt lat="46.30006" lon="-0.18057">
        <ele>120.1565</ele>
        <time>2010-11-28T13:49:36Z</time>
      </trkpt>
      <trkpt lat="46.30007" lon="-0.18057">
        <ele>120.0371</ele>
        <time>2010-11-28T13:49:37Z</time>
      </trkpt>
      <trkpt lat="46.30008" lon="-0.18056">
        <ele>119.9231</ele>
        <time>2010-11-28T13:49:38Z</time>
      </trkpt>
      <trkpt lat="46.30009" lon="-0.18055">
        <ele>119.8209</ele>
        <time>2010-11-28T13:49:39Z</time>
      </trkpt>
      <trkpt lat="46.3001" lon="-0.18055">
        <ele>119.7211</ele>
        <time>2010-11-28T13:49:40Z</time>
      </trkpt>
      <trkpt lat="46.30011" lon="-0.18054">
        <ele>119.6245</ele>
        <time>2010-11-28T13:49:41Z</time>
      </trkpt>
      <trkpt lat="46.30011" lon="-0.18054">
        <ele>119.5336</ele>
        <time>2010-11-28T13:49:42Z</time>
      </trkpt>
      <trkpt lat="46.30012" lon="-0.18053">
        <ele>119.4534</ele>
        <time>2010-11-28T13:49:43Z</time>
      </trkpt>
      <trkpt lat="46.30013" lon="-0.18053">
        <ele>119.3783</ele>
        <time>2010-11-28T13:49:44Z</time>
      </trkpt>
      <trkpt lat="46.30016" lon="-0.18047">
        <ele>119.1698</ele>
        <time>2010-11-28T13:49:54Z</time>
      </trkpt>
      <trkpt lat="46.30019" lon="-0.18041">
        <ele>119.6687</ele>
        <time>2010-11-28T13:50:00Z</time>
      </trkpt>
      <trkpt lat="46.30021" lon="-0.18039">
        <ele>119.8736</ele>
        <time>2010-11-28T13:50:02Z</time>
      </trkpt>
      <trkpt lat="46.30021" lon="-0.18038">
        <ele>119.9873</ele>
        <time>2010-11-28T13:50:03Z</time>
      </trkpt>
      <trkpt lat="46.30023" lon="-0.18037">
        <ele>120.0902</ele>
        <time>2010-11-28T13:50:04Z</time>
      </trkpt>
      <trkpt lat="46.30024" lon="-0.18036">
        <ele>120.1901</ele>
        <time>2010-11-28T13:50:05Z</time>
      </trkpt>
      <trkpt lat="46.30025" lon="-0.18036">
        <ele>120.2819</ele>
        <time>2010-11-28T13:50:06Z</time>
      </trkpt>
      <trkpt lat="46.30027" lon="-0.18034">
        <ele>120.4137</ele>
        <time>2010-11-28T13:50:08Z</time>
      </trkpt>
      <trkpt lat="46.30028" lon="-0.18033">
        <ele>120.4725</ele>
        <time>2010-11-28T13:50:09Z</time>
      </trkpt>
      <trkpt lat="46.30033" lon="-0.18029">
        <ele>120.7702</ele>
        <time>2010-11-28T13:50:14Z</time>
      </trkpt>
      <trkpt lat="46.30034" lon="-0.18028">
        <ele>120.8257</ele>
        <time>2010-11-28T13:50:15Z</time>
      </trkpt>
      <trkpt lat="46.30039" lon="-0.18025">
        <ele>121.095</ele>
        <time>2010-11-28T13:50:22Z</time>
      </trkpt>
      <trkpt lat="46.30042" lon="-0.18022">
        <ele>121.2883</ele>
        <time>2010-11-28T13:50:26Z</time>
      </trkpt>
      <trkpt lat="46.30043" lon="-0.18022">
        <ele>121.3305</ele>
        <time>2010-11-28T13:50:27Z</time>
      </trkpt>
      <trkpt lat="46.30043" lon="-0.18021">
        <ele>121.3801</ele>
        <time>2010-11-28T13:50:28Z</time>
      </trkpt>
      <trkpt lat="46.30045" lon="-0.1802">
        <ele>121.4278</ele>
        <time>2010-11-28T13:50:29Z</time>
      </trkpt>
      <trkpt lat="46.30049" lon="-0.18016">
        <ele>121.6332</ele>
        <time>2010-11-28T13:50:36Z</time>
      </trkpt>
      <trkpt lat="46.30053" lon="-0.18012">
        <ele>122.3529</ele>
        <time>2010-11-28T13:50:44Z</time>
      </trkpt>
      <trkpt lat="46.30053" lon="-0.18011">
        <ele>122.4707</ele>
        <time>2010-11-28T13:50:45Z</time>
      </trkpt>
      <trkpt lat="46.30058" lon="-0.1801">
        <ele>122.7331</ele>
        <time>2010-11-28T13:50:53Z</time>
      </trkpt>
      <trkpt lat="46.30062" lon="-0.18008">
        <ele>122.9357</ele>
        <time>2010-11-28T13:51:01Z</time>
      </trkpt>
      <trkpt lat="46.30063" lon="-0.18007">
        <ele>122.9685</ele>
        <time>2010-11-28T13:51:02Z</time>
      </trkpt>
      <trkpt lat="46.30063" lon="-0.18006">
        <ele>123.0038</ele>
        <time>2010-11-28T13:51:03Z</time>
      </trkpt>
      <trkpt lat="46.30064" lon="-0.18006">
        <ele>123.0436</ele>
        <time>2010-11-28T13:51:04Z</time>
      </trkpt>
      <trkpt lat="46.30065" lon="-0.18005">
        <ele>123.0872</ele>
        <time>2010-11-28T13:51:05Z</time>
      </trkpt>
      <trkpt lat="46.30069" lon="-0.18009">
        <ele>123.4292</ele>
        <time>2010-11-28T13:51:12Z</time>
      </trkpt>
      <trkpt lat="46.3007" lon="-0.1801">
        <ele>123.495</ele>
        <time>2010-11-28T13:51:13Z</time>
      </trkpt>
      <trkpt lat="46.30071" lon="-0.18011">
        <ele>123.5662</ele>
        <time>2010-11-28T13:51:14Z</time>
      </trkpt>
      <trkpt lat="46.30074" lon="-0.18012">
        <ele>124.0431</ele>
        <time>2010-11-28T13:51:24Z</time>
      </trkpt>
      <trkpt lat="46.30074" lon="-0.18013">
        <ele>124.1205</ele>
        <time>2010-11-28T13:51:25Z</time>
      </trkpt>
      <trkpt lat="46.30075" lon="-0.18013">
        <ele>124.2065</ele>
        <time>2010-11-28T13:51:26Z</time>
      </trkpt>
      <trkpt lat="46.30076" lon="-0.18014">
        <ele>124.291</ele>
        <time>2010-11-28T13:51:27Z</time>
      </trkpt>
      <trkpt lat="46.30077" lon="-0.18015">
        <ele>124.3728</ele>
        <time>2010-11-28T13:51:28Z</time>
      </trkpt>
      <trkpt lat="46.30077" lon="-0.18015">
        <ele>124.4538</ele>
        <time>2010-11-28T13:51:29Z</time>
      </trkpt>
      <trkpt lat="46.30078" lon="-0.18016">
        <ele>124.5291</ele>
        <time>2010-11-28T13:51:30Z</time>
      </trkpt>
      <trkpt lat="46.30079" lon="-0.18017">
        <ele>124.6044</ele>
        <time>2010-11-28T13:51:31Z</time>
      </trkpt>
      <trkpt lat="46.3008" lon="-0.18017">
        <ele>124.6793</ele>
        <time>2010-11-28T13:51:32Z</time>
      </trkpt>
      <trkpt lat="46.30081" lon="-0.18019">
        <ele>124.7662</ele>
        <time>2010-11-28T13:51:33Z</time>
      </trkpt>
      <trkpt lat="46.30082" lon="-0.1802">
        <ele>124.8632</ele>
        <time>2010-11-28T13:51:34Z</time>
      </trkpt>
      <trkpt lat="46.30082" lon="-0.18021">
        <ele>124.962</ele>
        <time>2010-11-28T13:51:35Z</time>
      </trkpt>
      <trkpt lat="46.30083" lon="-0.18022">
        <ele>125.0609</ele>
        <time>2010-11-28T13:51:36Z</time>
      </trkpt>
      <trkpt lat="46.30084" lon="-0.18023">
        <ele>125.1666</ele>
        <time>2010-11-28T13:51:37Z</time>
      </trkpt>
      <trkpt lat="46.30084" lon="-0.18024">
        <ele>125.2816</ele>
        <time>2010-11-28T13:51:38Z</time>
      </trkpt>
      <trkpt lat="46.30085" lon="-0.18025">
        <ele>125.3961</ele>
        <time>2010-11-28T13:51:39Z</time>
      </trkpt>
      <trkpt lat="46.30085" lon="-0.18026">
        <ele>125.5067</ele>
        <time>2010-11-28T13:51:40Z</time>
      </trkpt>
      <trkpt lat="46.30085" lon="-0.18027">
        <ele>125.6245</ele>
        <time>2010-11-28T13:51:41Z</time>
      </trkpt>
      <trkpt lat="46.30086" lon="-0.18027">
        <ele>125.7495</ele>
        <time>2010-11-28T13:51:42Z</time>
      </trkpt>
      <trkpt lat="46.30086" lon="-0.18028">
        <ele>126.0312</ele>
        <time>2010-11-28T13:51:45Z</time>
      </trkpt>
      <trkpt lat="46.30087" lon="-0.18029">
        <ele>126.1754</ele>
        <time>2010-11-28T13:51:46Z</time>
      </trkpt>
      <trkpt lat="46.30087" lon="-0.18029">
        <ele>126.313</ele>
        <time>2010-11-28T13:51:47Z</time>
      </trkpt>
      <trkpt lat="46.30088" lon="-0.1803">
        <ele>126.4408</ele>
        <time>2010-11-28T13:51:48Z</time>
      </trkpt>
      <trkpt lat="46.30089" lon="-0.18031">
        <ele>126.5612</ele>
        <time>2010-11-28T13:51:49Z</time>
      </trkpt>
      <trkpt lat="46.3009" lon="-0.18032">
        <ele>126.658</ele>
        <time>2010-11-28T13:51:50Z</time>
      </trkpt>
      <trkpt lat="46.3009" lon="-0.18034">
        <ele>126.7521</ele>
        <time>2010-11-28T13:51:51Z</time>
      </trkpt>
      <trkpt lat="46.30091" lon="-0.18035">
        <ele>126.8394</ele>
        <time>2010-11-28T13:51:52Z</time>
      </trkpt>
      <trkpt lat="46.30091" lon="-0.18036">
        <ele>126.9253</ele>
        <time>2010-11-28T13:51:53Z</time>
      </trkpt>
      <trkpt lat="46.3009" lon="-0.18038">
        <ele>127.0121</ele>
        <time>2010-11-28T13:51:54Z</time>
      </trkpt>
      <trkpt lat="46.3009" lon="-0.18039">
        <ele>127.1008</ele>
        <time>2010-11-28T13:51:55Z</time>
      </trkpt>
      <trkpt lat="46.3009" lon="-0.18039">
        <ele>127.1979</ele>
        <time>2010-11-28T13:51:56Z</time>
      </trkpt>
      <trkpt lat="46.30091" lon="-0.18041">
        <ele>127.3721</ele>
        <time>2010-11-28T13:52:00Z</time>
      </trkpt>
      <trkpt lat="46.30091" lon="-0.18042">
        <ele>127.507</ele>
        <time>2010-11-28T13:52:01Z</time>
      </trkpt>
      <trkpt lat="46.30091" lon="-0.18042">
        <ele>127.6401</ele>
        <time>2010-11-28T13:52:02Z</time>
      </trkpt>
      <trkpt lat="46.3009" lon="-0.18044">
        <ele>127.7681</ele>
        <time>2010-11-28T13:52:03Z</time>
      </trkpt>
      <trkpt lat="46.3009" lon="-0.18045">
        <ele>127.896</ele>
        <time>2010-11-28T13:52:04Z</time>
      </trkpt>
      <trkpt lat="46.30089" lon="-0.18046">
        <ele>128.0198</ele>
        <time>2010-11-28T13:52:05Z</time>
      </trkpt>
      <trkpt lat="46.30089" lon="-0.18048">
        <ele>128.1448</ele>
        <time>2010-11-28T13:52:06Z</time>
      </trkpt>
      <trkpt lat="46.30088" lon="-0.18049">
        <ele>128.2699</ele>
        <time>2010-11-28T13:52:07Z</time>
      </trkpt>
      <trkpt lat="46.30087" lon="-0.1805">
        <ele>128.396</ele>
        <time>2010-11-28T13:52:08Z</time>
      </trkpt>
      <trkpt lat="46.30087" lon="-0.18051">
        <ele>128.5223</ele>
        <time>2010-11-28T13:52:09Z</time>
      </trkpt>
      <trkpt lat="46.30086" lon="-0.18052">
        <ele>128.6388</ele>
        <time>2010-11-28T13:52:10Z</time>
      </trkpt>
      <trkpt lat="46.30085" lon="-0.18053">
        <ele>128.7537</ele>
        <time>2010-11-28T13:52:11Z</time>
      </trkpt>
      <trkpt lat="46.30085" lon="-0.18054">
        <ele>128.8629</ele>
        <time>2010-11-28T13:52:12Z</time>
      </trkpt>
      <trkpt lat="46.30084" lon="-0.18056">
        <ele>128.9692</ele>
        <time>2010-11-28T13:52:13Z</time>
      </trkpt>
      <trkpt lat="46.30083" lon="-0.18057">
        <ele>129.075</ele>
        <time>2010-11-28T13:52:14Z</time>
      </trkpt>
      <trkpt lat="46.30082" lon="-0.18057">
        <ele>129.1819</ele>
        <time>2010-11-28T13:52:15Z</time>
      </trkpt>
      <trkpt lat="46.30081" lon="-0.18058">
        <ele>129.29</ele>
        <time>2010-11-28T13:52:16Z</time>
      </trkpt>
      <trkpt lat="46.3008" lon="-0.18059">
        <ele>129.3982</ele>
        <time>2010-11-28T13:52:17Z</time>
      </trkpt>
      <trkpt lat="46.30079" lon="-0.1806">
        <ele>129.5059</ele>
        <time>2010-11-28T13:52:18Z</time>
      </trkpt>
      <trkpt lat="46.30079" lon="-0.18061">
        <ele>129.614</ele>
        <time>2010-11-28T13:52:19Z</time>
      </trkpt>
      <trkpt lat="46.30078" lon="-0.18062">
        <ele>129.7215</ele>
        <time>2010-11-28T13:52:20Z</time>
      </trkpt>
      <trkpt lat="46.30077" lon="-0.18063">
        <ele>129.8303</ele>
        <time>2010-11-28T13:52:21Z</time>
      </trkpt>
      <trkpt lat="46.30076" lon="-0.18064">
        <ele>129.9434</ele>
        <time>2010-11-28T13:52:22Z</time>
      </trkpt>
      <trkpt lat="46.30075" lon="-0.18065">
        <ele>130.0535</ele>
        <time>2010-11-28T13:52:23Z</time>
      </trkpt>
      <trkpt lat="46.30074" lon="-0.18066">
        <ele>130.1646</ele>
        <time>2010-11-28T13:52:24Z</time>
      </trkpt>
      <trkpt lat="46.30073" lon="-0.18067">
        <ele>130.273</ele>
        <time>2010-11-28T13:52:25Z</time>
      </trkpt>
      <trkpt lat="46.30073" lon="-0.18068">
        <ele>130.3774</ele>
        <time>2010-11-28T13:52:26Z</time>
      </trkpt>
      <trkpt lat="46.30072" lon="-0.18069">
        <ele>130.5072</ele>
        <time>2010-11-28T13:52:29Z</time>
      </trkpt>
      <trkpt lat="46.30071" lon="-0.1807">
        <ele>130.6187</ele>
        <time>2010-11-28T13:52:30Z</time>
      </trkpt>
      <trkpt lat="46.3007" lon="-0.18071">
        <ele>130.7288</ele>
        <time>2010-11-28T13:52:31Z</time>
      </trkpt>
      <trkpt lat="46.30069" lon="-0.18072">
        <ele>130.8372</ele>
        <time>2010-11-28T13:52:32Z</time>
      </trkpt>
      <trkpt lat="46.30068" lon="-0.18073">
        <ele>130.9452</ele>
        <time>2010-11-28T13:52:33Z</time>
      </trkpt>
      <trkpt lat="46.30067" lon="-0.18074">
        <ele>131.0505</ele>
        <time>2010-11-28T13:52:34Z</time>
      </trkpt>
      <trkpt lat="46.30067" lon="-0.18074">
        <ele>131.1548</ele>
        <time>2010-11-28T13:52:35Z</time>
      </trkpt>
      <trkpt lat="46.30066" lon="-0.18075">
        <ele>131.2596</ele>
        <time>2010-11-28T13:52:36Z</time>
      </trkpt>
      <trkpt lat="46.30065" lon="-0.18076">
        <ele>131.3642</ele>
        <time>2010-11-28T13:52:37Z</time>
      </trkpt>
      <trkpt lat="46.30064" lon="-0.18077">
        <ele>131.4729</ele>
        <time>2010-11-28T13:52:38Z</time>
      </trkpt>
      <trkpt lat="46.30063" lon="-0.18078">
        <ele>131.5799</ele>
        <time>2010-11-28T13:52:39Z</time>
      </trkpt>
      <trkpt lat="46.30062" lon="-0.18079">
        <ele>131.6815</ele>
        <time>2010-11-28T13:52:40Z</time>
      </trkpt>
      <trkpt lat="46.30061" lon="-0.1808">
        <ele>131.7816</ele>
        <time>2010-11-28T13:52:41Z</time>
      </trkpt>
      <trkpt lat="46.3006" lon="-0.18081">
        <ele>131.8818</ele>
        <time>2010-11-28T13:52:42Z</time>
      </trkpt>
      <trkpt lat="46.30059" lon="-0.18082">
        <ele>131.9826</ele>
        <time>2010-11-28T13:52:43Z</time>
      </trkpt>
      <trkpt lat="46.30058" lon="-0.18084">
        <ele>132.0823</ele>
        <time>2010-11-28T13:52:44Z</time>
      </trkpt>
      <trkpt lat="46.30058" lon="-0.18085">
        <ele>132.1787</ele>
        <time>2010-11-28T13:52:45Z</time>
      </trkpt>
      <trkpt lat="46.30057" lon="-0.18086">
        <ele>132.2758</ele>
        <time>2010-11-28T13:52:46Z</time>
      </trkpt>
      <trkpt lat="46.30056" lon="-0.18087">
        <ele>132.3742</ele>
        <time>2010-11-28T13:52:47Z</time>
      </trkpt>
      <trkpt lat="46.30056" lon="-0.18087">
        <ele>132.4748</ele>
        <time>2010-11-28T13:52:48Z</time>
      </trkpt>
      <trkpt lat="46.30055" lon="-0.18088">
        <ele>132.5772</ele>
        <time>2010-11-28T13:52:49Z</time>
      </trkpt>
      <trkpt lat="46.30054" lon="-0.18089">
        <ele>132.6799</ele>
        <time>2010-11-28T13:52:50Z</time>
      </trkpt>
      <trkpt lat="46.30053" lon="-0.1809">
        <ele>132.7823</ele>
        <time>2010-11-28T13:52:51Z</time>
      </trkpt>
      <trkpt lat="46.30052" lon="-0.18091">
        <ele>132.8824</ele>
        <time>2010-11-28T13:52:52Z</time>
      </trkpt>
      <trkpt lat="46.30051" lon="-0.18092">
        <ele>132.9819</ele>
        <time>2010-11-28T13:52:53Z</time>
      </trkpt>
      <trkpt lat="46.3005" lon="-0.18093">
        <ele>133.0801</ele>
        <time>2010-11-28T13:52:54Z</time>
      </trkpt>
      <trkpt lat="46.3005" lon="-0.18093">
        <ele>133.1792</ele>
        <time>2010-11-28T13:52:55Z</time>
      </trkpt>
      <trkpt lat="46.30049" lon="-0.18094">
        <ele>133.2795</ele>
        <time>2010-11-28T13:52:56Z</time>
      </trkpt>
      <trkpt lat="46.30048" lon="-0.18095">
        <ele>133.3787</ele>
        <time>2010-11-28T13:52:57Z</time>
      </trkpt>
      <trkpt lat="46.30047" lon="-0.18096">
        <ele>133.4792</ele>
        <time>2010-11-28T13:52:58Z</time>
      </trkpt>
      <trkpt lat="46.30047" lon="-0.18097">
        <ele>133.5804</ele>
        <time>2010-11-28T13:52:59Z</time>
      </trkpt>
      <trkpt lat="46.30046" lon="-0.18098">
        <ele>133.6809</ele>
        <time>2010-11-28T13:53:00Z</time>
      </trkpt>
      <trkpt lat="46.30045" lon="-0.18099">
        <ele>133.7812</ele>
        <time>2010-11-28T13:53:01Z</time>
      </trkpt>
      <trkpt lat="46.30044" lon="-0.181">
        <ele>133.8764</ele>
        <time>2010-11-28T13:53:02Z</time>
      </trkpt>
      <trkpt lat="46.30043" lon="-0.181">
        <ele>133.9677</ele>
        <time>2010-11-28T13:53:03Z</time>
      </trkpt>
      <trkpt lat="46.30042" lon="-0.18101">
        <ele>134.0546</ele>
        <time>2010-11-28T13:53:04Z</time>
      </trkpt>
      <trkpt lat="46.30041" lon="-0.18102">
        <ele>134.1442</ele>
        <time>2010-11-28T13:53:05Z</time>
      </trkpt>
      <trkpt lat="46.3004" lon="-0.18103">
        <ele>134.2307</ele>
        <time>2010-11-28T13:53:06Z</time>
      </trkpt>
      <trkpt lat="46.3004" lon="-0.18104">
        <ele>134.3139</ele>
        <time>2010-11-28T13:53:07Z</time>
      </trkpt>
      <trkpt lat="46.30039" lon="-0.18105">
        <ele>134.3924</ele>
        <time>2010-11-28T13:53:08Z</time>
      </trkpt>
      <trkpt lat="46.30038" lon="-0.18106">
        <ele>134.4716</ele>
        <time>2010-11-28T13:53:09Z</time>
      </trkpt>
      <trkpt lat="46.30037" lon="-0.18107">
        <ele>134.5481</ele>
        <time>2010-11-28T13:53:10Z</time>
      </trkpt>
      <trkpt lat="46.30037" lon="-0.18108">
        <ele>134.6316</ele>
        <time>2010-11-28T13:53:11Z</time>
      </trkpt>
      <trkpt lat="46.30036" lon="-0.18109">
        <ele>134.6961</ele>
        <time>2010-11-28T13:53:12Z</time>
      </trkpt>
      <trkpt lat="46.30035" lon="-0.1811">
        <ele>134.7532</ele>
        <time>2010-11-28T13:53:13Z</time>
      </trkpt>
      <trkpt lat="46.30034" lon="-0.18111">
        <ele>134.8152</ele>
        <time>2010-11-28T13:53:14Z</time>
      </trkpt>
      <trkpt lat="46.30033" lon="-0.18112">
        <ele>134.8897</ele>
        <time>2010-11-28T13:53:15Z</time>
      </trkpt>
      <trkpt lat="46.30032" lon="-0.18112">
        <ele>134.968</ele>
        <time>2010-11-28T13:53:16Z</time>
      </trkpt>
      <trkpt lat="46.30031" lon="-0.18113">
        <ele>135.047</ele>
        <time>2010-11-28T13:53:17Z</time>
      </trkpt>
      <trkpt lat="46.3003" lon="-0.18114">
        <ele>135.1392</ele>
        <time>2010-11-28T13:53:18Z</time>
      </trkpt>
      <trkpt lat="46.30029" lon="-0.18114">
        <ele>135.246</ele>
        <time>2010-11-28T13:53:19Z</time>
      </trkpt>
      <trkpt lat="46.30028" lon="-0.18115">
        <ele>135.3624</ele>
        <time>2010-11-28T13:53:20Z</time>
      </trkpt>
      <trkpt lat="46.30027" lon="-0.18115">
        <ele>135.4858</ele>
        <time>2010-11-28T13:53:21Z</time>
      </trkpt>
      <trkpt lat="46.30026" lon="-0.18116">
        <ele>135.6046</ele>
        <time>2010-11-28T13:53:22Z</time>
      </trkpt>
      <trkpt lat="46.30025" lon="-0.18117">
        <ele>135.7192</ele>
        <time>2010-11-28T13:53:23Z</time>
      </trkpt>
      <trkpt lat="46.30024" lon="-0.18118">
        <ele>135.8257</ele>
        <time>2010-11-28T13:53:24Z</time>
      </trkpt>
      <trkpt lat="46.30024" lon="-0.18118">
        <ele>135.9317</ele>
        <time>2010-11-28T13:53:25Z</time>
      </trkpt>
      <trkpt lat="46.30023" lon="-0.18119">
        <ele>136.0059</ele>
        <time>2010-11-28T13:53:26Z</time>
      </trkpt>
      <trkpt lat="46.30022" lon="-0.1812">
        <ele>136.0683</ele>
        <time>2010-11-28T13:53:27Z</time>
      </trkpt>
      <trkpt lat="46.30021" lon="-0.1812">
        <ele>136.1048</ele>
        <time>2010-11-28T13:53:28Z</time>
      </trkpt>
      <trkpt lat="46.3002" lon="-0.18121">
        <ele>136.1113</ele>
        <time>2010-11-28T13:53:29Z</time>
      </trkpt>
      <trkpt lat="46.30019" lon="-0.18122">
        <ele>136.1126</ele>
        <time>2010-11-28T13:53:30Z</time>
      </trkpt>
      <trkpt lat="46.30019" lon="-0.18123">
        <ele>136.11</ele>
        <time>2010-11-28T13:53:31Z</time>
      </trkpt>
      <trkpt lat="46.30018" lon="-0.18125">
        <ele>136.0991</ele>
        <time>2010-11-28T13:53:32Z</time>
      </trkpt>
      <trkpt lat="46.30017" lon="-0.18126">
        <ele>136.1012</ele>
        <time>2010-11-28T13:53:33Z</time>
      </trkpt>
      <trkpt lat="46.30016" lon="-0.18127">
        <ele>136.1021</ele>
        <time>2010-11-28T13:53:34Z</time>
      </trkpt>
      <trkpt lat="46.30015" lon="-0.18128">
        <ele>136.11</ele>
        <time>2010-11-28T13:53:35Z</time>
      </trkpt>
      <trkpt lat="46.30014" lon="-0.18129">
        <ele>136.1257</ele>
        <time>2010-11-28T13:53:36Z</time>
      </trkpt>
      <trkpt lat="46.30013" lon="-0.1813">
        <ele>136.1466</ele>
        <time>2010-11-28T13:53:37Z</time>
      </trkpt>
      <trkpt lat="46.30013" lon="-0.18131">
        <ele>136.1734</ele>
        <time>2010-11-28T13:53:38Z</time>
      </trkpt>
      <trkpt lat="46.30012" lon="-0.18132">
        <ele>136.1997</ele>
        <time>2010-11-28T13:53:39Z</time>
      </trkpt>
      <trkpt lat="46.30011" lon="-0.18133">
        <ele>136.2171</ele>
        <time>2010-11-28T13:53:40Z</time>
      </trkpt>
      <trkpt lat="46.3001" lon="-0.18134">
        <ele>136.2255</ele>
        <time>2010-11-28T13:53:41Z</time>
      </trkpt>
      <trkpt lat="46.3001" lon="-0.18135">
        <ele>136.2351</ele>
        <time>2010-11-28T13:53:42Z</time>
      </trkpt>
      <trkpt lat="46.30008" lon="-0.18136">
        <ele>136.2495</ele>
        <time>2010-11-28T13:53:43Z</time>
      </trkpt>
      <trkpt lat="46.30008" lon="-0.18138">
        <ele>136.2448</ele>
        <time>2010-11-28T13:53:44Z</time>
      </trkpt>
      <trkpt lat="46.30007" lon="-0.18139">
        <ele>136.2423</ele>
        <time>2010-11-28T13:53:45Z</time>
      </trkpt>
      <trkpt lat="46.30006" lon="-0.18139">
        <ele>136.2247</ele>
        <time>2010-11-28T13:53:46Z</time>
      </trkpt>
      <trkpt lat="46.30005" lon="-0.1814">
        <ele>136.1445</ele>
        <time>2010-11-28T13:53:47Z</time>
      </trkpt>
      <trkpt lat="46.30004" lon="-0.18141">
        <ele>136.0926</ele>
        <time>2010-11-28T13:53:48Z</time>
      </trkpt>
      <trkpt lat="46.30003" lon="-0.18142">
        <ele>136.0926</ele>
        <time>2010-11-28T13:53:49Z</time>
      </trkpt>
      <trkpt lat="46.30002" lon="-0.18143">
        <ele>136.0475</ele>
        <time>2010-11-28T13:53:50Z</time>
      </trkpt>
      <trkpt lat="46.30002" lon="-0.18143">
        <ele>135.9957</ele>
        <time>2010-11-28T13:53:51Z</time>
      </trkpt>
      <trkpt lat="46.30001" lon="-0.18145">
        <ele>135.9561</ele>
        <time>2010-11-28T13:53:52Z</time>
      </trkpt>
      <trkpt lat="46.3" lon="-0.18146">
        <ele>135.9124</ele>
        <time>2010-11-28T13:53:53Z</time>
      </trkpt>
      <trkpt lat="46.29999" lon="-0.18146">
        <ele>135.8667</ele>
        <time>2010-11-28T13:53:54Z</time>
      </trkpt>
      <trkpt lat="46.29998" lon="-0.18147">
        <ele>135.8886</ele>
        <time>2010-11-28T13:53:55Z</time>
      </trkpt>
      <trkpt lat="46.29996" lon="-0.18148">
        <ele>135.9545</ele>
        <time>2010-11-28T13:53:56Z</time>
      </trkpt>
      <trkpt lat="46.29995" lon="-0.18148">
        <ele>136.0408</ele>
        <time>2010-11-28T13:53:57Z</time>
      </trkpt>
      <trkpt lat="46.29993" lon="-0.18149">
        <ele>136.1388</ele>
        <time>2010-11-28T13:53:58Z</time>
      </trkpt>
      <trkpt lat="46.29993" lon="-0.1815">
        <ele>136.2433</ele>
        <time>2010-11-28T13:53:59Z</time>
      </trkpt>
      <trkpt lat="46.29992" lon="-0.18151">
        <ele>136.3327</ele>
        <time>2010-11-28T13:54:00Z</time>
      </trkpt>
      <trkpt lat="46.29991" lon="-0.18152">
        <ele>136.4175</ele>
        <time>2010-11-28T13:54:01Z</time>
      </trkpt>
      <trkpt lat="46.2999" lon="-0.18152">
        <ele>136.4959</ele>
        <time>2010-11-28T13:54:02Z</time>
      </trkpt>
      <trkpt lat="46.29989" lon="-0.18154">
        <ele>136.5743</ele>
        <time>2010-11-28T13:54:03Z</time>
      </trkpt>
      <trkpt lat="46.29988" lon="-0.18155">
        <ele>136.6535</ele>
        <time>2010-11-28T13:54:04Z</time>
      </trkpt>
      <trkpt lat="46.29987" lon="-0.18155">
        <ele>136.7262</ele>
        <time>2010-11-28T13:54:05Z</time>
      </trkpt>
      <trkpt lat="46.29985" lon="-0.18156">
        <ele>136.7916</ele>
        <time>2010-11-28T13:54:06Z</time>
      </trkpt>
      <trkpt lat="46.29985" lon="-0.18156">
        <ele>136.8516</ele>
        <time>2010-11-28T13:54:07Z</time>
      </trkpt>
      <trkpt lat="46.29984" lon="-0.18157">
        <ele>136.9097</ele>
        <time>2010-11-28T13:54:08Z</time>
      </trkpt>
      <trkpt lat="46.29982" lon="-0.18157">
        <ele>136.9697</ele>
        <time>2010-11-28T13:54:09Z</time>
      </trkpt>
      <trkpt lat="46.29982" lon="-0.18158">
        <ele>137.027</ele>
        <time>2010-11-28T13:54:10Z</time>
      </trkpt>
      <trkpt lat="46.29981" lon="-0.18158">
        <ele>137.0919</ele>
        <time>2010-11-28T13:54:11Z</time>
      </trkpt>
      <trkpt lat="46.2998" lon="-0.18158">
        <ele>137.1616</ele>
        <time>2010-11-28T13:54:12Z</time>
      </trkpt>
      <trkpt lat="46.29979" lon="-0.18159">
        <ele>137.2263</ele>
        <time>2010-11-28T13:54:13Z</time>
      </trkpt>
      <trkpt lat="46.29978" lon="-0.18159">
        <ele>137.2883</ele>
        <time>2010-11-28T13:54:14Z</time>
      </trkpt>
      <trkpt lat="46.29977" lon="-0.1816">
        <ele>137.3336</ele>
        <time>2010-11-28T13:54:15Z</time>
      </trkpt>
      <trkpt lat="46.29976" lon="-0.1816">
        <ele>137.3755</ele>
        <time>2010-11-28T13:54:16Z</time>
      </trkpt>
      <trkpt lat="46.29975" lon="-0.18161">
        <ele>137.4165</ele>
        <time>2010-11-28T13:54:17Z</time>
      </trkpt>
      <trkpt lat="46.29974" lon="-0.18161">
        <ele>137.4536</ele>
        <time>2010-11-28T13:54:18Z</time>
      </trkpt>
      <trkpt lat="46.29974" lon="-0.18162">
        <ele>137.4865</ele>
        <time>2010-11-28T13:54:19Z</time>
      </trkpt>
      <trkpt lat="46.29973" lon="-0.18162">
        <ele>137.5231</ele>
        <time>2010-11-28T13:54:20Z</time>
      </trkpt>
      <trkpt lat="46.29971" lon="-0.18163">
        <ele>137.5516</ele>
        <time>2010-11-28T13:54:21Z</time>
      </trkpt>
      <trkpt lat="46.29971" lon="-0.18163">
        <ele>137.5714</ele>
        <time>2010-11-28T13:54:22Z</time>
      </trkpt>
      <trkpt lat="46.29969" lon="-0.18164">
        <ele>137.58</ele>
        <time>2010-11-28T13:54:23Z</time>
      </trkpt>
      <trkpt lat="46.29969" lon="-0.18164">
        <ele>137.5779</ele>
        <time>2010-11-28T13:54:24Z</time>
      </trkpt>
      <trkpt lat="46.29968" lon="-0.18165">
        <ele>137.5721</ele>
        <time>2010-11-28T13:54:25Z</time>
      </trkpt>
      <trkpt lat="46.29967" lon="-0.18165">
        <ele>137.5598</ele>
        <time>2010-11-28T13:54:26Z</time>
      </trkpt>
      <trkpt lat="46.29966" lon="-0.18166">
        <ele>137.5392</ele>
        <time>2010-11-28T13:54:27Z</time>
      </trkpt>
      <trkpt lat="46.29965" lon="-0.18167">
        <ele>137.5131</ele>
        <time>2010-11-28T13:54:28Z</time>
      </trkpt>
      <trkpt lat="46.29964" lon="-0.18168">
        <ele>137.4709</ele>
        <time>2010-11-28T13:54:29Z</time>
      </trkpt>
      <trkpt lat="46.29964" lon="-0.18169">
        <ele>137.4175</ele>
        <time>2010-11-28T13:54:30Z</time>
      </trkpt>
      <trkpt lat="46.29963" lon="-0.18169">
        <ele>137.3808</ele>
        <time>2010-11-28T13:54:31Z</time>
      </trkpt>
      <trkpt lat="46.29962" lon="-0.1817">
        <ele>137.3527</ele>
        <time>2010-11-28T13:54:32Z</time>
      </trkpt>
      <trkpt lat="46.29961" lon="-0.1817">
        <ele>137.3426</ele>
        <time>2010-11-28T13:54:33Z</time>
      </trkpt>
      <trkpt lat="46.29961" lon="-0.18171">
        <ele>137.3305</ele>
        <time>2010-11-28T13:54:34Z</time>
      </trkpt>
      <trkpt lat="46.2996" lon="-0.18172">
        <ele>137.3137</ele>
        <time>2010-11-28T13:54:35Z</time>
      </trkpt>
      <trkpt lat="46.29959" lon="-0.18173">
        <ele>137.296</ele>
        <time>2010-11-28T13:54:36Z</time>
      </trkpt>
      <trkpt lat="46.29958" lon="-0.18174">
        <ele>137.2773</ele>
        <time>2010-11-28T13:54:37Z</time>
      </trkpt>
      <trkpt lat="46.29958" lon="-0.18174">
        <ele>137.2513</ele>
        <time>2010-11-28T13:54:38Z</time>
      </trkpt>
      <trkpt lat="46.29957" lon="-0.18175">
        <ele>137.2253</ele>
        <time>2010-11-28T13:54:39Z</time>
      </trkpt>
      <trkpt lat="46.29956" lon="-0.18176">
        <ele>137.1875</ele>
        <time>2010-11-28T13:54:40Z</time>
      </trkpt>
      <trkpt lat="46.29956" lon="-0.18178">
        <ele>137.1494</ele>
        <time>2010-11-28T13:54:41Z</time>
      </trkpt>
      <trkpt lat="46.29955" lon="-0.18179">
        <ele>137.1143</ele>
        <time>2010-11-28T13:54:42Z</time>
      </trkpt>
      <trkpt lat="46.29955" lon="-0.1818">
        <ele>137.0694</ele>
        <time>2010-11-28T13:54:43Z</time>
      </trkpt>
      <trkpt lat="46.29954" lon="-0.1818">
        <ele>137.0251</ele>
        <time>2010-11-28T13:54:44Z</time>
      </trkpt>
      <trkpt lat="46.29954" lon="-0.18181">
        <ele>136.9826</ele>
        <time>2010-11-28T13:54:45Z</time>
      </trkpt>
      <trkpt lat="46.29953" lon="-0.18182">
        <ele>136.9468</ele>
        <time>2010-11-28T13:54:46Z</time>
      </trkpt>
      <trkpt lat="46.29953" lon="-0.18183">
        <ele>136.9175</ele>
        <time>2010-11-28T13:54:47Z</time>
      </trkpt>
      <trkpt lat="46.29953" lon="-0.18183">
        <ele>136.8891</ele>
        <time>2010-11-28T13:54:48Z</time>
      </trkpt>
      <trkpt lat="46.29953" lon="-0.18184">
        <ele>136.8533</ele>
        <time>2010-11-28T13:54:49Z</time>
      </trkpt>
      <trkpt lat="46.29952" lon="-0.18185">
        <ele>136.811</ele>
        <time>2010-11-28T13:54:50Z</time>
      </trkpt>
      <trkpt lat="46.29952" lon="-0.18185">
        <ele>136.7705</ele>
        <time>2010-11-28T13:54:51Z</time>
      </trkpt>
      <trkpt lat="46.29952" lon="-0.18186">
        <ele>136.7281</ele>
        <time>2010-11-28T13:54:52Z</time>
      </trkpt>
      <trkpt lat="46.29951" lon="-0.18187">
        <ele>136.67</ele>
        <time>2010-11-28T13:54:53Z</time>
      </trkpt>
      <trkpt lat="46.2995" lon="-0.18187">
        <ele>136.6026</ele>
        <time>2010-11-28T13:54:54Z</time>
      </trkpt>
      <trkpt lat="46.2995" lon="-0.18188">
        <ele>136.5374</ele>
        <time>2010-11-28T13:54:55Z</time>
      </trkpt>
      <trkpt lat="46.2995" lon="-0.18189">
        <ele>136.4666</ele>
        <time>2010-11-28T13:54:56Z</time>
      </trkpt>
      <trkpt lat="46.29949" lon="-0.1819">
        <ele>136.3803</ele>
        <time>2010-11-28T13:54:57Z</time>
      </trkpt>
      <trkpt lat="46.29948" lon="-0.18191">
        <ele>136.3045</ele>
        <time>2010-11-28T13:54:58Z</time>
      </trkpt>
      <trkpt lat="46.29948" lon="-0.18192">
        <ele>136.2231</ele>
        <time>2010-11-28T13:54:59Z</time>
      </trkpt>
      <trkpt lat="46.29948" lon="-0.18193">
        <ele>136.1589</ele>
        <time>2010-11-28T13:55:00Z</time>
      </trkpt>
      <trkpt lat="46.29947" lon="-0.18194">
        <ele>136.0924</ele>
        <time>2010-11-28T13:55:01Z</time>
      </trkpt>
      <trkpt lat="46.29947" lon="-0.18195">
        <ele>136.0262</ele>
        <time>2010-11-28T13:55:02Z</time>
      </trkpt>
      <trkpt lat="46.29946" lon="-0.18196">
        <ele>135.9389</ele>
        <time>2010-11-28T13:55:03Z</time>
      </trkpt>
      <trkpt lat="46.29946" lon="-0.18197">
        <ele>135.8193</ele>
        <time>2010-11-28T13:55:04Z</time>
      </trkpt>
      <trkpt lat="46.29945" lon="-0.18198">
        <ele>135.6832</ele>
        <time>2010-11-28T13:55:05Z</time>
      </trkpt>
      <trkpt lat="46.29944" lon="-0.18199">
        <ele>135.5439</ele>
        <time>2010-11-28T13:55:06Z</time>
      </trkpt>
      <trkpt lat="46.29944" lon="-0.182">
        <ele>135.4054</ele>
        <time>2010-11-28T13:55:07Z</time>
      </trkpt>
      <trkpt lat="46.29943" lon="-0.18201">
        <ele>135.2613</ele>
        <time>2010-11-28T13:55:08Z</time>
      </trkpt>
      <trkpt lat="46.29942" lon="-0.18203">
        <ele>135.14</ele>
        <time>2010-11-28T13:55:09Z</time>
      </trkpt>
      <trkpt lat="46.29942" lon="-0.18204">
        <ele>135.0289</ele>
        <time>2010-11-28T13:55:10Z</time>
      </trkpt>
      <trkpt lat="46.29941" lon="-0.18205">
        <ele>134.9238</ele>
        <time>2010-11-28T13:55:11Z</time>
      </trkpt>
      <trkpt lat="46.2994" lon="-0.18206">
        <ele>134.8293</ele>
        <time>2010-11-28T13:55:12Z</time>
      </trkpt>
      <trkpt lat="46.2994" lon="-0.18207">
        <ele>134.7478</ele>
        <time>2010-11-28T13:55:13Z</time>
      </trkpt>
      <trkpt lat="46.29939" lon="-0.18207">
        <ele>134.6309</ele>
        <time>2010-11-28T13:55:14Z</time>
      </trkpt>
      <trkpt lat="46.29939" lon="-0.18207">
        <ele>134.5009</ele>
        <time>2010-11-28T13:55:15Z</time>
      </trkpt>
      <trkpt lat="46.29938" lon="-0.18208">
        <ele>134.3731</ele>
        <time>2010-11-28T13:55:16Z</time>
      </trkpt>
      <trkpt lat="46.29937" lon="-0.18208">
        <ele>134.2474</ele>
        <time>2010-11-28T13:55:17Z</time>
      </trkpt>
      <trkpt lat="46.29937" lon="-0.18209">
        <ele>134.1362</ele>
        <time>2010-11-28T13:55:18Z</time>
      </trkpt>
      <trkpt lat="46.29936" lon="-0.1821">
        <ele>134.0355</ele>
        <time>2010-11-28T13:55:19Z</time>
      </trkpt>
      <trkpt lat="46.29936" lon="-0.18211">
        <ele>133.9363</ele>
        <time>2010-11-28T13:55:20Z</time>
      </trkpt>
      <trkpt lat="46.29935" lon="-0.18212">
        <ele>133.8533</ele>
        <time>2010-11-28T13:55:21Z</time>
      </trkpt>
      <trkpt lat="46.29934" lon="-0.18213">
        <ele>133.7657</ele>
        <time>2010-11-28T13:55:22Z</time>
      </trkpt>
      <trkpt lat="46.29934" lon="-0.18214">
        <ele>133.6891</ele>
        <time>2010-11-28T13:55:23Z</time>
      </trkpt>
      <trkpt lat="46.29933" lon="-0.18215">
        <ele>133.6891</ele>
        <time>2010-11-28T13:55:24Z</time>
      </trkpt>
      <trkpt lat="46.29934" lon="-0.18217">
        <ele>133.6229</ele>
        <time>2010-11-28T13:55:25Z</time>
      </trkpt>
      <trkpt lat="46.29934" lon="-0.18218">
        <ele>133.5604</ele>
        <time>2010-11-28T13:55:26Z</time>
      </trkpt>
      <trkpt lat="46.29933" lon="-0.1822">
        <ele>133.4981</ele>
        <time>2010-11-28T13:55:27Z</time>
      </trkpt>
      <trkpt lat="46.29933" lon="-0.18222">
        <ele>133.4299</ele>
        <time>2010-11-28T13:55:28Z</time>
      </trkpt>
      <trkpt lat="46.29933" lon="-0.18225">
        <ele>133.3519</ele>
        <time>2010-11-28T13:55:29Z</time>
      </trkpt>
      <trkpt lat="46.29932" lon="-0.18227">
        <ele>133.2878</ele>
        <time>2010-11-28T13:55:30Z</time>
      </trkpt>
      <trkpt lat="46.29931" lon="-0.1823">
        <ele>133.2836</ele>
        <time>2010-11-28T13:55:31Z</time>
      </trkpt>
      <trkpt lat="46.29929" lon="-0.18232">
        <ele>133.3167</ele>
        <time>2010-11-28T13:55:32Z</time>
      </trkpt>
      <trkpt lat="46.29928" lon="-0.18234">
        <ele>133.368</ele>
        <time>2010-11-28T13:55:33Z</time>
      </trkpt>
      <trkpt lat="46.29927" lon="-0.18237">
        <ele>133.4341</ele>
        <time>2010-11-28T13:55:34Z</time>
      </trkpt>
      <trkpt lat="46.29926" lon="-0.18239">
        <ele>133.5107</ele>
        <time>2010-11-28T13:55:35Z</time>
      </trkpt>
      <trkpt lat="46.29926" lon="-0.1824">
        <ele>133.5762</ele>
        <time>2010-11-28T13:55:36Z</time>
      </trkpt>
      <trkpt lat="46.29926" lon="-0.18242">
        <ele>133.6255</ele>
        <time>2010-11-28T13:55:37Z</time>
      </trkpt>
      <trkpt lat="46.29926" lon="-0.18243">
        <ele>133.6562</ele>
        <time>2010-11-28T13:55:38Z</time>
      </trkpt>
      <trkpt lat="46.29925" lon="-0.18245">
        <ele>133.6733</ele>
        <time>2010-11-28T13:55:39Z</time>
      </trkpt>
      <trkpt lat="46.29925" lon="-0.18246">
        <ele>133.694</ele>
        <time>2010-11-28T13:55:40Z</time>
      </trkpt>
      <trkpt lat="46.29925" lon="-0.18247">
        <ele>133.694</ele>
        <time>2010-11-28T13:55:41Z</time>
      </trkpt>
      <trkpt lat="46.29926" lon="-0.18248">
        <ele>133.7191</ele>
        <time>2010-11-28T13:55:42Z</time>
      </trkpt>
      <trkpt lat="46.29927" lon="-0.18249">
        <ele>133.7408</ele>
        <time>2010-11-28T13:55:43Z</time>
      </trkpt>
      <trkpt lat="46.29927" lon="-0.1825">
        <ele>133.7758</ele>
        <time>2010-11-28T13:55:44Z</time>
      </trkpt>
      <trkpt lat="46.29928" lon="-0.18252">
        <ele>133.8073</ele>
        <time>2010-11-28T13:55:45Z</time>
      </trkpt>
      <trkpt lat="46.29929" lon="-0.18254">
        <ele>133.8405</ele>
        <time>2010-11-28T13:55:46Z</time>
      </trkpt>
      <trkpt lat="46.29929" lon="-0.18256">
        <ele>133.8869</ele>
        <time>2010-11-28T13:55:47Z</time>
      </trkpt>
      <trkpt lat="46.29929" lon="-0.18257">
        <ele>133.933</ele>
        <time>2010-11-28T13:55:48Z</time>
      </trkpt>
      <trkpt lat="46.2993" lon="-0.18259">
        <ele>133.9761</ele>
        <time>2010-11-28T13:55:49Z</time>
      </trkpt>
      <trkpt lat="46.2993" lon="-0.18261">
        <ele>134.0182</ele>
        <time>2010-11-28T13:55:50Z</time>
      </trkpt>
      <trkpt lat="46.29931" lon="-0.18262">
        <ele>134.0579</ele>
        <time>2010-11-28T13:55:51Z</time>
      </trkpt>
      <trkpt lat="46.29931" lon="-0.18264">
        <ele>134.0962</ele>
        <time>2010-11-28T13:55:52Z</time>
      </trkpt>
      <trkpt lat="46.29931" lon="-0.18265">
        <ele>134.1298</ele>
        <time>2010-11-28T13:55:53Z</time>
      </trkpt>
      <trkpt lat="46.29932" lon="-0.18266">
        <ele>134.1583</ele>
        <time>2010-11-28T13:55:54Z</time>
      </trkpt>
      <trkpt lat="46.29932" lon="-0.18268">
        <ele>134.1877</ele>
        <time>2010-11-28T13:55:55Z</time>
      </trkpt>
      <trkpt lat="46.29933" lon="-0.18269">
        <ele>134.2172</ele>
        <time>2010-11-28T13:55:56Z</time>
      </trkpt>
      <trkpt lat="46.29934" lon="-0.1827">
        <ele>134.248</ele>
        <time>2010-11-28T13:55:57Z</time>
      </trkpt>
      <trkpt lat="46.29934" lon="-0.18272">
        <ele>134.2829</ele>
        <time>2010-11-28T13:55:58Z</time>
      </trkpt>
      <trkpt lat="46.29935" lon="-0.18273">
        <ele>134.3204</ele>
        <time>2010-11-28T13:55:59Z</time>
      </trkpt>
      <trkpt lat="46.29936" lon="-0.18274">
        <ele>134.3574</ele>
        <time>2010-11-28T13:56:00Z</time>
      </trkpt>
      <trkpt lat="46.29936" lon="-0.18275">
        <ele>134.3948</ele>
        <time>2010-11-28T13:56:01Z</time>
      </trkpt>
      <trkpt lat="46.29937" lon="-0.18276">
        <ele>134.432</ele>
        <time>2010-11-28T13:56:02Z</time>
      </trkpt>
      <trkpt lat="46.29937" lon="-0.18278">
        <ele>134.4674</ele>
        <time>2010-11-28T13:56:03Z</time>
      </trkpt>
      <trkpt lat="46.29938" lon="-0.18279">
        <ele>134.5028</ele>
        <time>2010-11-28T13:56:04Z</time>
      </trkpt>
      <trkpt lat="46.29938" lon="-0.1828">
        <ele>134.5354</ele>
        <time>2010-11-28T13:56:05Z</time>
      </trkpt>
      <trkpt lat="46.29939" lon="-0.18282">
        <ele>134.567</ele>
        <time>2010-11-28T13:56:06Z</time>
      </trkpt>
      <trkpt lat="46.2994" lon="-0.18283">
        <ele>134.5975</ele>
        <time>2010-11-28T13:56:07Z</time>
      </trkpt>
      <trkpt lat="46.2994" lon="-0.18284">
        <ele>134.6274</ele>
        <time>2010-11-28T13:56:08Z</time>
      </trkpt>
      <trkpt lat="46.29941" lon="-0.18285">
        <ele>134.6593</ele>
        <time>2010-11-28T13:56:09Z</time>
      </trkpt>
      <trkpt lat="46.29942" lon="-0.18286">
        <ele>134.6918</ele>
        <time>2010-11-28T13:56:10Z</time>
      </trkpt>
      <trkpt lat="46.29942" lon="-0.18288">
        <ele>134.7288</ele>
        <time>2010-11-28T13:56:11Z</time>
      </trkpt>
      <trkpt lat="46.29943" lon="-0.18289">
        <ele>134.7723</ele>
        <time>2010-11-28T13:56:12Z</time>
      </trkpt>
      <trkpt lat="46.29944" lon="-0.18291">
        <ele>134.8178</ele>
        <time>2010-11-28T13:56:13Z</time>
      </trkpt>
      <trkpt lat="46.29944" lon="-0.18292">
        <ele>134.8643</ele>
        <time>2010-11-28T13:56:14Z</time>
      </trkpt>
      <trkpt lat="46.29945" lon="-0.18293">
        <ele>134.9112</ele>
        <time>2010-11-28T13:56:15Z</time>
      </trkpt>
      <trkpt lat="46.29945" lon="-0.18294">
        <ele>134.9478</ele>
        <time>2010-11-28T13:56:16Z</time>
      </trkpt>
      <trkpt lat="46.29946" lon="-0.18295">
        <ele>134.9837</ele>
        <time>2010-11-28T13:56:17Z</time>
      </trkpt>
      <trkpt lat="46.29947" lon="-0.18296">
        <ele>135.0184</ele>
        <time>2010-11-28T13:56:18Z</time>
      </trkpt>
      <trkpt lat="46.29947" lon="-0.18297">
        <ele>135.0506</ele>
        <time>2010-11-28T13:56:19Z</time>
      </trkpt>
      <trkpt lat="46.29948" lon="-0.18298">
        <ele>135.0898</ele>
        <time>2010-11-28T13:56:20Z</time>
      </trkpt>
      <trkpt lat="46.29949" lon="-0.183">
        <ele>135.146</ele>
        <time>2010-11-28T13:56:21Z</time>
      </trkpt>
      <trkpt lat="46.29949" lon="-0.18303">
        <ele>135.2187</ele>
        <time>2010-11-28T13:56:22Z</time>
      </trkpt>
      <trkpt lat="46.2995" lon="-0.18304">
        <ele>135.2957</ele>
        <time>2010-11-28T13:56:23Z</time>
      </trkpt>
      <trkpt lat="46.29951" lon="-0.18306">
        <ele>135.375</ele>
        <time>2010-11-28T13:56:24Z</time>
      </trkpt>
      <trkpt lat="46.29952" lon="-0.18308">
        <ele>135.4564</ele>
        <time>2010-11-28T13:56:25Z</time>
      </trkpt>
      <trkpt lat="46.29952" lon="-0.1831">
        <ele>135.5515</ele>
        <time>2010-11-28T13:56:26Z</time>
      </trkpt>
      <trkpt lat="46.29953" lon="-0.18311">
        <ele>135.6449</ele>
        <time>2010-11-28T13:56:27Z</time>
      </trkpt>
      <trkpt lat="46.29953" lon="-0.18313">
        <ele>135.7368</ele>
        <time>2010-11-28T13:56:28Z</time>
      </trkpt>
      <trkpt lat="46.29954" lon="-0.18314">
        <ele>135.8274</ele>
        <time>2010-11-28T13:56:29Z</time>
      </trkpt>
      <trkpt lat="46.29955" lon="-0.18316">
        <ele>135.9195</ele>
        <time>2010-11-28T13:56:30Z</time>
      </trkpt>
      <trkpt lat="46.29955" lon="-0.18317">
        <ele>136.0127</ele>
        <time>2010-11-28T13:56:31Z</time>
      </trkpt>
      <trkpt lat="46.29956" lon="-0.18318">
        <ele>136.1083</ele>
        <time>2010-11-28T13:56:32Z</time>
      </trkpt>
      <trkpt lat="46.29956" lon="-0.18319">
        <ele>136.201</ele>
        <time>2010-11-28T13:56:33Z</time>
      </trkpt>
      <trkpt lat="46.29957" lon="-0.1832">
        <ele>136.2924</ele>
        <time>2010-11-28T13:56:34Z</time>
      </trkpt>
      <trkpt lat="46.29958" lon="-0.18321">
        <ele>136.3821</ele>
        <time>2010-11-28T13:56:35Z</time>
      </trkpt>
      <trkpt lat="46.29959" lon="-0.18322">
        <ele>136.4702</ele>
        <time>2010-11-28T13:56:36Z</time>
      </trkpt>
      <trkpt lat="46.2996" lon="-0.18323">
        <ele>136.5559</ele>
        <time>2010-11-28T13:56:37Z</time>
      </trkpt>
      <trkpt lat="46.2996" lon="-0.18324">
        <ele>136.6302</ele>
        <time>2010-11-28T13:56:38Z</time>
      </trkpt>
      <trkpt lat="46.29961" lon="-0.18325">
        <ele>136.6302</ele>
        <time>2010-11-28T13:56:39Z</time>
      </trkpt>
      <trkpt lat="46.29961" lon="-0.18326">
        <ele>136.7242</ele>
        <time>2010-11-28T13:56:40Z</time>
      </trkpt>
      <trkpt lat="46.29962" lon="-0.18327">
        <ele>136.8117</ele>
        <time>2010-11-28T13:56:41Z</time>
      </trkpt>
      <trkpt lat="46.29963" lon="-0.18329">
        <ele>136.9242</ele>
        <time>2010-11-28T13:56:42Z</time>
      </trkpt>
      <trkpt lat="46.29964" lon="-0.1833">
        <ele>137.0251</ele>
        <time>2010-11-28T13:56:43Z</time>
      </trkpt>
      <trkpt lat="46.29964" lon="-0.18332">
        <ele>137.1208</ele>
        <time>2010-11-28T13:56:44Z</time>
      </trkpt>
      <trkpt lat="46.29965" lon="-0.18333">
        <ele>137.2112</ele>
        <time>2010-11-28T13:56:45Z</time>
      </trkpt>
      <trkpt lat="46.29965" lon="-0.18335">
        <ele>137.297</ele>
        <time>2010-11-28T13:56:46Z</time>
      </trkpt>
      <trkpt lat="46.29966" lon="-0.18336">
        <ele>137.3814</ele>
        <time>2010-11-28T13:56:47Z</time>
      </trkpt>
      <trkpt lat="46.29966" lon="-0.18337">
        <ele>137.4714</ele>
        <time>2010-11-28T13:56:48Z</time>
      </trkpt>
      <trkpt lat="46.29966" lon="-0.18338">
        <ele>137.564</ele>
        <time>2010-11-28T13:56:49Z</time>
      </trkpt>
      <trkpt lat="46.29966" lon="-0.18339">
        <ele>137.6575</ele>
        <time>2010-11-28T13:56:50Z</time>
      </trkpt>
      <trkpt lat="46.29966" lon="-0.1834">
        <ele>137.7542</ele>
        <time>2010-11-28T13:56:51Z</time>
      </trkpt>
      <trkpt lat="46.29965" lon="-0.1834">
        <ele>137.8438</ele>
        <time>2010-11-28T13:56:52Z</time>
      </trkpt>
      <trkpt lat="46.29961" lon="-0.18337">
        <ele>138.0549</ele>
        <time>2010-11-28T13:57:15Z</time>
      </trkpt>
      <trkpt lat="46.29959" lon="-0.18337">
        <ele>138.0483</ele>
        <time>2010-11-28T13:57:22Z</time>
      </trkpt>
      <trkpt lat="46.29958" lon="-0.18337">
        <ele>138.0542</ele>
        <time>2010-11-28T13:57:23Z</time>
      </trkpt>
      <trkpt lat="46.29957" lon="-0.18338">
        <ele>138.0625</ele>
        <time>2010-11-28T13:57:24Z</time>
      </trkpt>
      <trkpt lat="46.29956" lon="-0.18338">
        <ele>138.0707</ele>
        <time>2010-11-28T13:57:25Z</time>
      </trkpt>
      <trkpt lat="46.29955" lon="-0.18339">
        <ele>138.0834</ele>
        <time>2010-11-28T13:57:26Z</time>
      </trkpt>
      <trkpt lat="46.29955" lon="-0.18339">
        <ele>138.0958</ele>
        <time>2010-11-28T13:57:27Z</time>
      </trkpt>
      <trkpt lat="46.29954" lon="-0.1834">
        <ele>138.118</ele>
        <time>2010-11-28T13:57:28Z</time>
      </trkpt>
      <trkpt lat="46.29953" lon="-0.18341">
        <ele>138.1404</ele>
        <time>2010-11-28T13:57:29Z</time>
      </trkpt>
      <trkpt lat="46.29952" lon="-0.18341">
        <ele>138.1738</ele>
        <time>2010-11-28T13:57:30Z</time>
      </trkpt>
      <trkpt lat="46.29952" lon="-0.18342">
        <ele>138.2065</ele>
        <time>2010-11-28T13:57:31Z</time>
      </trkpt>
      <trkpt lat="46.29951" lon="-0.18342">
        <ele>138.2384</ele>
        <time>2010-11-28T13:57:32Z</time>
      </trkpt>
      <trkpt lat="46.2995" lon="-0.18343">
        <ele>138.2673</ele>
        <time>2010-11-28T13:57:33Z</time>
      </trkpt>
      <trkpt lat="46.29949" lon="-0.18343">
        <ele>138.2896</ele>
        <time>2010-11-28T13:57:34Z</time>
      </trkpt>
      <trkpt lat="46.29948" lon="-0.18344">
        <ele>138.3119</ele>
        <time>2010-11-28T13:57:35Z</time>
      </trkpt>
      <trkpt lat="46.29947" lon="-0.18344">
        <ele>138.3371</ele>
        <time>2010-11-28T13:57:36Z</time>
      </trkpt>
      <trkpt lat="46.29946" lon="-0.18345">
        <ele>138.3581</ele>
        <time>2010-11-28T13:57:37Z</time>
      </trkpt>
      <trkpt lat="46.29945" lon="-0.18346">
        <ele>138.3787</ele>
        <time>2010-11-28T13:57:38Z</time>
      </trkpt>
      <trkpt lat="46.29944" lon="-0.18346">
        <ele>138.3904</ele>
        <time>2010-11-28T13:57:39Z</time>
      </trkpt>
      <trkpt lat="46.29944" lon="-0.18347">
        <ele>138.4005</ele>
        <time>2010-11-28T13:57:40Z</time>
      </trkpt>
      <trkpt lat="46.29943" lon="-0.18348">
        <ele>138.4103</ele>
        <time>2010-11-28T13:57:41Z</time>
      </trkpt>
      <trkpt lat="46.29942" lon="-0.18348">
        <ele>138.4211</ele>
        <time>2010-11-28T13:57:42Z</time>
      </trkpt>
      <trkpt lat="46.29941" lon="-0.18349">
        <ele>138.4295</ele>
        <time>2010-11-28T13:57:43Z</time>
      </trkpt>
      <trkpt lat="46.2994" lon="-0.1835">
        <ele>138.439</ele>
        <time>2010-11-28T13:57:44Z</time>
      </trkpt>
      <trkpt lat="46.29939" lon="-0.18351">
        <ele>138.4453</ele>
        <time>2010-11-28T13:57:45Z</time>
      </trkpt>
      <trkpt lat="46.29938" lon="-0.18351">
        <ele>138.4431</ele>
        <time>2010-11-28T13:57:46Z</time>
      </trkpt>
      <trkpt lat="46.29937" lon="-0.18352">
        <ele>138.4394</ele>
        <time>2010-11-28T13:57:47Z</time>
      </trkpt>
      <trkpt lat="46.29937" lon="-0.18352">
        <ele>138.437</ele>
        <time>2010-11-28T13:57:48Z</time>
      </trkpt>
      <trkpt lat="46.29936" lon="-0.18353">
        <ele>138.432</ele>
        <time>2010-11-28T13:57:49Z</time>
      </trkpt>
      <trkpt lat="46.29935" lon="-0.18354">
        <ele>138.4264</ele>
        <time>2010-11-28T13:57:50Z</time>
      </trkpt>
      <trkpt lat="46.29934" lon="-0.18355">
        <ele>138.4336</ele>
        <time>2010-11-28T13:57:51Z</time>
      </trkpt>
      <trkpt lat="46.29933" lon="-0.18356">
        <ele>138.4392</ele>
        <time>2010-11-28T13:57:52Z</time>
      </trkpt>
      <trkpt lat="46.29932" lon="-0.18358">
        <ele>138.4497</ele>
        <time>2010-11-28T13:57:53Z</time>
      </trkpt>
      <trkpt lat="46.29932" lon="-0.18359">
        <ele>138.4606</ele>
        <time>2010-11-28T13:57:54Z</time>
      </trkpt>
      <trkpt lat="46.29931" lon="-0.1836">
        <ele>138.4701</ele>
        <time>2010-11-28T13:57:55Z</time>
      </trkpt>
      <trkpt lat="46.2993" lon="-0.18361">
        <ele>138.477</ele>
        <time>2010-11-28T13:57:56Z</time>
      </trkpt>
      <trkpt lat="46.29929" lon="-0.18362">
        <ele>138.4793</ele>
        <time>2010-11-28T13:57:57Z</time>
      </trkpt>
      <trkpt lat="46.29929" lon="-0.18363">
        <ele>138.4891</ele>
        <time>2010-11-28T13:57:58Z</time>
      </trkpt>
      <trkpt lat="46.29929" lon="-0.18364">
        <ele>138.4987</ele>
        <time>2010-11-28T13:57:59Z</time>
      </trkpt>
      <trkpt lat="46.29928" lon="-0.18365">
        <ele>138.499</ele>
        <time>2010-11-28T13:58:00Z</time>
      </trkpt>
      <trkpt lat="46.29927" lon="-0.18366">
        <ele>138.49</ele>
        <time>2010-11-28T13:58:01Z</time>
      </trkpt>
      <trkpt lat="46.29927" lon="-0.18367">
        <ele>138.4785</ele>
        <time>2010-11-28T13:58:02Z</time>
      </trkpt>
      <trkpt lat="46.29926" lon="-0.18368">
        <ele>138.4625</ele>
        <time>2010-11-28T13:58:03Z</time>
      </trkpt>
      <trkpt lat="46.29925" lon="-0.18369">
        <ele>138.4408</ele>
        <time>2010-11-28T13:58:04Z</time>
      </trkpt>
      <trkpt lat="46.29924" lon="-0.1837">
        <ele>138.4145</ele>
        <time>2010-11-28T13:58:05Z</time>
      </trkpt>
      <trkpt lat="46.29924" lon="-0.18371">
        <ele>138.3834</ele>
        <time>2010-11-28T13:58:06Z</time>
      </trkpt>
      <trkpt lat="46.29923" lon="-0.18373">
        <ele>138.3519</ele>
        <time>2010-11-28T13:58:07Z</time>
      </trkpt>
      <trkpt lat="46.29922" lon="-0.18374">
        <ele>138.3189</ele>
        <time>2010-11-28T13:58:08Z</time>
      </trkpt>
      <trkpt lat="46.29922" lon="-0.18375">
        <ele>138.2823</ele>
        <time>2010-11-28T13:58:09Z</time>
      </trkpt>
      <trkpt lat="46.29921" lon="-0.18376">
        <ele>138.2421</ele>
        <time>2010-11-28T13:58:10Z</time>
      </trkpt>
      <trkpt lat="46.2992" lon="-0.18377">
        <ele>138.2028</ele>
        <time>2010-11-28T13:58:11Z</time>
      </trkpt>
      <trkpt lat="46.29919" lon="-0.18378">
        <ele>138.1642</ele>
        <time>2010-11-28T13:58:12Z</time>
      </trkpt>
      <trkpt lat="46.29919" lon="-0.18378">
        <ele>138.123</ele>
        <time>2010-11-28T13:58:13Z</time>
      </trkpt>
      <trkpt lat="46.29919" lon="-0.18378">
        <ele>138.0793</ele>
        <time>2010-11-28T13:58:14Z</time>
      </trkpt>
      <trkpt lat="46.29919" lon="-0.18379">
        <ele>138.0339</ele>
        <time>2010-11-28T13:58:15Z</time>
      </trkpt>
      <trkpt lat="46.29918" lon="-0.18379">
        <ele>137.9888</ele>
        <time>2010-11-28T13:58:16Z</time>
      </trkpt>
      <trkpt lat="46.29917" lon="-0.1838">
        <ele>137.958</ele>
        <time>2010-11-28T13:58:22Z</time>
      </trkpt>
      <trkpt lat="46.29916" lon="-0.18382">
        <ele>137.9389</ele>
        <time>2010-11-28T13:58:23Z</time>
      </trkpt>
      <trkpt lat="46.29915" lon="-0.18383">
        <ele>137.9166</ele>
        <time>2010-11-28T13:58:24Z</time>
      </trkpt>
      <trkpt lat="46.29915" lon="-0.18383">
        <ele>137.8959</ele>
        <time>2010-11-28T13:58:25Z</time>
      </trkpt>
      <trkpt lat="46.29914" lon="-0.18384">
        <ele>137.8702</ele>
        <time>2010-11-28T13:58:26Z</time>
      </trkpt>
      <trkpt lat="46.29913" lon="-0.18386">
        <ele>137.8514</ele>
        <time>2010-11-28T13:58:27Z</time>
      </trkpt>
      <trkpt lat="46.29913" lon="-0.18387">
        <ele>137.8467</ele>
        <time>2010-11-28T13:58:28Z</time>
      </trkpt>
      <trkpt lat="46.29912" lon="-0.18388">
        <ele>137.8442</ele>
        <time>2010-11-28T13:58:29Z</time>
      </trkpt>
      <trkpt lat="46.29911" lon="-0.18389">
        <ele>137.8442</ele>
        <time>2010-11-28T13:58:30Z</time>
      </trkpt>
      <trkpt lat="46.29911" lon="-0.1839">
        <ele>137.8493</ele>
        <time>2010-11-28T13:58:31Z</time>
      </trkpt>
      <trkpt lat="46.2991" lon="-0.18391">
        <ele>137.922</ele>
        <time>2010-11-28T13:58:35Z</time>
      </trkpt>
      <trkpt lat="46.2991" lon="-0.18391">
        <ele>137.947</ele>
        <time>2010-11-28T13:58:36Z</time>
      </trkpt>
      <trkpt lat="46.29909" lon="-0.18392">
        <ele>137.9717</ele>
        <time>2010-11-28T13:58:37Z</time>
      </trkpt>
      <trkpt lat="46.29908" lon="-0.18393">
        <ele>137.9942</ele>
        <time>2010-11-28T13:58:38Z</time>
      </trkpt>
      <trkpt lat="46.29908" lon="-0.18394">
        <ele>138.0231</ele>
        <time>2010-11-28T13:58:39Z</time>
      </trkpt>
      <trkpt lat="46.29907" lon="-0.18395">
        <ele>138.0452</ele>
        <time>2010-11-28T13:58:40Z</time>
      </trkpt>
      <trkpt lat="46.29907" lon="-0.18396">
        <ele>138.0654</ele>
        <time>2010-11-28T13:58:41Z</time>
      </trkpt>
      <trkpt lat="46.29906" lon="-0.18397">
        <ele>138.0845</ele>
        <time>2010-11-28T13:58:42Z</time>
      </trkpt>
      <trkpt lat="46.29905" lon="-0.18398">
        <ele>138.0999</ele>
        <time>2010-11-28T13:58:43Z</time>
      </trkpt>
      <trkpt lat="46.29905" lon="-0.18399">
        <ele>138.1121</ele>
        <time>2010-11-28T13:58:44Z</time>
      </trkpt>
      <trkpt lat="46.29904" lon="-0.184">
        <ele>138.1244</ele>
        <time>2010-11-28T13:58:45Z</time>
      </trkpt>
      <trkpt lat="46.29904" lon="-0.18401">
        <ele>138.1349</ele>
        <time>2010-11-28T13:58:46Z</time>
      </trkpt>
      <trkpt lat="46.29903" lon="-0.18402">
        <ele>138.1437</ele>
        <time>2010-11-28T13:58:47Z</time>
      </trkpt>
      <trkpt lat="46.29902" lon="-0.18403">
        <ele>138.1561</ele>
        <time>2010-11-28T13:58:48Z</time>
      </trkpt>
      <trkpt lat="46.29902" lon="-0.18404">
        <ele>138.1616</ele>
        <time>2010-11-28T13:58:49Z</time>
      </trkpt>
      <trkpt lat="46.29902" lon="-0.18405">
        <ele>138.1594</ele>
        <time>2010-11-28T13:58:50Z</time>
      </trkpt>
      <trkpt lat="46.29901" lon="-0.18406">
        <ele>138.1591</ele>
        <time>2010-11-28T13:58:51Z</time>
      </trkpt>
      <trkpt lat="46.299" lon="-0.18407">
        <ele>138.1659</ele>
        <time>2010-11-28T13:58:52Z</time>
      </trkpt>
      <trkpt lat="46.29899" lon="-0.18408">
        <ele>138.1702</ele>
        <time>2010-11-28T13:58:53Z</time>
      </trkpt>
      <trkpt lat="46.29899" lon="-0.18409">
        <ele>138.1827</ele>
        <time>2010-11-28T13:58:54Z</time>
      </trkpt>
      <trkpt lat="46.29898" lon="-0.1841">
        <ele>138.2018</ele>
        <time>2010-11-28T13:58:55Z</time>
      </trkpt>
      <trkpt lat="46.29897" lon="-0.18411">
        <ele>138.2165</ele>
        <time>2010-11-28T13:58:56Z</time>
      </trkpt>
      <trkpt lat="46.29897" lon="-0.18411">
        <ele>138.2293</ele>
        <time>2010-11-28T13:58:57Z</time>
      </trkpt>
      <trkpt lat="46.29896" lon="-0.18412">
        <ele>138.2466</ele>
        <time>2010-11-28T13:58:58Z</time>
      </trkpt>
      <trkpt lat="46.29895" lon="-0.18413">
        <ele>138.2643</ele>
        <time>2010-11-28T13:58:59Z</time>
      </trkpt>
      <trkpt lat="46.29894" lon="-0.18414">
        <ele>138.2964</ele>
        <time>2010-11-28T13:59:00Z</time>
      </trkpt>
      <trkpt lat="46.29894" lon="-0.18415">
        <ele>138.3212</ele>
        <time>2010-11-28T13:59:01Z</time>
      </trkpt>
      <trkpt lat="46.29892" lon="-0.18416">
        <ele>138.3801</ele>
        <time>2010-11-28T13:59:02Z</time>
      </trkpt>
      <trkpt lat="46.29891" lon="-0.18417">
        <ele>138.4455</ele>
        <time>2010-11-28T13:59:03Z</time>
      </trkpt>
      <trkpt lat="46.29889" lon="-0.18418">
        <ele>138.5221</ele>
        <time>2010-11-28T13:59:04Z</time>
      </trkpt>
      <trkpt lat="46.29888" lon="-0.18419">
        <ele>138.6232</ele>
        <time>2010-11-28T13:59:05Z</time>
      </trkpt>
      <trkpt lat="46.29886" lon="-0.1842">
        <ele>138.7357</ele>
        <time>2010-11-28T13:59:06Z</time>
      </trkpt>
      <trkpt lat="46.29885" lon="-0.18421">
        <ele>138.8724</ele>
        <time>2010-11-28T13:59:07Z</time>
      </trkpt>
      <trkpt lat="46.29883" lon="-0.18423">
        <ele>139.0364</ele>
        <time>2010-11-28T13:59:08Z</time>
      </trkpt>
      <trkpt lat="46.29882" lon="-0.18424">
        <ele>139.1975</ele>
        <time>2010-11-28T13:59:09Z</time>
      </trkpt>
      <trkpt lat="46.29881" lon="-0.18424">
        <ele>139.3566</ele>
        <time>2010-11-28T13:59:10Z</time>
      </trkpt>
      <trkpt lat="46.2988" lon="-0.18425">
        <ele>139.5094</ele>
        <time>2010-11-28T13:59:11Z</time>
      </trkpt>
      <trkpt lat="46.29879" lon="-0.18426">
        <ele>139.6876</ele>
        <time>2010-11-28T13:59:12Z</time>
      </trkpt>
      <trkpt lat="46.29878" lon="-0.18426">
        <ele>139.8622</ele>
        <time>2010-11-28T13:59:13Z</time>
      </trkpt>
      <trkpt lat="46.29876" lon="-0.18427">
        <ele>140.033</ele>
        <time>2010-11-28T13:59:14Z</time>
      </trkpt>
      <trkpt lat="46.29875" lon="-0.18428">
        <ele>140.2212</ele>
        <time>2010-11-28T13:59:15Z</time>
      </trkpt>
      <trkpt lat="46.29874" lon="-0.18428">
        <ele>140.406</ele>
        <time>2010-11-28T13:59:16Z</time>
      </trkpt>
      <trkpt lat="46.29873" lon="-0.18428">
        <ele>140.5862</ele>
        <time>2010-11-28T13:59:17Z</time>
      </trkpt>
      <trkpt lat="46.29872" lon="-0.18429">
        <ele>140.7812</ele>
        <time>2010-11-28T13:59:18Z</time>
      </trkpt>
      <trkpt lat="46.29871" lon="-0.18429">
        <ele>140.9649</ele>
        <time>2010-11-28T13:59:19Z</time>
      </trkpt>
      <trkpt lat="46.2987" lon="-0.18429">
        <ele>141.1432</ele>
        <time>2010-11-28T13:59:20Z</time>
      </trkpt>
      <trkpt lat="46.2987" lon="-0.1843">
        <ele>141.3159</ele>
        <time>2010-11-28T13:59:21Z</time>
      </trkpt>
      <trkpt lat="46.29869" lon="-0.1843">
        <ele>141.4861</ele>
        <time>2010-11-28T13:59:22Z</time>
      </trkpt>
      <trkpt lat="46.29868" lon="-0.1843">
        <ele>141.6489</ele>
        <time>2010-11-28T13:59:23Z</time>
      </trkpt>
      <trkpt lat="46.29867" lon="-0.18431">
        <ele>141.8081</ele>
        <time>2010-11-28T13:59:24Z</time>
      </trkpt>
      <trkpt lat="46.29867" lon="-0.18431">
        <ele>141.9644</ele>
        <time>2010-11-28T13:59:25Z</time>
      </trkpt>
      <trkpt lat="46.29866" lon="-0.18432">
        <ele>142.1212</ele>
        <time>2010-11-28T13:59:26Z</time>
      </trkpt>
      <trkpt lat="46.29865" lon="-0.18432">
        <ele>142.272</ele>
        <time>2010-11-28T13:59:27Z</time>
      </trkpt>
      <trkpt lat="46.29865" lon="-0.18432">
        <ele>142.412</ele>
        <time>2010-11-28T13:59:28Z</time>
      </trkpt>
      <trkpt lat="46.29864" lon="-0.18432">
        <ele>142.5374</ele>
        <time>2010-11-28T13:59:29Z</time>
      </trkpt>
      <trkpt lat="46.29863" lon="-0.18433">
        <ele>142.6654</ele>
        <time>2010-11-28T13:59:30Z</time>
      </trkpt>
      <trkpt lat="46.29863" lon="-0.18433">
        <ele>142.7997</ele>
        <time>2010-11-28T13:59:31Z</time>
      </trkpt>
      <trkpt lat="46.29862" lon="-0.18433">
        <ele>142.9335</ele>
        <time>2010-11-28T13:59:32Z</time>
      </trkpt>
      <trkpt lat="46.2986" lon="-0.18434">
        <ele>143.0659</ele>
        <time>2010-11-28T13:59:33Z</time>
      </trkpt>
      <trkpt lat="46.2986" lon="-0.18434">
        <ele>143.1808</ele>
        <time>2010-11-28T13:59:34Z</time>
      </trkpt>
      <trkpt lat="46.29858" lon="-0.18434">
        <ele>143.3043</ele>
        <time>2010-11-28T13:59:35Z</time>
      </trkpt>
      <trkpt lat="46.29857" lon="-0.18434">
        <ele>143.4023</ele>
        <time>2010-11-28T13:59:36Z</time>
      </trkpt>
      <trkpt lat="46.29857" lon="-0.18435">
        <ele>143.4817</ele>
        <time>2010-11-28T13:59:37Z</time>
      </trkpt>
      <trkpt lat="46.29855" lon="-0.18435">
        <ele>143.5443</ele>
        <time>2010-11-28T13:59:38Z</time>
      </trkpt>
      <trkpt lat="46.29855" lon="-0.18435">
        <ele>143.6061</ele>
        <time>2010-11-28T13:59:39Z</time>
      </trkpt>
      <trkpt lat="46.29854" lon="-0.18435">
        <ele>143.6652</ele>
        <time>2010-11-28T13:59:40Z</time>
      </trkpt>
      <trkpt lat="46.29853" lon="-0.18435">
        <ele>143.7315</ele>
        <time>2010-11-28T13:59:41Z</time>
      </trkpt>
      <trkpt lat="46.29852" lon="-0.18435">
        <ele>143.7906</ele>
        <time>2010-11-28T13:59:42Z</time>
      </trkpt>
      <trkpt lat="46.29852" lon="-0.18436">
        <ele>143.8471</ele>
        <time>2010-11-28T13:59:43Z</time>
      </trkpt>
      <trkpt lat="46.2985" lon="-0.18436">
        <ele>143.9102</ele>
        <time>2010-11-28T13:59:44Z</time>
      </trkpt>
      <trkpt lat="46.2985" lon="-0.18436">
        <ele>143.9683</ele>
        <time>2010-11-28T13:59:45Z</time>
      </trkpt>
      <trkpt lat="46.29849" lon="-0.18435">
        <ele>144.0172</ele>
        <time>2010-11-28T13:59:46Z</time>
      </trkpt>
      <trkpt lat="46.29847" lon="-0.18435">
        <ele>144.0582</ele>
        <time>2010-11-28T13:59:47Z</time>
      </trkpt>
      <trkpt lat="46.29846" lon="-0.18434">
        <ele>144.0818</ele>
        <time>2010-11-28T13:59:48Z</time>
      </trkpt>
      <trkpt lat="46.29845" lon="-0.18434">
        <ele>144.0865</ele>
        <time>2010-11-28T13:59:49Z</time>
      </trkpt>
      <trkpt lat="46.29844" lon="-0.18433">
        <ele>144.075</ele>
        <time>2010-11-28T13:59:50Z</time>
      </trkpt>
      <trkpt lat="46.29843" lon="-0.18433">
        <ele>144.0464</ele>
        <time>2010-11-28T13:59:51Z</time>
      </trkpt>
      <trkpt lat="46.29842" lon="-0.18433">
        <ele>144.0179</ele>
        <time>2010-11-28T13:59:52Z</time>
      </trkpt>
      <trkpt lat="46.29841" lon="-0.18433">
        <ele>143.986</ele>
        <time>2010-11-28T13:59:53Z</time>
      </trkpt>
      <trkpt lat="46.29841" lon="-0.18433">
        <ele>143.9486</ele>
        <time>2010-11-28T13:59:54Z</time>
      </trkpt>
      <trkpt lat="46.29839" lon="-0.18433">
        <ele>143.9012</ele>
        <time>2010-11-28T13:59:55Z</time>
      </trkpt>
      <trkpt lat="46.29839" lon="-0.18433">
        <ele>143.8451</ele>
        <time>2010-11-28T13:59:56Z</time>
      </trkpt>
      <trkpt lat="46.29838" lon="-0.18433">
        <ele>143.7905</ele>
        <time>2010-11-28T13:59:57Z</time>
      </trkpt>
      <trkpt lat="46.29837" lon="-0.18434">
        <ele>143.7269</ele>
        <time>2010-11-28T13:59:58Z</time>
      </trkpt>
      <trkpt lat="46.29836" lon="-0.18434">
        <ele>143.6674</ele>
        <time>2010-11-28T13:59:59Z</time>
      </trkpt>
      <trkpt lat="46.29836" lon="-0.18434">
        <ele>143.5971</ele>
        <time>2010-11-28T14:00:00Z</time>
      </trkpt>
      <trkpt lat="46.29834" lon="-0.18434">
        <ele>143.5189</ele>
        <time>2010-11-28T14:00:01Z</time>
      </trkpt>
      <trkpt lat="46.29834" lon="-0.18434">
        <ele>143.4446</ele>
        <time>2010-11-28T14:00:02Z</time>
      </trkpt>
      <trkpt lat="46.29833" lon="-0.18434">
        <ele>143.3813</ele>
        <time>2010-11-28T14:00:03Z</time>
      </trkpt>
      <trkpt lat="46.29832" lon="-0.18434">
        <ele>143.3064</ele>
        <time>2010-11-28T14:00:04Z</time>
      </trkpt>
      <trkpt lat="46.29831" lon="-0.18435">
        <ele>143.2241</ele>
        <time>2010-11-28T14:00:05Z</time>
      </trkpt>
      <trkpt lat="46.2983" lon="-0.18435">
        <ele>143.145</ele>
        <time>2010-11-28T14:00:06Z</time>
      </trkpt>
      <trkpt lat="46.29829" lon="-0.18435">
        <ele>143.0704</ele>
        <time>2010-11-28T14:00:07Z</time>
      </trkpt>
      <trkpt lat="46.29829" lon="-0.18435">
        <ele>142.9932</ele>
        <time>2010-11-28T14:00:08Z</time>
      </trkpt>
      <trkpt lat="46.29828" lon="-0.18435">
        <ele>142.9268</ele>
        <time>2010-11-28T14:00:09Z</time>
      </trkpt>
      <trkpt lat="46.29827" lon="-0.18435">
        <ele>142.8531</ele>
        <time>2010-11-28T14:00:10Z</time>
      </trkpt>
      <trkpt lat="46.29826" lon="-0.18435">
        <ele>142.79</ele>
        <time>2010-11-28T14:00:11Z</time>
      </trkpt>
      <trkpt lat="46.29826" lon="-0.18435">
        <ele>142.79</ele>
        <time>2010-11-28T14:00:12Z</time>
      </trkpt>
      <trkpt lat="46.29825" lon="-0.18435">
        <ele>142.7357</ele>
        <time>2010-11-28T14:00:13Z</time>
      </trkpt>
      <trkpt lat="46.29824" lon="-0.18435">
        <ele>142.6804</ele>
        <time>2010-11-28T14:00:14Z</time>
      </trkpt>
      <trkpt lat="46.29823" lon="-0.18435">
        <ele>142.6321</ele>
        <time>2010-11-28T14:00:15Z</time>
      </trkpt>
      <trkpt lat="46.29823" lon="-0.18435">
        <ele>142.6009</ele>
        <time>2010-11-28T14:00:16Z</time>
      </trkpt>
      <trkpt lat="46.29822" lon="-0.18435">
        <ele>142.579</ele>
        <time>2010-11-28T14:00:17Z</time>
      </trkpt>
      <trkpt lat="46.29821" lon="-0.18435">
        <ele>142.5618</ele>
        <time>2010-11-28T14:00:18Z</time>
      </trkpt>
      <trkpt lat="46.2982" lon="-0.18434">
        <ele>142.5476</ele>
        <time>2010-11-28T14:00:19Z</time>
      </trkpt>
      <trkpt lat="46.29819" lon="-0.18434">
        <ele>142.5377</ele>
        <time>2010-11-28T14:00:20Z</time>
      </trkpt>
      <trkpt lat="46.29818" lon="-0.18434">
        <ele>142.531</ele>
        <time>2010-11-28T14:00:21Z</time>
      </trkpt>
      <trkpt lat="46.29816" lon="-0.18434">
        <ele>142.5318</ele>
        <time>2010-11-28T14:00:22Z</time>
      </trkpt>
      <trkpt lat="46.29815" lon="-0.18434">
        <ele>142.5359</ele>
        <time>2010-11-28T14:00:23Z</time>
      </trkpt>
      <trkpt lat="46.29815" lon="-0.18434">
        <ele>142.5566</ele>
        <time>2010-11-28T14:00:24Z</time>
      </trkpt>
      <trkpt lat="46.29813" lon="-0.18434">
        <ele>142.5775</ele>
        <time>2010-11-28T14:00:25Z</time>
      </trkpt>
      <trkpt lat="46.29813" lon="-0.18434">
        <ele>142.5818</ele>
        <time>2010-11-28T14:00:26Z</time>
      </trkpt>
      <trkpt lat="46.29812" lon="-0.18433">
        <ele>142.5682</ele>
        <time>2010-11-28T14:00:27Z</time>
      </trkpt>
      <trkpt lat="46.29811" lon="-0.18433">
        <ele>142.5308</ele>
        <time>2010-11-28T14:00:28Z</time>
      </trkpt>
      <trkpt lat="46.2981" lon="-0.18433">
        <ele>142.4706</ele>
        <time>2010-11-28T14:00:29Z</time>
      </trkpt>
      <trkpt lat="46.29808" lon="-0.18432">
        <ele>142.3941</ele>
        <time>2010-11-28T14:00:30Z</time>
      </trkpt>
      <trkpt lat="46.29807" lon="-0.18432">
        <ele>142.3024</ele>
        <time>2010-11-28T14:00:31Z</time>
      </trkpt>
      <trkpt lat="46.29806" lon="-0.18431">
        <ele>142.2219</ele>
        <time>2010-11-28T14:00:32Z</time>
      </trkpt>
      <trkpt lat="46.29805" lon="-0.18431">
        <ele>142.1413</ele>
        <time>2010-11-28T14:00:33Z</time>
      </trkpt>
      <trkpt lat="46.29804" lon="-0.1843">
        <ele>142.0613</ele>
        <time>2010-11-28T14:00:34Z</time>
      </trkpt>
      <trkpt lat="46.29804" lon="-0.1843">
        <ele>141.9838</ele>
        <time>2010-11-28T14:00:35Z</time>
      </trkpt>
      <trkpt lat="46.29802" lon="-0.1843">
        <ele>141.9276</ele>
        <time>2010-11-28T14:00:36Z</time>
      </trkpt>
      <trkpt lat="46.29801" lon="-0.18431">
        <ele>141.8745</ele>
        <time>2010-11-28T14:00:37Z</time>
      </trkpt>
      <trkpt lat="46.298" lon="-0.18431">
        <ele>141.8201</ele>
        <time>2010-11-28T14:00:38Z</time>
      </trkpt>
      <trkpt lat="46.29799" lon="-0.18431">
        <ele>141.77</ele>
        <time>2010-11-28T14:00:39Z</time>
      </trkpt>
      <trkpt lat="46.29798" lon="-0.18431">
        <ele>141.7094</ele>
        <time>2010-11-28T14:00:40Z</time>
      </trkpt>
      <trkpt lat="46.29793" lon="-0.1843">
        <ele>141.664</ele>
        <time>2010-11-28T14:00:48Z</time>
      </trkpt>
      <trkpt lat="46.29789" lon="-0.18431">
        <ele>141.6642</ele>
        <time>2010-11-28T14:00:56Z</time>
      </trkpt>
      <trkpt lat="46.29785" lon="-0.18432">
        <ele>141.7863</ele>
        <time>2010-11-28T14:01:06Z</time>
      </trkpt>
      <trkpt lat="46.29785" lon="-0.18432">
        <ele>141.8215</ele>
        <time>2010-11-28T14:01:07Z</time>
      </trkpt>
      <trkpt lat="46.29784" lon="-0.18432">
        <ele>141.8532</ele>
        <time>2010-11-28T14:01:08Z</time>
      </trkpt>
      <trkpt lat="46.29784" lon="-0.18432">
        <ele>141.8799</ele>
        <time>2010-11-28T14:01:09Z</time>
      </trkpt>
      <trkpt lat="46.29783" lon="-0.18432">
        <ele>141.9102</ele>
        <time>2010-11-28T14:01:10Z</time>
      </trkpt>
      <trkpt lat="46.29783" lon="-0.18431">
        <ele>141.9426</ele>
        <time>2010-11-28T14:01:11Z</time>
      </trkpt>
      <trkpt lat="46.29782" lon="-0.18431">
        <ele>141.9765</ele>
        <time>2010-11-28T14:01:12Z</time>
      </trkpt>
      <trkpt lat="46.29781" lon="-0.18431">
        <ele>142.0114</ele>
        <time>2010-11-28T14:01:13Z</time>
      </trkpt>
      <trkpt lat="46.29781" lon="-0.18431">
        <ele>142.044</ele>
        <time>2010-11-28T14:01:14Z</time>
      </trkpt>
      <trkpt lat="46.2978" lon="-0.18431">
        <ele>142.0737</ele>
        <time>2010-11-28T14:01:15Z</time>
      </trkpt>
      <trkpt lat="46.29779" lon="-0.18431">
        <ele>142.0997</ele>
        <time>2010-11-28T14:01:16Z</time>
      </trkpt>
      <trkpt lat="46.29779" lon="-0.18431">
        <ele>142.1255</ele>
        <time>2010-11-28T14:01:17Z</time>
      </trkpt>
      <trkpt lat="46.29778" lon="-0.18431">
        <ele>142.1483</ele>
        <time>2010-11-28T14:01:18Z</time>
      </trkpt>
      <trkpt lat="46.29778" lon="-0.18431">
        <ele>142.1686</ele>
        <time>2010-11-28T14:01:19Z</time>
      </trkpt>
      <trkpt lat="46.29777" lon="-0.18432">
        <ele>142.1888</ele>
        <time>2010-11-28T14:01:20Z</time>
      </trkpt>
      <trkpt lat="46.29776" lon="-0.18432">
        <ele>142.2095</ele>
        <time>2010-11-28T14:01:21Z</time>
      </trkpt>
      <trkpt lat="46.29776" lon="-0.18432">
        <ele>142.2263</ele>
        <time>2010-11-28T14:01:22Z</time>
      </trkpt>
      <trkpt lat="46.29775" lon="-0.18432">
        <ele>142.2421</ele>
        <time>2010-11-28T14:01:23Z</time>
      </trkpt>
      <trkpt lat="46.29774" lon="-0.18432">
        <ele>142.2576</ele>
        <time>2010-11-28T14:01:24Z</time>
      </trkpt>
      <trkpt lat="46.29773" lon="-0.18433">
        <ele>142.2739</ele>
        <time>2010-11-28T14:01:25Z</time>
      </trkpt>
      <trkpt lat="46.29773" lon="-0.18433">
        <ele>142.2913</ele>
        <time>2010-11-28T14:01:26Z</time>
      </trkpt>
      <trkpt lat="46.29772" lon="-0.18433">
        <ele>142.3077</ele>
        <time>2010-11-28T14:01:27Z</time>
      </trkpt>
      <trkpt lat="46.29771" lon="-0.18433">
        <ele>142.3262</ele>
        <time>2010-11-28T14:01:28Z</time>
      </trkpt>
      <trkpt lat="46.29771" lon="-0.18434">
        <ele>142.3526</ele>
        <time>2010-11-28T14:01:29Z</time>
      </trkpt>
      <trkpt lat="46.2977" lon="-0.18434">
        <ele>142.3777</ele>
        <time>2010-11-28T14:01:30Z</time>
      </trkpt>
      <trkpt lat="46.2977" lon="-0.18434">
        <ele>142.4005</ele>
        <time>2010-11-28T14:01:31Z</time>
      </trkpt>
      <trkpt lat="46.29768" lon="-0.18434">
        <ele>142.4298</ele>
        <time>2010-11-28T14:01:32Z</time>
      </trkpt>
      <trkpt lat="46.29768" lon="-0.18434">
        <ele>142.4734</ele>
        <time>2010-11-28T14:01:33Z</time>
      </trkpt>
      <trkpt lat="46.29767" lon="-0.18434">
        <ele>142.5297</ele>
        <time>2010-11-28T14:01:34Z</time>
      </trkpt>
      <trkpt lat="46.29766" lon="-0.18434">
        <ele>142.581</ele>
        <time>2010-11-28T14:01:35Z</time>
      </trkpt>
      <trkpt lat="46.29765" lon="-0.18434">
        <ele>142.6313</ele>
        <time>2010-11-28T14:01:36Z</time>
      </trkpt>
      <trkpt lat="46.29764" lon="-0.18434">
        <ele>142.6775</ele>
        <time>2010-11-28T14:01:37Z</time>
      </trkpt>
      <trkpt lat="46.29763" lon="-0.18434">
        <ele>142.7169</ele>
        <time>2010-11-28T14:01:38Z</time>
      </trkpt>
      <trkpt lat="46.29763" lon="-0.18434">
        <ele>142.747</ele>
        <time>2010-11-28T14:01:39Z</time>
      </trkpt>
      <trkpt lat="46.29762" lon="-0.18433">
        <ele>142.7754</ele>
        <time>2010-11-28T14:01:40Z</time>
      </trkpt>
      <trkpt lat="46.29761" lon="-0.18433">
        <ele>142.8004</ele>
        <time>2010-11-28T14:01:41Z</time>
      </trkpt>
      <trkpt lat="46.2976" lon="-0.18433">
        <ele>142.8248</ele>
        <time>2010-11-28T14:01:42Z</time>
      </trkpt>
      <trkpt lat="46.29759" lon="-0.18432">
        <ele>142.8448</ele>
        <time>2010-11-28T14:01:43Z</time>
      </trkpt>
      <trkpt lat="46.29759" lon="-0.18432">
        <ele>142.8507</ele>
        <time>2010-11-28T14:01:44Z</time>
      </trkpt>
      <trkpt lat="46.29758" lon="-0.18432">
        <ele>142.852</ele>
        <time>2010-11-28T14:01:45Z</time>
      </trkpt>
      <trkpt lat="46.29757" lon="-0.18432">
        <ele>142.8504</ele>
        <time>2010-11-28T14:01:46Z</time>
      </trkpt>
      <trkpt lat="46.29756" lon="-0.18432">
        <ele>142.844</ele>
        <time>2010-11-28T14:01:47Z</time>
      </trkpt>
      <trkpt lat="46.29755" lon="-0.18432">
        <ele>142.8343</ele>
        <time>2010-11-28T14:01:48Z</time>
      </trkpt>
      <trkpt lat="46.29754" lon="-0.18432">
        <ele>142.8094</ele>
        <time>2010-11-28T14:01:49Z</time>
      </trkpt>
      <trkpt lat="46.29753" lon="-0.18432">
        <ele>142.7855</ele>
        <time>2010-11-28T14:01:50Z</time>
      </trkpt>
      <trkpt lat="46.29752" lon="-0.18431">
        <ele>142.7653</ele>
        <time>2010-11-28T14:01:51Z</time>
      </trkpt>
      <trkpt lat="46.29751" lon="-0.18431">
        <ele>142.7393</ele>
        <time>2010-11-28T14:01:52Z</time>
      </trkpt>
      <trkpt lat="46.2975" lon="-0.1843">
        <ele>142.7057</ele>
        <time>2010-11-28T14:01:53Z</time>
      </trkpt>
      <trkpt lat="46.29749" lon="-0.1843">
        <ele>142.677</ele>
        <time>2010-11-28T14:01:54Z</time>
      </trkpt>
      <trkpt lat="46.29749" lon="-0.18429">
        <ele>142.6532</ele>
        <time>2010-11-28T14:01:55Z</time>
      </trkpt>
      <trkpt lat="46.29747" lon="-0.18429">
        <ele>142.6317</ele>
        <time>2010-11-28T14:01:56Z</time>
      </trkpt>
      <trkpt lat="46.29747" lon="-0.18429">
        <ele>142.6086</ele>
        <time>2010-11-28T14:01:57Z</time>
      </trkpt>
      <trkpt lat="46.29746" lon="-0.18428">
        <ele>142.5903</ele>
        <time>2010-11-28T14:01:58Z</time>
      </trkpt>
      <trkpt lat="46.29745" lon="-0.18428">
        <ele>142.5716</ele>
        <time>2010-11-28T14:01:59Z</time>
      </trkpt>
      <trkpt lat="46.29744" lon="-0.18428">
        <ele>142.549</ele>
        <time>2010-11-28T14:02:00Z</time>
      </trkpt>
      <trkpt lat="46.29743" lon="-0.18428">
        <ele>142.5121</ele>
        <time>2010-11-28T14:02:01Z</time>
      </trkpt>
      <trkpt lat="46.29742" lon="-0.18428">
        <ele>142.4689</ele>
        <time>2010-11-28T14:02:02Z</time>
      </trkpt>
      <trkpt lat="46.29741" lon="-0.18428">
        <ele>142.4233</ele>
        <time>2010-11-28T14:02:03Z</time>
      </trkpt>
      <trkpt lat="46.29741" lon="-0.18428">
        <ele>142.3827</ele>
        <time>2010-11-28T14:02:04Z</time>
      </trkpt>
      <trkpt lat="46.2974" lon="-0.18428">
        <ele>142.3352</ele>
        <time>2010-11-28T14:02:05Z</time>
      </trkpt>
      <trkpt lat="46.29739" lon="-0.18427">
        <ele>142.2873</ele>
        <time>2010-11-28T14:02:06Z</time>
      </trkpt>
      <trkpt lat="46.29738" lon="-0.18427">
        <ele>142.2475</ele>
        <time>2010-11-28T14:02:07Z</time>
      </trkpt>
      <trkpt lat="46.29737" lon="-0.18427">
        <ele>142.2001</ele>
        <time>2010-11-28T14:02:08Z</time>
      </trkpt>
      <trkpt lat="46.29736" lon="-0.18427">
        <ele>142.1622</ele>
        <time>2010-11-28T14:02:09Z</time>
      </trkpt>
      <trkpt lat="46.29734" lon="-0.18427">
        <ele>142.1329</ele>
        <time>2010-11-28T14:02:10Z</time>
      </trkpt>
      <trkpt lat="46.29733" lon="-0.18426">
        <ele>142.0984</ele>
        <time>2010-11-28T14:02:11Z</time>
      </trkpt>
      <trkpt lat="46.29732" lon="-0.18426">
        <ele>142.0545</ele>
        <time>2010-11-28T14:02:12Z</time>
      </trkpt>
      <trkpt lat="46.29731" lon="-0.18426">
        <ele>142.0062</ele>
        <time>2010-11-28T14:02:13Z</time>
      </trkpt>
      <trkpt lat="46.2973" lon="-0.18426">
        <ele>141.9539</ele>
        <time>2010-11-28T14:02:14Z</time>
      </trkpt>
      <trkpt lat="46.29729" lon="-0.18425">
        <ele>141.8805</ele>
        <time>2010-11-28T14:02:15Z</time>
      </trkpt>
      <trkpt lat="46.29728" lon="-0.18425">
        <ele>141.7868</ele>
        <time>2010-11-28T14:02:16Z</time>
      </trkpt>
      <trkpt lat="46.29726" lon="-0.18425">
        <ele>141.6709</ele>
        <time>2010-11-28T14:02:17Z</time>
      </trkpt>
      <trkpt lat="46.29725" lon="-0.18425">
        <ele>141.561</ele>
        <time>2010-11-28T14:02:18Z</time>
      </trkpt>
      <trkpt lat="46.29724" lon="-0.18424">
        <ele>141.4507</ele>
        <time>2010-11-28T14:02:19Z</time>
      </trkpt>
      <trkpt lat="46.29723" lon="-0.18424">
        <ele>141.3414</ele>
        <time>2010-11-28T14:02:20Z</time>
      </trkpt>
      <trkpt lat="46.29722" lon="-0.18424">
        <ele>141.2253</ele>
        <time>2010-11-28T14:02:21Z</time>
      </trkpt>
      <trkpt lat="46.29721" lon="-0.18424">
        <ele>141.1077</ele>
        <time>2010-11-28T14:02:22Z</time>
      </trkpt>
      <trkpt lat="46.2972" lon="-0.18423">
        <ele>140.9899</ele>
        <time>2010-11-28T14:02:23Z</time>
      </trkpt>
      <trkpt lat="46.29719" lon="-0.18423">
        <ele>140.8848</ele>
        <time>2010-11-28T14:02:24Z</time>
      </trkpt>
      <trkpt lat="46.29718" lon="-0.18423">
        <ele>140.7819</ele>
        <time>2010-11-28T14:02:25Z</time>
      </trkpt>
      <trkpt lat="46.29718" lon="-0.18423">
        <ele>140.6823</ele>
        <time>2010-11-28T14:02:26Z</time>
      </trkpt>
      <trkpt lat="46.29717" lon="-0.18423">
        <ele>140.5789</ele>
        <time>2010-11-28T14:02:27Z</time>
      </trkpt>
      <trkpt lat="46.29716" lon="-0.18423">
        <ele>140.4732</ele>
        <time>2010-11-28T14:02:28Z</time>
      </trkpt>
      <trkpt lat="46.29716" lon="-0.18424">
        <ele>140.3682</ele>
        <time>2010-11-28T14:02:29Z</time>
      </trkpt>
      <trkpt lat="46.29716" lon="-0.18424">
        <ele>140.248</ele>
        <time>2010-11-28T14:02:30Z</time>
      </trkpt>
      <trkpt lat="46.29717" lon="-0.18426">
        <ele>139.8617</ele>
        <time>2010-11-28T14:02:36Z</time>
      </trkpt>
      <trkpt lat="46.29716" lon="-0.18426">
        <ele>139.7002</ele>
        <time>2010-11-28T14:02:37Z</time>
      </trkpt>
      <trkpt lat="46.29715" lon="-0.18427">
        <ele>139.5339</ele>
        <time>2010-11-28T14:02:38Z</time>
      </trkpt>
      <trkpt lat="46.29714" lon="-0.18427">
        <ele>139.3683</ele>
        <time>2010-11-28T14:02:39Z</time>
      </trkpt>
      <trkpt lat="46.29713" lon="-0.18427">
        <ele>139.1967</ele>
        <time>2010-11-28T14:02:40Z</time>
      </trkpt>
      <trkpt lat="46.29713" lon="-0.18428">
        <ele>139.0242</ele>
        <time>2010-11-28T14:02:41Z</time>
      </trkpt>
      <trkpt lat="46.29712" lon="-0.18428">
        <ele>138.8541</ele>
        <time>2010-11-28T14:02:42Z</time>
      </trkpt>
      <trkpt lat="46.29711" lon="-0.18428">
        <ele>138.6882</ele>
        <time>2010-11-28T14:02:43Z</time>
      </trkpt>
      <trkpt lat="46.2971" lon="-0.18428">
        <ele>138.5246</ele>
        <time>2010-11-28T14:02:44Z</time>
      </trkpt>
      <trkpt lat="46.29709" lon="-0.18428">
        <ele>138.3184</ele>
        <time>2010-11-28T14:02:45Z</time>
      </trkpt>
      <trkpt lat="46.29709" lon="-0.18427">
        <ele>138.0823</ele>
        <time>2010-11-28T14:02:46Z</time>
      </trkpt>
      <trkpt lat="46.29707" lon="-0.18427">
        <ele>137.8268</ele>
        <time>2010-11-28T14:02:47Z</time>
      </trkpt>
      <trkpt lat="46.29703" lon="-0.18426">
        <ele>137.3659</ele>
        <time>2010-11-28T14:03:02Z</time>
      </trkpt>
      <trkpt lat="46.29699" lon="-0.18425">
        <ele>135.6699</ele>
        <time>2010-11-28T14:03:27Z</time>
      </trkpt>
      <trkpt lat="46.29694" lon="-0.18424">
        <ele>133.8696</ele>
        <time>2010-11-28T14:03:36Z</time>
      </trkpt>
      <trkpt lat="46.29694" lon="-0.18423">
        <ele>133.6101</ele>
        <time>2010-11-28T14:03:37Z</time>
      </trkpt>
      <trkpt lat="46.29693" lon="-0.18423">
        <ele>133.3493</ele>
        <time>2010-11-28T14:03:38Z</time>
      </trkpt>
      <trkpt lat="46.29692" lon="-0.18423">
        <ele>133.0838</ele>
        <time>2010-11-28T14:03:39Z</time>
      </trkpt>
      <trkpt lat="46.29691" lon="-0.18423">
        <ele>132.827</ele>
        <time>2010-11-28T14:03:40Z</time>
      </trkpt>
      <trkpt lat="46.29687" lon="-0.18422">
        <ele>132.475</ele>
        <time>2010-11-28T14:03:48Z</time>
      </trkpt>
      <trkpt lat="46.29685" lon="-0.18421">
        <ele>132.0144</ele>
        <time>2010-11-28T14:03:51Z</time>
      </trkpt>
      <trkpt lat="46.29684" lon="-0.18421">
        <ele>131.9021</ele>
        <time>2010-11-28T14:03:52Z</time>
      </trkpt>
      <trkpt lat="46.29683" lon="-0.18421">
        <ele>131.8026</ele>
        <time>2010-11-28T14:03:53Z</time>
      </trkpt>
      <trkpt lat="46.29683" lon="-0.18421">
        <ele>131.7106</ele>
        <time>2010-11-28T14:03:54Z</time>
      </trkpt>
      <trkpt lat="46.29682" lon="-0.18421">
        <ele>131.6234</ele>
        <time>2010-11-28T14:03:55Z</time>
      </trkpt>
      <trkpt lat="46.29681" lon="-0.18421">
        <ele>131.5366</ele>
        <time>2010-11-28T14:03:56Z</time>
      </trkpt>
      <trkpt lat="46.29681" lon="-0.18421">
        <ele>131.4642</ele>
        <time>2010-11-28T14:03:57Z</time>
      </trkpt>
      <trkpt lat="46.2968" lon="-0.18421">
        <ele>131.3955</ele>
        <time>2010-11-28T14:03:58Z</time>
      </trkpt>
      <trkpt lat="46.29679" lon="-0.18422">
        <ele>131.33</ele>
        <time>2010-11-28T14:03:59Z</time>
      </trkpt>
      <trkpt lat="46.29678" lon="-0.18422">
        <ele>131.2621</ele>
        <time>2010-11-28T14:04:00Z</time>
      </trkpt>
      <trkpt lat="46.29678" lon="-0.18423">
        <ele>131.1966</ele>
        <time>2010-11-28T14:04:01Z</time>
      </trkpt>
      <trkpt lat="46.29677" lon="-0.18423">
        <ele>131.1276</ele>
        <time>2010-11-28T14:04:02Z</time>
      </trkpt>
      <trkpt lat="46.29676" lon="-0.18424">
        <ele>131.0582</ele>
        <time>2010-11-28T14:04:03Z</time>
      </trkpt>
      <trkpt lat="46.29675" lon="-0.18424">
        <ele>130.9867</ele>
        <time>2010-11-28T14:04:04Z</time>
      </trkpt>
      <trkpt lat="46.29674" lon="-0.18425">
        <ele>130.9173</ele>
        <time>2010-11-28T14:04:05Z</time>
      </trkpt>
      <trkpt lat="46.29673" lon="-0.18425">
        <ele>130.8492</ele>
        <time>2010-11-28T14:04:06Z</time>
      </trkpt>
      <trkpt lat="46.29673" lon="-0.18426">
        <ele>130.7832</ele>
        <time>2010-11-28T14:04:07Z</time>
      </trkpt>
      <trkpt lat="46.29672" lon="-0.18426">
        <ele>130.7219</ele>
        <time>2010-11-28T14:04:08Z</time>
      </trkpt>
      <trkpt lat="46.29671" lon="-0.18427">
        <ele>130.6588</ele>
        <time>2010-11-28T14:04:09Z</time>
      </trkpt>
      <trkpt lat="46.2967" lon="-0.18427">
        <ele>130.5906</ele>
        <time>2010-11-28T14:04:10Z</time>
      </trkpt>
      <trkpt lat="46.2967" lon="-0.18428">
        <ele>130.5131</ele>
        <time>2010-11-28T14:04:11Z</time>
      </trkpt>
      <trkpt lat="46.29669" lon="-0.18428">
        <ele>130.4277</ele>
        <time>2010-11-28T14:04:12Z</time>
      </trkpt>
      <trkpt lat="46.29668" lon="-0.18429">
        <ele>130.3465</ele>
        <time>2010-11-28T14:04:13Z</time>
      </trkpt>
      <trkpt lat="46.29668" lon="-0.18429">
        <ele>130.259</ele>
        <time>2010-11-28T14:04:14Z</time>
      </trkpt>
      <trkpt lat="46.29667" lon="-0.1843">
        <ele>130.1709</ele>
        <time>2010-11-28T14:04:15Z</time>
      </trkpt>
      <trkpt lat="46.29667" lon="-0.1843">
        <ele>130.0817</ele>
        <time>2010-11-28T14:04:16Z</time>
      </trkpt>
      <trkpt lat="46.29665" lon="-0.18431">
        <ele>130.0118</ele>
        <time>2010-11-28T14:04:17Z</time>
      </trkpt>
      <trkpt lat="46.29664" lon="-0.18431">
        <ele>129.9409</ele>
        <time>2010-11-28T14:04:18Z</time>
      </trkpt>
      <trkpt lat="46.29662" lon="-0.18432">
        <ele>129.8825</ele>
        <time>2010-11-28T14:04:19Z</time>
      </trkpt>
      <trkpt lat="46.29662" lon="-0.18432">
        <ele>129.8251</ele>
        <time>2010-11-28T14:04:20Z</time>
      </trkpt>
      <trkpt lat="46.2966" lon="-0.18433">
        <ele>129.7657</ele>
        <time>2010-11-28T14:04:21Z</time>
      </trkpt>
      <trkpt lat="46.29659" lon="-0.18434">
        <ele>129.7197</ele>
        <time>2010-11-28T14:04:22Z</time>
      </trkpt>
      <trkpt lat="46.29659" lon="-0.18434">
        <ele>129.6802</ele>
        <time>2010-11-28T14:04:23Z</time>
      </trkpt>
      <trkpt lat="46.29657" lon="-0.18435">
        <ele>129.657</ele>
        <time>2010-11-28T14:04:24Z</time>
      </trkpt>
      <trkpt lat="46.29653" lon="-0.18438">
        <ele>129.6328</ele>
        <time>2010-11-28T14:04:31Z</time>
      </trkpt>
      <trkpt lat="46.29649" lon="-0.18443">
        <ele>129.5058</ele>
        <time>2010-11-28T14:04:36Z</time>
      </trkpt>
      <trkpt lat="46.29649" lon="-0.18444">
        <ele>129.468</ele>
        <time>2010-11-28T14:04:37Z</time>
      </trkpt>
      <trkpt lat="46.29648" lon="-0.18445">
        <ele>129.4346</ele>
        <time>2010-11-28T14:04:38Z</time>
      </trkpt>
      <trkpt lat="46.29647" lon="-0.18445">
        <ele>129.4</ele>
        <time>2010-11-28T14:04:39Z</time>
      </trkpt>
      <trkpt lat="46.29647" lon="-0.18446">
        <ele>129.3716</ele>
        <time>2010-11-28T14:04:40Z</time>
      </trkpt>
      <trkpt lat="46.29646" lon="-0.18446">
        <ele>129.3438</ele>
        <time>2010-11-28T14:04:41Z</time>
      </trkpt>
      <trkpt lat="46.29641" lon="-0.18449">
        <ele>129.2829</ele>
        <time>2010-11-28T14:04:49Z</time>
      </trkpt>
      <trkpt lat="46.29636" lon="-0.18452">
        <ele>128.637</ele>
        <time>2010-11-28T14:04:55Z</time>
      </trkpt>
      <trkpt lat="46.29635" lon="-0.18454">
        <ele>128.3162</ele>
        <time>2010-11-28T14:04:57Z</time>
      </trkpt>
      <trkpt lat="46.29635" lon="-0.18455">
        <ele>128.1595</ele>
        <time>2010-11-28T14:04:58Z</time>
      </trkpt>
      <trkpt lat="46.29635" lon="-0.18455">
        <ele>128.011</ele>
        <time>2010-11-28T14:04:59Z</time>
      </trkpt>
      <trkpt lat="46.29634" lon="-0.18456">
        <ele>127.869</ele>
        <time>2010-11-28T14:05:00Z</time>
      </trkpt>
      <trkpt lat="46.29633" lon="-0.18457">
        <ele>127.7193</ele>
        <time>2010-11-28T14:05:01Z</time>
      </trkpt>
      <trkpt lat="46.29632" lon="-0.18458">
        <ele>127.5747</ele>
        <time>2010-11-28T14:05:02Z</time>
      </trkpt>
      <trkpt lat="46.29631" lon="-0.18459">
        <ele>127.4394</ele>
        <time>2010-11-28T14:05:03Z</time>
      </trkpt>
      <trkpt lat="46.29631" lon="-0.1846">
        <ele>127.3053</ele>
        <time>2010-11-28T14:05:04Z</time>
      </trkpt>
      <trkpt lat="46.2963" lon="-0.18461">
        <ele>127.1762</ele>
        <time>2010-11-28T14:05:05Z</time>
      </trkpt>
      <trkpt lat="46.29629" lon="-0.18461">
        <ele>127.0464</ele>
        <time>2010-11-28T14:05:06Z</time>
      </trkpt>
      <trkpt lat="46.29628" lon="-0.18463">
        <ele>126.9155</ele>
        <time>2010-11-28T14:05:07Z</time>
      </trkpt>
      <trkpt lat="46.29628" lon="-0.18464">
        <ele>126.783</ele>
        <time>2010-11-28T14:05:08Z</time>
      </trkpt>
      <trkpt lat="46.29627" lon="-0.18465">
        <ele>126.6408</ele>
        <time>2010-11-28T14:05:09Z</time>
      </trkpt>
      <trkpt lat="46.29626" lon="-0.18466">
        <ele>126.4899</ele>
        <time>2010-11-28T14:05:10Z</time>
      </trkpt>
      <trkpt lat="46.29625" lon="-0.18467">
        <ele>126.3369</ele>
        <time>2010-11-28T14:05:11Z</time>
      </trkpt>
      <trkpt lat="46.29625" lon="-0.18469">
        <ele>126.1867</ele>
        <time>2010-11-28T14:05:12Z</time>
      </trkpt>
      <trkpt lat="46.29624" lon="-0.1847">
        <ele>126.0233</ele>
        <time>2010-11-28T14:05:13Z</time>
      </trkpt>
      <trkpt lat="46.29622" lon="-0.18472">
        <ele>125.6945</ele>
        <time>2010-11-28T14:05:17Z</time>
      </trkpt>
      <trkpt lat="46.29621" lon="-0.18472">
        <ele>125.5345</ele>
        <time>2010-11-28T14:05:18Z</time>
      </trkpt>
      <trkpt lat="46.2962" lon="-0.18473">
        <ele>125.3654</ele>
        <time>2010-11-28T14:05:19Z</time>
      </trkpt>
      <trkpt lat="46.29619" lon="-0.18474">
        <ele>125.1846</ele>
        <time>2010-11-28T14:05:20Z</time>
      </trkpt>
      <trkpt lat="46.29618" lon="-0.18474">
        <ele>125.0139</ele>
        <time>2010-11-28T14:05:21Z</time>
      </trkpt>
      <trkpt lat="46.29617" lon="-0.18475">
        <ele>124.848</ele>
        <time>2010-11-28T14:05:22Z</time>
      </trkpt>
      <trkpt lat="46.29616" lon="-0.18475">
        <ele>124.6808</ele>
        <time>2010-11-28T14:05:23Z</time>
      </trkpt>
      <trkpt lat="46.29615" lon="-0.18475">
        <ele>124.517</ele>
        <time>2010-11-28T14:05:24Z</time>
      </trkpt>
      <trkpt lat="46.29614" lon="-0.18476">
        <ele>124.3531</ele>
        <time>2010-11-28T14:05:25Z</time>
      </trkpt>
      <trkpt lat="46.29613" lon="-0.18476">
        <ele>124.1807</ele>
        <time>2010-11-28T14:05:26Z</time>
      </trkpt>
      <trkpt lat="46.29612" lon="-0.18477">
        <ele>124.003</ele>
        <time>2010-11-28T14:05:27Z</time>
      </trkpt>
      <trkpt lat="46.2961" lon="-0.18477">
        <ele>123.833</ele>
        <time>2010-11-28T14:05:28Z</time>
      </trkpt>
      <trkpt lat="46.29609" lon="-0.18477">
        <ele>123.6811</ele>
        <time>2010-11-28T14:05:29Z</time>
      </trkpt>
      <trkpt lat="46.29607" lon="-0.18477">
        <ele>123.5706</ele>
        <time>2010-11-28T14:05:30Z</time>
      </trkpt>
      <trkpt lat="46.29606" lon="-0.18477">
        <ele>123.4564</ele>
        <time>2010-11-28T14:05:31Z</time>
      </trkpt>
      <trkpt lat="46.29605" lon="-0.18477">
        <ele>123.3343</ele>
        <time>2010-11-28T14:05:32Z</time>
      </trkpt>
      <trkpt lat="46.29604" lon="-0.18477">
        <ele>123.2102</ele>
        <time>2010-11-28T14:05:33Z</time>
      </trkpt>
      <trkpt lat="46.29603" lon="-0.18478">
        <ele>123.0772</ele>
        <time>2010-11-28T14:05:34Z</time>
      </trkpt>
      <trkpt lat="46.29602" lon="-0.18478">
        <ele>122.9495</ele>
        <time>2010-11-28T14:05:35Z</time>
      </trkpt>
      <trkpt lat="46.29601" lon="-0.18478">
        <ele>122.8129</ele>
        <time>2010-11-28T14:05:36Z</time>
      </trkpt>
      <trkpt lat="46.296" lon="-0.18478">
        <ele>122.6691</ele>
        <time>2010-11-28T14:05:37Z</time>
      </trkpt>
      <trkpt lat="46.29599" lon="-0.18477">
        <ele>122.5245</ele>
        <time>2010-11-28T14:05:38Z</time>
      </trkpt>
      <trkpt lat="46.29598" lon="-0.18476">
        <ele>122.3863</ele>
        <time>2010-11-28T14:05:39Z</time>
      </trkpt>
      <trkpt lat="46.29594" lon="-0.18474">
        <ele>122.3048</ele>
        <time>2010-11-28T14:05:48Z</time>
      </trkpt>
      <trkpt lat="46.29591" lon="-0.1847">
        <ele>122.2916</ele>
        <time>2010-11-28T14:05:51Z</time>
      </trkpt>
      <trkpt lat="46.29586" lon="-0.18465">
        <ele>122.2911</ele>
        <time>2010-11-28T14:05:54Z</time>
      </trkpt>
      <trkpt lat="46.29583" lon="-0.18465">
        <ele>122.3215</ele>
        <time>2010-11-28T14:06:11Z</time>
      </trkpt>
      <trkpt lat="46.29582" lon="-0.18466">
        <ele>122.3228</ele>
        <time>2010-11-28T14:06:12Z</time>
      </trkpt>
      <trkpt lat="46.29582" lon="-0.18466">
        <ele>122.3282</ele>
        <time>2010-11-28T14:06:13Z</time>
      </trkpt>
      <trkpt lat="46.2958" lon="-0.18467">
        <ele>122.3173</ele>
        <time>2010-11-28T14:06:14Z</time>
      </trkpt>
      <trkpt lat="46.2958" lon="-0.18467">
        <ele>122.3007</ele>
        <time>2010-11-28T14:06:15Z</time>
      </trkpt>
      <trkpt lat="46.29579" lon="-0.18467">
        <ele>122.2765</ele>
        <time>2010-11-28T14:06:16Z</time>
      </trkpt>
      <trkpt lat="46.29578" lon="-0.18468">
        <ele>122.2223</ele>
        <time>2010-11-28T14:06:17Z</time>
      </trkpt>
      <trkpt lat="46.29577" lon="-0.18468">
        <ele>122.1646</ele>
        <time>2010-11-28T14:06:18Z</time>
      </trkpt>
      <trkpt lat="46.29576" lon="-0.18469">
        <ele>122.1035</ele>
        <time>2010-11-28T14:06:19Z</time>
      </trkpt>
      <trkpt lat="46.29576" lon="-0.18469">
        <ele>122.0425</ele>
        <time>2010-11-28T14:06:20Z</time>
      </trkpt>
      <trkpt lat="46.29575" lon="-0.18469">
        <ele>121.9818</ele>
        <time>2010-11-28T14:06:21Z</time>
      </trkpt>
      <trkpt lat="46.29574" lon="-0.18475">
        <ele>121.774</ele>
        <time>2010-11-28T14:06:45Z</time>
      </trkpt>
      <trkpt lat="46.29578" lon="-0.18479">
        <ele>121.4062</ele>
        <time>2010-11-28T14:06:59Z</time>
      </trkpt>
      <trkpt lat="46.2958" lon="-0.1848">
        <ele>120.7111</ele>
        <time>2010-11-28T14:07:02Z</time>
      </trkpt>
      <trkpt lat="46.2958" lon="-0.1848">
        <ele>120.4968</ele>
        <time>2010-11-28T14:07:03Z</time>
      </trkpt>
      <trkpt lat="46.29582" lon="-0.1848">
        <ele>120.3104</ele>
        <time>2010-11-28T14:07:04Z</time>
      </trkpt>
      <trkpt lat="46.29583" lon="-0.18481">
        <ele>120.1305</ele>
        <time>2010-11-28T14:07:05Z</time>
      </trkpt>
      <trkpt lat="46.29583" lon="-0.18481">
        <ele>119.9553</ele>
        <time>2010-11-28T14:07:06Z</time>
      </trkpt>
      <trkpt lat="46.29583" lon="-0.18474">
        <ele>118.6596</ele>
        <time>2010-11-28T14:08:32Z</time>
      </trkpt>
      <trkpt lat="46.29579" lon="-0.18476">
        <ele>118.7877</ele>
        <time>2010-11-28T14:08:38Z</time>
      </trkpt>
      <trkpt lat="46.29574" lon="-0.18475">
        <ele>118.8742</ele>
        <time>2010-11-28T14:08:44Z</time>
      </trkpt>
      <trkpt lat="46.29574" lon="-0.18468">
        <ele>118.9337</ele>
        <time>2010-11-28T14:08:53Z</time>
      </trkpt>
      <trkpt lat="46.29577" lon="-0.18464">
        <ele>119.0011</ele>
        <time>2010-11-28T14:09:11Z</time>
      </trkpt>
      <trkpt lat="46.29582" lon="-0.18467">
        <ele>118.9681</ele>
        <time>2010-11-28T14:09:37Z</time>
      </trkpt>
      <trkpt lat="46.29579" lon="-0.18468">
        <ele>115.6397</ele>
        <time>2010-11-28T14:10:05Z</time>
      </trkpt>
      <trkpt lat="46.29578" lon="-0.18467">
        <ele>115.2815</ele>
        <time>2010-11-28T14:10:06Z</time>
      </trkpt>
      <trkpt lat="46.29578" lon="-0.18466">
        <ele>114.9336</ele>
        <time>2010-11-28T14:10:07Z</time>
      </trkpt>
      <trkpt lat="46.29577" lon="-0.18466">
        <ele>114.5919</ele>
        <time>2010-11-28T14:10:08Z</time>
      </trkpt>
      <trkpt lat="46.29576" lon="-0.18466">
        <ele>114.2574</ele>
        <time>2010-11-28T14:10:09Z</time>
      </trkpt>
      <trkpt lat="46.29575" lon="-0.18465">
        <ele>113.9474</ele>
        <time>2010-11-28T14:10:10Z</time>
      </trkpt>
      <trkpt lat="46.29574" lon="-0.18464">
        <ele>112.7721</ele>
        <time>2010-11-28T14:10:15Z</time>
      </trkpt>
      <trkpt lat="46.29574" lon="-0.18463">
        <ele>112.4957</ele>
        <time>2010-11-28T14:10:16Z</time>
      </trkpt>
      <trkpt lat="46.29573" lon="-0.18461">
        <ele>111.9514</ele>
        <time>2010-11-28T14:10:18Z</time>
      </trkpt>
      <trkpt lat="46.29573" lon="-0.1846">
        <ele>111.6872</ele>
        <time>2010-11-28T14:10:19Z</time>
      </trkpt>
      <trkpt lat="46.29573" lon="-0.18459">
        <ele>111.4269</ele>
        <time>2010-11-28T14:10:20Z</time>
      </trkpt>
      <trkpt lat="46.29572" lon="-0.18458">
        <ele>111.1824</ele>
        <time>2010-11-28T14:10:21Z</time>
      </trkpt>
      <trkpt lat="46.29572" lon="-0.18457">
        <ele>110.9426</ele>
        <time>2010-11-28T14:10:22Z</time>
      </trkpt>
      <trkpt lat="46.29571" lon="-0.18457">
        <ele>110.7064</ele>
        <time>2010-11-28T14:10:23Z</time>
      </trkpt>
      <trkpt lat="46.29571" lon="-0.1845">
        <ele>108.8614</ele>
        <time>2010-11-28T14:10:31Z</time>
      </trkpt>
      <trkpt lat="46.29573" lon="-0.18442">
        <ele>107.7866</ele>
        <time>2010-11-28T14:10:36Z</time>
      </trkpt>
      <trkpt lat="46.29574" lon="-0.18436">
        <ele>107.0834</ele>
        <time>2010-11-28T14:10:40Z</time>
      </trkpt>
      <trkpt lat="46.29574" lon="-0.18429">
        <ele>106.2654</ele>
        <time>2010-11-28T14:10:46Z</time>
      </trkpt>
      <trkpt lat="46.29574" lon="-0.18422">
        <ele>105.7042</ele>
        <time>2010-11-28T14:10:53Z</time>
      </trkpt>
      <trkpt lat="46.29574" lon="-0.18415">
        <ele>105.3949</ele>
        <time>2010-11-28T14:11:01Z</time>
      </trkpt>
      <trkpt lat="46.29573" lon="-0.18407">
        <ele>105.4172</ele>
        <time>2010-11-28T14:11:09Z</time>
      </trkpt>
      <trkpt lat="46.29576" lon="-0.18402">
        <ele>105.7883</ele>
        <time>2010-11-28T14:11:18Z</time>
      </trkpt>
      <trkpt lat="46.2958" lon="-0.18397">
        <ele>106.055</ele>
        <time>2010-11-28T14:11:23Z</time>
      </trkpt>
      <trkpt lat="46.29581" lon="-0.18395">
        <ele>106.134</ele>
        <time>2010-11-28T14:11:25Z</time>
      </trkpt>
      <trkpt lat="46.29582" lon="-0.18395">
        <ele>106.1556</ele>
        <time>2010-11-28T14:11:26Z</time>
      </trkpt>
      <trkpt lat="46.29582" lon="-0.18394">
        <ele>106.1608</ele>
        <time>2010-11-28T14:11:27Z</time>
      </trkpt>
      <trkpt lat="46.29582" lon="-0.18392">
        <ele>106.1542</ele>
        <time>2010-11-28T14:11:28Z</time>
      </trkpt>
      <trkpt lat="46.29582" lon="-0.18391">
        <ele>106.1357</ele>
        <time>2010-11-28T14:11:29Z</time>
      </trkpt>
      <trkpt lat="46.29581" lon="-0.1839">
        <ele>106.1123</ele>
        <time>2010-11-28T14:11:30Z</time>
      </trkpt>
      <trkpt lat="46.29581" lon="-0.18389">
        <ele>106.0816</ele>
        <time>2010-11-28T14:11:31Z</time>
      </trkpt>
      <trkpt lat="46.29581" lon="-0.18387">
        <ele>106.0475</ele>
        <time>2010-11-28T14:11:32Z</time>
      </trkpt>
      <trkpt lat="46.29581" lon="-0.18386">
        <ele>106.014</ele>
        <time>2010-11-28T14:11:33Z</time>
      </trkpt>
      <trkpt lat="46.2958" lon="-0.18385">
        <ele>105.979</ele>
        <time>2010-11-28T14:11:34Z</time>
      </trkpt>
      <trkpt lat="46.2958" lon="-0.18384">
        <ele>105.9396</ele>
        <time>2010-11-28T14:11:35Z</time>
      </trkpt>
      <trkpt lat="46.2958" lon="-0.18383">
        <ele>105.9055</ele>
        <time>2010-11-28T14:11:36Z</time>
      </trkpt>
      <trkpt lat="46.2958" lon="-0.18382">
        <ele>105.8842</ele>
        <time>2010-11-28T14:11:37Z</time>
      </trkpt>
      <trkpt lat="46.29581" lon="-0.18374">
        <ele>106.1536</ele>
        <time>2010-11-28T14:11:44Z</time>
      </trkpt>
      <trkpt lat="46.29585" lon="-0.1837">
        <ele>106.3488</ele>
        <time>2010-11-28T14:11:51Z</time>
      </trkpt>
      <trkpt lat="46.29589" lon="-0.18366">
        <ele>106.4188</ele>
        <time>2010-11-28T14:11:57Z</time>
      </trkpt>
      <trkpt lat="46.29593" lon="-0.18362">
        <ele>106.4228</ele>
        <time>2010-11-28T14:12:01Z</time>
      </trkpt>
      <trkpt lat="46.29593" lon="-0.18361">
        <ele>106.4095</ele>
        <time>2010-11-28T14:12:02Z</time>
      </trkpt>
      <trkpt lat="46.29594" lon="-0.1836">
        <ele>106.3967</ele>
        <time>2010-11-28T14:12:03Z</time>
      </trkpt>
      <trkpt lat="46.29594" lon="-0.18358">
        <ele>106.3785</ele>
        <time>2010-11-28T14:12:04Z</time>
      </trkpt>
      <trkpt lat="46.29595" lon="-0.18357">
        <ele>106.3576</ele>
        <time>2010-11-28T14:12:05Z</time>
      </trkpt>
      <trkpt lat="46.29596" lon="-0.18356">
        <ele>106.3099</ele>
        <time>2010-11-28T14:12:06Z</time>
      </trkpt>
      <trkpt lat="46.29596" lon="-0.18355">
        <ele>106.2519</ele>
        <time>2010-11-28T14:12:07Z</time>
      </trkpt>
      <trkpt lat="46.29597" lon="-0.18354">
        <ele>106.2089</ele>
        <time>2010-11-28T14:12:08Z</time>
      </trkpt>
      <trkpt lat="46.29598" lon="-0.18353">
        <ele>106.1531</ele>
        <time>2010-11-28T14:12:09Z</time>
      </trkpt>
      <trkpt lat="46.29598" lon="-0.18352">
        <ele>106.0954</ele>
        <time>2010-11-28T14:12:10Z</time>
      </trkpt>
      <trkpt lat="46.29599" lon="-0.18351">
        <ele>106.0438</ele>
        <time>2010-11-28T14:12:11Z</time>
      </trkpt>
      <trkpt lat="46.29599" lon="-0.18351">
        <ele>106.007</ele>
        <time>2010-11-28T14:12:12Z</time>
      </trkpt>
      <trkpt lat="46.296" lon="-0.1835">
        <ele>105.9695</ele>
        <time>2010-11-28T14:12:13Z</time>
      </trkpt>
      <trkpt lat="46.29606" lon="-0.18346">
        <ele>105.9989</ele>
        <time>2010-11-28T14:12:20Z</time>
      </trkpt>
      <trkpt lat="46.2961" lon="-0.18345">
        <ele>106.18</ele>
        <time>2010-11-28T14:12:23Z</time>
      </trkpt>
      <trkpt lat="46.29615" lon="-0.18342">
        <ele>106.8039</ele>
        <time>2010-11-28T14:12:27Z</time>
      </trkpt>
      <trkpt lat="46.29615" lon="-0.18341">
        <ele>106.9608</ele>
        <time>2010-11-28T14:12:28Z</time>
      </trkpt>
      <trkpt lat="46.29616" lon="-0.1834">
        <ele>107.1186</ele>
        <time>2010-11-28T14:12:29Z</time>
      </trkpt>
      <trkpt lat="46.29617" lon="-0.18339">
        <ele>107.2697</ele>
        <time>2010-11-28T14:12:30Z</time>
      </trkpt>
      <trkpt lat="46.29622" lon="-0.18339">
        <ele>108.0181</ele>
        <time>2010-11-28T14:12:40Z</time>
      </trkpt>
      <trkpt lat="46.29624" lon="-0.18345">
        <ele>107.9275</ele>
        <time>2010-11-28T14:12:50Z</time>
      </trkpt>
      <trkpt lat="46.29625" lon="-0.18349">
        <ele>107.8428</ele>
        <time>2010-11-28T14:12:52Z</time>
      </trkpt>
      <trkpt lat="46.29625" lon="-0.1835">
        <ele>107.8017</ele>
        <time>2010-11-28T14:12:53Z</time>
      </trkpt>
      <trkpt lat="46.29626" lon="-0.18351">
        <ele>107.7609</ele>
        <time>2010-11-28T14:12:54Z</time>
      </trkpt>
      <trkpt lat="46.29626" lon="-0.18353">
        <ele>107.7192</ele>
        <time>2010-11-28T14:12:55Z</time>
      </trkpt>
      <trkpt lat="46.29627" lon="-0.18354">
        <ele>107.6811</ele>
        <time>2010-11-28T14:12:56Z</time>
      </trkpt>
      <trkpt lat="46.29627" lon="-0.18355">
        <ele>107.6372</ele>
        <time>2010-11-28T14:12:57Z</time>
      </trkpt>
      <trkpt lat="46.29627" lon="-0.18356">
        <ele>107.607</ele>
        <time>2010-11-28T14:12:58Z</time>
      </trkpt>
      <trkpt lat="46.29628" lon="-0.18357">
        <ele>107.5919</ele>
        <time>2010-11-28T14:12:59Z</time>
      </trkpt>
      <trkpt lat="46.29628" lon="-0.18357">
        <ele>107.5766</ele>
        <time>2010-11-28T14:13:00Z</time>
      </trkpt>
      <trkpt lat="46.29629" lon="-0.18358">
        <ele>107.5641</ele>
        <time>2010-11-28T14:13:01Z</time>
      </trkpt>
      <trkpt lat="46.2963" lon="-0.1836">
        <ele>107.5339</ele>
        <time>2010-11-28T14:13:03Z</time>
      </trkpt>
      <trkpt lat="46.2963" lon="-0.18361">
        <ele>107.5184</ele>
        <time>2010-11-28T14:13:04Z</time>
      </trkpt>
      <trkpt lat="46.29635" lon="-0.18366">
        <ele>107.676</ele>
        <time>2010-11-28T14:13:12Z</time>
      </trkpt>
      <trkpt lat="46.29638" lon="-0.1837">
        <ele>107.7648</ele>
        <time>2010-11-28T14:13:23Z</time>
      </trkpt>
      <trkpt lat="46.29639" lon="-0.18377">
        <ele>107.9898</ele>
        <time>2010-11-28T14:13:35Z</time>
      </trkpt>
      <trkpt lat="46.29643" lon="-0.18373">
        <ele>109.3171</ele>
        <time>2010-11-28T14:13:55Z</time>
      </trkpt>
      <trkpt lat="46.29647" lon="-0.18372">
        <ele>109.6655</ele>
        <time>2010-11-28T14:13:57Z</time>
      </trkpt>
      <trkpt lat="46.29649" lon="-0.18371">
        <ele>109.813</ele>
        <time>2010-11-28T14:13:58Z</time>
      </trkpt>
      <trkpt lat="46.29651" lon="-0.1837">
        <ele>109.936</ele>
        <time>2010-11-28T14:13:59Z</time>
      </trkpt>
      <trkpt lat="46.29653" lon="-0.18368">
        <ele>110.0382</ele>
        <time>2010-11-28T14:14:00Z</time>
      </trkpt>
      <trkpt lat="46.29654" lon="-0.18367">
        <ele>110.126</ele>
        <time>2010-11-28T14:14:01Z</time>
      </trkpt>
      <trkpt lat="46.29656" lon="-0.18366">
        <ele>110.2085</ele>
        <time>2010-11-28T14:14:02Z</time>
      </trkpt>
      <trkpt lat="46.29657" lon="-0.18365">
        <ele>110.281</ele>
        <time>2010-11-28T14:14:03Z</time>
      </trkpt>
      <trkpt lat="46.29659" lon="-0.18364">
        <ele>110.3448</ele>
        <time>2010-11-28T14:14:04Z</time>
      </trkpt>
      <trkpt lat="46.2966" lon="-0.18364">
        <ele>110.4047</ele>
        <time>2010-11-28T14:14:05Z</time>
      </trkpt>
      <trkpt lat="46.29661" lon="-0.18363">
        <ele>110.4392</ele>
        <time>2010-11-28T14:14:06Z</time>
      </trkpt>
      <trkpt lat="46.29662" lon="-0.18362">
        <ele>110.4639</ele>
        <time>2010-11-28T14:14:07Z</time>
      </trkpt>
      <trkpt lat="46.29663" lon="-0.18361">
        <ele>110.4853</ele>
        <time>2010-11-28T14:14:08Z</time>
      </trkpt>
      <trkpt lat="46.29664" lon="-0.1836">
        <ele>110.492</ele>
        <time>2010-11-28T14:14:09Z</time>
      </trkpt>
      <trkpt lat="46.29664" lon="-0.18359">
        <ele>110.4843</ele>
        <time>2010-11-28T14:14:10Z</time>
      </trkpt>
      <trkpt lat="46.29665" lon="-0.18358">
        <ele>110.4763</ele>
        <time>2010-11-28T14:14:11Z</time>
      </trkpt>
      <trkpt lat="46.29666" lon="-0.18358">
        <ele>110.4692</ele>
        <time>2010-11-28T14:14:12Z</time>
      </trkpt>
      <trkpt lat="46.29667" lon="-0.18357">
        <ele>110.4613</ele>
        <time>2010-11-28T14:14:13Z</time>
      </trkpt>
      <trkpt lat="46.29667" lon="-0.18356">
        <ele>110.4523</ele>
        <time>2010-11-28T14:14:14Z</time>
      </trkpt>
      <trkpt lat="46.29667" lon="-0.18355">
        <ele>110.4365</ele>
        <time>2010-11-28T14:14:15Z</time>
      </trkpt>
      <trkpt lat="46.29667" lon="-0.18354">
        <ele>110.4027</ele>
        <time>2010-11-28T14:14:16Z</time>
      </trkpt>
      <trkpt lat="46.29668" lon="-0.18353">
        <ele>110.3635</ele>
        <time>2010-11-28T14:14:17Z</time>
      </trkpt>
      <trkpt lat="46.29668" lon="-0.18351">
        <ele>110.3227</ele>
        <time>2010-11-28T14:14:18Z</time>
      </trkpt>
      <trkpt lat="46.29668" lon="-0.1835">
        <ele>110.2253</ele>
        <time>2010-11-28T14:14:19Z</time>
      </trkpt>
      <trkpt lat="46.29668" lon="-0.18349">
        <ele>110.0914</ele>
        <time>2010-11-28T14:14:20Z</time>
      </trkpt>
      <trkpt lat="46.29668" lon="-0.18348">
        <ele>109.9305</ele>
        <time>2010-11-28T14:14:21Z</time>
      </trkpt>
      <trkpt lat="46.29668" lon="-0.18347">
        <ele>109.7747</ele>
        <time>2010-11-28T14:14:22Z</time>
      </trkpt>
      <trkpt lat="46.29669" lon="-0.18346">
        <ele>109.6214</ele>
        <time>2010-11-28T14:14:23Z</time>
      </trkpt>
      <trkpt lat="46.29669" lon="-0.18345">
        <ele>109.4801</ele>
        <time>2010-11-28T14:14:24Z</time>
      </trkpt>
      <trkpt lat="46.2967" lon="-0.18344">
        <ele>109.3461</ele>
        <time>2010-11-28T14:14:25Z</time>
      </trkpt>
      <trkpt lat="46.2967" lon="-0.18343">
        <ele>109.2137</ele>
        <time>2010-11-28T14:14:26Z</time>
      </trkpt>
      <trkpt lat="46.29671" lon="-0.18342">
        <ele>109.0785</ele>
        <time>2010-11-28T14:14:27Z</time>
      </trkpt>
      <trkpt lat="46.29672" lon="-0.18341">
        <ele>108.9392</ele>
        <time>2010-11-28T14:14:28Z</time>
      </trkpt>
      <trkpt lat="46.29672" lon="-0.1834">
        <ele>108.8072</ele>
        <time>2010-11-28T14:14:29Z</time>
      </trkpt>
      <trkpt lat="46.29673" lon="-0.18339">
        <ele>108.6757</ele>
        <time>2010-11-28T14:14:30Z</time>
      </trkpt>
      <trkpt lat="46.29674" lon="-0.18338">
        <ele>108.5507</ele>
        <time>2010-11-28T14:14:31Z</time>
      </trkpt>
      <trkpt lat="46.29675" lon="-0.18337">
        <ele>108.4354</ele>
        <time>2010-11-28T14:14:32Z</time>
      </trkpt>
      <trkpt lat="46.29676" lon="-0.18336">
        <ele>108.3286</ele>
        <time>2010-11-28T14:14:33Z</time>
      </trkpt>
      <trkpt lat="46.29677" lon="-0.18335">
        <ele>108.2246</ele>
        <time>2010-11-28T14:14:34Z</time>
      </trkpt>
      <trkpt lat="46.29678" lon="-0.18335">
        <ele>108.122</ele>
        <time>2010-11-28T14:14:35Z</time>
      </trkpt>
      <trkpt lat="46.29678" lon="-0.18334">
        <ele>108.0156</ele>
        <time>2010-11-28T14:14:36Z</time>
      </trkpt>
      <trkpt lat="46.29679" lon="-0.18334">
        <ele>107.9137</ele>
        <time>2010-11-28T14:14:37Z</time>
      </trkpt>
      <trkpt lat="46.2968" lon="-0.18333">
        <ele>107.8144</ele>
        <time>2010-11-28T14:14:38Z</time>
      </trkpt>
      <trkpt lat="46.29681" lon="-0.18332">
        <ele>107.7487</ele>
        <time>2010-11-28T14:14:39Z</time>
      </trkpt>
      <trkpt lat="46.29682" lon="-0.18331">
        <ele>107.6848</ele>
        <time>2010-11-28T14:14:40Z</time>
      </trkpt>
      <trkpt lat="46.29683" lon="-0.1833">
        <ele>107.6712</ele>
        <time>2010-11-28T14:14:41Z</time>
      </trkpt>
      <trkpt lat="46.29684" lon="-0.18329">
        <ele>107.7035</ele>
        <time>2010-11-28T14:14:42Z</time>
      </trkpt>
      <trkpt lat="46.29686" lon="-0.18328">
        <ele>107.7466</ele>
        <time>2010-11-28T14:14:43Z</time>
      </trkpt>
      <trkpt lat="46.29687" lon="-0.18327">
        <ele>107.8098</ele>
        <time>2010-11-28T14:14:44Z</time>
      </trkpt>
      <trkpt lat="46.29688" lon="-0.18326">
        <ele>107.8783</ele>
        <time>2010-11-28T14:14:45Z</time>
      </trkpt>
      <trkpt lat="46.29689" lon="-0.18324">
        <ele>107.9393</ele>
        <time>2010-11-28T14:14:46Z</time>
      </trkpt>
      <trkpt lat="46.2969" lon="-0.18323">
        <ele>108.0005</ele>
        <time>2010-11-28T14:14:47Z</time>
      </trkpt>
      <trkpt lat="46.29691" lon="-0.18322">
        <ele>108.0582</ele>
        <time>2010-11-28T14:14:48Z</time>
      </trkpt>
      <trkpt lat="46.29692" lon="-0.18321">
        <ele>108.1206</ele>
        <time>2010-11-28T14:14:49Z</time>
      </trkpt>
      <trkpt lat="46.29692" lon="-0.1832">
        <ele>108.1666</ele>
        <time>2010-11-28T14:14:50Z</time>
      </trkpt>
      <trkpt lat="46.29693" lon="-0.18319">
        <ele>108.2259</ele>
        <time>2010-11-28T14:14:51Z</time>
      </trkpt>
      <trkpt lat="46.29694" lon="-0.18319">
        <ele>108.2782</ele>
        <time>2010-11-28T14:14:52Z</time>
      </trkpt>
      <trkpt lat="46.29694" lon="-0.18318">
        <ele>108.3319</ele>
        <time>2010-11-28T14:14:53Z</time>
      </trkpt>
      <trkpt lat="46.29695" lon="-0.18317">
        <ele>108.3982</ele>
        <time>2010-11-28T14:14:54Z</time>
      </trkpt>
      <trkpt lat="46.29696" lon="-0.18316">
        <ele>108.4744</ele>
        <time>2010-11-28T14:14:55Z</time>
      </trkpt>
      <trkpt lat="46.29697" lon="-0.18315">
        <ele>108.5479</ele>
        <time>2010-11-28T14:14:56Z</time>
      </trkpt>
      <trkpt lat="46.29697" lon="-0.18314">
        <ele>108.5994</ele>
        <time>2010-11-28T14:14:57Z</time>
      </trkpt>
      <trkpt lat="46.29698" lon="-0.18313">
        <ele>108.6497</ele>
        <time>2010-11-28T14:14:58Z</time>
      </trkpt>
      <trkpt lat="46.29699" lon="-0.18313">
        <ele>108.7046</ele>
        <time>2010-11-28T14:14:59Z</time>
      </trkpt>
      <trkpt lat="46.29699" lon="-0.18312">
        <ele>108.7668</ele>
        <time>2010-11-28T14:15:00Z</time>
      </trkpt>
      <trkpt lat="46.297" lon="-0.18311">
        <ele>108.8437</ele>
        <time>2010-11-28T14:15:01Z</time>
      </trkpt>
      <trkpt lat="46.297" lon="-0.1831">
        <ele>108.9235</ele>
        <time>2010-11-28T14:15:02Z</time>
      </trkpt>
      <trkpt lat="46.29698" lon="-0.18308">
        <ele>109.9269</ele>
        <time>2010-11-28T14:15:25Z</time>
      </trkpt>
      <trkpt lat="46.29699" lon="-0.18307">
        <ele>110.2</ele>
        <time>2010-11-28T14:15:26Z</time>
      </trkpt>
      <trkpt lat="46.29699" lon="-0.18307">
        <ele>110.4049</ele>
        <time>2010-11-28T14:15:27Z</time>
      </trkpt>
      <trkpt lat="46.29701" lon="-0.18307">
        <ele>110.5706</ele>
        <time>2010-11-28T14:15:28Z</time>
      </trkpt>
      <trkpt lat="46.29701" lon="-0.18306">
        <ele>110.7188</ele>
        <time>2010-11-28T14:15:29Z</time>
      </trkpt>
      <trkpt lat="46.29702" lon="-0.18305">
        <ele>110.8554</ele>
        <time>2010-11-28T14:15:30Z</time>
      </trkpt>
      <trkpt lat="46.29703" lon="-0.18305">
        <ele>110.9813</ele>
        <time>2010-11-28T14:15:31Z</time>
      </trkpt>
      <trkpt lat="46.29704" lon="-0.18304">
        <ele>111.0912</ele>
        <time>2010-11-28T14:15:32Z</time>
      </trkpt>
      <trkpt lat="46.29705" lon="-0.18303">
        <ele>111.1867</ele>
        <time>2010-11-28T14:15:33Z</time>
      </trkpt>
      <trkpt lat="46.29706" lon="-0.18302">
        <ele>111.2786</ele>
        <time>2010-11-28T14:15:34Z</time>
      </trkpt>
      <trkpt lat="46.29707" lon="-0.18301">
        <ele>111.3725</ele>
        <time>2010-11-28T14:15:35Z</time>
      </trkpt>
      <trkpt lat="46.29708" lon="-0.183">
        <ele>111.4634</ele>
        <time>2010-11-28T14:15:36Z</time>
      </trkpt>
      <trkpt lat="46.29709" lon="-0.18299">
        <ele>111.5514</ele>
        <time>2010-11-28T14:15:37Z</time>
      </trkpt>
      <trkpt lat="46.2971" lon="-0.18298">
        <ele>111.6371</ele>
        <time>2010-11-28T14:15:38Z</time>
      </trkpt>
      <trkpt lat="46.29711" lon="-0.18297">
        <ele>111.7328</ele>
        <time>2010-11-28T14:15:39Z</time>
      </trkpt>
      <trkpt lat="46.29712" lon="-0.18296">
        <ele>111.8134</ele>
        <time>2010-11-28T14:15:40Z</time>
      </trkpt>
      <trkpt lat="46.29713" lon="-0.18295">
        <ele>111.8731</ele>
        <time>2010-11-28T14:15:41Z</time>
      </trkpt>
      <trkpt lat="46.29714" lon="-0.18294">
        <ele>111.9311</ele>
        <time>2010-11-28T14:15:42Z</time>
      </trkpt>
      <trkpt lat="46.29715" lon="-0.18293">
        <ele>111.9796</ele>
        <time>2010-11-28T14:15:43Z</time>
      </trkpt>
      <trkpt lat="46.29716" lon="-0.18292">
        <ele>112.0189</ele>
        <time>2010-11-28T14:15:44Z</time>
      </trkpt>
      <trkpt lat="46.29717" lon="-0.18291">
        <ele>112.0549</ele>
        <time>2010-11-28T14:15:45Z</time>
      </trkpt>
      <trkpt lat="46.29718" lon="-0.1829">
        <ele>112.0933</ele>
        <time>2010-11-28T14:15:46Z</time>
      </trkpt>
      <trkpt lat="46.29718" lon="-0.18289">
        <ele>112.1212</ele>
        <time>2010-11-28T14:15:47Z</time>
      </trkpt>
      <trkpt lat="46.29719" lon="-0.18288">
        <ele>112.1472</ele>
        <time>2010-11-28T14:15:48Z</time>
      </trkpt>
      <trkpt lat="46.2972" lon="-0.18287">
        <ele>112.1713</ele>
        <time>2010-11-28T14:15:49Z</time>
      </trkpt>
      <trkpt lat="46.29721" lon="-0.18286">
        <ele>112.2024</ele>
        <time>2010-11-28T14:15:50Z</time>
      </trkpt>
      <trkpt lat="46.29722" lon="-0.18285">
        <ele>112.2217</ele>
        <time>2010-11-28T14:15:51Z</time>
      </trkpt>
      <trkpt lat="46.29723" lon="-0.18285">
        <ele>112.2375</ele>
        <time>2010-11-28T14:15:52Z</time>
      </trkpt>
      <trkpt lat="46.29724" lon="-0.18284">
        <ele>112.2543</ele>
        <time>2010-11-28T14:15:53Z</time>
      </trkpt>
      <trkpt lat="46.29725" lon="-0.18283">
        <ele>112.2752</ele>
        <time>2010-11-28T14:15:54Z</time>
      </trkpt>
      <trkpt lat="46.29726" lon="-0.18283">
        <ele>112.3018</ele>
        <time>2010-11-28T14:15:55Z</time>
      </trkpt>
      <trkpt lat="46.29727" lon="-0.18282">
        <ele>112.3274</ele>
        <time>2010-11-28T14:15:56Z</time>
      </trkpt>
      <trkpt lat="46.29728" lon="-0.18281">
        <ele>112.3454</ele>
        <time>2010-11-28T14:15:57Z</time>
      </trkpt>
      <trkpt lat="46.29729" lon="-0.1828">
        <ele>112.3627</ele>
        <time>2010-11-28T14:15:58Z</time>
      </trkpt>
      <trkpt lat="46.2973" lon="-0.1828">
        <ele>112.3777</ele>
        <time>2010-11-28T14:15:59Z</time>
      </trkpt>
      <trkpt lat="46.29731" lon="-0.18279">
        <ele>112.4009</ele>
        <time>2010-11-28T14:16:00Z</time>
      </trkpt>
      <trkpt lat="46.29731" lon="-0.18278">
        <ele>112.4179</ele>
        <time>2010-11-28T14:16:01Z</time>
      </trkpt>
      <trkpt lat="46.29732" lon="-0.18277">
        <ele>112.4324</ele>
        <time>2010-11-28T14:16:02Z</time>
      </trkpt>
      <trkpt lat="46.29732" lon="-0.18275">
        <ele>112.445</ele>
        <time>2010-11-28T14:16:03Z</time>
      </trkpt>
      <trkpt lat="46.29732" lon="-0.18274">
        <ele>112.4597</ele>
        <time>2010-11-28T14:16:04Z</time>
      </trkpt>
      <trkpt lat="46.29732" lon="-0.18273">
        <ele>112.471</ele>
        <time>2010-11-28T14:16:05Z</time>
      </trkpt>
      <trkpt lat="46.29732" lon="-0.18272">
        <ele>112.4796</ele>
        <time>2010-11-28T14:16:06Z</time>
      </trkpt>
      <trkpt lat="46.29732" lon="-0.18271">
        <ele>112.4849</ele>
        <time>2010-11-28T14:16:07Z</time>
      </trkpt>
      <trkpt lat="46.29732" lon="-0.1827">
        <ele>112.4944</ele>
        <time>2010-11-28T14:16:08Z</time>
      </trkpt>
      <trkpt lat="46.29733" lon="-0.1827">
        <ele>112.5191</ele>
        <time>2010-11-28T14:16:11Z</time>
      </trkpt>
      <trkpt lat="46.29733" lon="-0.18271">
        <ele>112.5388</ele>
        <time>2010-11-28T14:16:12Z</time>
      </trkpt>
      <trkpt lat="46.29733" lon="-0.18271">
        <ele>112.5511</ele>
        <time>2010-11-28T14:16:13Z</time>
      </trkpt>
      <trkpt lat="46.29734" lon="-0.18272">
        <ele>112.5478</ele>
        <time>2010-11-28T14:16:14Z</time>
      </trkpt>
      <trkpt lat="46.29734" lon="-0.18273">
        <ele>112.5376</ele>
        <time>2010-11-28T14:16:15Z</time>
      </trkpt>
      <trkpt lat="46.29735" lon="-0.18273">
        <ele>112.525</ele>
        <time>2010-11-28T14:16:16Z</time>
      </trkpt>
      <trkpt lat="46.29736" lon="-0.18274">
        <ele>112.5053</ele>
        <time>2010-11-28T14:16:17Z</time>
      </trkpt>
      <trkpt lat="46.29737" lon="-0.18274">
        <ele>112.478</ele>
        <time>2010-11-28T14:16:18Z</time>
      </trkpt>
      <trkpt lat="46.29738" lon="-0.18274">
        <ele>112.4269</ele>
        <time>2010-11-28T14:16:19Z</time>
      </trkpt>
      <trkpt lat="46.29739" lon="-0.18275">
        <ele>112.3641</ele>
        <time>2010-11-28T14:16:20Z</time>
      </trkpt>
      <trkpt lat="46.2974" lon="-0.18275">
        <ele>112.293</ele>
        <time>2010-11-28T14:16:21Z</time>
      </trkpt>
      <trkpt lat="46.29741" lon="-0.18274">
        <ele>112.2271</ele>
        <time>2010-11-28T14:16:22Z</time>
      </trkpt>
      <trkpt lat="46.29742" lon="-0.18274">
        <ele>112.1661</ele>
        <time>2010-11-28T14:16:23Z</time>
      </trkpt>
      <trkpt lat="46.29743" lon="-0.18274">
        <ele>112.1075</ele>
        <time>2010-11-28T14:16:24Z</time>
      </trkpt>
      <trkpt lat="46.29744" lon="-0.18273">
        <ele>112.0523</ele>
        <time>2010-11-28T14:16:25Z</time>
      </trkpt>
      <trkpt lat="46.29745" lon="-0.18273">
        <ele>111.9965</ele>
        <time>2010-11-28T14:16:26Z</time>
      </trkpt>
      <trkpt lat="46.29746" lon="-0.18272">
        <ele>111.9447</ele>
        <time>2010-11-28T14:16:27Z</time>
      </trkpt>
      <trkpt lat="46.29746" lon="-0.18272">
        <ele>111.8942</ele>
        <time>2010-11-28T14:16:28Z</time>
      </trkpt>
      <trkpt lat="46.29747" lon="-0.18271">
        <ele>111.8434</ele>
        <time>2010-11-28T14:16:29Z</time>
      </trkpt>
      <trkpt lat="46.29748" lon="-0.18271">
        <ele>111.7905</ele>
        <time>2010-11-28T14:16:30Z</time>
      </trkpt>
      <trkpt lat="46.29749" lon="-0.1827">
        <ele>111.7412</ele>
        <time>2010-11-28T14:16:31Z</time>
      </trkpt>
      <trkpt lat="46.2975" lon="-0.1827">
        <ele>111.6903</ele>
        <time>2010-11-28T14:16:32Z</time>
      </trkpt>
      <trkpt lat="46.2975" lon="-0.18269">
        <ele>111.6265</ele>
        <time>2010-11-28T14:16:33Z</time>
      </trkpt>
      <trkpt lat="46.2975" lon="-0.18268">
        <ele>111.5626</ele>
        <time>2010-11-28T14:16:34Z</time>
      </trkpt>
      <trkpt lat="46.29751" lon="-0.18268">
        <ele>111.5008</ele>
        <time>2010-11-28T14:16:35Z</time>
      </trkpt>
      <trkpt lat="46.29752" lon="-0.18267">
        <ele>111.4407</ele>
        <time>2010-11-28T14:16:36Z</time>
      </trkpt>
      <trkpt lat="46.29752" lon="-0.18266">
        <ele>111.3898</ele>
        <time>2010-11-28T14:16:37Z</time>
      </trkpt>
      <trkpt lat="46.29753" lon="-0.18265">
        <ele>111.3437</ele>
        <time>2010-11-28T14:16:38Z</time>
      </trkpt>
      <trkpt lat="46.29754" lon="-0.18265">
        <ele>111.2965</ele>
        <time>2010-11-28T14:16:39Z</time>
      </trkpt>
      <trkpt lat="46.29754" lon="-0.18264">
        <ele>111.2516</ele>
        <time>2010-11-28T14:16:40Z</time>
      </trkpt>
      <trkpt lat="46.29754" lon="-0.18264">
        <ele>111.1901</ele>
        <time>2010-11-28T14:16:41Z</time>
      </trkpt>
      <trkpt lat="46.29755" lon="-0.18263">
        <ele>111.1324</ele>
        <time>2010-11-28T14:16:42Z</time>
      </trkpt>
      <trkpt lat="46.29756" lon="-0.18262">
        <ele>111.0883</ele>
        <time>2010-11-28T14:16:43Z</time>
      </trkpt>
      <trkpt lat="46.29757" lon="-0.18261">
        <ele>111.0418</ele>
        <time>2010-11-28T14:16:44Z</time>
      </trkpt>
      <trkpt lat="46.29758" lon="-0.1826">
        <ele>111.0291</ele>
        <time>2010-11-28T14:16:45Z</time>
      </trkpt>
      <trkpt lat="46.29759" lon="-0.18259">
        <ele>111.0097</ele>
        <time>2010-11-28T14:16:46Z</time>
      </trkpt>
      <trkpt lat="46.2976" lon="-0.18259">
        <ele>110.9542</ele>
        <time>2010-11-28T14:16:47Z</time>
      </trkpt>
      <trkpt lat="46.2976" lon="-0.18258">
        <ele>110.9071</ele>
        <time>2010-11-28T14:16:48Z</time>
      </trkpt>
      <trkpt lat="46.29761" lon="-0.18257">
        <ele>110.8604</ele>
        <time>2010-11-28T14:16:49Z</time>
      </trkpt>
      <trkpt lat="46.29762" lon="-0.18257">
        <ele>110.7371</ele>
        <time>2010-11-28T14:16:50Z</time>
      </trkpt>
      <trkpt lat="46.29763" lon="-0.18256">
        <ele>110.6257</ele>
        <time>2010-11-28T14:16:51Z</time>
      </trkpt>
      <trkpt lat="46.29764" lon="-0.18254">
        <ele>110.5083</ele>
        <time>2010-11-28T14:16:52Z</time>
      </trkpt>
      <trkpt lat="46.29765" lon="-0.18254">
        <ele>110.3585</ele>
        <time>2010-11-28T14:16:53Z</time>
      </trkpt>
      <trkpt lat="46.29766" lon="-0.18252">
        <ele>110.2522</ele>
        <time>2010-11-28T14:16:54Z</time>
      </trkpt>
      <trkpt lat="46.29767" lon="-0.18251">
        <ele>110.1712</ele>
        <time>2010-11-28T14:16:55Z</time>
      </trkpt>
      <trkpt lat="46.29768" lon="-0.1825">
        <ele>110.0972</ele>
        <time>2010-11-28T14:16:56Z</time>
      </trkpt>
      <trkpt lat="46.2977" lon="-0.1825">
        <ele>110.0381</ele>
        <time>2010-11-28T14:16:57Z</time>
      </trkpt>
      <trkpt lat="46.29771" lon="-0.18249">
        <ele>109.979</ele>
        <time>2010-11-28T14:16:58Z</time>
      </trkpt>
      <trkpt lat="46.29772" lon="-0.18248">
        <ele>109.9253</ele>
        <time>2010-11-28T14:16:59Z</time>
      </trkpt>
      <trkpt lat="46.29773" lon="-0.18247">
        <ele>109.8819</ele>
        <time>2010-11-28T14:17:00Z</time>
      </trkpt>
      <trkpt lat="46.29773" lon="-0.18245">
        <ele>109.873</ele>
        <time>2010-11-28T14:17:01Z</time>
      </trkpt>
      <trkpt lat="46.29773" lon="-0.18244">
        <ele>109.8663</ele>
        <time>2010-11-28T14:17:02Z</time>
      </trkpt>
      <trkpt lat="46.29774" lon="-0.18243">
        <ele>109.8653</ele>
        <time>2010-11-28T14:17:03Z</time>
      </trkpt>
      <trkpt lat="46.29775" lon="-0.18242">
        <ele>109.8726</ele>
        <time>2010-11-28T14:17:04Z</time>
      </trkpt>
      <trkpt lat="46.29776" lon="-0.18241">
        <ele>109.8851</ele>
        <time>2010-11-28T14:17:05Z</time>
      </trkpt>
      <trkpt lat="46.29776" lon="-0.18239">
        <ele>109.8955</ele>
        <time>2010-11-28T14:17:06Z</time>
      </trkpt>
      <trkpt lat="46.29777" lon="-0.18238">
        <ele>109.9183</ele>
        <time>2010-11-28T14:17:07Z</time>
      </trkpt>
      <trkpt lat="46.29778" lon="-0.18237">
        <ele>109.9412</ele>
        <time>2010-11-28T14:17:08Z</time>
      </trkpt>
      <trkpt lat="46.29779" lon="-0.18236">
        <ele>109.9502</ele>
        <time>2010-11-28T14:17:09Z</time>
      </trkpt>
      <trkpt lat="46.29779" lon="-0.18235">
        <ele>109.9587</ele>
        <time>2010-11-28T14:17:10Z</time>
      </trkpt>
      <trkpt lat="46.2978" lon="-0.18235">
        <ele>109.9631</ele>
        <time>2010-11-28T14:17:11Z</time>
      </trkpt>
      <trkpt lat="46.29781" lon="-0.18234">
        <ele>109.991</ele>
        <time>2010-11-28T14:17:12Z</time>
      </trkpt>
      <trkpt lat="46.29782" lon="-0.18232">
        <ele>110.0199</ele>
        <time>2010-11-28T14:17:13Z</time>
      </trkpt>
      <trkpt lat="46.29783" lon="-0.18231">
        <ele>110.0473</ele>
        <time>2010-11-28T14:17:14Z</time>
      </trkpt>
      <trkpt lat="46.29784" lon="-0.1823">
        <ele>110.0715</ele>
        <time>2010-11-28T14:17:15Z</time>
      </trkpt>
      <trkpt lat="46.29784" lon="-0.18229">
        <ele>110.1073</ele>
        <time>2010-11-28T14:17:16Z</time>
      </trkpt>
      <trkpt lat="46.29785" lon="-0.18228">
        <ele>110.1528</ele>
        <time>2010-11-28T14:17:17Z</time>
      </trkpt>
      <trkpt lat="46.29786" lon="-0.18227">
        <ele>110.2061</ele>
        <time>2010-11-28T14:17:18Z</time>
      </trkpt>
      <trkpt lat="46.29786" lon="-0.18225">
        <ele>110.2734</ele>
        <time>2010-11-28T14:17:19Z</time>
      </trkpt>
      <trkpt lat="46.29787" lon="-0.18224">
        <ele>110.3476</ele>
        <time>2010-11-28T14:17:20Z</time>
      </trkpt>
      <trkpt lat="46.29788" lon="-0.18222">
        <ele>110.439</ele>
        <time>2010-11-28T14:17:21Z</time>
      </trkpt>
      <trkpt lat="46.29789" lon="-0.1822">
        <ele>110.5163</ele>
        <time>2010-11-28T14:17:22Z</time>
      </trkpt>
      <trkpt lat="46.29789" lon="-0.18219">
        <ele>110.5763</ele>
        <time>2010-11-28T14:17:23Z</time>
      </trkpt>
      <trkpt lat="46.2979" lon="-0.18218">
        <ele>110.6327</ele>
        <time>2010-11-28T14:17:24Z</time>
      </trkpt>
      <trkpt lat="46.29791" lon="-0.18217">
        <ele>110.682</ele>
        <time>2010-11-28T14:17:25Z</time>
      </trkpt>
      <trkpt lat="46.29791" lon="-0.18216">
        <ele>110.7293</ele>
        <time>2010-11-28T14:17:26Z</time>
      </trkpt>
      <trkpt lat="46.29792" lon="-0.18215">
        <ele>110.7908</ele>
        <time>2010-11-28T14:17:27Z</time>
      </trkpt>
      <trkpt lat="46.29792" lon="-0.18214">
        <ele>110.8594</ele>
        <time>2010-11-28T14:17:28Z</time>
      </trkpt>
      <trkpt lat="46.29793" lon="-0.18213">
        <ele>110.9306</ele>
        <time>2010-11-28T14:17:29Z</time>
      </trkpt>
      <trkpt lat="46.29794" lon="-0.18212">
        <ele>111.0058</ele>
        <time>2010-11-28T14:17:30Z</time>
      </trkpt>
      <trkpt lat="46.29794" lon="-0.18211">
        <ele>111.1111</ele>
        <time>2010-11-28T14:17:31Z</time>
      </trkpt>
      <trkpt lat="46.29795" lon="-0.1821">
        <ele>111.2137</ele>
        <time>2010-11-28T14:17:32Z</time>
      </trkpt>
      <trkpt lat="46.29796" lon="-0.18209">
        <ele>111.3427</ele>
        <time>2010-11-28T14:17:33Z</time>
      </trkpt>
      <trkpt lat="46.29796" lon="-0.18208">
        <ele>111.4701</ele>
        <time>2010-11-28T14:17:34Z</time>
      </trkpt>
      <trkpt lat="46.29797" lon="-0.18208">
        <ele>111.5974</ele>
        <time>2010-11-28T14:17:35Z</time>
      </trkpt>
      <trkpt lat="46.29798" lon="-0.18207">
        <ele>111.7532</ele>
        <time>2010-11-28T14:17:36Z</time>
      </trkpt>
      <trkpt lat="46.29799" lon="-0.18206">
        <ele>111.8991</ele>
        <time>2010-11-28T14:17:37Z</time>
      </trkpt>
      <trkpt lat="46.298" lon="-0.18205">
        <ele>112.037</ele>
        <time>2010-11-28T14:17:38Z</time>
      </trkpt>
      <trkpt lat="46.298" lon="-0.18205">
        <ele>112.1685</ele>
        <time>2010-11-28T14:17:39Z</time>
      </trkpt>
      <trkpt lat="46.29801" lon="-0.18204">
        <ele>112.3055</ele>
        <time>2010-11-28T14:17:40Z</time>
      </trkpt>
      <trkpt lat="46.29802" lon="-0.18203">
        <ele>112.4386</ele>
        <time>2010-11-28T14:17:41Z</time>
      </trkpt>
      <trkpt lat="46.29803" lon="-0.18202">
        <ele>112.5633</ele>
        <time>2010-11-28T14:17:42Z</time>
      </trkpt>
      <trkpt lat="46.29803" lon="-0.18202">
        <ele>112.6899</ele>
        <time>2010-11-28T14:17:43Z</time>
      </trkpt>
      <trkpt lat="46.29804" lon="-0.18201">
        <ele>112.8131</ele>
        <time>2010-11-28T14:17:44Z</time>
      </trkpt>
      <trkpt lat="46.29804" lon="-0.182">
        <ele>112.9312</ele>
        <time>2010-11-28T14:17:45Z</time>
      </trkpt>
      <trkpt lat="46.29805" lon="-0.18199">
        <ele>113.0429</ele>
        <time>2010-11-28T14:17:46Z</time>
      </trkpt>
      <trkpt lat="46.29805" lon="-0.18198">
        <ele>113.1483</ele>
        <time>2010-11-28T14:17:47Z</time>
      </trkpt>
      <trkpt lat="46.29806" lon="-0.18197">
        <ele>113.2545</ele>
        <time>2010-11-28T14:17:48Z</time>
      </trkpt>
      <trkpt lat="46.29807" lon="-0.18196">
        <ele>113.3594</ele>
        <time>2010-11-28T14:17:49Z</time>
      </trkpt>
      <trkpt lat="46.29807" lon="-0.18195">
        <ele>113.4597</ele>
        <time>2010-11-28T14:17:50Z</time>
      </trkpt>
      <trkpt lat="46.29808" lon="-0.18193">
        <ele>113.7595</ele>
        <time>2010-11-28T14:17:58Z</time>
      </trkpt>
      <trkpt lat="46.29809" lon="-0.18192">
        <ele>113.8698</ele>
        <time>2010-11-28T14:17:59Z</time>
      </trkpt>
      <trkpt lat="46.2981" lon="-0.18191">
        <ele>113.9829</ele>
        <time>2010-11-28T14:18:00Z</time>
      </trkpt>
      <trkpt lat="46.29811" lon="-0.1819">
        <ele>114.0919</ele>
        <time>2010-11-28T14:18:01Z</time>
      </trkpt>
      <trkpt lat="46.29812" lon="-0.18189">
        <ele>114.2017</ele>
        <time>2010-11-28T14:18:02Z</time>
      </trkpt>
      <trkpt lat="46.29813" lon="-0.18188">
        <ele>114.3126</ele>
        <time>2010-11-28T14:18:03Z</time>
      </trkpt>
      <trkpt lat="46.29814" lon="-0.18187">
        <ele>114.4178</ele>
        <time>2010-11-28T14:18:04Z</time>
      </trkpt>
      <trkpt lat="46.29815" lon="-0.18186">
        <ele>114.5222</ele>
        <time>2010-11-28T14:18:05Z</time>
      </trkpt>
      <trkpt lat="46.29815" lon="-0.18186">
        <ele>114.6239</ele>
        <time>2010-11-28T14:18:06Z</time>
      </trkpt>
      <trkpt lat="46.29816" lon="-0.18185">
        <ele>114.722</ele>
        <time>2010-11-28T14:18:07Z</time>
      </trkpt>
      <trkpt lat="46.29817" lon="-0.18184">
        <ele>114.8147</ele>
        <time>2010-11-28T14:18:08Z</time>
      </trkpt>
      <trkpt lat="46.29818" lon="-0.18183">
        <ele>114.9072</ele>
        <time>2010-11-28T14:18:09Z</time>
      </trkpt>
      <trkpt lat="46.29818" lon="-0.18182">
        <ele>114.9982</ele>
        <time>2010-11-28T14:18:10Z</time>
      </trkpt>
      <trkpt lat="46.29819" lon="-0.18181">
        <ele>115.0852</ele>
        <time>2010-11-28T14:18:11Z</time>
      </trkpt>
      <trkpt lat="46.2982" lon="-0.1818">
        <ele>115.1769</ele>
        <time>2010-11-28T14:18:12Z</time>
      </trkpt>
      <trkpt lat="46.29821" lon="-0.18179">
        <ele>115.2674</ele>
        <time>2010-11-28T14:18:13Z</time>
      </trkpt>
      <trkpt lat="46.29821" lon="-0.18178">
        <ele>115.3555</ele>
        <time>2010-11-28T14:18:14Z</time>
      </trkpt>
      <trkpt lat="46.29822" lon="-0.18177">
        <ele>115.4414</ele>
        <time>2010-11-28T14:18:15Z</time>
      </trkpt>
      <trkpt lat="46.29823" lon="-0.18176">
        <ele>115.5272</ele>
        <time>2010-11-28T14:18:16Z</time>
      </trkpt>
      <trkpt lat="46.29823" lon="-0.18175">
        <ele>115.6106</ele>
        <time>2010-11-28T14:18:17Z</time>
      </trkpt>
      <trkpt lat="46.29824" lon="-0.18174">
        <ele>115.6917</ele>
        <time>2010-11-28T14:18:18Z</time>
      </trkpt>
      <trkpt lat="46.29824" lon="-0.18173">
        <ele>115.7675</ele>
        <time>2010-11-28T14:18:19Z</time>
      </trkpt>
      <trkpt lat="46.29825" lon="-0.18172">
        <ele>115.8378</ele>
        <time>2010-11-28T14:18:20Z</time>
      </trkpt>
      <trkpt lat="46.29826" lon="-0.18171">
        <ele>115.8995</ele>
        <time>2010-11-28T14:18:21Z</time>
      </trkpt>
      <trkpt lat="46.29826" lon="-0.1817">
        <ele>115.9598</ele>
        <time>2010-11-28T14:18:22Z</time>
      </trkpt>
      <trkpt lat="46.29827" lon="-0.18169">
        <ele>116.0163</ele>
        <time>2010-11-28T14:18:23Z</time>
      </trkpt>
      <trkpt lat="46.29828" lon="-0.18169">
        <ele>116.0752</ele>
        <time>2010-11-28T14:18:24Z</time>
      </trkpt>
      <trkpt lat="46.29829" lon="-0.18168">
        <ele>116.1234</ele>
        <time>2010-11-28T14:18:25Z</time>
      </trkpt>
      <trkpt lat="46.29829" lon="-0.18167">
        <ele>116.1753</ele>
        <time>2010-11-28T14:18:26Z</time>
      </trkpt>
      <trkpt lat="46.29831" lon="-0.18167">
        <ele>116.2347</ele>
        <time>2010-11-28T14:18:27Z</time>
      </trkpt>
      <trkpt lat="46.29831" lon="-0.18166">
        <ele>116.3005</ele>
        <time>2010-11-28T14:18:28Z</time>
      </trkpt>
      <trkpt lat="46.29833" lon="-0.18165">
        <ele>116.3521</ele>
        <time>2010-11-28T14:18:29Z</time>
      </trkpt>
      <trkpt lat="46.29833" lon="-0.18164">
        <ele>116.3888</ele>
        <time>2010-11-28T14:18:30Z</time>
      </trkpt>
      <trkpt lat="46.29834" lon="-0.18164">
        <ele>116.4159</ele>
        <time>2010-11-28T14:18:31Z</time>
      </trkpt>
      <trkpt lat="46.29835" lon="-0.18163">
        <ele>116.4424</ele>
        <time>2010-11-28T14:18:32Z</time>
      </trkpt>
      <trkpt lat="46.29836" lon="-0.18162">
        <ele>116.4806</ele>
        <time>2010-11-28T14:18:33Z</time>
      </trkpt>
      <trkpt lat="46.29837" lon="-0.18161">
        <ele>116.5148</ele>
        <time>2010-11-28T14:18:34Z</time>
      </trkpt>
      <trkpt lat="46.29837" lon="-0.18159">
        <ele>116.5479</ele>
        <time>2010-11-28T14:18:35Z</time>
      </trkpt>
      <trkpt lat="46.29837" lon="-0.18158">
        <ele>116.5772</ele>
        <time>2010-11-28T14:18:36Z</time>
      </trkpt>
      <trkpt lat="46.29837" lon="-0.18157">
        <ele>116.6013</ele>
        <time>2010-11-28T14:18:37Z</time>
      </trkpt>
      <trkpt lat="46.29838" lon="-0.18156">
        <ele>116.6292</ele>
        <time>2010-11-28T14:18:38Z</time>
      </trkpt>
      <trkpt lat="46.29839" lon="-0.18155">
        <ele>116.6504</ele>
        <time>2010-11-28T14:18:39Z</time>
      </trkpt>
      <trkpt lat="46.29839" lon="-0.18154">
        <ele>116.6895</ele>
        <time>2010-11-28T14:18:40Z</time>
      </trkpt>
      <trkpt lat="46.29839" lon="-0.18153">
        <ele>116.728</ele>
        <time>2010-11-28T14:18:41Z</time>
      </trkpt>
      <trkpt lat="46.2984" lon="-0.18152">
        <ele>116.758</ele>
        <time>2010-11-28T14:18:42Z</time>
      </trkpt>
      <trkpt lat="46.29841" lon="-0.18151">
        <ele>116.7794</ele>
        <time>2010-11-28T14:18:43Z</time>
      </trkpt>
      <trkpt lat="46.29841" lon="-0.18149">
        <ele>116.7931</ele>
        <time>2010-11-28T14:18:44Z</time>
      </trkpt>
      <trkpt lat="46.29842" lon="-0.18148">
        <ele>116.805</ele>
        <time>2010-11-28T14:18:45Z</time>
      </trkpt>
      <trkpt lat="46.29842" lon="-0.18147">
        <ele>116.8235</ele>
        <time>2010-11-28T14:18:46Z</time>
      </trkpt>
      <trkpt lat="46.29843" lon="-0.18145">
        <ele>116.8953</ele>
        <time>2010-11-28T14:18:47Z</time>
      </trkpt>
      <trkpt lat="46.29844" lon="-0.18143">
        <ele>117.0099</ele>
        <time>2010-11-28T14:18:48Z</time>
      </trkpt>
      <trkpt lat="46.29845" lon="-0.18141">
        <ele>117.1531</ele>
        <time>2010-11-28T14:18:49Z</time>
      </trkpt>
      <trkpt lat="46.29846" lon="-0.18139">
        <ele>117.3117</ele>
        <time>2010-11-28T14:18:50Z</time>
      </trkpt>
      <trkpt lat="46.29847" lon="-0.18137">
        <ele>117.4971</ele>
        <time>2010-11-28T14:18:51Z</time>
      </trkpt>
      <trkpt lat="46.29847" lon="-0.18135">
        <ele>117.7023</ele>
        <time>2010-11-28T14:18:52Z</time>
      </trkpt>
      <trkpt lat="46.29848" lon="-0.18133">
        <ele>117.9185</ele>
        <time>2010-11-28T14:18:53Z</time>
      </trkpt>
      <trkpt lat="46.29848" lon="-0.18131">
        <ele>118.1433</ele>
        <time>2010-11-28T14:18:54Z</time>
      </trkpt>
      <trkpt lat="46.29848" lon="-0.1813">
        <ele>118.3876</ele>
        <time>2010-11-28T14:18:55Z</time>
      </trkpt>
      <trkpt lat="46.29849" lon="-0.18128">
        <ele>118.6178</ele>
        <time>2010-11-28T14:18:56Z</time>
      </trkpt>
      <trkpt lat="46.29849" lon="-0.18127">
        <ele>118.8698</ele>
        <time>2010-11-28T14:18:57Z</time>
      </trkpt>
      <trkpt lat="46.2985" lon="-0.18126">
        <ele>119.0748</ele>
        <time>2010-11-28T14:18:58Z</time>
      </trkpt>
      <trkpt lat="46.29852" lon="-0.18125">
        <ele>119.257</ele>
        <time>2010-11-28T14:18:59Z</time>
      </trkpt>
      <trkpt lat="46.29853" lon="-0.18124">
        <ele>119.4047</ele>
        <time>2010-11-28T14:19:00Z</time>
      </trkpt>
      <trkpt lat="46.29854" lon="-0.18124">
        <ele>119.5276</ele>
        <time>2010-11-28T14:19:01Z</time>
      </trkpt>
      <trkpt lat="46.29855" lon="-0.18123">
        <ele>119.6301</ele>
        <time>2010-11-28T14:19:02Z</time>
      </trkpt>
      <trkpt lat="46.29856" lon="-0.18122">
        <ele>119.7341</ele>
        <time>2010-11-28T14:19:03Z</time>
      </trkpt>
      <trkpt lat="46.29857" lon="-0.18122">
        <ele>119.8404</ele>
        <time>2010-11-28T14:19:04Z</time>
      </trkpt>
      <trkpt lat="46.29857" lon="-0.1812">
        <ele>119.9856</ele>
        <time>2010-11-28T14:19:05Z</time>
      </trkpt>
      <trkpt lat="46.29858" lon="-0.18119">
        <ele>120.1811</ele>
        <time>2010-11-28T14:19:06Z</time>
      </trkpt>
      <trkpt lat="46.29859" lon="-0.18118">
        <ele>120.389</ele>
        <time>2010-11-28T14:19:07Z</time>
      </trkpt>
      <trkpt lat="46.29862" lon="-0.18113">
        <ele>120.9924</ele>
        <time>2010-11-28T14:19:13Z</time>
      </trkpt>
      <trkpt lat="46.29866" lon="-0.18109">
        <ele>121.9206</ele>
        <time>2010-11-28T14:19:16Z</time>
      </trkpt>
      <trkpt lat="46.29867" lon="-0.18108">
        <ele>122.2243</ele>
        <time>2010-11-28T14:19:17Z</time>
      </trkpt>
      <trkpt lat="46.29868" lon="-0.18107">
        <ele>122.5117</ele>
        <time>2010-11-28T14:19:18Z</time>
      </trkpt>
      <trkpt lat="46.29869" lon="-0.18106">
        <ele>122.8104</ele>
        <time>2010-11-28T14:19:19Z</time>
      </trkpt>
      <trkpt lat="46.2987" lon="-0.18105">
        <ele>123.0838</ele>
        <time>2010-11-28T14:19:20Z</time>
      </trkpt>
      <trkpt lat="46.29871" lon="-0.18104">
        <ele>123.3395</ele>
        <time>2010-11-28T14:19:21Z</time>
      </trkpt>
      <trkpt lat="46.29872" lon="-0.18103">
        <ele>123.5982</ele>
        <time>2010-11-28T14:19:22Z</time>
      </trkpt>
      <trkpt lat="46.29873" lon="-0.18102">
        <ele>123.855</ele>
        <time>2010-11-28T14:19:23Z</time>
      </trkpt>
      <trkpt lat="46.29874" lon="-0.18101">
        <ele>124.108</ele>
        <time>2010-11-28T14:19:24Z</time>
      </trkpt>
      <trkpt lat="46.29875" lon="-0.181">
        <ele>124.354</ele>
        <time>2010-11-28T14:19:25Z</time>
      </trkpt>
      <trkpt lat="46.29876" lon="-0.18099">
        <ele>124.5892</ele>
        <time>2010-11-28T14:19:26Z</time>
      </trkpt>
      <trkpt lat="46.29877" lon="-0.18098">
        <ele>124.8082</ele>
        <time>2010-11-28T14:19:27Z</time>
      </trkpt>
      <trkpt lat="46.29877" lon="-0.18097">
        <ele>125.0131</ele>
        <time>2010-11-28T14:19:28Z</time>
      </trkpt>
      <trkpt lat="46.29878" lon="-0.18096">
        <ele>125.2076</ele>
        <time>2010-11-28T14:19:29Z</time>
      </trkpt>
      <trkpt lat="46.29878" lon="-0.18095">
        <ele>125.397</ele>
        <time>2010-11-28T14:19:30Z</time>
      </trkpt>
      <trkpt lat="46.29879" lon="-0.18094">
        <ele>125.5687</ele>
        <time>2010-11-28T14:19:31Z</time>
      </trkpt>
      <trkpt lat="46.29879" lon="-0.18093">
        <ele>125.7409</ele>
        <time>2010-11-28T14:19:32Z</time>
      </trkpt>
      <trkpt lat="46.2988" lon="-0.18092">
        <ele>125.8969</ele>
        <time>2010-11-28T14:19:33Z</time>
      </trkpt>
      <trkpt lat="46.2988" lon="-0.18091">
        <ele>126.0539</ele>
        <time>2010-11-28T14:19:34Z</time>
      </trkpt>
      <trkpt lat="46.29881" lon="-0.1809">
        <ele>126.2012</ele>
        <time>2010-11-28T14:19:35Z</time>
      </trkpt>
      <trkpt lat="46.29881" lon="-0.18089">
        <ele>126.3557</ele>
        <time>2010-11-28T14:19:36Z</time>
      </trkpt>
      <trkpt lat="46.29881" lon="-0.18088">
        <ele>126.5003</ele>
        <time>2010-11-28T14:19:37Z</time>
      </trkpt>
      <trkpt lat="46.29881" lon="-0.18087">
        <ele>126.6323</ele>
        <time>2010-11-28T14:19:38Z</time>
      </trkpt>
      <trkpt lat="46.29881" lon="-0.18087">
        <ele>126.7618</ele>
        <time>2010-11-28T14:19:39Z</time>
      </trkpt>
      <trkpt lat="46.29881" lon="-0.18086">
        <ele>126.8833</ele>
        <time>2010-11-28T14:19:40Z</time>
      </trkpt>
      <trkpt lat="46.29881" lon="-0.18086">
        <ele>126.9925</ele>
        <time>2010-11-28T14:19:41Z</time>
      </trkpt>
      <trkpt lat="46.29881" lon="-0.18079">
        <ele>126.9834</ele>
        <time>2010-11-28T14:19:50Z</time>
      </trkpt>
      <trkpt lat="46.29882" lon="-0.18072">
        <ele>125.8507</ele>
        <time>2010-11-28T14:20:07Z</time>
      </trkpt>
      <trkpt lat="46.29882" lon="-0.18072">
        <ele>125.7079</ele>
        <time>2010-11-28T14:20:08Z</time>
      </trkpt>
      <trkpt lat="46.29881" lon="-0.18071">
        <ele>125.5677</ele>
        <time>2010-11-28T14:20:09Z</time>
      </trkpt>
      <trkpt lat="46.29881" lon="-0.1807">
        <ele>125.4424</ele>
        <time>2010-11-28T14:20:10Z</time>
      </trkpt>
      <trkpt lat="46.29882" lon="-0.18069">
        <ele>125.3082</ele>
        <time>2010-11-28T14:20:11Z</time>
      </trkpt>
      <trkpt lat="46.29882" lon="-0.18069">
        <ele>125.1677</ele>
        <time>2010-11-28T14:20:12Z</time>
      </trkpt>
      <trkpt lat="46.29883" lon="-0.18066">
        <ele>123.2176</ele>
        <time>2010-11-28T14:20:26Z</time>
      </trkpt>
      <trkpt lat="46.29883" lon="-0.18065">
        <ele>123.0063</ele>
        <time>2010-11-28T14:20:27Z</time>
      </trkpt>
      <trkpt lat="46.29887" lon="-0.18061">
        <ele>122.8561</ele>
        <time>2010-11-28T14:20:46Z</time>
      </trkpt>
      <trkpt lat="46.29889" lon="-0.18057">
        <ele>122.3915</ele>
        <time>2010-11-28T14:21:38Z</time>
      </trkpt>
      <trkpt lat="46.29888" lon="-0.18057">
        <ele>122.2786</ele>
        <time>2010-11-28T14:21:39Z</time>
      </trkpt>
      <trkpt lat="46.29887" lon="-0.18056">
        <ele>122.1726</ele>
        <time>2010-11-28T14:21:40Z</time>
      </trkpt>
      <trkpt lat="46.29887" lon="-0.18055">
        <ele>122.0702</ele>
        <time>2010-11-28T14:21:41Z</time>
      </trkpt>
      <trkpt lat="46.29882" lon="-0.18051">
        <ele>121.5777</ele>
        <time>2010-11-28T14:21:48Z</time>
      </trkpt>
      <trkpt lat="46.29878" lon="-0.18048">
        <ele>121.3166</ele>
        <time>2010-11-28T14:21:56Z</time>
      </trkpt>
      <trkpt lat="46.29873" lon="-0.18047">
        <ele>120.8085</ele>
        <time>2010-11-28T14:22:18Z</time>
      </trkpt>
      <trkpt lat="46.2987" lon="-0.18044">
        <ele>120.6636</ele>
        <time>2010-11-28T14:22:26Z</time>
      </trkpt>
      <trkpt lat="46.29872" lon="-0.18045">
        <ele>119.8317</ele>
        <time>2010-11-28T14:22:45Z</time>
      </trkpt>
      <trkpt lat="46.29871" lon="-0.18044">
        <ele>119.6476</ele>
        <time>2010-11-28T14:22:46Z</time>
      </trkpt>
      <trkpt lat="46.2987" lon="-0.18045">
        <ele>119.2728</ele>
        <time>2010-11-28T14:22:49Z</time>
      </trkpt>
      <trkpt lat="46.2987" lon="-0.18046">
        <ele>119.1042</ele>
        <time>2010-11-28T14:22:50Z</time>
      </trkpt>
      <trkpt lat="46.2987" lon="-0.18047">
        <ele>118.9534</ele>
        <time>2010-11-28T14:22:51Z</time>
      </trkpt>
      <trkpt lat="46.29869" lon="-0.18048">
        <ele>118.8077</ele>
        <time>2010-11-28T14:22:52Z</time>
      </trkpt>
      <trkpt lat="46.29869" lon="-0.18048">
        <ele>118.6668</ele>
        <time>2010-11-28T14:22:53Z</time>
      </trkpt>
      <trkpt lat="46.29869" lon="-0.18049">
        <ele>118.5365</ele>
        <time>2010-11-28T14:22:54Z</time>
      </trkpt>
      <trkpt lat="46.29868" lon="-0.18049">
        <ele>118.4076</ele>
        <time>2010-11-28T14:22:55Z</time>
      </trkpt>
      <trkpt lat="46.29868" lon="-0.1805">
        <ele>118.2805</ele>
        <time>2010-11-28T14:22:56Z</time>
      </trkpt>
      <trkpt lat="46.29867" lon="-0.1805">
        <ele>118.1551</ele>
        <time>2010-11-28T14:22:57Z</time>
      </trkpt>
      <trkpt lat="46.29867" lon="-0.1805">
        <ele>118.0325</ele>
        <time>2010-11-28T14:22:58Z</time>
      </trkpt>
      <trkpt lat="46.29866" lon="-0.1805">
        <ele>117.9141</ele>
        <time>2010-11-28T14:22:59Z</time>
      </trkpt>
      <trkpt lat="46.29866" lon="-0.18051">
        <ele>117.8</ele>
        <time>2010-11-28T14:23:00Z</time>
      </trkpt>
      <trkpt lat="46.29866" lon="-0.18052">
        <ele>117.6915</ele>
        <time>2010-11-28T14:23:01Z</time>
      </trkpt>
      <trkpt lat="46.29865" lon="-0.18052">
        <ele>117.5844</ele>
        <time>2010-11-28T14:23:02Z</time>
      </trkpt>
      <trkpt lat="46.29865" lon="-0.18053">
        <ele>117.4819</ele>
        <time>2010-11-28T14:23:03Z</time>
      </trkpt>
      <trkpt lat="46.29865" lon="-0.18055">
        <ele>117.1741</ele>
        <time>2010-11-28T14:23:07Z</time>
      </trkpt>
      <trkpt lat="46.29865" lon="-0.18056">
        <ele>117.0764</ele>
        <time>2010-11-28T14:23:08Z</time>
      </trkpt>
      <trkpt lat="46.29865" lon="-0.18057">
        <ele>116.9807</ele>
        <time>2010-11-28T14:23:09Z</time>
      </trkpt>
      <trkpt lat="46.29864" lon="-0.18058">
        <ele>116.8808</ele>
        <time>2010-11-28T14:23:10Z</time>
      </trkpt>
      <trkpt lat="46.29864" lon="-0.18059">
        <ele>116.7807</ele>
        <time>2010-11-28T14:23:11Z</time>
      </trkpt>
      <trkpt lat="46.29863" lon="-0.1806">
        <ele>116.6781</ele>
        <time>2010-11-28T14:23:12Z</time>
      </trkpt>
      <trkpt lat="46.29863" lon="-0.18061">
        <ele>116.5703</ele>
        <time>2010-11-28T14:23:13Z</time>
      </trkpt>
      <trkpt lat="46.29862" lon="-0.18061">
        <ele>116.4567</ele>
        <time>2010-11-28T14:23:14Z</time>
      </trkpt>
      <trkpt lat="46.29862" lon="-0.18062">
        <ele>116.3366</ele>
        <time>2010-11-28T14:23:15Z</time>
      </trkpt>
      <trkpt lat="46.29861" lon="-0.18062">
        <ele>116.2002</ele>
        <time>2010-11-28T14:23:17Z</time>
      </trkpt>
      <trkpt lat="46.2986" lon="-0.18063">
        <ele>116.09</ele>
        <time>2010-11-28T14:23:18Z</time>
      </trkpt>
      <trkpt lat="46.2986" lon="-0.18063">
        <ele>115.9784</ele>
        <time>2010-11-28T14:23:19Z</time>
      </trkpt>
      <trkpt lat="46.29859" lon="-0.18064">
        <ele>115.8644</ele>
        <time>2010-11-28T14:23:20Z</time>
      </trkpt>
      <trkpt lat="46.29858" lon="-0.18065">
        <ele>115.7468</ele>
        <time>2010-11-28T14:23:21Z</time>
      </trkpt>
      <trkpt lat="46.29858" lon="-0.18066">
        <ele>115.6269</ele>
        <time>2010-11-28T14:23:22Z</time>
      </trkpt>
      <trkpt lat="46.29857" lon="-0.18068">
        <ele>115.5043</ele>
        <time>2010-11-28T14:23:23Z</time>
      </trkpt>
      <trkpt lat="46.29857" lon="-0.18069">
        <ele>115.3806</ele>
        <time>2010-11-28T14:23:24Z</time>
      </trkpt>
      <trkpt lat="46.29856" lon="-0.1807">
        <ele>115.257</ele>
        <time>2010-11-28T14:23:25Z</time>
      </trkpt>
      <trkpt lat="46.29856" lon="-0.18071">
        <ele>115.1362</ele>
        <time>2010-11-28T14:23:26Z</time>
      </trkpt>
      <trkpt lat="46.29855" lon="-0.18072">
        <ele>115.0203</ele>
        <time>2010-11-28T14:23:27Z</time>
      </trkpt>
      <trkpt lat="46.29855" lon="-0.18073">
        <ele>114.9143</ele>
        <time>2010-11-28T14:23:28Z</time>
      </trkpt>
      <trkpt lat="46.29855" lon="-0.18075">
        <ele>114.8086</ele>
        <time>2010-11-28T14:23:29Z</time>
      </trkpt>
      <trkpt lat="46.29854" lon="-0.18076">
        <ele>114.7092</ele>
        <time>2010-11-28T14:23:30Z</time>
      </trkpt>
      <trkpt lat="46.29853" lon="-0.18078">
        <ele>114.6366</ele>
        <time>2010-11-28T14:23:31Z</time>
      </trkpt>
      <trkpt lat="46.29853" lon="-0.18079">
        <ele>114.5673</ele>
        <time>2010-11-28T14:23:32Z</time>
      </trkpt>
      <trkpt lat="46.29852" lon="-0.1808">
        <ele>114.5001</ele>
        <time>2010-11-28T14:23:33Z</time>
      </trkpt>
      <trkpt lat="46.29852" lon="-0.18081">
        <ele>114.4324</ele>
        <time>2010-11-28T14:23:34Z</time>
      </trkpt>
      <trkpt lat="46.29851" lon="-0.18082">
        <ele>114.3663</ele>
        <time>2010-11-28T14:23:35Z</time>
      </trkpt>
      <trkpt lat="46.2985" lon="-0.18083">
        <ele>114.3019</ele>
        <time>2010-11-28T14:23:36Z</time>
      </trkpt>
      <trkpt lat="46.2985" lon="-0.18084">
        <ele>114.2405</ele>
        <time>2010-11-28T14:23:37Z</time>
      </trkpt>
      <trkpt lat="46.29849" lon="-0.18085">
        <ele>114.1793</ele>
        <time>2010-11-28T14:23:38Z</time>
      </trkpt>
      <trkpt lat="46.29849" lon="-0.18085">
        <ele>114.1168</ele>
        <time>2010-11-28T14:23:39Z</time>
      </trkpt>
      <trkpt lat="46.29848" lon="-0.18086">
        <ele>114.0525</ele>
        <time>2010-11-28T14:23:40Z</time>
      </trkpt>
      <trkpt lat="46.29848" lon="-0.18086">
        <ele>113.9882</ele>
        <time>2010-11-28T14:23:41Z</time>
      </trkpt>
      <trkpt lat="46.29847" lon="-0.18087">
        <ele>113.9228</ele>
        <time>2010-11-28T14:23:42Z</time>
      </trkpt>
      <trkpt lat="46.29846" lon="-0.18087">
        <ele>113.8606</ele>
        <time>2010-11-28T14:23:43Z</time>
      </trkpt>
      <trkpt lat="46.29846" lon="-0.18087">
        <ele>113.8003</ele>
        <time>2010-11-28T14:23:44Z</time>
      </trkpt>
      <trkpt lat="46.29845" lon="-0.18087">
        <ele>113.74</ele>
        <time>2010-11-28T14:23:45Z</time>
      </trkpt>
      <trkpt lat="46.29845" lon="-0.18087">
        <ele>113.6813</ele>
        <time>2010-11-28T14:23:46Z</time>
      </trkpt>
      <trkpt lat="46.29844" lon="-0.18087">
        <ele>113.6246</ele>
        <time>2010-11-28T14:23:47Z</time>
      </trkpt>
      <trkpt lat="46.29844" lon="-0.18087">
        <ele>113.5684</ele>
        <time>2010-11-28T14:23:48Z</time>
      </trkpt>
      <trkpt lat="46.29843" lon="-0.18087">
        <ele>113.5108</ele>
        <time>2010-11-28T14:23:49Z</time>
      </trkpt>
      <trkpt lat="46.29843" lon="-0.18088">
        <ele>113.3583</ele>
        <time>2010-11-28T14:23:53Z</time>
      </trkpt>
      <trkpt lat="46.29843" lon="-0.18089">
        <ele>113.2902</ele>
        <time>2010-11-28T14:23:54Z</time>
      </trkpt>
      <trkpt lat="46.29842" lon="-0.18089">
        <ele>113.2268</ele>
        <time>2010-11-28T14:23:55Z</time>
      </trkpt>
      <trkpt lat="46.29842" lon="-0.1809">
        <ele>113.1728</ele>
        <time>2010-11-28T14:23:56Z</time>
      </trkpt>
      <trkpt lat="46.29842" lon="-0.18091">
        <ele>113.1174</ele>
        <time>2010-11-28T14:23:57Z</time>
      </trkpt>
      <trkpt lat="46.29842" lon="-0.18092">
        <ele>113.0624</ele>
        <time>2010-11-28T14:23:58Z</time>
      </trkpt>
      <trkpt lat="46.29842" lon="-0.18092">
        <ele>112.9996</ele>
        <time>2010-11-28T14:23:59Z</time>
      </trkpt>
      <trkpt lat="46.29842" lon="-0.18093">
        <ele>112.9333</ele>
        <time>2010-11-28T14:24:00Z</time>
      </trkpt>
      <trkpt lat="46.29842" lon="-0.18094">
        <ele>112.8612</ele>
        <time>2010-11-28T14:24:01Z</time>
      </trkpt>
      <trkpt lat="46.29841" lon="-0.18095">
        <ele>112.7859</ele>
        <time>2010-11-28T14:24:02Z</time>
      </trkpt>
      <trkpt lat="46.29841" lon="-0.18096">
        <ele>112.7244</ele>
        <time>2010-11-28T14:24:03Z</time>
      </trkpt>
      <trkpt lat="46.2984" lon="-0.18097">
        <ele>112.6596</ele>
        <time>2010-11-28T14:24:04Z</time>
      </trkpt>
      <trkpt lat="46.29839" lon="-0.18098">
        <ele>112.5973</ele>
        <time>2010-11-28T14:24:05Z</time>
      </trkpt>
      <trkpt lat="46.29838" lon="-0.181">
        <ele>112.5348</ele>
        <time>2010-11-28T14:24:06Z</time>
      </trkpt>
      <trkpt lat="46.29837" lon="-0.18101">
        <ele>112.4675</ele>
        <time>2010-11-28T14:24:07Z</time>
      </trkpt>
      <trkpt lat="46.29837" lon="-0.18102">
        <ele>112.4063</ele>
        <time>2010-11-28T14:24:08Z</time>
      </trkpt>
      <trkpt lat="46.29836" lon="-0.18103">
        <ele>112.3519</ele>
        <time>2010-11-28T14:24:09Z</time>
      </trkpt>
      <trkpt lat="46.29835" lon="-0.18103">
        <ele>112.2946</ele>
        <time>2010-11-28T14:24:10Z</time>
      </trkpt>
      <trkpt lat="46.29834" lon="-0.18104">
        <ele>112.239</ele>
        <time>2010-11-28T14:24:11Z</time>
      </trkpt>
      <trkpt lat="46.29833" lon="-0.18104">
        <ele>112.1781</ele>
        <time>2010-11-28T14:24:12Z</time>
      </trkpt>
      <trkpt lat="46.29833" lon="-0.18105">
        <ele>112.1065</ele>
        <time>2010-11-28T14:24:13Z</time>
      </trkpt>
      <trkpt lat="46.29832" lon="-0.18106">
        <ele>112.0332</ele>
        <time>2010-11-28T14:24:14Z</time>
      </trkpt>
      <trkpt lat="46.29831" lon="-0.18106">
        <ele>111.9731</ele>
        <time>2010-11-28T14:24:15Z</time>
      </trkpt>
      <trkpt lat="46.2983" lon="-0.18107">
        <ele>111.9593</ele>
        <time>2010-11-28T14:24:16Z</time>
      </trkpt>
      <trkpt lat="46.29829" lon="-0.18107">
        <ele>111.9621</ele>
        <time>2010-11-28T14:24:17Z</time>
      </trkpt>
      <trkpt lat="46.29829" lon="-0.18107">
        <ele>111.9894</ele>
        <time>2010-11-28T14:24:18Z</time>
      </trkpt>
      <trkpt lat="46.29828" lon="-0.18108">
        <ele>112.0169</ele>
        <time>2010-11-28T14:24:19Z</time>
      </trkpt>
      <trkpt lat="46.29826" lon="-0.18108">
        <ele>112.0393</ele>
        <time>2010-11-28T14:24:20Z</time>
      </trkpt>
      <trkpt lat="46.29826" lon="-0.18108">
        <ele>112.0604</ele>
        <time>2010-11-28T14:24:21Z</time>
      </trkpt>
      <trkpt lat="46.29824" lon="-0.18109">
        <ele>112.0769</ele>
        <time>2010-11-28T14:24:22Z</time>
      </trkpt>
      <trkpt lat="46.29824" lon="-0.1811">
        <ele>112.0837</ele>
        <time>2010-11-28T14:24:23Z</time>
      </trkpt>
      <trkpt lat="46.29823" lon="-0.18111">
        <ele>112.1046</ele>
        <time>2010-11-28T14:24:24Z</time>
      </trkpt>
      <trkpt lat="46.29822" lon="-0.18112">
        <ele>112.1019</ele>
        <time>2010-11-28T14:24:25Z</time>
      </trkpt>
      <trkpt lat="46.29821" lon="-0.18112">
        <ele>112.0981</ele>
        <time>2010-11-28T14:24:26Z</time>
      </trkpt>
      <trkpt lat="46.2982" lon="-0.18113">
        <ele>112.0959</ele>
        <time>2010-11-28T14:24:27Z</time>
      </trkpt>
      <trkpt lat="46.2982" lon="-0.18114">
        <ele>112.1</ele>
        <time>2010-11-28T14:24:28Z</time>
      </trkpt>
      <trkpt lat="46.29819" lon="-0.18115">
        <ele>112.1013</ele>
        <time>2010-11-28T14:24:29Z</time>
      </trkpt>
      <trkpt lat="46.29818" lon="-0.18115">
        <ele>112.1352</ele>
        <time>2010-11-28T14:24:30Z</time>
      </trkpt>
      <trkpt lat="46.29818" lon="-0.18115">
        <ele>112.1712</ele>
        <time>2010-11-28T14:24:34Z</time>
      </trkpt>
      <trkpt lat="46.29818" lon="-0.18115">
        <ele>112.1901</ele>
        <time>2010-11-28T14:24:35Z</time>
      </trkpt>
      <trkpt lat="46.29816" lon="-0.18116">
        <ele>112.209</ele>
        <time>2010-11-28T14:24:36Z</time>
      </trkpt>
      <trkpt lat="46.29816" lon="-0.18117">
        <ele>112.2044</ele>
        <time>2010-11-28T14:24:37Z</time>
      </trkpt>
      <trkpt lat="46.29815" lon="-0.18117">
        <ele>112.1989</ele>
        <time>2010-11-28T14:24:38Z</time>
      </trkpt>
      <trkpt lat="46.29814" lon="-0.18118">
        <ele>112.1972</ele>
        <time>2010-11-28T14:24:39Z</time>
      </trkpt>
      <trkpt lat="46.29813" lon="-0.18118">
        <ele>112.1843</ele>
        <time>2010-11-28T14:24:40Z</time>
      </trkpt>
      <trkpt lat="46.29813" lon="-0.18119">
        <ele>112.1522</ele>
        <time>2010-11-28T14:24:41Z</time>
      </trkpt>
      <trkpt lat="46.29812" lon="-0.1812">
        <ele>112.1166</ele>
        <time>2010-11-28T14:24:42Z</time>
      </trkpt>
      <trkpt lat="46.2981" lon="-0.1812">
        <ele>112.0816</ele>
        <time>2010-11-28T14:24:43Z</time>
      </trkpt>
      <trkpt lat="46.29809" lon="-0.18121">
        <ele>112.0597</ele>
        <time>2010-11-28T14:24:44Z</time>
      </trkpt>
      <trkpt lat="46.29808" lon="-0.18121">
        <ele>112.0454</ele>
        <time>2010-11-28T14:24:45Z</time>
      </trkpt>
      <trkpt lat="46.29807" lon="-0.18121">
        <ele>112.0333</ele>
        <time>2010-11-28T14:24:46Z</time>
      </trkpt>
      <trkpt lat="46.29806" lon="-0.18122">
        <ele>112.0153</ele>
        <time>2010-11-28T14:24:47Z</time>
      </trkpt>
      <trkpt lat="46.29805" lon="-0.18122">
        <ele>111.9985</ele>
        <time>2010-11-28T14:24:48Z</time>
      </trkpt>
      <trkpt lat="46.29804" lon="-0.18123">
        <ele>111.9828</ele>
        <time>2010-11-28T14:24:49Z</time>
      </trkpt>
      <trkpt lat="46.29803" lon="-0.18124">
        <ele>111.9699</ele>
        <time>2010-11-28T14:24:50Z</time>
      </trkpt>
      <trkpt lat="46.29802" lon="-0.18125">
        <ele>111.9658</ele>
        <time>2010-11-28T14:24:51Z</time>
      </trkpt>
      <trkpt lat="46.29801" lon="-0.18126">
        <ele>111.9709</ele>
        <time>2010-11-28T14:24:52Z</time>
      </trkpt>
      <trkpt lat="46.298" lon="-0.18126">
        <ele>111.9684</ele>
        <time>2010-11-28T14:24:53Z</time>
      </trkpt>
      <trkpt lat="46.29798" lon="-0.18127">
        <ele>111.9617</ele>
        <time>2010-11-28T14:24:54Z</time>
      </trkpt>
      <trkpt lat="46.29797" lon="-0.18128">
        <ele>111.9596</ele>
        <time>2010-11-28T14:24:55Z</time>
      </trkpt>
      <trkpt lat="46.29796" lon="-0.18128">
        <ele>111.954</ele>
        <time>2010-11-28T14:24:56Z</time>
      </trkpt>
      <trkpt lat="46.29795" lon="-0.18129">
        <ele>111.9453</ele>
        <time>2010-11-28T14:24:57Z</time>
      </trkpt>
      <trkpt lat="46.29794" lon="-0.1813">
        <ele>111.9285</ele>
        <time>2010-11-28T14:24:58Z</time>
      </trkpt>
      <trkpt lat="46.29793" lon="-0.1813">
        <ele>111.9285</ele>
        <time>2010-11-28T14:24:59Z</time>
      </trkpt>
      <trkpt lat="46.29792" lon="-0.18131">
        <ele>111.9133</ele>
        <time>2010-11-28T14:25:00Z</time>
      </trkpt>
      <trkpt lat="46.29791" lon="-0.18131">
        <ele>111.8845</ele>
        <time>2010-11-28T14:25:01Z</time>
      </trkpt>
      <trkpt lat="46.29791" lon="-0.18132">
        <ele>111.8491</ele>
        <time>2010-11-28T14:25:02Z</time>
      </trkpt>
      <trkpt lat="46.2979" lon="-0.18133">
        <ele>111.8044</ele>
        <time>2010-11-28T14:25:03Z</time>
      </trkpt>
      <trkpt lat="46.29789" lon="-0.18134">
        <ele>111.7555</ele>
        <time>2010-11-28T14:25:04Z</time>
      </trkpt>
      <trkpt lat="46.29788" lon="-0.18135">
        <ele>111.7122</ele>
        <time>2010-11-28T14:25:05Z</time>
      </trkpt>
      <trkpt lat="46.29787" lon="-0.18136">
        <ele>111.668</ele>
        <time>2010-11-28T14:25:06Z</time>
      </trkpt>
      <trkpt lat="46.29787" lon="-0.18137">
        <ele>111.6178</ele>
        <time>2010-11-28T14:25:07Z</time>
      </trkpt>
      <trkpt lat="46.29786" lon="-0.18138">
        <ele>111.5581</ele>
        <time>2010-11-28T14:25:08Z</time>
      </trkpt>
      <trkpt lat="46.29786" lon="-0.18139">
        <ele>111.4986</ele>
        <time>2010-11-28T14:25:09Z</time>
      </trkpt>
      <trkpt lat="46.29785" lon="-0.18139">
        <ele>111.4325</ele>
        <time>2010-11-28T14:25:10Z</time>
      </trkpt>
      <trkpt lat="46.29784" lon="-0.1814">
        <ele>111.2081</ele>
        <time>2010-11-28T14:25:17Z</time>
      </trkpt>
      <trkpt lat="46.29784" lon="-0.1814">
        <ele>111.1129</ele>
        <time>2010-11-28T14:25:18Z</time>
      </trkpt>
      <trkpt lat="46.29784" lon="-0.18142">
        <ele>111.0186</ele>
        <time>2010-11-28T14:25:19Z</time>
      </trkpt>
      <trkpt lat="46.29783" lon="-0.18143">
        <ele>110.9232</ele>
        <time>2010-11-28T14:25:20Z</time>
      </trkpt>
      <trkpt lat="46.29783" lon="-0.18144">
        <ele>110.8322</ele>
        <time>2010-11-28T14:25:21Z</time>
      </trkpt>
      <trkpt lat="46.29783" lon="-0.18146">
        <ele>110.7526</ele>
        <time>2010-11-28T14:25:22Z</time>
      </trkpt>
      <trkpt lat="46.29783" lon="-0.18147">
        <ele>110.6911</ele>
        <time>2010-11-28T14:25:23Z</time>
      </trkpt>
      <trkpt lat="46.29782" lon="-0.18149">
        <ele>110.6379</ele>
        <time>2010-11-28T14:25:24Z</time>
      </trkpt>
      <trkpt lat="46.29781" lon="-0.1815">
        <ele>110.5932</ele>
        <time>2010-11-28T14:25:25Z</time>
      </trkpt>
      <trkpt lat="46.29781" lon="-0.18152">
        <ele>110.5506</ele>
        <time>2010-11-28T14:25:26Z</time>
      </trkpt>
      <trkpt lat="46.2978" lon="-0.18153">
        <ele>110.5106</ele>
        <time>2010-11-28T14:25:27Z</time>
      </trkpt>
      <trkpt lat="46.2978" lon="-0.18154">
        <ele>110.4738</ele>
        <time>2010-11-28T14:25:28Z</time>
      </trkpt>
      <trkpt lat="46.29779" lon="-0.18156">
        <ele>110.4425</ele>
        <time>2010-11-28T14:25:29Z</time>
      </trkpt>
      <trkpt lat="46.29779" lon="-0.18157">
        <ele>110.416</ele>
        <time>2010-11-28T14:25:30Z</time>
      </trkpt>
      <trkpt lat="46.29778" lon="-0.18158">
        <ele>110.3911</ele>
        <time>2010-11-28T14:25:31Z</time>
      </trkpt>
      <trkpt lat="46.29778" lon="-0.18159">
        <ele>110.3696</ele>
        <time>2010-11-28T14:25:32Z</time>
      </trkpt>
      <trkpt lat="46.29777" lon="-0.1816">
        <ele>110.3484</ele>
        <time>2010-11-28T14:25:33Z</time>
      </trkpt>
      <trkpt lat="46.29776" lon="-0.18162">
        <ele>110.3025</ele>
        <time>2010-11-28T14:25:34Z</time>
      </trkpt>
      <trkpt lat="46.29776" lon="-0.18163">
        <ele>110.2445</ele>
        <time>2010-11-28T14:25:35Z</time>
      </trkpt>
      <trkpt lat="46.29775" lon="-0.18165">
        <ele>110.1816</ele>
        <time>2010-11-28T14:25:36Z</time>
      </trkpt>
      <trkpt lat="46.29775" lon="-0.18166">
        <ele>110.1571</ele>
        <time>2010-11-28T14:25:37Z</time>
      </trkpt>
      <trkpt lat="46.29774" lon="-0.18167">
        <ele>110.1222</ele>
        <time>2010-11-28T14:25:38Z</time>
      </trkpt>
      <trkpt lat="46.29773" lon="-0.18168">
        <ele>110.0653</ele>
        <time>2010-11-28T14:25:39Z</time>
      </trkpt>
      <trkpt lat="46.29773" lon="-0.18169">
        <ele>110.0243</ele>
        <time>2010-11-28T14:25:40Z</time>
      </trkpt>
      <trkpt lat="46.29772" lon="-0.18171">
        <ele>109.9983</ele>
        <time>2010-11-28T14:25:41Z</time>
      </trkpt>
      <trkpt lat="46.29772" lon="-0.18172">
        <ele>109.9836</ele>
        <time>2010-11-28T14:25:42Z</time>
      </trkpt>
      <trkpt lat="46.29771" lon="-0.18173">
        <ele>109.9573</ele>
        <time>2010-11-28T14:25:43Z</time>
      </trkpt>
      <trkpt lat="46.29771" lon="-0.18174">
        <ele>109.9274</ele>
        <time>2010-11-28T14:25:44Z</time>
      </trkpt>
      <trkpt lat="46.2977" lon="-0.18175">
        <ele>109.9102</ele>
        <time>2010-11-28T14:25:45Z</time>
      </trkpt>
      <trkpt lat="46.29769" lon="-0.18176">
        <ele>109.8752</ele>
        <time>2010-11-28T14:25:46Z</time>
      </trkpt>
      <trkpt lat="46.29769" lon="-0.18177">
        <ele>109.8406</ele>
        <time>2010-11-28T14:25:47Z</time>
      </trkpt>
      <trkpt lat="46.29768" lon="-0.18178">
        <ele>109.8119</ele>
        <time>2010-11-28T14:25:48Z</time>
      </trkpt>
      <trkpt lat="46.29767" lon="-0.18179">
        <ele>109.8016</ele>
        <time>2010-11-28T14:25:49Z</time>
      </trkpt>
      <trkpt lat="46.29767" lon="-0.1818">
        <ele>109.8027</ele>
        <time>2010-11-28T14:25:50Z</time>
      </trkpt>
      <trkpt lat="46.29765" lon="-0.1818">
        <ele>109.7962</ele>
        <time>2010-11-28T14:25:51Z</time>
      </trkpt>
      <trkpt lat="46.29765" lon="-0.18181">
        <ele>109.8072</ele>
        <time>2010-11-28T14:25:52Z</time>
      </trkpt>
      <trkpt lat="46.29764" lon="-0.18182">
        <ele>109.7833</ele>
        <time>2010-11-28T14:25:53Z</time>
      </trkpt>
      <trkpt lat="46.29763" lon="-0.18183">
        <ele>109.7577</ele>
        <time>2010-11-28T14:25:54Z</time>
      </trkpt>
      <trkpt lat="46.29763" lon="-0.18183">
        <ele>109.7208</ele>
        <time>2010-11-28T14:25:55Z</time>
      </trkpt>
      <trkpt lat="46.29762" lon="-0.18184">
        <ele>109.6986</ele>
        <time>2010-11-28T14:25:56Z</time>
      </trkpt>
      <trkpt lat="46.29761" lon="-0.18184">
        <ele>109.677</ele>
        <time>2010-11-28T14:25:57Z</time>
      </trkpt>
      <trkpt lat="46.2976" lon="-0.18185">
        <ele>109.6502</ele>
        <time>2010-11-28T14:25:58Z</time>
      </trkpt>
      <trkpt lat="46.2976" lon="-0.18185">
        <ele>109.6081</ele>
        <time>2010-11-28T14:25:59Z</time>
      </trkpt>
      <trkpt lat="46.29754" lon="-0.18185">
        <ele>109.7384</ele>
        <time>2010-11-28T14:26:07Z</time>
      </trkpt>
      <trkpt lat="46.29753" lon="-0.18185">
        <ele>109.8304</ele>
        <time>2010-11-28T14:26:08Z</time>
      </trkpt>
      <trkpt lat="46.29752" lon="-0.18186">
        <ele>109.8826</ele>
        <time>2010-11-28T14:26:09Z</time>
      </trkpt>
      <trkpt lat="46.2975" lon="-0.18187">
        <ele>109.9046</ele>
        <time>2010-11-28T14:26:10Z</time>
      </trkpt>
      <trkpt lat="46.2975" lon="-0.18188">
        <ele>109.9035</ele>
        <time>2010-11-28T14:26:11Z</time>
      </trkpt>
      <trkpt lat="46.29749" lon="-0.1819">
        <ele>109.8836</ele>
        <time>2010-11-28T14:26:12Z</time>
      </trkpt>
      <trkpt lat="46.29748" lon="-0.18191">
        <ele>109.859</ele>
        <time>2010-11-28T14:26:13Z</time>
      </trkpt>
      <trkpt lat="46.29747" lon="-0.18193">
        <ele>109.8275</ele>
        <time>2010-11-28T14:26:14Z</time>
      </trkpt>
      <trkpt lat="46.29747" lon="-0.18194">
        <ele>109.7943</ele>
        <time>2010-11-28T14:26:15Z</time>
      </trkpt>
      <trkpt lat="46.29746" lon="-0.18195">
        <ele>109.7639</ele>
        <time>2010-11-28T14:26:16Z</time>
      </trkpt>
      <trkpt lat="46.29746" lon="-0.18196">
        <ele>109.7363</ele>
        <time>2010-11-28T14:26:17Z</time>
      </trkpt>
      <trkpt lat="46.29745" lon="-0.18197">
        <ele>109.7059</ele>
        <time>2010-11-28T14:26:18Z</time>
      </trkpt>
      <trkpt lat="46.29744" lon="-0.18198">
        <ele>109.669</ele>
        <time>2010-11-28T14:26:19Z</time>
      </trkpt>
      <trkpt lat="46.29743" lon="-0.182">
        <ele>109.6281</ele>
        <time>2010-11-28T14:26:20Z</time>
      </trkpt>
      <trkpt lat="46.29742" lon="-0.18201">
        <ele>109.588</ele>
        <time>2010-11-28T14:26:21Z</time>
      </trkpt>
      <trkpt lat="46.29742" lon="-0.18202">
        <ele>109.5546</ele>
        <time>2010-11-28T14:26:22Z</time>
      </trkpt>
      <trkpt lat="46.29741" lon="-0.18203">
        <ele>109.5263</ele>
        <time>2010-11-28T14:26:23Z</time>
      </trkpt>
      <trkpt lat="46.2974" lon="-0.18204">
        <ele>109.4981</ele>
        <time>2010-11-28T14:26:24Z</time>
      </trkpt>
      <trkpt lat="46.29739" lon="-0.18205">
        <ele>109.4752</ele>
        <time>2010-11-28T14:26:25Z</time>
      </trkpt>
      <trkpt lat="46.29738" lon="-0.18206">
        <ele>109.4556</ele>
        <time>2010-11-28T14:26:26Z</time>
      </trkpt>
      <trkpt lat="46.29737" lon="-0.18206">
        <ele>109.4401</ele>
        <time>2010-11-28T14:26:27Z</time>
      </trkpt>
      <trkpt lat="46.29736" lon="-0.18207">
        <ele>109.4316</ele>
        <time>2010-11-28T14:26:28Z</time>
      </trkpt>
      <trkpt lat="46.29735" lon="-0.18208">
        <ele>109.4367</ele>
        <time>2010-11-28T14:26:29Z</time>
      </trkpt>
      <trkpt lat="46.29734" lon="-0.18208">
        <ele>109.4456</ele>
        <time>2010-11-28T14:26:30Z</time>
      </trkpt>
      <trkpt lat="46.29733" lon="-0.18209">
        <ele>109.4511</ele>
        <time>2010-11-28T14:26:31Z</time>
      </trkpt>
      <trkpt lat="46.29732" lon="-0.1821">
        <ele>109.4548</ele>
        <time>2010-11-28T14:26:32Z</time>
      </trkpt>
      <trkpt lat="46.29731" lon="-0.1821">
        <ele>109.4532</ele>
        <time>2010-11-28T14:26:33Z</time>
      </trkpt>
      <trkpt lat="46.2973" lon="-0.18211">
        <ele>109.4519</ele>
        <time>2010-11-28T14:26:34Z</time>
      </trkpt>
      <trkpt lat="46.2973" lon="-0.18212">
        <ele>109.4481</ele>
        <time>2010-11-28T14:26:35Z</time>
      </trkpt>
      <trkpt lat="46.29729" lon="-0.18212">
        <ele>109.4391</ele>
        <time>2010-11-28T14:26:36Z</time>
      </trkpt>
      <trkpt lat="46.29728" lon="-0.18213">
        <ele>109.4272</ele>
        <time>2010-11-28T14:26:37Z</time>
      </trkpt>
      <trkpt lat="46.29727" lon="-0.18214">
        <ele>109.4139</ele>
        <time>2010-11-28T14:26:38Z</time>
      </trkpt>
      <trkpt lat="46.29726" lon="-0.18215">
        <ele>109.4</ele>
        <time>2010-11-28T14:26:39Z</time>
      </trkpt>
      <trkpt lat="46.29725" lon="-0.18216">
        <ele>109.3865</ele>
        <time>2010-11-28T14:26:40Z</time>
      </trkpt>
      <trkpt lat="46.29725" lon="-0.18216">
        <ele>109.3732</ele>
        <time>2010-11-28T14:26:41Z</time>
      </trkpt>
      <trkpt lat="46.29724" lon="-0.18217">
        <ele>109.3622</ele>
        <time>2010-11-28T14:26:42Z</time>
      </trkpt>
      <trkpt lat="46.29723" lon="-0.18217">
        <ele>109.3535</ele>
        <time>2010-11-28T14:26:43Z</time>
      </trkpt>
      <trkpt lat="46.29723" lon="-0.18217">
        <ele>109.3549</ele>
        <time>2010-11-28T14:26:44Z</time>
      </trkpt>
      <trkpt lat="46.29722" lon="-0.18217">
        <ele>109.3552</ele>
        <time>2010-11-28T14:26:45Z</time>
      </trkpt>
      <trkpt lat="46.29722" lon="-0.18217">
        <ele>109.3069</ele>
        <time>2010-11-28T14:26:50Z</time>
      </trkpt>
      <trkpt lat="46.29723" lon="-0.18219">
        <ele>108.7848</ele>
        <time>2010-11-28T14:27:14Z</time>
      </trkpt>
      <trkpt lat="46.29722" lon="-0.1822">
        <ele>108.9421</ele>
        <time>2010-11-28T14:27:15Z</time>
      </trkpt>
      <trkpt lat="46.29721" lon="-0.1822">
        <ele>109.0823</ele>
        <time>2010-11-28T14:27:16Z</time>
      </trkpt>
      <trkpt lat="46.2972" lon="-0.18221">
        <ele>109.206</ele>
        <time>2010-11-28T14:27:17Z</time>
      </trkpt>
      <trkpt lat="46.29718" lon="-0.18222">
        <ele>109.3298</ele>
        <time>2010-11-28T14:27:18Z</time>
      </trkpt>
      <trkpt lat="46.29717" lon="-0.18223">
        <ele>109.4614</ele>
        <time>2010-11-28T14:27:19Z</time>
      </trkpt>
      <trkpt lat="46.29717" lon="-0.18224">
        <ele>109.5782</ele>
        <time>2010-11-28T14:27:20Z</time>
      </trkpt>
      <trkpt lat="46.29715" lon="-0.18225">
        <ele>109.6903</ele>
        <time>2010-11-28T14:27:21Z</time>
      </trkpt>
      <trkpt lat="46.29715" lon="-0.18226">
        <ele>109.8037</ele>
        <time>2010-11-28T14:27:22Z</time>
      </trkpt>
      <trkpt lat="46.29713" lon="-0.18226">
        <ele>109.9087</ele>
        <time>2010-11-28T14:27:23Z</time>
      </trkpt>
      <trkpt lat="46.29712" lon="-0.18227">
        <ele>110.0119</ele>
        <time>2010-11-28T14:27:24Z</time>
      </trkpt>
      <trkpt lat="46.29712" lon="-0.18229">
        <ele>110.0956</ele>
        <time>2010-11-28T14:27:25Z</time>
      </trkpt>
      <trkpt lat="46.29711" lon="-0.1823">
        <ele>110.1667</ele>
        <time>2010-11-28T14:27:26Z</time>
      </trkpt>
      <trkpt lat="46.2971" lon="-0.18231">
        <ele>110.2334</ele>
        <time>2010-11-28T14:27:27Z</time>
      </trkpt>
      <trkpt lat="46.29709" lon="-0.18232">
        <ele>110.3085</ele>
        <time>2010-11-28T14:27:28Z</time>
      </trkpt>
      <trkpt lat="46.29708" lon="-0.18234">
        <ele>110.3772</ele>
        <time>2010-11-28T14:27:29Z</time>
      </trkpt>
      <trkpt lat="46.29707" lon="-0.18235">
        <ele>110.4447</ele>
        <time>2010-11-28T14:27:30Z</time>
      </trkpt>
      <trkpt lat="46.29706" lon="-0.18236">
        <ele>110.5083</ele>
        <time>2010-11-28T14:27:31Z</time>
      </trkpt>
      <trkpt lat="46.29705" lon="-0.18237">
        <ele>110.569</ele>
        <time>2010-11-28T14:27:32Z</time>
      </trkpt>
      <trkpt lat="46.29704" lon="-0.18238">
        <ele>110.6263</ele>
        <time>2010-11-28T14:27:33Z</time>
      </trkpt>
      <trkpt lat="46.29703" lon="-0.18239">
        <ele>110.684</ele>
        <time>2010-11-28T14:27:34Z</time>
      </trkpt>
      <trkpt lat="46.29702" lon="-0.1824">
        <ele>110.7354</ele>
        <time>2010-11-28T14:27:35Z</time>
      </trkpt>
      <trkpt lat="46.29701" lon="-0.18241">
        <ele>110.7823</ele>
        <time>2010-11-28T14:27:36Z</time>
      </trkpt>
      <trkpt lat="46.297" lon="-0.18242">
        <ele>110.8227</ele>
        <time>2010-11-28T14:27:37Z</time>
      </trkpt>
      <trkpt lat="46.29699" lon="-0.18243">
        <ele>110.867</ele>
        <time>2010-11-28T14:27:38Z</time>
      </trkpt>
      <trkpt lat="46.29698" lon="-0.18244">
        <ele>110.9121</ele>
        <time>2010-11-28T14:27:39Z</time>
      </trkpt>
      <trkpt lat="46.29697" lon="-0.18245">
        <ele>110.9584</ele>
        <time>2010-11-28T14:27:40Z</time>
      </trkpt>
      <trkpt lat="46.29696" lon="-0.18246">
        <ele>111.0055</ele>
        <time>2010-11-28T14:27:41Z</time>
      </trkpt>
      <trkpt lat="46.29696" lon="-0.18247">
        <ele>111.0577</ele>
        <time>2010-11-28T14:27:42Z</time>
      </trkpt>
      <trkpt lat="46.29694" lon="-0.18248">
        <ele>111.1114</ele>
        <time>2010-11-28T14:27:43Z</time>
      </trkpt>
      <trkpt lat="46.29694" lon="-0.18249">
        <ele>111.172</ele>
        <time>2010-11-28T14:27:44Z</time>
      </trkpt>
      <trkpt lat="46.29693" lon="-0.1825">
        <ele>111.2321</ele>
        <time>2010-11-28T14:27:45Z</time>
      </trkpt>
      <trkpt lat="46.29692" lon="-0.18251">
        <ele>111.2879</ele>
        <time>2010-11-28T14:27:46Z</time>
      </trkpt>
      <trkpt lat="46.29691" lon="-0.18251">
        <ele>111.3462</ele>
        <time>2010-11-28T14:27:47Z</time>
      </trkpt>
      <trkpt lat="46.2969" lon="-0.18252">
        <ele>111.4013</ele>
        <time>2010-11-28T14:27:48Z</time>
      </trkpt>
      <trkpt lat="46.29689" lon="-0.18252">
        <ele>111.4524</ele>
        <time>2010-11-28T14:27:49Z</time>
      </trkpt>
      <trkpt lat="46.29688" lon="-0.18253">
        <ele>111.5035</ele>
        <time>2010-11-28T14:27:50Z</time>
      </trkpt>
      <trkpt lat="46.29687" lon="-0.18253">
        <ele>111.5619</ele>
        <time>2010-11-28T14:27:51Z</time>
      </trkpt>
      <trkpt lat="46.29686" lon="-0.18253">
        <ele>111.6192</ele>
        <time>2010-11-28T14:27:52Z</time>
      </trkpt>
      <trkpt lat="46.29685" lon="-0.18254">
        <ele>111.6764</ele>
        <time>2010-11-28T14:27:53Z</time>
      </trkpt>
      <trkpt lat="46.29684" lon="-0.18255">
        <ele>111.7313</ele>
        <time>2010-11-28T14:27:54Z</time>
      </trkpt>
      <trkpt lat="46.29684" lon="-0.18256">
        <ele>111.7974</ele>
        <time>2010-11-28T14:27:55Z</time>
      </trkpt>
      <trkpt lat="46.29683" lon="-0.18257">
        <ele>111.8758</ele>
        <time>2010-11-28T14:27:56Z</time>
      </trkpt>
      <trkpt lat="46.29682" lon="-0.18258">
        <ele>111.9533</ele>
        <time>2010-11-28T14:27:57Z</time>
      </trkpt>
      <trkpt lat="46.29681" lon="-0.18258">
        <ele>112.028</ele>
        <time>2010-11-28T14:27:58Z</time>
      </trkpt>
      <trkpt lat="46.29681" lon="-0.18259">
        <ele>112.0974</ele>
        <time>2010-11-28T14:27:59Z</time>
      </trkpt>
      <trkpt lat="46.2968" lon="-0.1826">
        <ele>112.1629</ele>
        <time>2010-11-28T14:28:00Z</time>
      </trkpt>
      <trkpt lat="46.29679" lon="-0.1826">
        <ele>112.2317</ele>
        <time>2010-11-28T14:28:01Z</time>
      </trkpt>
      <trkpt lat="46.29678" lon="-0.18261">
        <ele>112.3224</ele>
        <time>2010-11-28T14:28:02Z</time>
      </trkpt>
      <trkpt lat="46.29677" lon="-0.18262">
        <ele>112.407</ele>
        <time>2010-11-28T14:28:03Z</time>
      </trkpt>
      <trkpt lat="46.29676" lon="-0.18262">
        <ele>112.4885</ele>
        <time>2010-11-28T14:28:04Z</time>
      </trkpt>
      <trkpt lat="46.29675" lon="-0.18263">
        <ele>112.588</ele>
        <time>2010-11-28T14:28:05Z</time>
      </trkpt>
      <trkpt lat="46.29675" lon="-0.18264">
        <ele>112.6778</ele>
        <time>2010-11-28T14:28:06Z</time>
      </trkpt>
      <trkpt lat="46.29674" lon="-0.18265">
        <ele>112.7617</ele>
        <time>2010-11-28T14:28:07Z</time>
      </trkpt>
      <trkpt lat="46.29673" lon="-0.18265">
        <ele>112.8409</ele>
        <time>2010-11-28T14:28:08Z</time>
      </trkpt>
      <trkpt lat="46.29672" lon="-0.18266">
        <ele>112.9123</ele>
        <time>2010-11-28T14:28:09Z</time>
      </trkpt>
      <trkpt lat="46.29672" lon="-0.18266">
        <ele>112.9755</ele>
        <time>2010-11-28T14:28:10Z</time>
      </trkpt>
      <trkpt lat="46.29671" lon="-0.18267">
        <ele>113.0326</ele>
        <time>2010-11-28T14:28:11Z</time>
      </trkpt>
      <trkpt lat="46.2967" lon="-0.18268">
        <ele>113.0981</ele>
        <time>2010-11-28T14:28:12Z</time>
      </trkpt>
      <trkpt lat="46.29669" lon="-0.18269">
        <ele>113.1776</ele>
        <time>2010-11-28T14:28:13Z</time>
      </trkpt>
      <trkpt lat="46.29668" lon="-0.1827">
        <ele>113.2497</ele>
        <time>2010-11-28T14:28:14Z</time>
      </trkpt>
      <trkpt lat="46.29668" lon="-0.18271">
        <ele>113.3413</ele>
        <time>2010-11-28T14:28:15Z</time>
      </trkpt>
      <trkpt lat="46.29667" lon="-0.18273">
        <ele>113.4472</ele>
        <time>2010-11-28T14:28:16Z</time>
      </trkpt>
      <trkpt lat="46.29667" lon="-0.18273">
        <ele>113.5466</ele>
        <time>2010-11-28T14:28:17Z</time>
      </trkpt>
      <trkpt lat="46.29666" lon="-0.18274">
        <ele>113.6372</ele>
        <time>2010-11-28T14:28:18Z</time>
      </trkpt>
      <trkpt lat="46.29666" lon="-0.18275">
        <ele>113.7173</ele>
        <time>2010-11-28T14:28:19Z</time>
      </trkpt>
      <trkpt lat="46.29665" lon="-0.18276">
        <ele>113.7886</ele>
        <time>2010-11-28T14:28:20Z</time>
      </trkpt>
      <trkpt lat="46.29665" lon="-0.18277">
        <ele>113.8503</ele>
        <time>2010-11-28T14:28:21Z</time>
      </trkpt>
      <trkpt lat="46.29664" lon="-0.18278">
        <ele>113.8928</ele>
        <time>2010-11-28T14:28:22Z</time>
      </trkpt>
      <trkpt lat="46.29663" lon="-0.18279">
        <ele>113.9269</ele>
        <time>2010-11-28T14:28:23Z</time>
      </trkpt>
      <trkpt lat="46.29662" lon="-0.1828">
        <ele>113.9468</ele>
        <time>2010-11-28T14:28:24Z</time>
      </trkpt>
      <trkpt lat="46.29661" lon="-0.1828">
        <ele>113.9509</ele>
        <time>2010-11-28T14:28:25Z</time>
      </trkpt>
      <trkpt lat="46.2966" lon="-0.18281">
        <ele>113.9453</ele>
        <time>2010-11-28T14:28:26Z</time>
      </trkpt>
      <trkpt lat="46.29659" lon="-0.18282">
        <ele>113.9387</ele>
        <time>2010-11-28T14:28:27Z</time>
      </trkpt>
      <trkpt lat="46.29658" lon="-0.18283">
        <ele>113.9333</ele>
        <time>2010-11-28T14:28:28Z</time>
      </trkpt>
      <trkpt lat="46.29657" lon="-0.18283">
        <ele>113.9181</ele>
        <time>2010-11-28T14:28:29Z</time>
      </trkpt>
      <trkpt lat="46.29655" lon="-0.18284">
        <ele>113.3955</ele>
        <time>2010-11-28T14:28:42Z</time>
      </trkpt>
      <trkpt lat="46.29654" lon="-0.18285">
        <ele>113.3197</ele>
        <time>2010-11-28T14:28:43Z</time>
      </trkpt>
      <trkpt lat="46.29652" lon="-0.18286">
        <ele>113.2293</ele>
        <time>2010-11-28T14:28:44Z</time>
      </trkpt>
      <trkpt lat="46.29651" lon="-0.18287">
        <ele>113.1345</ele>
        <time>2010-11-28T14:28:45Z</time>
      </trkpt>
      <trkpt lat="46.29651" lon="-0.18288">
        <ele>113.0341</ele>
        <time>2010-11-28T14:28:46Z</time>
      </trkpt>
      <trkpt lat="46.29649" lon="-0.18289">
        <ele>112.9272</ele>
        <time>2010-11-28T14:28:47Z</time>
      </trkpt>
      <trkpt lat="46.29648" lon="-0.18291">
        <ele>112.8395</ele>
        <time>2010-11-28T14:28:48Z</time>
      </trkpt>
      <trkpt lat="46.29647" lon="-0.18293">
        <ele>112.777</ele>
        <time>2010-11-28T14:28:49Z</time>
      </trkpt>
      <trkpt lat="46.29646" lon="-0.18295">
        <ele>112.7273</ele>
        <time>2010-11-28T14:28:50Z</time>
      </trkpt>
      <trkpt lat="46.29644" lon="-0.18297">
        <ele>112.6882</ele>
        <time>2010-11-28T14:28:51Z</time>
      </trkpt>
      <trkpt lat="46.29643" lon="-0.18298">
        <ele>112.6506</ele>
        <time>2010-11-28T14:28:52Z</time>
      </trkpt>
      <trkpt lat="46.29642" lon="-0.183">
        <ele>112.6327</ele>
        <time>2010-11-28T14:28:53Z</time>
      </trkpt>
      <trkpt lat="46.29641" lon="-0.18301">
        <ele>112.6091</ele>
        <time>2010-11-28T14:28:54Z</time>
      </trkpt>
      <trkpt lat="46.2964" lon="-0.18302">
        <ele>112.5779</ele>
        <time>2010-11-28T14:28:55Z</time>
      </trkpt>
      <trkpt lat="46.29639" lon="-0.18303">
        <ele>112.54</ele>
        <time>2010-11-28T14:28:56Z</time>
      </trkpt>
      <trkpt lat="46.29638" lon="-0.18304">
        <ele>112.4973</ele>
        <time>2010-11-28T14:28:57Z</time>
      </trkpt>
      <trkpt lat="46.29638" lon="-0.18305">
        <ele>112.4521</ele>
        <time>2010-11-28T14:28:58Z</time>
      </trkpt>
      <trkpt lat="46.29637" lon="-0.18306">
        <ele>112.408</ele>
        <time>2010-11-28T14:28:59Z</time>
      </trkpt>
      <trkpt lat="46.29636" lon="-0.18307">
        <ele>112.3628</ele>
        <time>2010-11-28T14:29:00Z</time>
      </trkpt>
      <trkpt lat="46.29635" lon="-0.18308">
        <ele>112.3167</ele>
        <time>2010-11-28T14:29:01Z</time>
      </trkpt>
      <trkpt lat="46.29635" lon="-0.18309">
        <ele>112.268</ele>
        <time>2010-11-28T14:29:02Z</time>
      </trkpt>
      <trkpt lat="46.29634" lon="-0.1831">
        <ele>112.2226</ele>
        <time>2010-11-28T14:29:03Z</time>
      </trkpt>
      <trkpt lat="46.29633" lon="-0.18311">
        <ele>112.1697</ele>
        <time>2010-11-28T14:29:04Z</time>
      </trkpt>
      <trkpt lat="46.29632" lon="-0.18312">
        <ele>112.1168</ele>
        <time>2010-11-28T14:29:05Z</time>
      </trkpt>
      <trkpt lat="46.29631" lon="-0.18313">
        <ele>112.0659</ele>
        <time>2010-11-28T14:29:06Z</time>
      </trkpt>
      <trkpt lat="46.2963" lon="-0.18313">
        <ele>112.0187</ele>
        <time>2010-11-28T14:29:07Z</time>
      </trkpt>
      <trkpt lat="46.2963" lon="-0.18314">
        <ele>111.9735</ele>
        <time>2010-11-28T14:29:08Z</time>
      </trkpt>
      <trkpt lat="46.29628" lon="-0.18315">
        <ele>111.9375</ele>
        <time>2010-11-28T14:29:09Z</time>
      </trkpt>
      <trkpt lat="46.29628" lon="-0.18316">
        <ele>111.9135</ele>
        <time>2010-11-28T14:29:10Z</time>
      </trkpt>
      <trkpt lat="46.29627" lon="-0.18317">
        <ele>111.8923</ele>
        <time>2010-11-28T14:29:11Z</time>
      </trkpt>
      <trkpt lat="46.29626" lon="-0.18318">
        <ele>111.8747</ele>
        <time>2010-11-28T14:29:12Z</time>
      </trkpt>
      <trkpt lat="46.29625" lon="-0.18319">
        <ele>111.8637</ele>
        <time>2010-11-28T14:29:13Z</time>
      </trkpt>
      <trkpt lat="46.29624" lon="-0.18319">
        <ele>111.854</ele>
        <time>2010-11-28T14:29:14Z</time>
      </trkpt>
      <trkpt lat="46.29623" lon="-0.1832">
        <ele>111.8467</ele>
        <time>2010-11-28T14:29:15Z</time>
      </trkpt>
      <trkpt lat="46.29622" lon="-0.1832">
        <ele>111.8412</ele>
        <time>2010-11-28T14:29:16Z</time>
      </trkpt>
      <trkpt lat="46.29621" lon="-0.18321">
        <ele>111.8366</ele>
        <time>2010-11-28T14:29:17Z</time>
      </trkpt>
      <trkpt lat="46.2962" lon="-0.18321">
        <ele>111.838</ele>
        <time>2010-11-28T14:29:18Z</time>
      </trkpt>
      <trkpt lat="46.29619" lon="-0.18322">
        <ele>111.8434</ele>
        <time>2010-11-28T14:29:19Z</time>
      </trkpt>
      <trkpt lat="46.29619" lon="-0.18322">
        <ele>111.8526</ele>
        <time>2010-11-28T14:29:20Z</time>
      </trkpt>
      <trkpt lat="46.29618" lon="-0.18322">
        <ele>111.8594</ele>
        <time>2010-11-28T14:29:21Z</time>
      </trkpt>
      <trkpt lat="46.29617" lon="-0.18323">
        <ele>111.8653</ele>
        <time>2010-11-28T14:29:22Z</time>
      </trkpt>
      <trkpt lat="46.29616" lon="-0.18323">
        <ele>111.8674</ele>
        <time>2010-11-28T14:29:23Z</time>
      </trkpt>
      <trkpt lat="46.29615" lon="-0.18324">
        <ele>111.8628</ele>
        <time>2010-11-28T14:29:24Z</time>
      </trkpt>
      <trkpt lat="46.29615" lon="-0.18324">
        <ele>111.851</ele>
        <time>2010-11-28T14:29:25Z</time>
      </trkpt>
      <trkpt lat="46.29614" lon="-0.18324">
        <ele>111.8303</ele>
        <time>2010-11-28T14:29:26Z</time>
      </trkpt>
      <trkpt lat="46.29613" lon="-0.18325">
        <ele>111.8059</ele>
        <time>2010-11-28T14:29:27Z</time>
      </trkpt>
      <trkpt lat="46.29612" lon="-0.18325">
        <ele>111.7725</ele>
        <time>2010-11-28T14:29:28Z</time>
      </trkpt>
      <trkpt lat="46.29611" lon="-0.18326">
        <ele>111.7328</ele>
        <time>2010-11-28T14:29:29Z</time>
      </trkpt>
      <trkpt lat="46.2961" lon="-0.18327">
        <ele>111.6976</ele>
        <time>2010-11-28T14:29:30Z</time>
      </trkpt>
      <trkpt lat="46.29609" lon="-0.18328">
        <ele>111.6565</ele>
        <time>2010-11-28T14:29:31Z</time>
      </trkpt>
      <trkpt lat="46.29608" lon="-0.18329">
        <ele>111.6001</ele>
        <time>2010-11-28T14:29:32Z</time>
      </trkpt>
      <trkpt lat="46.29607" lon="-0.18329">
        <ele>111.537</ele>
        <time>2010-11-28T14:29:33Z</time>
      </trkpt>
      <trkpt lat="46.29607" lon="-0.1833">
        <ele>111.477</ele>
        <time>2010-11-28T14:29:34Z</time>
      </trkpt>
      <trkpt lat="46.29606" lon="-0.18331">
        <ele>111.408</ele>
        <time>2010-11-28T14:29:35Z</time>
      </trkpt>
      <trkpt lat="46.29605" lon="-0.18333">
        <ele>111.3728</ele>
        <time>2010-11-28T14:29:36Z</time>
      </trkpt>
      <trkpt lat="46.29604" lon="-0.18334">
        <ele>111.321</ele>
        <time>2010-11-28T14:29:37Z</time>
      </trkpt>
      <trkpt lat="46.29604" lon="-0.18335">
        <ele>111.2717</ele>
        <time>2010-11-28T14:29:38Z</time>
      </trkpt>
      <trkpt lat="46.29602" lon="-0.18336">
        <ele>111.2659</ele>
        <time>2010-11-28T14:29:39Z</time>
      </trkpt>
      <trkpt lat="46.29601" lon="-0.18338">
        <ele>111.238</ele>
        <time>2010-11-28T14:29:40Z</time>
      </trkpt>
      <trkpt lat="46.29601" lon="-0.18339">
        <ele>111.2042</ele>
        <time>2010-11-28T14:29:41Z</time>
      </trkpt>
      <trkpt lat="46.296" lon="-0.1834">
        <ele>111.1641</ele>
        <time>2010-11-28T14:29:42Z</time>
      </trkpt>
      <trkpt lat="46.29599" lon="-0.18341">
        <ele>111.1238</ele>
        <time>2010-11-28T14:29:43Z</time>
      </trkpt>
      <trkpt lat="46.29598" lon="-0.18342">
        <ele>111.0816</ele>
        <time>2010-11-28T14:29:44Z</time>
      </trkpt>
      <trkpt lat="46.29598" lon="-0.18342">
        <ele>111.0378</ele>
        <time>2010-11-28T14:29:45Z</time>
      </trkpt>
      <trkpt lat="46.29597" lon="-0.18343">
        <ele>111.0042</ele>
        <time>2010-11-28T14:29:46Z</time>
      </trkpt>
      <trkpt lat="46.29596" lon="-0.18344">
        <ele>110.9726</ele>
        <time>2010-11-28T14:29:47Z</time>
      </trkpt>
      <trkpt lat="46.29596" lon="-0.18345">
        <ele>110.9422</ele>
        <time>2010-11-28T14:29:48Z</time>
      </trkpt>
      <trkpt lat="46.29595" lon="-0.18346">
        <ele>110.927</ele>
        <time>2010-11-28T14:29:49Z</time>
      </trkpt>
      <trkpt lat="46.29594" lon="-0.18347">
        <ele>110.9137</ele>
        <time>2010-11-28T14:29:50Z</time>
      </trkpt>
      <trkpt lat="46.29594" lon="-0.18348">
        <ele>110.8994</ele>
        <time>2010-11-28T14:29:51Z</time>
      </trkpt>
      <trkpt lat="46.29593" lon="-0.18349">
        <ele>110.8973</ele>
        <time>2010-11-28T14:29:52Z</time>
      </trkpt>
      <trkpt lat="46.29592" lon="-0.1835">
        <ele>110.8902</ele>
        <time>2010-11-28T14:29:53Z</time>
      </trkpt>
      <trkpt lat="46.29591" lon="-0.18351">
        <ele>110.8824</ele>
        <time>2010-11-28T14:29:54Z</time>
      </trkpt>
      <trkpt lat="46.29591" lon="-0.18352">
        <ele>110.8746</ele>
        <time>2010-11-28T14:29:55Z</time>
      </trkpt>
      <trkpt lat="46.2959" lon="-0.18353">
        <ele>110.8661</ele>
        <time>2010-11-28T14:29:56Z</time>
      </trkpt>
      <trkpt lat="46.29589" lon="-0.18353">
        <ele>110.8593</ele>
        <time>2010-11-28T14:29:57Z</time>
      </trkpt>
      <trkpt lat="46.29588" lon="-0.18354">
        <ele>110.8554</ele>
        <time>2010-11-28T14:29:58Z</time>
      </trkpt>
      <trkpt lat="46.29587" lon="-0.18356">
        <ele>110.8571</ele>
        <time>2010-11-28T14:29:59Z</time>
      </trkpt>
      <trkpt lat="46.29587" lon="-0.18357">
        <ele>110.8632</ele>
        <time>2010-11-28T14:30:00Z</time>
      </trkpt>
      <trkpt lat="46.29586" lon="-0.18358">
        <ele>110.8899</ele>
        <time>2010-11-28T14:30:01Z</time>
      </trkpt>
      <trkpt lat="46.29585" lon="-0.1836">
        <ele>110.9136</ele>
        <time>2010-11-28T14:30:02Z</time>
      </trkpt>
      <trkpt lat="46.29582" lon="-0.18364">
        <ele>111.0368</ele>
        <time>2010-11-28T14:30:12Z</time>
      </trkpt>
      <trkpt lat="46.29582" lon="-0.18366">
        <ele>110.9039</ele>
        <time>2010-11-28T14:30:15Z</time>
      </trkpt>
      <trkpt lat="46.29581" lon="-0.18367">
        <ele>110.8749</ele>
        <time>2010-11-28T14:30:16Z</time>
      </trkpt>
      <trkpt lat="46.29581" lon="-0.18368">
        <ele>110.859</ele>
        <time>2010-11-28T14:30:17Z</time>
      </trkpt>
      <trkpt lat="46.29582" lon="-0.18369">
        <ele>110.8689</ele>
        <time>2010-11-28T14:30:18Z</time>
      </trkpt>
      <trkpt lat="46.29581" lon="-0.1837">
        <ele>110.8923</ele>
        <time>2010-11-28T14:30:19Z</time>
      </trkpt>
      <trkpt lat="46.29581" lon="-0.18371">
        <ele>110.9119</ele>
        <time>2010-11-28T14:30:20Z</time>
      </trkpt>
      <trkpt lat="46.29581" lon="-0.18372">
        <ele>110.9271</ele>
        <time>2010-11-28T14:30:21Z</time>
      </trkpt>
      <trkpt lat="46.29582" lon="-0.18373">
        <ele>110.9618</ele>
        <time>2010-11-28T14:30:22Z</time>
      </trkpt>
      <trkpt lat="46.29582" lon="-0.18373">
        <ele>111.0176</ele>
        <time>2010-11-28T14:30:23Z</time>
      </trkpt>
      <trkpt lat="46.29582" lon="-0.18375">
        <ele>111.0873</ele>
        <time>2010-11-28T14:30:24Z</time>
      </trkpt>
      <trkpt lat="46.29581" lon="-0.18376">
        <ele>111.1584</ele>
        <time>2010-11-28T14:30:25Z</time>
      </trkpt>
      <trkpt lat="46.29581" lon="-0.18377">
        <ele>111.2294</ele>
        <time>2010-11-28T14:30:26Z</time>
      </trkpt>
      <trkpt lat="46.2958" lon="-0.18379">
        <ele>111.2961</ele>
        <time>2010-11-28T14:30:27Z</time>
      </trkpt>
      <trkpt lat="46.2958" lon="-0.1838">
        <ele>111.3568</ele>
        <time>2010-11-28T14:30:28Z</time>
      </trkpt>
      <trkpt lat="46.2958" lon="-0.18381">
        <ele>111.4134</ele>
        <time>2010-11-28T14:30:29Z</time>
      </trkpt>
      <trkpt lat="46.2958" lon="-0.18382">
        <ele>111.4684</ele>
        <time>2010-11-28T14:30:30Z</time>
      </trkpt>
      <trkpt lat="46.29579" lon="-0.18383">
        <ele>111.5173</ele>
        <time>2010-11-28T14:30:31Z</time>
      </trkpt>
      <trkpt lat="46.29578" lon="-0.18385">
        <ele>111.5625</ele>
        <time>2010-11-28T14:30:32Z</time>
      </trkpt>
      <trkpt lat="46.29578" lon="-0.18386">
        <ele>111.6366</ele>
        <time>2010-11-28T14:30:33Z</time>
      </trkpt>
      <trkpt lat="46.29577" lon="-0.18388">
        <ele>111.6995</ele>
        <time>2010-11-28T14:30:34Z</time>
      </trkpt>
      <trkpt lat="46.29577" lon="-0.1839">
        <ele>111.7486</ele>
        <time>2010-11-28T14:30:35Z</time>
      </trkpt>
      <trkpt lat="46.29576" lon="-0.18391">
        <ele>111.7972</ele>
        <time>2010-11-28T14:30:36Z</time>
      </trkpt>
      <trkpt lat="46.29575" lon="-0.18393">
        <ele>111.8485</ele>
        <time>2010-11-28T14:30:37Z</time>
      </trkpt>
      <trkpt lat="46.29575" lon="-0.18394">
        <ele>111.8968</ele>
        <time>2010-11-28T14:30:38Z</time>
      </trkpt>
      <trkpt lat="46.29574" lon="-0.18395">
        <ele>111.9444</ele>
        <time>2010-11-28T14:30:39Z</time>
      </trkpt>
      <trkpt lat="46.29574" lon="-0.18397">
        <ele>111.9898</ele>
        <time>2010-11-28T14:30:40Z</time>
      </trkpt>
      <trkpt lat="46.29573" lon="-0.18398">
        <ele>112.0318</ele>
        <time>2010-11-28T14:30:41Z</time>
      </trkpt>
      <trkpt lat="46.29573" lon="-0.18399">
        <ele>112.0763</ele>
        <time>2010-11-28T14:30:42Z</time>
      </trkpt>
      <trkpt lat="46.29573" lon="-0.184">
        <ele>112.1185</ele>
        <time>2010-11-28T14:30:43Z</time>
      </trkpt>
      <trkpt lat="46.29572" lon="-0.18402">
        <ele>112.1625</ele>
        <time>2010-11-28T14:30:44Z</time>
      </trkpt>
      <trkpt lat="46.29572" lon="-0.18403">
        <ele>112.2086</ele>
        <time>2010-11-28T14:30:45Z</time>
      </trkpt>
      <trkpt lat="46.29572" lon="-0.18404">
        <ele>112.2573</ele>
        <time>2010-11-28T14:30:46Z</time>
      </trkpt>
      <trkpt lat="46.29572" lon="-0.18405">
        <ele>112.305</ele>
        <time>2010-11-28T14:30:47Z</time>
      </trkpt>
      <trkpt lat="46.29571" lon="-0.18407">
        <ele>112.3564</ele>
        <time>2010-11-28T14:30:48Z</time>
      </trkpt>
      <trkpt lat="46.29571" lon="-0.18409">
        <ele>112.4161</ele>
        <time>2010-11-28T14:30:49Z</time>
      </trkpt>
      <trkpt lat="46.2957" lon="-0.1841">
        <ele>112.4714</ele>
        <time>2010-11-28T14:30:50Z</time>
      </trkpt>
      <trkpt lat="46.2957" lon="-0.18412">
        <ele>112.5211</ele>
        <time>2010-11-28T14:30:51Z</time>
      </trkpt>
      <trkpt lat="46.2957" lon="-0.18414">
        <ele>112.5686</ele>
        <time>2010-11-28T14:30:52Z</time>
      </trkpt>
      <trkpt lat="46.2957" lon="-0.18416">
        <ele>112.6157</ele>
        <time>2010-11-28T14:30:53Z</time>
      </trkpt>
      <trkpt lat="46.29569" lon="-0.18417">
        <ele>112.6637</ele>
        <time>2010-11-28T14:30:54Z</time>
      </trkpt>
      <trkpt lat="46.29569" lon="-0.18419">
        <ele>112.7318</ele>
        <time>2010-11-28T14:30:55Z</time>
      </trkpt>
      <trkpt lat="46.29569" lon="-0.18421">
        <ele>112.8006</ele>
        <time>2010-11-28T14:30:56Z</time>
      </trkpt>
      <trkpt lat="46.29568" lon="-0.18423">
        <ele>112.8902</ele>
        <time>2010-11-28T14:30:57Z</time>
      </trkpt>
      <trkpt lat="46.29568" lon="-0.18425">
        <ele>112.9773</ele>
        <time>2010-11-28T14:30:58Z</time>
      </trkpt>
      <trkpt lat="46.29567" lon="-0.18427">
        <ele>113.0571</ele>
        <time>2010-11-28T14:30:59Z</time>
      </trkpt>
      <trkpt lat="46.29567" lon="-0.18429">
        <ele>113.1389</ele>
        <time>2010-11-28T14:31:00Z</time>
      </trkpt>
      <trkpt lat="46.29567" lon="-0.18431">
        <ele>113.2205</ele>
        <time>2010-11-28T14:31:01Z</time>
      </trkpt>
      <trkpt lat="46.29566" lon="-0.18432">
        <ele>113.3078</ele>
        <time>2010-11-28T14:31:02Z</time>
      </trkpt>
      <trkpt lat="46.29566" lon="-0.18434">
        <ele>113.4045</ele>
        <time>2010-11-28T14:31:03Z</time>
      </trkpt>
      <trkpt lat="46.29565" lon="-0.18436">
        <ele>113.501</ele>
        <time>2010-11-28T14:31:04Z</time>
      </trkpt>
      <trkpt lat="46.29565" lon="-0.18437">
        <ele>113.5945</ele>
        <time>2010-11-28T14:31:05Z</time>
      </trkpt>
      <trkpt lat="46.29565" lon="-0.18439">
        <ele>113.6847</ele>
        <time>2010-11-28T14:31:06Z</time>
      </trkpt>
      <trkpt lat="46.29564" lon="-0.18441">
        <ele>113.7866</ele>
        <time>2010-11-28T14:31:07Z</time>
      </trkpt>
      <trkpt lat="46.29564" lon="-0.18442">
        <ele>113.8826</ele>
        <time>2010-11-28T14:31:08Z</time>
      </trkpt>
      <trkpt lat="46.29564" lon="-0.18444">
        <ele>113.9725</ele>
        <time>2010-11-28T14:31:09Z</time>
      </trkpt>
      <trkpt lat="46.29564" lon="-0.18446">
        <ele>114.0605</ele>
        <time>2010-11-28T14:31:10Z</time>
      </trkpt>
      <trkpt lat="46.29564" lon="-0.18448">
        <ele>114.1444</ele>
        <time>2010-11-28T14:31:11Z</time>
      </trkpt>
      <trkpt lat="46.29564" lon="-0.1845">
        <ele>114.2191</ele>
        <time>2010-11-28T14:31:12Z</time>
      </trkpt>
      <trkpt lat="46.29564" lon="-0.18452">
        <ele>114.2833</ele>
        <time>2010-11-28T14:31:13Z</time>
      </trkpt>
      <trkpt lat="46.29564" lon="-0.18453">
        <ele>114.3416</ele>
        <time>2010-11-28T14:31:14Z</time>
      </trkpt>
      <trkpt lat="46.29559" lon="-0.18457">
        <ele>114.1703</ele>
        <time>2010-11-28T14:31:31Z</time>
      </trkpt>
      <trkpt lat="46.29559" lon="-0.18456">
        <ele>114.1466</ele>
        <time>2010-11-28T14:31:32Z</time>
      </trkpt>
      <trkpt lat="46.29557" lon="-0.18456">
        <ele>114.1384</ele>
        <time>2010-11-28T14:31:33Z</time>
      </trkpt>
      <trkpt lat="46.29556" lon="-0.18455">
        <ele>114.1146</ele>
        <time>2010-11-28T14:31:34Z</time>
      </trkpt>
      <trkpt lat="46.29555" lon="-0.18455">
        <ele>114.0872</ele>
        <time>2010-11-28T14:31:35Z</time>
      </trkpt>
      <trkpt lat="46.29551" lon="-0.18453">
        <ele>113.9442</ele>
        <time>2010-11-28T14:31:42Z</time>
      </trkpt>
      <trkpt lat="46.29555" lon="-0.18453">
        <ele>113.4255</ele>
        <time>2010-11-28T14:32:00Z</time>
      </trkpt>
      <trkpt lat="46.29558" lon="-0.18453">
        <ele>113.1493</ele>
        <time>2010-11-28T14:32:03Z</time>
      </trkpt>
      <trkpt lat="46.29559" lon="-0.18454">
        <ele>113.0663</ele>
        <time>2010-11-28T14:32:04Z</time>
      </trkpt>
      <trkpt lat="46.29561" lon="-0.1846">
        <ele>112.7652</ele>
        <time>2010-11-28T14:32:09Z</time>
      </trkpt>
      <trkpt lat="46.29561" lon="-0.18461">
        <ele>112.7216</ele>
        <time>2010-11-28T14:32:10Z</time>
      </trkpt>
      <trkpt lat="46.29561" lon="-0.18463">
        <ele>112.6799</ele>
        <time>2010-11-28T14:32:11Z</time>
      </trkpt>
      <trkpt lat="46.29561" lon="-0.18465">
        <ele>112.6376</ele>
        <time>2010-11-28T14:32:12Z</time>
      </trkpt>
      <trkpt lat="46.29561" lon="-0.18468">
        <ele>112.5982</ele>
        <time>2010-11-28T14:32:13Z</time>
      </trkpt>
      <trkpt lat="46.29561" lon="-0.1847">
        <ele>112.5565</ele>
        <time>2010-11-28T14:32:14Z</time>
      </trkpt>
      <trkpt lat="46.2956" lon="-0.18472">
        <ele>112.5108</ele>
        <time>2010-11-28T14:32:15Z</time>
      </trkpt>
      <trkpt lat="46.29559" lon="-0.18474">
        <ele>112.4697</ele>
        <time>2010-11-28T14:32:16Z</time>
      </trkpt>
      <trkpt lat="46.29559" lon="-0.18476">
        <ele>112.426</ele>
        <time>2010-11-28T14:32:17Z</time>
      </trkpt>
      <trkpt lat="46.29558" lon="-0.18478">
        <ele>112.3857</ele>
        <time>2010-11-28T14:32:18Z</time>
      </trkpt>
      <trkpt lat="46.29557" lon="-0.1848">
        <ele>112.3391</ele>
        <time>2010-11-28T14:32:19Z</time>
      </trkpt>
      <trkpt lat="46.29556" lon="-0.18482">
        <ele>112.2853</ele>
        <time>2010-11-28T14:32:20Z</time>
      </trkpt>
      <trkpt lat="46.29555" lon="-0.18483">
        <ele>112.2262</ele>
        <time>2010-11-28T14:32:21Z</time>
      </trkpt>
      <trkpt lat="46.29554" lon="-0.18485">
        <ele>112.1654</ele>
        <time>2010-11-28T14:32:22Z</time>
      </trkpt>
      <trkpt lat="46.29554" lon="-0.18486">
        <ele>112.107</ele>
        <time>2010-11-28T14:32:23Z</time>
      </trkpt>
      <trkpt lat="46.29553" lon="-0.18487">
        <ele>112.05</ele>
        <time>2010-11-28T14:32:24Z</time>
      </trkpt>
      <trkpt lat="46.2955" lon="-0.18492">
        <ele>111.7951</ele>
        <time>2010-11-28T14:32:32Z</time>
      </trkpt>
      <trkpt lat="46.29549" lon="-0.18492">
        <ele>111.7548</ele>
        <time>2010-11-28T14:32:33Z</time>
      </trkpt>
      <trkpt lat="46.29549" lon="-0.18493">
        <ele>111.7215</ele>
        <time>2010-11-28T14:32:34Z</time>
      </trkpt>
      <trkpt lat="46.29548" lon="-0.18494">
        <ele>111.6972</ele>
        <time>2010-11-28T14:32:35Z</time>
      </trkpt>
      <trkpt lat="46.29547" lon="-0.18495">
        <ele>111.673</ele>
        <time>2010-11-28T14:32:36Z</time>
      </trkpt>
      <trkpt lat="46.29547" lon="-0.18496">
        <ele>111.6583</ele>
        <time>2010-11-28T14:32:37Z</time>
      </trkpt>
      <trkpt lat="46.29546" lon="-0.18497">
        <ele>111.644</ele>
        <time>2010-11-28T14:32:38Z</time>
      </trkpt>
      <trkpt lat="46.29546" lon="-0.18498">
        <ele>111.6358</ele>
        <time>2010-11-28T14:32:39Z</time>
      </trkpt>
      <trkpt lat="46.29545" lon="-0.18499">
        <ele>111.6285</ele>
        <time>2010-11-28T14:32:40Z</time>
      </trkpt>
      <trkpt lat="46.29544" lon="-0.185">
        <ele>111.6218</ele>
        <time>2010-11-28T14:32:41Z</time>
      </trkpt>
      <trkpt lat="46.29544" lon="-0.18501">
        <ele>111.614</ele>
        <time>2010-11-28T14:32:42Z</time>
      </trkpt>
      <trkpt lat="46.29543" lon="-0.18503">
        <ele>111.6266</ele>
        <time>2010-11-28T14:32:43Z</time>
      </trkpt>
      <trkpt lat="46.29543" lon="-0.18504">
        <ele>111.653</ele>
        <time>2010-11-28T14:32:44Z</time>
      </trkpt>
      <trkpt lat="46.29542" lon="-0.18506">
        <ele>111.682</ele>
        <time>2010-11-28T14:32:45Z</time>
      </trkpt>
      <trkpt lat="46.29541" lon="-0.18508">
        <ele>111.7083</ele>
        <time>2010-11-28T14:32:46Z</time>
      </trkpt>
      <trkpt lat="46.29541" lon="-0.1851">
        <ele>111.7479</ele>
        <time>2010-11-28T14:32:47Z</time>
      </trkpt>
      <trkpt lat="46.2954" lon="-0.18512">
        <ele>111.786</ele>
        <time>2010-11-28T14:32:48Z</time>
      </trkpt>
      <trkpt lat="46.2954" lon="-0.18513">
        <ele>111.8258</ele>
        <time>2010-11-28T14:32:49Z</time>
      </trkpt>
      <trkpt lat="46.2954" lon="-0.18515">
        <ele>111.8619</ele>
        <time>2010-11-28T14:32:50Z</time>
      </trkpt>
      <trkpt lat="46.2954" lon="-0.18517">
        <ele>111.8984</ele>
        <time>2010-11-28T14:32:51Z</time>
      </trkpt>
      <trkpt lat="46.29539" lon="-0.18519">
        <ele>111.9448</ele>
        <time>2010-11-28T14:32:52Z</time>
      </trkpt>
      <trkpt lat="46.29539" lon="-0.18521">
        <ele>111.9949</ele>
        <time>2010-11-28T14:32:53Z</time>
      </trkpt>
      <trkpt lat="46.29539" lon="-0.18522">
        <ele>112.0436</ele>
        <time>2010-11-28T14:32:54Z</time>
      </trkpt>
      <trkpt lat="46.29539" lon="-0.18524">
        <ele>112.0902</ele>
        <time>2010-11-28T14:32:55Z</time>
      </trkpt>
      <trkpt lat="46.29538" lon="-0.18526">
        <ele>112.1385</ele>
        <time>2010-11-28T14:32:56Z</time>
      </trkpt>
      <trkpt lat="46.29538" lon="-0.18527">
        <ele>112.1818</ele>
        <time>2010-11-28T14:32:57Z</time>
      </trkpt>
      <trkpt lat="46.29538" lon="-0.18529">
        <ele>112.2247</ele>
        <time>2010-11-28T14:32:58Z</time>
      </trkpt>
      <trkpt lat="46.29537" lon="-0.1853">
        <ele>112.2634</ele>
        <time>2010-11-28T14:32:59Z</time>
      </trkpt>
      <trkpt lat="46.29536" lon="-0.18532">
        <ele>112.2998</ele>
        <time>2010-11-28T14:33:00Z</time>
      </trkpt>
      <trkpt lat="46.29536" lon="-0.18533">
        <ele>112.3343</ele>
        <time>2010-11-28T14:33:01Z</time>
      </trkpt>
      <trkpt lat="46.29536" lon="-0.18535">
        <ele>112.3655</ele>
        <time>2010-11-28T14:33:02Z</time>
      </trkpt>
      <trkpt lat="46.29536" lon="-0.18536">
        <ele>112.3944</ele>
        <time>2010-11-28T14:33:03Z</time>
      </trkpt>
      <trkpt lat="46.29535" lon="-0.18538">
        <ele>112.42</ele>
        <time>2010-11-28T14:33:04Z</time>
      </trkpt>
      <trkpt lat="46.29535" lon="-0.18539">
        <ele>112.4461</ele>
        <time>2010-11-28T14:33:05Z</time>
      </trkpt>
      <trkpt lat="46.29535" lon="-0.18541">
        <ele>112.4739</ele>
        <time>2010-11-28T14:33:06Z</time>
      </trkpt>
      <trkpt lat="46.29534" lon="-0.18542">
        <ele>112.5004</ele>
        <time>2010-11-28T14:33:07Z</time>
      </trkpt>
      <trkpt lat="46.29534" lon="-0.18544">
        <ele>112.5257</ele>
        <time>2010-11-28T14:33:08Z</time>
      </trkpt>
      <trkpt lat="46.29534" lon="-0.18545">
        <ele>112.5465</ele>
        <time>2010-11-28T14:33:09Z</time>
      </trkpt>
      <trkpt lat="46.29533" lon="-0.18547">
        <ele>112.5608</ele>
        <time>2010-11-28T14:33:10Z</time>
      </trkpt>
      <trkpt lat="46.29533" lon="-0.18548">
        <ele>112.5778</ele>
        <time>2010-11-28T14:33:11Z</time>
      </trkpt>
      <trkpt lat="46.29533" lon="-0.1855">
        <ele>112.5907</ele>
        <time>2010-11-28T14:33:12Z</time>
      </trkpt>
      <trkpt lat="46.29532" lon="-0.18552">
        <ele>112.6016</ele>
        <time>2010-11-28T14:33:13Z</time>
      </trkpt>
      <trkpt lat="46.29532" lon="-0.18553">
        <ele>112.6017</ele>
        <time>2010-11-28T14:33:14Z</time>
      </trkpt>
      <trkpt lat="46.29532" lon="-0.18555">
        <ele>112.5899</ele>
        <time>2010-11-28T14:33:15Z</time>
      </trkpt>
      <trkpt lat="46.29531" lon="-0.18557">
        <ele>112.5719</ele>
        <time>2010-11-28T14:33:16Z</time>
      </trkpt>
      <trkpt lat="46.2953" lon="-0.18558">
        <ele>112.547</ele>
        <time>2010-11-28T14:33:17Z</time>
      </trkpt>
      <trkpt lat="46.2953" lon="-0.1856">
        <ele>112.5154</ele>
        <time>2010-11-28T14:33:18Z</time>
      </trkpt>
      <trkpt lat="46.29529" lon="-0.18561">
        <ele>112.4803</ele>
        <time>2010-11-28T14:33:19Z</time>
      </trkpt>
      <trkpt lat="46.29528" lon="-0.18563">
        <ele>112.4435</ele>
        <time>2010-11-28T14:33:20Z</time>
      </trkpt>
      <trkpt lat="46.29528" lon="-0.18564">
        <ele>112.4054</ele>
        <time>2010-11-28T14:33:21Z</time>
      </trkpt>
      <trkpt lat="46.29527" lon="-0.18565">
        <ele>112.3676</ele>
        <time>2010-11-28T14:33:22Z</time>
      </trkpt>
      <trkpt lat="46.29527" lon="-0.18567">
        <ele>112.3298</ele>
        <time>2010-11-28T14:33:23Z</time>
      </trkpt>
      <trkpt lat="46.29526" lon="-0.18568">
        <ele>112.29</ele>
        <time>2010-11-28T14:33:24Z</time>
      </trkpt>
      <trkpt lat="46.29525" lon="-0.18569">
        <ele>112.2505</ele>
        <time>2010-11-28T14:33:25Z</time>
      </trkpt>
      <trkpt lat="46.29525" lon="-0.1857">
        <ele>112.213</ele>
        <time>2010-11-28T14:33:26Z</time>
      </trkpt>
      <trkpt lat="46.29524" lon="-0.18571">
        <ele>112.18</ele>
        <time>2010-11-28T14:33:27Z</time>
      </trkpt>
      <trkpt lat="46.29524" lon="-0.18572">
        <ele>112.1498</ele>
        <time>2010-11-28T14:33:28Z</time>
      </trkpt>
      <trkpt lat="46.29522" lon="-0.18573">
        <ele>112.2048</ele>
        <time>2010-11-28T14:33:36Z</time>
      </trkpt>
      <trkpt lat="46.29522" lon="-0.18574">
        <ele>112.245</ele>
        <time>2010-11-28T14:33:37Z</time>
      </trkpt>
      <trkpt lat="46.29521" lon="-0.18575">
        <ele>112.2782</ele>
        <time>2010-11-28T14:33:38Z</time>
      </trkpt>
      <trkpt lat="46.2952" lon="-0.18576">
        <ele>112.3044</ele>
        <time>2010-11-28T14:33:39Z</time>
      </trkpt>
      <trkpt lat="46.2952" lon="-0.18577">
        <ele>112.3265</ele>
        <time>2010-11-28T14:33:40Z</time>
      </trkpt>
      <trkpt lat="46.29519" lon="-0.18579">
        <ele>112.3686</ele>
        <time>2010-11-28T14:33:41Z</time>
      </trkpt>
      <trkpt lat="46.29519" lon="-0.18581">
        <ele>112.3974</ele>
        <time>2010-11-28T14:33:42Z</time>
      </trkpt>
      <trkpt lat="46.29518" lon="-0.18582">
        <ele>112.4191</ele>
        <time>2010-11-28T14:33:43Z</time>
      </trkpt>
      <trkpt lat="46.29517" lon="-0.18584">
        <ele>112.4328</ele>
        <time>2010-11-28T14:33:44Z</time>
      </trkpt>
      <trkpt lat="46.29517" lon="-0.18585">
        <ele>112.4363</ele>
        <time>2010-11-28T14:33:45Z</time>
      </trkpt>
      <trkpt lat="46.29517" lon="-0.18587">
        <ele>112.4332</ele>
        <time>2010-11-28T14:33:46Z</time>
      </trkpt>
      <trkpt lat="46.29516" lon="-0.18589">
        <ele>112.4292</ele>
        <time>2010-11-28T14:33:47Z</time>
      </trkpt>
      <trkpt lat="46.29516" lon="-0.1859">
        <ele>112.4286</ele>
        <time>2010-11-28T14:33:48Z</time>
      </trkpt>
      <trkpt lat="46.29515" lon="-0.18592">
        <ele>112.4293</ele>
        <time>2010-11-28T14:33:49Z</time>
      </trkpt>
      <trkpt lat="46.2952" lon="-0.18594">
        <ele>112.386</ele>
        <time>2010-11-28T14:34:11Z</time>
      </trkpt>
      <trkpt lat="46.29519" lon="-0.18595">
        <ele>112.3609</ele>
        <time>2010-11-28T14:34:15Z</time>
      </trkpt>
      <trkpt lat="46.29518" lon="-0.18595">
        <ele>112.34</ele>
        <time>2010-11-28T14:34:16Z</time>
      </trkpt>
      <trkpt lat="46.29517" lon="-0.18596">
        <ele>112.3188</ele>
        <time>2010-11-28T14:34:17Z</time>
      </trkpt>
      <trkpt lat="46.29516" lon="-0.18597">
        <ele>112.2908</ele>
        <time>2010-11-28T14:34:18Z</time>
      </trkpt>
      <trkpt lat="46.29515" lon="-0.18598">
        <ele>112.2599</ele>
        <time>2010-11-28T14:34:19Z</time>
      </trkpt>
      <trkpt lat="46.29514" lon="-0.186">
        <ele>112.2257</ele>
        <time>2010-11-28T14:34:20Z</time>
      </trkpt>
      <trkpt lat="46.29514" lon="-0.18601">
        <ele>112.1878</ele>
        <time>2010-11-28T14:34:21Z</time>
      </trkpt>
      <trkpt lat="46.29514" lon="-0.18603">
        <ele>112.1435</ele>
        <time>2010-11-28T14:34:22Z</time>
      </trkpt>
      <trkpt lat="46.29513" lon="-0.18604">
        <ele>112.0968</ele>
        <time>2010-11-28T14:34:23Z</time>
      </trkpt>
      <trkpt lat="46.29512" lon="-0.18605">
        <ele>112.0467</ele>
        <time>2010-11-28T14:34:24Z</time>
      </trkpt>
      <trkpt lat="46.29512" lon="-0.18607">
        <ele>111.994</ele>
        <time>2010-11-28T14:34:25Z</time>
      </trkpt>
      <trkpt lat="46.29511" lon="-0.18608">
        <ele>111.9412</ele>
        <time>2010-11-28T14:34:26Z</time>
      </trkpt>
      <trkpt lat="46.29511" lon="-0.1861">
        <ele>111.8874</ele>
        <time>2010-11-28T14:34:27Z</time>
      </trkpt>
      <trkpt lat="46.2951" lon="-0.18611">
        <ele>111.8322</ele>
        <time>2010-11-28T14:34:28Z</time>
      </trkpt>
      <trkpt lat="46.29509" lon="-0.18613">
        <ele>111.7777</ele>
        <time>2010-11-28T14:34:29Z</time>
      </trkpt>
      <trkpt lat="46.29509" lon="-0.18614">
        <ele>111.7269</ele>
        <time>2010-11-28T14:34:30Z</time>
      </trkpt>
      <trkpt lat="46.29508" lon="-0.18616">
        <ele>111.6757</ele>
        <time>2010-11-28T14:34:31Z</time>
      </trkpt>
      <trkpt lat="46.29507" lon="-0.18617">
        <ele>111.6247</ele>
        <time>2010-11-28T14:34:32Z</time>
      </trkpt>
      <trkpt lat="46.29506" lon="-0.18619">
        <ele>111.5745</ele>
        <time>2010-11-28T14:34:33Z</time>
      </trkpt>
      <trkpt lat="46.29506" lon="-0.1862">
        <ele>111.5298</ele>
        <time>2010-11-28T14:34:34Z</time>
      </trkpt>
      <trkpt lat="46.29505" lon="-0.18622">
        <ele>111.4881</ele>
        <time>2010-11-28T14:34:35Z</time>
      </trkpt>
      <trkpt lat="46.29504" lon="-0.18623">
        <ele>111.4547</ele>
        <time>2010-11-28T14:34:36Z</time>
      </trkpt>
      <trkpt lat="46.29503" lon="-0.18625">
        <ele>111.4252</ele>
        <time>2010-11-28T14:34:37Z</time>
      </trkpt>
      <trkpt lat="46.29502" lon="-0.18626">
        <ele>111.3954</ele>
        <time>2010-11-28T14:34:38Z</time>
      </trkpt>
      <trkpt lat="46.29501" lon="-0.18628">
        <ele>111.3641</ele>
        <time>2010-11-28T14:34:39Z</time>
      </trkpt>
      <trkpt lat="46.29501" lon="-0.1863">
        <ele>111.3391</ele>
        <time>2010-11-28T14:34:40Z</time>
      </trkpt>
      <trkpt lat="46.295" lon="-0.18631">
        <ele>111.3132</ele>
        <time>2010-11-28T14:34:41Z</time>
      </trkpt>
      <trkpt lat="46.295" lon="-0.18633">
        <ele>111.2876</ele>
        <time>2010-11-28T14:34:42Z</time>
      </trkpt>
      <trkpt lat="46.29499" lon="-0.18634">
        <ele>111.2598</ele>
        <time>2010-11-28T14:34:43Z</time>
      </trkpt>
      <trkpt lat="46.29498" lon="-0.18635">
        <ele>111.2309</ele>
        <time>2010-11-28T14:34:44Z</time>
      </trkpt>
      <trkpt lat="46.29498" lon="-0.18637">
        <ele>111.206</ele>
        <time>2010-11-28T14:34:45Z</time>
      </trkpt>
      <trkpt lat="46.29496" lon="-0.18638">
        <ele>111.1845</ele>
        <time>2010-11-28T14:34:46Z</time>
      </trkpt>
      <trkpt lat="46.29496" lon="-0.1864">
        <ele>111.1637</ele>
        <time>2010-11-28T14:34:47Z</time>
      </trkpt>
      <trkpt lat="46.29495" lon="-0.18641">
        <ele>111.1419</ele>
        <time>2010-11-28T14:34:48Z</time>
      </trkpt>
      <trkpt lat="46.29495" lon="-0.18643">
        <ele>111.1205</ele>
        <time>2010-11-28T14:34:49Z</time>
      </trkpt>
      <trkpt lat="46.29494" lon="-0.18644">
        <ele>111.098</ele>
        <time>2010-11-28T14:34:50Z</time>
      </trkpt>
      <trkpt lat="46.29493" lon="-0.18646">
        <ele>111.0747</ele>
        <time>2010-11-28T14:34:51Z</time>
      </trkpt>
      <trkpt lat="46.29493" lon="-0.18647">
        <ele>111.0505</ele>
        <time>2010-11-28T14:34:52Z</time>
      </trkpt>
      <trkpt lat="46.29492" lon="-0.18649">
        <ele>111.0277</ele>
        <time>2010-11-28T14:34:53Z</time>
      </trkpt>
      <trkpt lat="46.29491" lon="-0.1865">
        <ele>111.0086</ele>
        <time>2010-11-28T14:34:54Z</time>
      </trkpt>
      <trkpt lat="46.29491" lon="-0.18652">
        <ele>110.9902</ele>
        <time>2010-11-28T14:34:55Z</time>
      </trkpt>
      <trkpt lat="46.29491" lon="-0.18654">
        <ele>110.971</ele>
        <time>2010-11-28T14:34:56Z</time>
      </trkpt>
      <trkpt lat="46.2949" lon="-0.18655">
        <ele>110.9506</ele>
        <time>2010-11-28T14:34:57Z</time>
      </trkpt>
      <trkpt lat="46.2949" lon="-0.18656">
        <ele>110.9304</ele>
        <time>2010-11-28T14:34:58Z</time>
      </trkpt>
      <trkpt lat="46.29489" lon="-0.18658">
        <ele>110.9198</ele>
        <time>2010-11-28T14:34:59Z</time>
      </trkpt>
      <trkpt lat="46.29489" lon="-0.1866">
        <ele>110.9094</ele>
        <time>2010-11-28T14:35:00Z</time>
      </trkpt>
      <trkpt lat="46.29488" lon="-0.18661">
        <ele>110.8982</ele>
        <time>2010-11-28T14:35:01Z</time>
      </trkpt>
      <trkpt lat="46.29488" lon="-0.18663">
        <ele>110.8858</ele>
        <time>2010-11-28T14:35:02Z</time>
      </trkpt>
      <trkpt lat="46.29487" lon="-0.18664">
        <ele>110.8713</ele>
        <time>2010-11-28T14:35:03Z</time>
      </trkpt>
      <trkpt lat="46.29487" lon="-0.18666">
        <ele>110.856</ele>
        <time>2010-11-28T14:35:04Z</time>
      </trkpt>
      <trkpt lat="46.29487" lon="-0.18667">
        <ele>110.844</ele>
        <time>2010-11-28T14:35:05Z</time>
      </trkpt>
      <trkpt lat="46.29487" lon="-0.18669">
        <ele>110.8375</ele>
        <time>2010-11-28T14:35:06Z</time>
      </trkpt>
      <trkpt lat="46.29486" lon="-0.18671">
        <ele>110.8296</ele>
        <time>2010-11-28T14:35:07Z</time>
      </trkpt>
      <trkpt lat="46.29485" lon="-0.18672">
        <ele>110.8202</ele>
        <time>2010-11-28T14:35:08Z</time>
      </trkpt>
      <trkpt lat="46.29485" lon="-0.18674">
        <ele>110.8106</ele>
        <time>2010-11-28T14:35:09Z</time>
      </trkpt>
      <trkpt lat="46.29484" lon="-0.18676">
        <ele>110.8068</ele>
        <time>2010-11-28T14:35:10Z</time>
      </trkpt>
      <trkpt lat="46.29484" lon="-0.18677">
        <ele>110.8017</ele>
        <time>2010-11-28T14:35:11Z</time>
      </trkpt>
      <trkpt lat="46.29483" lon="-0.18679">
        <ele>110.7967</ele>
        <time>2010-11-28T14:35:12Z</time>
      </trkpt>
      <trkpt lat="46.29482" lon="-0.1868">
        <ele>110.7871</ele>
        <time>2010-11-28T14:35:13Z</time>
      </trkpt>
      <trkpt lat="46.29482" lon="-0.18682">
        <ele>110.7753</ele>
        <time>2010-11-28T14:35:14Z</time>
      </trkpt>
      <trkpt lat="46.29481" lon="-0.18683">
        <ele>110.7617</ele>
        <time>2010-11-28T14:35:15Z</time>
      </trkpt>
      <trkpt lat="46.2948" lon="-0.18684">
        <ele>110.7425</ele>
        <time>2010-11-28T14:35:16Z</time>
      </trkpt>
      <trkpt lat="46.29479" lon="-0.18685">
        <ele>110.7202</ele>
        <time>2010-11-28T14:35:17Z</time>
      </trkpt>
      <trkpt lat="46.29479" lon="-0.18686">
        <ele>110.6951</ele>
        <time>2010-11-28T14:35:18Z</time>
      </trkpt>
      <trkpt lat="46.29478" lon="-0.18688">
        <ele>110.6679</ele>
        <time>2010-11-28T14:35:19Z</time>
      </trkpt>
      <trkpt lat="46.29477" lon="-0.18688">
        <ele>110.6395</ele>
        <time>2010-11-28T14:35:20Z</time>
      </trkpt>
      <trkpt lat="46.29477" lon="-0.1869">
        <ele>109.7693</ele>
        <time>2010-11-28T14:35:35Z</time>
      </trkpt>
      <trkpt lat="46.29476" lon="-0.18691">
        <ele>109.594</ele>
        <time>2010-11-28T14:35:36Z</time>
      </trkpt>
      <trkpt lat="46.29476" lon="-0.18693">
        <ele>109.4193</ele>
        <time>2010-11-28T14:35:37Z</time>
      </trkpt>
      <trkpt lat="46.29475" lon="-0.18694">
        <ele>109.2517</ele>
        <time>2010-11-28T14:35:38Z</time>
      </trkpt>
      <trkpt lat="46.29475" lon="-0.18696">
        <ele>109.0912</ele>
        <time>2010-11-28T14:35:39Z</time>
      </trkpt>
      <trkpt lat="46.29475" lon="-0.18698">
        <ele>108.9415</ele>
        <time>2010-11-28T14:35:40Z</time>
      </trkpt>
      <trkpt lat="46.29474" lon="-0.18699">
        <ele>108.8027</ele>
        <time>2010-11-28T14:35:41Z</time>
      </trkpt>
      <trkpt lat="46.29474" lon="-0.187">
        <ele>108.6723</ele>
        <time>2010-11-28T14:35:42Z</time>
      </trkpt>
      <trkpt lat="46.29474" lon="-0.18702">
        <ele>108.5523</ele>
        <time>2010-11-28T14:35:43Z</time>
      </trkpt>
      <trkpt lat="46.29473" lon="-0.18703">
        <ele>108.4379</ele>
        <time>2010-11-28T14:35:44Z</time>
      </trkpt>
      <trkpt lat="46.29472" lon="-0.18704">
        <ele>108.3312</ele>
        <time>2010-11-28T14:35:45Z</time>
      </trkpt>
      <trkpt lat="46.29472" lon="-0.18706">
        <ele>108.2341</ele>
        <time>2010-11-28T14:35:46Z</time>
      </trkpt>
      <trkpt lat="46.29472" lon="-0.18707">
        <ele>108.1421</ele>
        <time>2010-11-28T14:35:47Z</time>
      </trkpt>
      <trkpt lat="46.29471" lon="-0.18708">
        <ele>108.0562</ele>
        <time>2010-11-28T14:35:48Z</time>
      </trkpt>
      <trkpt lat="46.2947" lon="-0.18709">
        <ele>107.9694</ele>
        <time>2010-11-28T14:35:49Z</time>
      </trkpt>
      <trkpt lat="46.2947" lon="-0.18711">
        <ele>107.8793</ele>
        <time>2010-11-28T14:35:50Z</time>
      </trkpt>
      <trkpt lat="46.2947" lon="-0.18712">
        <ele>107.7944</ele>
        <time>2010-11-28T14:35:51Z</time>
      </trkpt>
      <trkpt lat="46.29469" lon="-0.18713">
        <ele>107.711</ele>
        <time>2010-11-28T14:35:52Z</time>
      </trkpt>
      <trkpt lat="46.29469" lon="-0.18715">
        <ele>107.6314</ele>
        <time>2010-11-28T14:35:53Z</time>
      </trkpt>
      <trkpt lat="46.29468" lon="-0.18716">
        <ele>107.564</ele>
        <time>2010-11-28T14:35:54Z</time>
      </trkpt>
      <trkpt lat="46.29467" lon="-0.18717">
        <ele>107.5109</ele>
        <time>2010-11-28T14:35:55Z</time>
      </trkpt>
      <trkpt lat="46.29467" lon="-0.18719">
        <ele>107.461</ele>
        <time>2010-11-28T14:35:56Z</time>
      </trkpt>
      <trkpt lat="46.29467" lon="-0.1872">
        <ele>107.4148</ele>
        <time>2010-11-28T14:35:57Z</time>
      </trkpt>
      <trkpt lat="46.29466" lon="-0.18721">
        <ele>107.3715</ele>
        <time>2010-11-28T14:35:58Z</time>
      </trkpt>
      <trkpt lat="46.29466" lon="-0.18722">
        <ele>107.3327</ele>
        <time>2010-11-28T14:35:59Z</time>
      </trkpt>
      <trkpt lat="46.29466" lon="-0.18723">
        <ele>107.2848</ele>
        <time>2010-11-28T14:36:00Z</time>
      </trkpt>
      <trkpt lat="46.29465" lon="-0.18724">
        <ele>107.2416</ele>
        <time>2010-11-28T14:36:01Z</time>
      </trkpt>
      <trkpt lat="46.29464" lon="-0.18725">
        <ele>107.2015</ele>
        <time>2010-11-28T14:36:02Z</time>
      </trkpt>
      <trkpt lat="46.29464" lon="-0.18726">
        <ele>107.1621</ele>
        <time>2010-11-28T14:36:03Z</time>
      </trkpt>
      <trkpt lat="46.29464" lon="-0.18728">
        <ele>107.1251</ele>
        <time>2010-11-28T14:36:04Z</time>
      </trkpt>
      <trkpt lat="46.29463" lon="-0.18729">
        <ele>107.0841</ele>
        <time>2010-11-28T14:36:05Z</time>
      </trkpt>
      <trkpt lat="46.29463" lon="-0.1873">
        <ele>107.0201</ele>
        <time>2010-11-28T14:36:06Z</time>
      </trkpt>
      <trkpt lat="46.29459" lon="-0.18735">
        <ele>107.1964</ele>
        <time>2010-11-28T14:36:16Z</time>
      </trkpt>
      <trkpt lat="46.29459" lon="-0.18736">
        <ele>107.276</ele>
        <time>2010-11-28T14:36:17Z</time>
      </trkpt>
      <trkpt lat="46.29458" lon="-0.18739">
        <ele>107.3905</ele>
        <time>2010-11-28T14:36:18Z</time>
      </trkpt>
      <trkpt lat="46.29458" lon="-0.18741">
        <ele>107.5089</ele>
        <time>2010-11-28T14:36:19Z</time>
      </trkpt>
      <trkpt lat="46.29457" lon="-0.18743">
        <ele>107.6286</ele>
        <time>2010-11-28T14:36:20Z</time>
      </trkpt>
      <trkpt lat="46.29457" lon="-0.18745">
        <ele>107.7452</ele>
        <time>2010-11-28T14:36:21Z</time>
      </trkpt>
      <trkpt lat="46.29456" lon="-0.18747">
        <ele>107.855</ele>
        <time>2010-11-28T14:36:22Z</time>
      </trkpt>
      <trkpt lat="46.29456" lon="-0.18749">
        <ele>107.9618</ele>
        <time>2010-11-28T14:36:23Z</time>
      </trkpt>
      <trkpt lat="46.29456" lon="-0.1875">
        <ele>108.0718</ele>
        <time>2010-11-28T14:36:24Z</time>
      </trkpt>
      <trkpt lat="46.29455" lon="-0.18752">
        <ele>108.1815</ele>
        <time>2010-11-28T14:36:25Z</time>
      </trkpt>
      <trkpt lat="46.29455" lon="-0.18754">
        <ele>108.286</ele>
        <time>2010-11-28T14:36:26Z</time>
      </trkpt>
      <trkpt lat="46.29454" lon="-0.18755">
        <ele>108.3924</ele>
        <time>2010-11-28T14:36:27Z</time>
      </trkpt>
      <trkpt lat="46.29454" lon="-0.18757">
        <ele>108.4899</ele>
        <time>2010-11-28T14:36:28Z</time>
      </trkpt>
      <trkpt lat="46.29454" lon="-0.18758">
        <ele>108.5792</ele>
        <time>2010-11-28T14:36:29Z</time>
      </trkpt>
      <trkpt lat="46.29453" lon="-0.1876">
        <ele>108.665</ele>
        <time>2010-11-28T14:36:30Z</time>
      </trkpt>
      <trkpt lat="46.29453" lon="-0.18762">
        <ele>108.7481</ele>
        <time>2010-11-28T14:36:31Z</time>
      </trkpt>
      <trkpt lat="46.29453" lon="-0.18763">
        <ele>108.8192</ele>
        <time>2010-11-28T14:36:32Z</time>
      </trkpt>
      <trkpt lat="46.29453" lon="-0.18765">
        <ele>108.8822</ele>
        <time>2010-11-28T14:36:33Z</time>
      </trkpt>
      <trkpt lat="46.29452" lon="-0.18766">
        <ele>108.9529</ele>
        <time>2010-11-28T14:36:34Z</time>
      </trkpt>
      <trkpt lat="46.29452" lon="-0.18768">
        <ele>109.0312</ele>
        <time>2010-11-28T14:36:35Z</time>
      </trkpt>
      <trkpt lat="46.29451" lon="-0.1877">
        <ele>109.117</ele>
        <time>2010-11-28T14:36:36Z</time>
      </trkpt>
      <trkpt lat="46.29451" lon="-0.18771">
        <ele>109.2047</ele>
        <time>2010-11-28T14:36:37Z</time>
      </trkpt>
      <trkpt lat="46.29451" lon="-0.18773">
        <ele>109.2871</ele>
        <time>2010-11-28T14:36:38Z</time>
      </trkpt>
      <trkpt lat="46.2945" lon="-0.18774">
        <ele>109.3651</ele>
        <time>2010-11-28T14:36:39Z</time>
      </trkpt>
      <trkpt lat="46.2945" lon="-0.18776">
        <ele>109.4378</ele>
        <time>2010-11-28T14:36:40Z</time>
      </trkpt>
      <trkpt lat="46.2945" lon="-0.18777">
        <ele>109.5026</ele>
        <time>2010-11-28T14:36:41Z</time>
      </trkpt>
      <trkpt lat="46.29449" lon="-0.18778">
        <ele>109.5688</ele>
        <time>2010-11-28T14:36:42Z</time>
      </trkpt>
      <trkpt lat="46.29449" lon="-0.18779">
        <ele>109.6366</ele>
        <time>2010-11-28T14:36:43Z</time>
      </trkpt>
      <trkpt lat="46.29448" lon="-0.18781">
        <ele>109.7168</ele>
        <time>2010-11-28T14:36:44Z</time>
      </trkpt>
      <trkpt lat="46.29448" lon="-0.18782">
        <ele>109.7966</ele>
        <time>2010-11-28T14:36:45Z</time>
      </trkpt>
      <trkpt lat="46.29447" lon="-0.18784">
        <ele>109.8729</ele>
        <time>2010-11-28T14:36:46Z</time>
      </trkpt>
      <trkpt lat="46.29446" lon="-0.18785">
        <ele>109.967</ele>
        <time>2010-11-28T14:36:47Z</time>
      </trkpt>
      <trkpt lat="46.29446" lon="-0.18787">
        <ele>110.0597</ele>
        <time>2010-11-28T14:36:48Z</time>
      </trkpt>
      <trkpt lat="46.29445" lon="-0.18789">
        <ele>110.1505</ele>
        <time>2010-11-28T14:36:49Z</time>
      </trkpt>
      <trkpt lat="46.29445" lon="-0.1879">
        <ele>110.24</ele>
        <time>2010-11-28T14:36:50Z</time>
      </trkpt>
      <trkpt lat="46.29444" lon="-0.18792">
        <ele>110.3388</ele>
        <time>2010-11-28T14:36:51Z</time>
      </trkpt>
      <trkpt lat="46.29444" lon="-0.18793">
        <ele>110.4554</ele>
        <time>2010-11-28T14:36:52Z</time>
      </trkpt>
      <trkpt lat="46.29443" lon="-0.18794">
        <ele>110.5621</ele>
        <time>2010-11-28T14:36:53Z</time>
      </trkpt>
      <trkpt lat="46.29442" lon="-0.18796">
        <ele>110.6635</ele>
        <time>2010-11-28T14:36:54Z</time>
      </trkpt>
      <trkpt lat="46.29442" lon="-0.18797">
        <ele>110.8023</ele>
        <time>2010-11-28T14:36:55Z</time>
      </trkpt>
      <trkpt lat="46.29441" lon="-0.18799">
        <ele>110.9312</ele>
        <time>2010-11-28T14:36:56Z</time>
      </trkpt>
      <trkpt lat="46.2944" lon="-0.18801">
        <ele>111.059</ele>
        <time>2010-11-28T14:36:57Z</time>
      </trkpt>
      <trkpt lat="46.29439" lon="-0.18802">
        <ele>111.1839</ele>
        <time>2010-11-28T14:36:58Z</time>
      </trkpt>
      <trkpt lat="46.29438" lon="-0.18803">
        <ele>111.3085</ele>
        <time>2010-11-28T14:36:59Z</time>
      </trkpt>
      <trkpt lat="46.29438" lon="-0.18804">
        <ele>111.4266</ele>
        <time>2010-11-28T14:37:00Z</time>
      </trkpt>
      <trkpt lat="46.29437" lon="-0.18805">
        <ele>111.5402</ele>
        <time>2010-11-28T14:37:01Z</time>
      </trkpt>
      <trkpt lat="46.29437" lon="-0.18806">
        <ele>111.6462</ele>
        <time>2010-11-28T14:37:02Z</time>
      </trkpt>
      <trkpt lat="46.29436" lon="-0.18807">
        <ele>111.748</ele>
        <time>2010-11-28T14:37:03Z</time>
      </trkpt>
      <trkpt lat="46.29435" lon="-0.18808">
        <ele>111.8435</ele>
        <time>2010-11-28T14:37:04Z</time>
      </trkpt>
      <trkpt lat="46.29435" lon="-0.18809">
        <ele>111.9356</ele>
        <time>2010-11-28T14:37:05Z</time>
      </trkpt>
      <trkpt lat="46.29435" lon="-0.1881">
        <ele>112.019</ele>
        <time>2010-11-28T14:37:06Z</time>
      </trkpt>
      <trkpt lat="46.29434" lon="-0.18811">
        <ele>112.0941</ele>
        <time>2010-11-28T14:37:07Z</time>
      </trkpt>
      <trkpt lat="46.29433" lon="-0.18812">
        <ele>112.1617</ele>
        <time>2010-11-28T14:37:08Z</time>
      </trkpt>
      <trkpt lat="46.29433" lon="-0.18813">
        <ele>112.2301</ele>
        <time>2010-11-28T14:37:09Z</time>
      </trkpt>
      <trkpt lat="46.29433" lon="-0.18814">
        <ele>112.2991</ele>
        <time>2010-11-28T14:37:10Z</time>
      </trkpt>
      <trkpt lat="46.29433" lon="-0.18815">
        <ele>112.3656</ele>
        <time>2010-11-28T14:37:11Z</time>
      </trkpt>
      <trkpt lat="46.29433" lon="-0.18816">
        <ele>112.4268</ele>
        <time>2010-11-28T14:37:12Z</time>
      </trkpt>
      <trkpt lat="46.29433" lon="-0.18817">
        <ele>112.4815</ele>
        <time>2010-11-28T14:37:13Z</time>
      </trkpt>
      <trkpt lat="46.29432" lon="-0.18824">
        <ele>112.6526</ele>
        <time>2010-11-28T14:37:23Z</time>
      </trkpt>
      <trkpt lat="46.29432" lon="-0.1883">
        <ele>112.7375</ele>
        <time>2010-11-28T14:37:28Z</time>
      </trkpt>
      <trkpt lat="46.2943" lon="-0.18837">
        <ele>112.991</ele>
        <time>2010-11-28T14:37:33Z</time>
      </trkpt>
      <trkpt lat="46.29428" lon="-0.18843">
        <ele>113.0181</ele>
        <time>2010-11-28T14:37:37Z</time>
      </trkpt>
      <trkpt lat="46.29426" lon="-0.18849">
        <ele>113.2896</ele>
        <time>2010-11-28T14:37:41Z</time>
      </trkpt>
      <trkpt lat="46.29425" lon="-0.18857">
        <ele>113.5641</ele>
        <time>2010-11-28T14:37:45Z</time>
      </trkpt>
      <trkpt lat="46.29425" lon="-0.18864">
        <ele>113.7487</ele>
        <time>2010-11-28T14:37:49Z</time>
      </trkpt>
      <trkpt lat="46.29424" lon="-0.18871">
        <ele>113.7512</ele>
        <time>2010-11-28T14:37:54Z</time>
      </trkpt>
      <trkpt lat="46.29423" lon="-0.18878">
        <ele>113.7271</ele>
        <time>2010-11-28T14:37:58Z</time>
      </trkpt>
      <trkpt lat="46.29422" lon="-0.18884">
        <ele>113.7269</ele>
        <time>2010-11-28T14:38:02Z</time>
      </trkpt>
      <trkpt lat="46.29421" lon="-0.18891">
        <ele>113.7634</ele>
        <time>2010-11-28T14:38:06Z</time>
      </trkpt>
      <trkpt lat="46.2942" lon="-0.18898">
        <ele>113.8857</ele>
        <time>2010-11-28T14:38:10Z</time>
      </trkpt>
      <trkpt lat="46.29419" lon="-0.18905">
        <ele>114.0503</ele>
        <time>2010-11-28T14:38:15Z</time>
      </trkpt>
      <trkpt lat="46.29418" lon="-0.18912">
        <ele>114.176</ele>
        <time>2010-11-28T14:38:22Z</time>
      </trkpt>
      <trkpt lat="46.29419" lon="-0.1892">
        <ele>114.2467</ele>
        <time>2010-11-28T14:38:27Z</time>
      </trkpt>
      <trkpt lat="46.29418" lon="-0.18924">
        <ele>114.2799</ele>
        <time>2010-11-28T14:38:29Z</time>
      </trkpt>
      <trkpt lat="46.29418" lon="-0.18925">
        <ele>114.2906</ele>
        <time>2010-11-28T14:38:30Z</time>
      </trkpt>
      <trkpt lat="46.29418" lon="-0.18927">
        <ele>114.2932</ele>
        <time>2010-11-28T14:38:31Z</time>
      </trkpt>
      <trkpt lat="46.29417" lon="-0.18928">
        <ele>114.2916</ele>
        <time>2010-11-28T14:38:32Z</time>
      </trkpt>
      <trkpt lat="46.29417" lon="-0.1893">
        <ele>114.2955</ele>
        <time>2010-11-28T14:38:33Z</time>
      </trkpt>
      <trkpt lat="46.29417" lon="-0.18931">
        <ele>114.2961</ele>
        <time>2010-11-28T14:38:34Z</time>
      </trkpt>
      <trkpt lat="46.29417" lon="-0.18933">
        <ele>114.2926</ele>
        <time>2010-11-28T14:38:35Z</time>
      </trkpt>
      <trkpt lat="46.29417" lon="-0.18934">
        <ele>114.2824</ele>
        <time>2010-11-28T14:38:36Z</time>
      </trkpt>
      <trkpt lat="46.29417" lon="-0.18936">
        <ele>114.2574</ele>
        <time>2010-11-28T14:38:37Z</time>
      </trkpt>
      <trkpt lat="46.29416" lon="-0.18937">
        <ele>114.2165</ele>
        <time>2010-11-28T14:38:38Z</time>
      </trkpt>
      <trkpt lat="46.29416" lon="-0.18939">
        <ele>114.1686</ele>
        <time>2010-11-28T14:38:39Z</time>
      </trkpt>
      <trkpt lat="46.29416" lon="-0.18941">
        <ele>114.1129</ele>
        <time>2010-11-28T14:38:40Z</time>
      </trkpt>
      <trkpt lat="46.29415" lon="-0.18942">
        <ele>114.0564</ele>
        <time>2010-11-28T14:38:41Z</time>
      </trkpt>
      <trkpt lat="46.29415" lon="-0.18944">
        <ele>113.9946</ele>
        <time>2010-11-28T14:38:42Z</time>
      </trkpt>
      <trkpt lat="46.29414" lon="-0.18945">
        <ele>113.9381</ele>
        <time>2010-11-28T14:38:43Z</time>
      </trkpt>
      <trkpt lat="46.29414" lon="-0.18947">
        <ele>113.8764</ele>
        <time>2010-11-28T14:38:44Z</time>
      </trkpt>
      <trkpt lat="46.29413" lon="-0.18948">
        <ele>113.8148</ele>
        <time>2010-11-28T14:38:45Z</time>
      </trkpt>
      <trkpt lat="46.29413" lon="-0.1895">
        <ele>113.7552</ele>
        <time>2010-11-28T14:38:46Z</time>
      </trkpt>
      <trkpt lat="46.29413" lon="-0.18951">
        <ele>113.6983</ele>
        <time>2010-11-28T14:38:47Z</time>
      </trkpt>
      <trkpt lat="46.29412" lon="-0.18953">
        <ele>113.6382</ele>
        <time>2010-11-28T14:38:48Z</time>
      </trkpt>
      <trkpt lat="46.29411" lon="-0.18954">
        <ele>113.5729</ele>
        <time>2010-11-28T14:38:49Z</time>
      </trkpt>
      <trkpt lat="46.29411" lon="-0.18956">
        <ele>113.4971</ele>
        <time>2010-11-28T14:38:50Z</time>
      </trkpt>
      <trkpt lat="46.2941" lon="-0.18957">
        <ele>113.4118</ele>
        <time>2010-11-28T14:38:51Z</time>
      </trkpt>
      <trkpt lat="46.2941" lon="-0.18959">
        <ele>113.3184</ele>
        <time>2010-11-28T14:38:52Z</time>
      </trkpt>
      <trkpt lat="46.29409" lon="-0.1896">
        <ele>113.2251</ele>
        <time>2010-11-28T14:38:53Z</time>
      </trkpt>
      <trkpt lat="46.29408" lon="-0.18962">
        <ele>113.124</ele>
        <time>2010-11-28T14:38:54Z</time>
      </trkpt>
      <trkpt lat="46.29408" lon="-0.18964">
        <ele>113.0193</ele>
        <time>2010-11-28T14:38:55Z</time>
      </trkpt>
      <trkpt lat="46.29407" lon="-0.18965">
        <ele>112.9102</ele>
        <time>2010-11-28T14:38:56Z</time>
      </trkpt>
      <trkpt lat="46.29406" lon="-0.18966">
        <ele>112.7974</ele>
        <time>2010-11-28T14:38:57Z</time>
      </trkpt>
      <trkpt lat="46.29406" lon="-0.18968">
        <ele>112.682</ele>
        <time>2010-11-28T14:38:58Z</time>
      </trkpt>
      <trkpt lat="46.29406" lon="-0.18969">
        <ele>112.5657</ele>
        <time>2010-11-28T14:38:59Z</time>
      </trkpt>
      <trkpt lat="46.29405" lon="-0.1897">
        <ele>112.4433</ele>
        <time>2010-11-28T14:39:00Z</time>
      </trkpt>
      <trkpt lat="46.29404" lon="-0.18972">
        <ele>112.3196</ele>
        <time>2010-11-28T14:39:01Z</time>
      </trkpt>
      <trkpt lat="46.29404" lon="-0.18973">
        <ele>112.2417</ele>
        <time>2010-11-28T14:39:02Z</time>
      </trkpt>
      <trkpt lat="46.29401" lon="-0.1898">
        <ele>112.233</ele>
        <time>2010-11-28T14:39:06Z</time>
      </trkpt>
      <trkpt lat="46.29399" lon="-0.18985">
        <ele>112.2297</ele>
        <time>2010-11-28T14:39:10Z</time>
      </trkpt>
      <trkpt lat="46.29398" lon="-0.18987">
        <ele>112.2099</ele>
        <time>2010-11-28T14:39:13Z</time>
      </trkpt>
      <trkpt lat="46.29398" lon="-0.18988">
        <ele>112.1979</ele>
        <time>2010-11-28T14:39:14Z</time>
      </trkpt>
      <trkpt lat="46.29397" lon="-0.18989">
        <ele>112.1897</ele>
        <time>2010-11-28T14:39:15Z</time>
      </trkpt>
      <trkpt lat="46.29397" lon="-0.1899">
        <ele>112.1891</ele>
        <time>2010-11-28T14:39:16Z</time>
      </trkpt>
      <trkpt lat="46.29396" lon="-0.18991">
        <ele>112.1915</ele>
        <time>2010-11-28T14:39:17Z</time>
      </trkpt>
      <trkpt lat="46.29396" lon="-0.18992">
        <ele>112.194</ele>
        <time>2010-11-28T14:39:18Z</time>
      </trkpt>
      <trkpt lat="46.29396" lon="-0.18994">
        <ele>112.1999</ele>
        <time>2010-11-28T14:39:19Z</time>
      </trkpt>
      <trkpt lat="46.29395" lon="-0.18995">
        <ele>112.2077</ele>
        <time>2010-11-28T14:39:20Z</time>
      </trkpt>
      <trkpt lat="46.29395" lon="-0.18996">
        <ele>112.2146</ele>
        <time>2010-11-28T14:39:21Z</time>
      </trkpt>
      <trkpt lat="46.29395" lon="-0.18997">
        <ele>112.2228</ele>
        <time>2010-11-28T14:39:22Z</time>
      </trkpt>
      <trkpt lat="46.29394" lon="-0.18998">
        <ele>112.2321</ele>
        <time>2010-11-28T14:39:23Z</time>
      </trkpt>
      <trkpt lat="46.29393" lon="-0.18999">
        <ele>112.2416</ele>
        <time>2010-11-28T14:39:24Z</time>
      </trkpt>
      <trkpt lat="46.29393" lon="-0.19">
        <ele>112.2483</ele>
        <time>2010-11-28T14:39:25Z</time>
      </trkpt>
      <trkpt lat="46.29393" lon="-0.19001">
        <ele>112.2541</ele>
        <time>2010-11-28T14:39:26Z</time>
      </trkpt>
      <trkpt lat="46.29392" lon="-0.19002">
        <ele>112.2529</ele>
        <time>2010-11-28T14:39:27Z</time>
      </trkpt>
      <trkpt lat="46.29392" lon="-0.19002">
        <ele>112.2492</ele>
        <time>2010-11-28T14:39:28Z</time>
      </trkpt>
      <trkpt lat="46.29391" lon="-0.19003">
        <ele>112.2436</ele>
        <time>2010-11-28T14:39:29Z</time>
      </trkpt>
      <trkpt lat="46.29391" lon="-0.19004">
        <ele>112.2358</ele>
        <time>2010-11-28T14:39:30Z</time>
      </trkpt>
      <trkpt lat="46.2939" lon="-0.19005">
        <ele>112.2292</ele>
        <time>2010-11-28T14:39:31Z</time>
      </trkpt>
      <trkpt lat="46.2939" lon="-0.19006">
        <ele>112.2204</ele>
        <time>2010-11-28T14:39:32Z</time>
      </trkpt>
      <trkpt lat="46.29389" lon="-0.19007">
        <ele>112.2091</ele>
        <time>2010-11-28T14:39:33Z</time>
      </trkpt>
      <trkpt lat="46.29389" lon="-0.19008">
        <ele>112.1943</ele>
        <time>2010-11-28T14:39:34Z</time>
      </trkpt>
      <trkpt lat="46.29388" lon="-0.19009">
        <ele>112.1755</ele>
        <time>2010-11-28T14:39:35Z</time>
      </trkpt>
      <trkpt lat="46.29388" lon="-0.1901">
        <ele>112.1546</ele>
        <time>2010-11-28T14:39:36Z</time>
      </trkpt>
      <trkpt lat="46.29387" lon="-0.19011">
        <ele>112.1301</ele>
        <time>2010-11-28T14:39:37Z</time>
      </trkpt>
      <trkpt lat="46.29387" lon="-0.19012">
        <ele>112.1028</ele>
        <time>2010-11-28T14:39:38Z</time>
      </trkpt>
      <trkpt lat="46.29387" lon="-0.19013">
        <ele>112.0742</ele>
        <time>2010-11-28T14:39:39Z</time>
      </trkpt>
      <trkpt lat="46.29386" lon="-0.19014">
        <ele>112.0431</ele>
        <time>2010-11-28T14:39:40Z</time>
      </trkpt>
      <trkpt lat="46.29385" lon="-0.19015">
        <ele>112.0171</ele>
        <time>2010-11-28T14:39:41Z</time>
      </trkpt>
      <trkpt lat="46.29385" lon="-0.19016">
        <ele>111.9914</ele>
        <time>2010-11-28T14:39:42Z</time>
      </trkpt>
      <trkpt lat="46.29384" lon="-0.19017">
        <ele>111.965</ele>
        <time>2010-11-28T14:39:43Z</time>
      </trkpt>
      <trkpt lat="46.29384" lon="-0.19018">
        <ele>111.9361</ele>
        <time>2010-11-28T14:39:44Z</time>
      </trkpt>
      <trkpt lat="46.29383" lon="-0.1902">
        <ele>111.9074</ele>
        <time>2010-11-28T14:39:45Z</time>
      </trkpt>
      <trkpt lat="46.29382" lon="-0.19021">
        <ele>111.8947</ele>
        <time>2010-11-28T14:39:46Z</time>
      </trkpt>
      <trkpt lat="46.29382" lon="-0.19022">
        <ele>111.8789</ele>
        <time>2010-11-28T14:39:47Z</time>
      </trkpt>
      <trkpt lat="46.29381" lon="-0.19023">
        <ele>111.8609</ele>
        <time>2010-11-28T14:39:48Z</time>
      </trkpt>
      <trkpt lat="46.2938" lon="-0.19024">
        <ele>111.8413</ele>
        <time>2010-11-28T14:39:49Z</time>
      </trkpt>
      <trkpt lat="46.2938" lon="-0.19025">
        <ele>111.8209</ele>
        <time>2010-11-28T14:39:50Z</time>
      </trkpt>
      <trkpt lat="46.29379" lon="-0.19026">
        <ele>111.7954</ele>
        <time>2010-11-28T14:39:51Z</time>
      </trkpt>
      <trkpt lat="46.29379" lon="-0.19027">
        <ele>111.767</ele>
        <time>2010-11-28T14:39:52Z</time>
      </trkpt>
      <trkpt lat="46.29378" lon="-0.19027">
        <ele>111.7393</ele>
        <time>2010-11-28T14:39:53Z</time>
      </trkpt>
      <trkpt lat="46.29376" lon="-0.19031">
        <ele>111.5333</ele>
        <time>2010-11-28T14:39:59Z</time>
      </trkpt>
      <trkpt lat="46.29376" lon="-0.19032">
        <ele>111.5087</ele>
        <time>2010-11-28T14:40:00Z</time>
      </trkpt>
      <trkpt lat="46.29375" lon="-0.19033">
        <ele>111.4823</ele>
        <time>2010-11-28T14:40:01Z</time>
      </trkpt>
      <trkpt lat="46.29374" lon="-0.19034">
        <ele>111.453</ele>
        <time>2010-11-28T14:40:02Z</time>
      </trkpt>
      <trkpt lat="46.29373" lon="-0.19035">
        <ele>111.4258</ele>
        <time>2010-11-28T14:40:03Z</time>
      </trkpt>
      <trkpt lat="46.29372" lon="-0.19035">
        <ele>111.4</ele>
        <time>2010-11-28T14:40:04Z</time>
      </trkpt>
      <trkpt lat="46.29371" lon="-0.19036">
        <ele>111.3709</ele>
        <time>2010-11-28T14:40:05Z</time>
      </trkpt>
      <trkpt lat="46.29371" lon="-0.19037">
        <ele>111.3396</ele>
        <time>2010-11-28T14:40:06Z</time>
      </trkpt>
      <trkpt lat="46.29369" lon="-0.19037">
        <ele>111.3061</ele>
        <time>2010-11-28T14:40:07Z</time>
      </trkpt>
      <trkpt lat="46.29369" lon="-0.19037">
        <ele>111.2732</ele>
        <time>2010-11-28T14:40:08Z</time>
      </trkpt>
      <trkpt lat="46.29368" lon="-0.19038">
        <ele>111.2375</ele>
        <time>2010-11-28T14:40:09Z</time>
      </trkpt>
      <trkpt lat="46.29367" lon="-0.19038">
        <ele>111.2033</ele>
        <time>2010-11-28T14:40:10Z</time>
      </trkpt>
      <trkpt lat="46.29366" lon="-0.19038">
        <ele>111.1704</ele>
        <time>2010-11-28T14:40:11Z</time>
      </trkpt>
      <trkpt lat="46.29365" lon="-0.19038">
        <ele>111.1329</ele>
        <time>2010-11-28T14:40:12Z</time>
      </trkpt>
      <trkpt lat="46.29364" lon="-0.19038">
        <ele>111.0943</ele>
        <time>2010-11-28T14:40:13Z</time>
      </trkpt>
      <trkpt lat="46.29363" lon="-0.19038">
        <ele>111.0421</ele>
        <time>2010-11-28T14:40:14Z</time>
      </trkpt>
      <trkpt lat="46.29362" lon="-0.19038">
        <ele>110.912</ele>
        <time>2010-11-28T14:40:16Z</time>
      </trkpt>
      <trkpt lat="46.29361" lon="-0.19038">
        <ele>110.8327</ele>
        <time>2010-11-28T14:40:17Z</time>
      </trkpt>
      <trkpt lat="46.29361" lon="-0.19037">
        <ele>110.7445</ele>
        <time>2010-11-28T14:40:18Z</time>
      </trkpt>
      <trkpt lat="46.29359" lon="-0.19037">
        <ele>110.6643</ele>
        <time>2010-11-28T14:40:19Z</time>
      </trkpt>
      <trkpt lat="46.29358" lon="-0.19037">
        <ele>110.5846</ele>
        <time>2010-11-28T14:40:20Z</time>
      </trkpt>
      <trkpt lat="46.29357" lon="-0.19037">
        <ele>110.511</ele>
        <time>2010-11-28T14:40:21Z</time>
      </trkpt>
      <trkpt lat="46.29356" lon="-0.19037">
        <ele>110.4376</ele>
        <time>2010-11-28T14:40:22Z</time>
      </trkpt>
      <trkpt lat="46.29355" lon="-0.19037">
        <ele>110.3748</ele>
        <time>2010-11-28T14:40:23Z</time>
      </trkpt>
      <trkpt lat="46.29354" lon="-0.19037">
        <ele>110.3212</ele>
        <time>2010-11-28T14:40:24Z</time>
      </trkpt>
      <trkpt lat="46.29353" lon="-0.19037">
        <ele>110.2805</ele>
        <time>2010-11-28T14:40:25Z</time>
      </trkpt>
      <trkpt lat="46.29352" lon="-0.19036">
        <ele>110.2354</ele>
        <time>2010-11-28T14:40:26Z</time>
      </trkpt>
      <trkpt lat="46.29351" lon="-0.19036">
        <ele>110.1848</ele>
        <time>2010-11-28T14:40:27Z</time>
      </trkpt>
      <trkpt lat="46.2935" lon="-0.19036">
        <ele>110.1262</ele>
        <time>2010-11-28T14:40:28Z</time>
      </trkpt>
      <trkpt lat="46.29349" lon="-0.19035">
        <ele>110.05</ele>
        <time>2010-11-28T14:40:29Z</time>
      </trkpt>
      <trkpt lat="46.29348" lon="-0.19034">
        <ele>109.9593</ele>
        <time>2010-11-28T14:40:30Z</time>
      </trkpt>
      <trkpt lat="46.29347" lon="-0.19033">
        <ele>109.8579</ele>
        <time>2010-11-28T14:40:31Z</time>
      </trkpt>
      <trkpt lat="46.29346" lon="-0.19032">
        <ele>109.7495</ele>
        <time>2010-11-28T14:40:32Z</time>
      </trkpt>
      <trkpt lat="46.29345" lon="-0.19031">
        <ele>109.6415</ele>
        <time>2010-11-28T14:40:33Z</time>
      </trkpt>
      <trkpt lat="46.29344" lon="-0.1903">
        <ele>109.535</ele>
        <time>2010-11-28T14:40:34Z</time>
      </trkpt>
      <trkpt lat="46.29343" lon="-0.1903">
        <ele>109.429</ele>
        <time>2010-11-28T14:40:35Z</time>
      </trkpt>
      <trkpt lat="46.29342" lon="-0.19029">
        <ele>109.3335</ele>
        <time>2010-11-28T14:40:36Z</time>
      </trkpt>
      <trkpt lat="46.29341" lon="-0.19027">
        <ele>109.2389</ele>
        <time>2010-11-28T14:40:37Z</time>
      </trkpt>
      <trkpt lat="46.2934" lon="-0.19026">
        <ele>109.1446</ele>
        <time>2010-11-28T14:40:38Z</time>
      </trkpt>
      <trkpt lat="46.29339" lon="-0.19025">
        <ele>109.0562</ele>
        <time>2010-11-28T14:40:39Z</time>
      </trkpt>
      <trkpt lat="46.29338" lon="-0.19024">
        <ele>108.9776</ele>
        <time>2010-11-28T14:40:40Z</time>
      </trkpt>
      <trkpt lat="46.29338" lon="-0.19017">
        <ele>108.7317</ele>
        <time>2010-11-28T14:40:55Z</time>
      </trkpt>
      <trkpt lat="46.29334" lon="-0.19022">
        <ele>107.8303</ele>
        <time>2010-11-28T14:41:33Z</time>
      </trkpt>
      <trkpt lat="46.29333" lon="-0.19015">
        <ele>107.915</ele>
        <time>2010-11-28T14:42:04Z</time>
      </trkpt>
      <trkpt lat="46.29329" lon="-0.19012">
        <ele>108.0066</ele>
        <time>2010-11-28T14:42:17Z</time>
      </trkpt>
      <trkpt lat="46.2933" lon="-0.19018">
        <ele>108.1394</ele>
        <time>2010-11-28T14:43:00Z</time>
      </trkpt>
      <trkpt lat="46.2933" lon="-0.19022">
        <ele>108.4425</ele>
        <time>2010-11-28T14:43:21Z</time>
      </trkpt>
      <trkpt lat="46.2933" lon="-0.19023">
        <ele>108.5072</ele>
        <time>2010-11-28T14:43:22Z</time>
      </trkpt>
      <trkpt lat="46.29329" lon="-0.19024">
        <ele>108.569</ele>
        <time>2010-11-28T14:43:23Z</time>
      </trkpt>
      <trkpt lat="46.29329" lon="-0.19025">
        <ele>108.6224</ele>
        <time>2010-11-28T14:43:24Z</time>
      </trkpt>
      <trkpt lat="46.29329" lon="-0.19027">
        <ele>108.6681</ele>
        <time>2010-11-28T14:43:25Z</time>
      </trkpt>
      <trkpt lat="46.29329" lon="-0.19028">
        <ele>108.7089</ele>
        <time>2010-11-28T14:43:26Z</time>
      </trkpt>
      <trkpt lat="46.29329" lon="-0.19029">
        <ele>108.7446</ele>
        <time>2010-11-28T14:43:27Z</time>
      </trkpt>
      <trkpt lat="46.29329" lon="-0.19031">
        <ele>108.7764</ele>
        <time>2010-11-28T14:43:28Z</time>
      </trkpt>
      <trkpt lat="46.29329" lon="-0.19032">
        <ele>108.8059</ele>
        <time>2010-11-28T14:43:29Z</time>
      </trkpt>
      <trkpt lat="46.29329" lon="-0.19033">
        <ele>108.832</ele>
        <time>2010-11-28T14:43:30Z</time>
      </trkpt>
      <trkpt lat="46.29329" lon="-0.19034">
        <ele>108.8538</ele>
        <time>2010-11-28T14:43:31Z</time>
      </trkpt>
      <trkpt lat="46.29329" lon="-0.19035">
        <ele>108.8702</ele>
        <time>2010-11-28T14:43:32Z</time>
      </trkpt>
      <trkpt lat="46.29329" lon="-0.19042">
        <ele>108.7576</ele>
        <time>2010-11-28T14:43:58Z</time>
      </trkpt>
      <trkpt lat="46.29327" lon="-0.19035">
        <ele>107.8803</ele>
        <time>2010-11-28T14:47:57Z</time>
      </trkpt>
      <trkpt lat="46.29326" lon="-0.19037">
        <ele>107.6337</ele>
        <time>2010-11-28T14:48:36Z</time>
      </trkpt>
      <trkpt lat="46.29325" lon="-0.19036">
        <ele>107.6086</ele>
        <time>2010-11-28T14:48:37Z</time>
      </trkpt>
      <trkpt lat="46.29325" lon="-0.19034">
        <ele>107.5736</ele>
        <time>2010-11-28T14:48:38Z</time>
      </trkpt>
      <trkpt lat="46.29324" lon="-0.19033">
        <ele>107.5405</ele>
        <time>2010-11-28T14:48:39Z</time>
      </trkpt>
      <trkpt lat="46.29323" lon="-0.19032">
        <ele>107.5084</ele>
        <time>2010-11-28T14:48:40Z</time>
      </trkpt>
      <trkpt lat="46.29322" lon="-0.19031">
        <ele>107.484</ele>
        <time>2010-11-28T14:48:41Z</time>
      </trkpt>
      <trkpt lat="46.29321" lon="-0.19031">
        <ele>107.4408</ele>
        <time>2010-11-28T14:48:42Z</time>
      </trkpt>
      <trkpt lat="46.2932" lon="-0.1903">
        <ele>107.388</ele>
        <time>2010-11-28T14:48:43Z</time>
      </trkpt>
      <trkpt lat="46.29319" lon="-0.1903">
        <ele>107.351</ele>
        <time>2010-11-28T14:48:44Z</time>
      </trkpt>
      <trkpt lat="46.29318" lon="-0.1903">
        <ele>107.3273</ele>
        <time>2010-11-28T14:48:45Z</time>
      </trkpt>
      <trkpt lat="46.29317" lon="-0.19029">
        <ele>107.3032</ele>
        <time>2010-11-28T14:48:46Z</time>
      </trkpt>
      <trkpt lat="46.29316" lon="-0.19029">
        <ele>107.2784</ele>
        <time>2010-11-28T14:48:47Z</time>
      </trkpt>
      <trkpt lat="46.29315" lon="-0.19028">
        <ele>107.2784</ele>
        <time>2010-11-28T14:48:48Z</time>
      </trkpt>
      <trkpt lat="46.29314" lon="-0.19028">
        <ele>107.2537</ele>
        <time>2010-11-28T14:48:49Z</time>
      </trkpt>
      <trkpt lat="46.29313" lon="-0.19028">
        <ele>107.2544</ele>
        <time>2010-11-28T14:48:50Z</time>
      </trkpt>
      <trkpt lat="46.29311" lon="-0.19027">
        <ele>107.2649</ele>
        <time>2010-11-28T14:48:51Z</time>
      </trkpt>
      <trkpt lat="46.2931" lon="-0.19027">
        <ele>107.2729</ele>
        <time>2010-11-28T14:48:52Z</time>
      </trkpt>
      <trkpt lat="46.2931" lon="-0.19026">
        <ele>107.2817</ele>
        <time>2010-11-28T14:48:53Z</time>
      </trkpt>
      <trkpt lat="46.29308" lon="-0.19026">
        <ele>107.2917</ele>
        <time>2010-11-28T14:48:54Z</time>
      </trkpt>
      <trkpt lat="46.29308" lon="-0.19025">
        <ele>107.2999</ele>
        <time>2010-11-28T14:48:55Z</time>
      </trkpt>
      <trkpt lat="46.29307" lon="-0.19025">
        <ele>107.3088</ele>
        <time>2010-11-28T14:48:56Z</time>
      </trkpt>
      <trkpt lat="46.29306" lon="-0.19024">
        <ele>107.3177</ele>
        <time>2010-11-28T14:48:57Z</time>
      </trkpt>
      <trkpt lat="46.29305" lon="-0.19024">
        <ele>107.3238</ele>
        <time>2010-11-28T14:48:58Z</time>
      </trkpt>
      <trkpt lat="46.29304" lon="-0.19024">
        <ele>107.3274</ele>
        <time>2010-11-28T14:48:59Z</time>
      </trkpt>
      <trkpt lat="46.29303" lon="-0.19024">
        <ele>107.3288</ele>
        <time>2010-11-28T14:49:00Z</time>
      </trkpt>
      <trkpt lat="46.29302" lon="-0.19024">
        <ele>107.3317</ele>
        <time>2010-11-28T14:49:01Z</time>
      </trkpt>
      <trkpt lat="46.29301" lon="-0.19023">
        <ele>107.3402</ele>
        <time>2010-11-28T14:49:02Z</time>
      </trkpt>
      <trkpt lat="46.293" lon="-0.19023">
        <ele>107.3462</ele>
        <time>2010-11-28T14:49:03Z</time>
      </trkpt>
      <trkpt lat="46.29299" lon="-0.19023">
        <ele>107.3491</ele>
        <time>2010-11-28T14:49:04Z</time>
      </trkpt>
      <trkpt lat="46.29298" lon="-0.19022">
        <ele>107.3525</ele>
        <time>2010-11-28T14:49:05Z</time>
      </trkpt>
      <trkpt lat="46.29297" lon="-0.19022">
        <ele>107.3553</ele>
        <time>2010-11-28T14:49:06Z</time>
      </trkpt>
      <trkpt lat="46.29295" lon="-0.19022">
        <ele>107.3688</ele>
        <time>2010-11-28T14:49:07Z</time>
      </trkpt>
      <trkpt lat="46.29294" lon="-0.19022">
        <ele>107.3892</ele>
        <time>2010-11-28T14:49:08Z</time>
      </trkpt>
      <trkpt lat="46.29292" lon="-0.19022">
        <ele>107.4049</ele>
        <time>2010-11-28T14:49:09Z</time>
      </trkpt>
      <trkpt lat="46.29291" lon="-0.19022">
        <ele>107.4176</ele>
        <time>2010-11-28T14:49:10Z</time>
      </trkpt>
      <trkpt lat="46.2929" lon="-0.19021">
        <ele>107.4301</ele>
        <time>2010-11-28T14:49:11Z</time>
      </trkpt>
      <trkpt lat="46.29289" lon="-0.19021">
        <ele>107.441</ele>
        <time>2010-11-28T14:49:12Z</time>
      </trkpt>
      <trkpt lat="46.29287" lon="-0.19021">
        <ele>107.4528</ele>
        <time>2010-11-28T14:49:13Z</time>
      </trkpt>
      <trkpt lat="46.29286" lon="-0.19021">
        <ele>107.4639</ele>
        <time>2010-11-28T14:49:14Z</time>
      </trkpt>
      <trkpt lat="46.29285" lon="-0.19021">
        <ele>107.4735</ele>
        <time>2010-11-28T14:49:15Z</time>
      </trkpt>
      <trkpt lat="46.29284" lon="-0.19021">
        <ele>107.4827</ele>
        <time>2010-11-28T14:49:16Z</time>
      </trkpt>
      <trkpt lat="46.29283" lon="-0.1902">
        <ele>107.4933</ele>
        <time>2010-11-28T14:49:17Z</time>
      </trkpt>
      <trkpt lat="46.29282" lon="-0.1902">
        <ele>107.5027</ele>
        <time>2010-11-28T14:49:18Z</time>
      </trkpt>
      <trkpt lat="46.29281" lon="-0.1902">
        <ele>107.5093</ele>
        <time>2010-11-28T14:49:19Z</time>
      </trkpt>
      <trkpt lat="46.29279" lon="-0.1902">
        <ele>107.5158</ele>
        <time>2010-11-28T14:49:20Z</time>
      </trkpt>
      <trkpt lat="46.29278" lon="-0.1902">
        <ele>107.524</ele>
        <time>2010-11-28T14:49:21Z</time>
      </trkpt>
      <trkpt lat="46.29277" lon="-0.1902">
        <ele>107.5316</ele>
        <time>2010-11-28T14:49:22Z</time>
      </trkpt>
      <trkpt lat="46.29276" lon="-0.1902">
        <ele>107.5427</ele>
        <time>2010-11-28T14:49:23Z</time>
      </trkpt>
      <trkpt lat="46.29275" lon="-0.1902">
        <ele>107.5554</ele>
        <time>2010-11-28T14:49:24Z</time>
      </trkpt>
      <trkpt lat="46.29274" lon="-0.1902">
        <ele>107.5704</ele>
        <time>2010-11-28T14:49:25Z</time>
      </trkpt>
      <trkpt lat="46.29273" lon="-0.1902">
        <ele>107.586</ele>
        <time>2010-11-28T14:49:26Z</time>
      </trkpt>
      <trkpt lat="46.29272" lon="-0.19019">
        <ele>107.6017</ele>
        <time>2010-11-28T14:49:27Z</time>
      </trkpt>
      <trkpt lat="46.29271" lon="-0.19019">
        <ele>107.6156</ele>
        <time>2010-11-28T14:49:28Z</time>
      </trkpt>
      <trkpt lat="46.2927" lon="-0.19019">
        <ele>107.6283</ele>
        <time>2010-11-28T14:49:29Z</time>
      </trkpt>
      <trkpt lat="46.29269" lon="-0.19019">
        <ele>107.6392</ele>
        <time>2010-11-28T14:49:30Z</time>
      </trkpt>
      <trkpt lat="46.29268" lon="-0.19019">
        <ele>107.65</ele>
        <time>2010-11-28T14:49:31Z</time>
      </trkpt>
      <trkpt lat="46.29267" lon="-0.19018">
        <ele>107.65</ele>
        <time>2010-11-28T14:49:32Z</time>
      </trkpt>
      <trkpt lat="46.29266" lon="-0.19019">
        <ele>107.6611</ele>
        <time>2010-11-28T14:49:33Z</time>
      </trkpt>
      <trkpt lat="46.29265" lon="-0.19019">
        <ele>107.6755</ele>
        <time>2010-11-28T14:49:34Z</time>
      </trkpt>
      <trkpt lat="46.29263" lon="-0.19019">
        <ele>107.6997</ele>
        <time>2010-11-28T14:49:35Z</time>
      </trkpt>
      <trkpt lat="46.29262" lon="-0.19019">
        <ele>107.7255</ele>
        <time>2010-11-28T14:49:36Z</time>
      </trkpt>
      <trkpt lat="46.29261" lon="-0.19019">
        <ele>107.7484</ele>
        <time>2010-11-28T14:49:37Z</time>
      </trkpt>
      <trkpt lat="46.29259" lon="-0.19018">
        <ele>107.7796</ele>
        <time>2010-11-28T14:49:38Z</time>
      </trkpt>
      <trkpt lat="46.29258" lon="-0.19017">
        <ele>107.8181</ele>
        <time>2010-11-28T14:49:39Z</time>
      </trkpt>
      <trkpt lat="46.29256" lon="-0.19017">
        <ele>107.85</ele>
        <time>2010-11-28T14:49:40Z</time>
      </trkpt>
      <trkpt lat="46.29255" lon="-0.19016">
        <ele>107.888</ele>
        <time>2010-11-28T14:49:41Z</time>
      </trkpt>
      <trkpt lat="46.29254" lon="-0.19016">
        <ele>107.9239</ele>
        <time>2010-11-28T14:49:42Z</time>
      </trkpt>
      <trkpt lat="46.29253" lon="-0.19015">
        <ele>107.9633</ele>
        <time>2010-11-28T14:49:43Z</time>
      </trkpt>
      <trkpt lat="46.29253" lon="-0.19015">
        <ele>107.997</ele>
        <time>2010-11-28T14:49:44Z</time>
      </trkpt>
      <trkpt lat="46.29252" lon="-0.19015">
        <ele>108.0173</ele>
        <time>2010-11-28T14:49:45Z</time>
      </trkpt>
      <trkpt lat="46.2925" lon="-0.19014">
        <ele>108.0297</ele>
        <time>2010-11-28T14:49:46Z</time>
      </trkpt>
      <trkpt lat="46.29249" lon="-0.19014">
        <ele>108.0402</ele>
        <time>2010-11-28T14:49:47Z</time>
      </trkpt>
      <trkpt lat="46.29248" lon="-0.19014">
        <ele>108.0583</ele>
        <time>2010-11-28T14:49:48Z</time>
      </trkpt>
      <trkpt lat="46.29248" lon="-0.19014">
        <ele>108.0583</ele>
        <time>2010-11-28T14:49:49Z</time>
      </trkpt>
      <trkpt lat="46.29246" lon="-0.19013">
        <ele>107.9693</ele>
        <time>2010-11-28T14:49:50Z</time>
      </trkpt>
      <trkpt lat="46.29245" lon="-0.19013">
        <ele>107.8909</ele>
        <time>2010-11-28T14:49:51Z</time>
      </trkpt>
      <trkpt lat="46.29244" lon="-0.19013">
        <ele>107.8523</ele>
        <time>2010-11-28T14:49:54Z</time>
      </trkpt>
      <trkpt lat="46.29243" lon="-0.19012">
        <ele>107.8354</ele>
        <time>2010-11-28T14:49:55Z</time>
      </trkpt>
      <trkpt lat="46.2924" lon="-0.1901">
        <ele>107.9087</ele>
        <time>2010-11-28T14:49:59Z</time>
      </trkpt>
      <trkpt lat="46.29239" lon="-0.19009">
        <ele>107.91</ele>
        <time>2010-11-28T14:50:00Z</time>
      </trkpt>
      <trkpt lat="46.29238" lon="-0.19009">
        <ele>107.8979</ele>
        <time>2010-11-28T14:50:01Z</time>
      </trkpt>
      <trkpt lat="46.29237" lon="-0.19009">
        <ele>107.8818</ele>
        <time>2010-11-28T14:50:02Z</time>
      </trkpt>
      <trkpt lat="46.29236" lon="-0.19009">
        <ele>107.8581</ele>
        <time>2010-11-28T14:50:03Z</time>
      </trkpt>
      <trkpt lat="46.29234" lon="-0.19008">
        <ele>107.8296</ele>
        <time>2010-11-28T14:50:04Z</time>
      </trkpt>
      <trkpt lat="46.29233" lon="-0.19008">
        <ele>107.7965</ele>
        <time>2010-11-28T14:50:05Z</time>
      </trkpt>
      <trkpt lat="46.29232" lon="-0.19008">
        <ele>107.7668</ele>
        <time>2010-11-28T14:50:06Z</time>
      </trkpt>
      <trkpt lat="46.29231" lon="-0.19007">
        <ele>107.7467</ele>
        <time>2010-11-28T14:50:07Z</time>
      </trkpt>
      <trkpt lat="46.2923" lon="-0.19007">
        <ele>107.72</ele>
        <time>2010-11-28T14:50:08Z</time>
      </trkpt>
      <trkpt lat="46.29229" lon="-0.19006">
        <ele>107.6852</ele>
        <time>2010-11-28T14:50:09Z</time>
      </trkpt>
      <trkpt lat="46.29228" lon="-0.19006">
        <ele>107.6395</ele>
        <time>2010-11-28T14:50:10Z</time>
      </trkpt>
      <trkpt lat="46.29227" lon="-0.19006">
        <ele>107.5842</ele>
        <time>2010-11-28T14:50:11Z</time>
      </trkpt>
      <trkpt lat="46.29226" lon="-0.19005">
        <ele>107.5345</ele>
        <time>2010-11-28T14:50:12Z</time>
      </trkpt>
      <trkpt lat="46.29226" lon="-0.19005">
        <ele>107.4866</ele>
        <time>2010-11-28T14:50:13Z</time>
      </trkpt>
      <trkpt lat="46.29225" lon="-0.19004">
        <ele>107.4413</ele>
        <time>2010-11-28T14:50:14Z</time>
      </trkpt>
      <trkpt lat="46.29224" lon="-0.19004">
        <ele>107.3947</ele>
        <time>2010-11-28T14:50:15Z</time>
      </trkpt>
      <trkpt lat="46.29223" lon="-0.19004">
        <ele>107.3546</ele>
        <time>2010-11-28T14:50:16Z</time>
      </trkpt>
      <trkpt lat="46.29223" lon="-0.19003">
        <ele>107.319</ele>
        <time>2010-11-28T14:50:17Z</time>
      </trkpt>
      <trkpt lat="46.29221" lon="-0.19003">
        <ele>107.2827</ele>
        <time>2010-11-28T14:50:18Z</time>
      </trkpt>
      <trkpt lat="46.29221" lon="-0.19002">
        <ele>107.2433</ele>
        <time>2010-11-28T14:50:19Z</time>
      </trkpt>
      <trkpt lat="46.2922" lon="-0.19002">
        <ele>107.2013</ele>
        <time>2010-11-28T14:50:20Z</time>
      </trkpt>
      <trkpt lat="46.29219" lon="-0.19001">
        <ele>107.1549</ele>
        <time>2010-11-28T14:50:21Z</time>
      </trkpt>
      <trkpt lat="46.29218" lon="-0.19001">
        <ele>107.11</ele>
        <time>2010-11-28T14:50:22Z</time>
      </trkpt>
      <trkpt lat="46.29217" lon="-0.19">
        <ele>107.0631</ele>
        <time>2010-11-28T14:50:23Z</time>
      </trkpt>
      <trkpt lat="46.29216" lon="-0.19">
        <ele>107.0157</ele>
        <time>2010-11-28T14:50:24Z</time>
      </trkpt>
      <trkpt lat="46.29215" lon="-0.18999">
        <ele>106.9677</ele>
        <time>2010-11-28T14:50:25Z</time>
      </trkpt>
      <trkpt lat="46.29214" lon="-0.18998">
        <ele>106.9203</ele>
        <time>2010-11-28T14:50:26Z</time>
      </trkpt>
      <trkpt lat="46.29213" lon="-0.18998">
        <ele>106.8701</ele>
        <time>2010-11-28T14:50:27Z</time>
      </trkpt>
      <trkpt lat="46.29212" lon="-0.18997">
        <ele>106.8162</ele>
        <time>2010-11-28T14:50:28Z</time>
      </trkpt>
      <trkpt lat="46.29211" lon="-0.18997">
        <ele>106.7625</ele>
        <time>2010-11-28T14:50:29Z</time>
      </trkpt>
      <trkpt lat="46.2921" lon="-0.18996">
        <ele>106.7134</ele>
        <time>2010-11-28T14:50:30Z</time>
      </trkpt>
      <trkpt lat="46.2921" lon="-0.18996">
        <ele>106.661</ele>
        <time>2010-11-28T14:50:31Z</time>
      </trkpt>
      <trkpt lat="46.29208" lon="-0.18995">
        <ele>106.5842</ele>
        <time>2010-11-28T14:50:32Z</time>
      </trkpt>
      <trkpt lat="46.29208" lon="-0.18994">
        <ele>106.5024</ele>
        <time>2010-11-28T14:50:33Z</time>
      </trkpt>
      <trkpt lat="46.29207" lon="-0.18993">
        <ele>106.4295</ele>
        <time>2010-11-28T14:50:34Z</time>
      </trkpt>
      <trkpt lat="46.29206" lon="-0.18992">
        <ele>106.3686</ele>
        <time>2010-11-28T14:50:35Z</time>
      </trkpt>
      <trkpt lat="46.29205" lon="-0.18992">
        <ele>106.3013</ele>
        <time>2010-11-28T14:50:36Z</time>
      </trkpt>
      <trkpt lat="46.29204" lon="-0.18991">
        <ele>106.2212</ele>
        <time>2010-11-28T14:50:37Z</time>
      </trkpt>
      <trkpt lat="46.29203" lon="-0.18991">
        <ele>106.1654</ele>
        <time>2010-11-28T14:50:38Z</time>
      </trkpt>
      <trkpt lat="46.29202" lon="-0.1899">
        <ele>106.1654</ele>
        <time>2010-11-28T14:50:39Z</time>
      </trkpt>
      <trkpt lat="46.29201" lon="-0.1899">
        <ele>106.1023</ele>
        <time>2010-11-28T14:50:40Z</time>
      </trkpt>
      <trkpt lat="46.292" lon="-0.1899">
        <ele>106.0471</ele>
        <time>2010-11-28T14:50:41Z</time>
      </trkpt>
      <trkpt lat="46.29199" lon="-0.1899">
        <ele>105.9868</ele>
        <time>2010-11-28T14:50:42Z</time>
      </trkpt>
      <trkpt lat="46.29198" lon="-0.1899">
        <ele>105.9183</ele>
        <time>2010-11-28T14:50:43Z</time>
      </trkpt>
      <trkpt lat="46.29197" lon="-0.1899">
        <ele>105.8601</ele>
        <time>2010-11-28T14:50:44Z</time>
      </trkpt>
      <trkpt lat="46.29196" lon="-0.1899">
        <ele>105.8126</ele>
        <time>2010-11-28T14:50:45Z</time>
      </trkpt>
      <trkpt lat="46.29195" lon="-0.18989">
        <ele>105.772</ele>
        <time>2010-11-28T14:50:46Z</time>
      </trkpt>
      <trkpt lat="46.29194" lon="-0.18989">
        <ele>105.7366</ele>
        <time>2010-11-28T14:50:47Z</time>
      </trkpt>
      <trkpt lat="46.29193" lon="-0.18989">
        <ele>105.7116</ele>
        <time>2010-11-28T14:50:48Z</time>
      </trkpt>
      <trkpt lat="46.29192" lon="-0.18989">
        <ele>105.69</ele>
        <time>2010-11-28T14:50:49Z</time>
      </trkpt>
      <trkpt lat="46.2919" lon="-0.18989">
        <ele>105.6447</ele>
        <time>2010-11-28T14:50:50Z</time>
      </trkpt>
      <trkpt lat="46.29189" lon="-0.18989">
        <ele>105.5968</ele>
        <time>2010-11-28T14:50:51Z</time>
      </trkpt>
      <trkpt lat="46.29188" lon="-0.18989">
        <ele>105.525</ele>
        <time>2010-11-28T14:50:52Z</time>
      </trkpt>
      <trkpt lat="46.29187" lon="-0.18989">
        <ele>105.4483</ele>
        <time>2010-11-28T14:50:53Z</time>
      </trkpt>
      <trkpt lat="46.29185" lon="-0.1899">
        <ele>105.3704</ele>
        <time>2010-11-28T14:50:54Z</time>
      </trkpt>
      <trkpt lat="46.29184" lon="-0.1899">
        <ele>105.295</ele>
        <time>2010-11-28T14:50:55Z</time>
      </trkpt>
      <trkpt lat="46.29183" lon="-0.1899">
        <ele>105.2204</ele>
        <time>2010-11-28T14:50:56Z</time>
      </trkpt>
      <trkpt lat="46.29182" lon="-0.18991">
        <ele>105.1449</ele>
        <time>2010-11-28T14:50:57Z</time>
      </trkpt>
      <trkpt lat="46.29181" lon="-0.18991">
        <ele>105.0694</ele>
        <time>2010-11-28T14:50:58Z</time>
      </trkpt>
      <trkpt lat="46.29181" lon="-0.18992">
        <ele>105.0008</ele>
        <time>2010-11-28T14:50:59Z</time>
      </trkpt>
      <trkpt lat="46.2918" lon="-0.18992">
        <ele>104.9361</ele>
        <time>2010-11-28T14:51:00Z</time>
      </trkpt>
      <trkpt lat="46.29179" lon="-0.18993">
        <ele>104.8733</ele>
        <time>2010-11-28T14:51:01Z</time>
      </trkpt>
      <trkpt lat="46.29178" lon="-0.18993">
        <ele>104.8064</ele>
        <time>2010-11-28T14:51:02Z</time>
      </trkpt>
      <trkpt lat="46.29178" lon="-0.18994">
        <ele>104.7456</ele>
        <time>2010-11-28T14:51:03Z</time>
      </trkpt>
      <trkpt lat="46.29177" lon="-0.18994">
        <ele>104.6858</ele>
        <time>2010-11-28T14:51:04Z</time>
      </trkpt>
      <trkpt lat="46.29176" lon="-0.18995">
        <ele>104.6339</ele>
        <time>2010-11-28T14:51:05Z</time>
      </trkpt>
      <trkpt lat="46.29175" lon="-0.18996">
        <ele>104.584</ele>
        <time>2010-11-28T14:51:06Z</time>
      </trkpt>
      <trkpt lat="46.29174" lon="-0.18997">
        <ele>104.5361</ele>
        <time>2010-11-28T14:51:07Z</time>
      </trkpt>
      <trkpt lat="46.29174" lon="-0.18998">
        <ele>104.4897</ele>
        <time>2010-11-28T14:51:08Z</time>
      </trkpt>
      <trkpt lat="46.29173" lon="-0.19">
        <ele>104.4504</ele>
        <time>2010-11-28T14:51:09Z</time>
      </trkpt>
      <trkpt lat="46.29172" lon="-0.19002">
        <ele>104.4067</ele>
        <time>2010-11-28T14:51:10Z</time>
      </trkpt>
      <trkpt lat="46.29171" lon="-0.19003">
        <ele>104.3624</ele>
        <time>2010-11-28T14:51:11Z</time>
      </trkpt>
      <trkpt lat="46.2917" lon="-0.19004">
        <ele>104.313</ele>
        <time>2010-11-28T14:51:12Z</time>
      </trkpt>
      <trkpt lat="46.2917" lon="-0.19005">
        <ele>104.2603</ele>
        <time>2010-11-28T14:51:13Z</time>
      </trkpt>
      <trkpt lat="46.29169" lon="-0.19007">
        <ele>104.209</ele>
        <time>2010-11-28T14:51:14Z</time>
      </trkpt>
      <trkpt lat="46.29167" lon="-0.19012">
        <ele>104.2503</ele>
        <time>2010-11-28T14:51:19Z</time>
      </trkpt>
      <trkpt lat="46.29166" lon="-0.19013">
        <ele>104.2614</ele>
        <time>2010-11-28T14:51:20Z</time>
      </trkpt>
      <trkpt lat="46.29165" lon="-0.19015">
        <ele>104.2696</ele>
        <time>2010-11-28T14:51:21Z</time>
      </trkpt>
      <trkpt lat="46.29165" lon="-0.19016">
        <ele>104.275</ele>
        <time>2010-11-28T14:51:22Z</time>
      </trkpt>
      <trkpt lat="46.29164" lon="-0.19017">
        <ele>104.28</ele>
        <time>2010-11-28T14:51:23Z</time>
      </trkpt>
      <trkpt lat="46.29164" lon="-0.19018">
        <ele>104.2845</ele>
        <time>2010-11-28T14:51:24Z</time>
      </trkpt>
      <trkpt lat="46.29164" lon="-0.19018">
        <ele>104.2874</ele>
        <time>2010-11-28T14:51:25Z</time>
      </trkpt>
      <trkpt lat="46.29163" lon="-0.19022">
        <ele>104.4059</ele>
        <time>2010-11-28T14:51:33Z</time>
      </trkpt>
      <trkpt lat="46.29162" lon="-0.19022">
        <ele>104.48</ele>
        <time>2010-11-28T14:51:34Z</time>
      </trkpt>
      <trkpt lat="46.29161" lon="-0.19022">
        <ele>104.5537</ele>
        <time>2010-11-28T14:51:35Z</time>
      </trkpt>
      <trkpt lat="46.2916" lon="-0.19022">
        <ele>104.6215</ele>
        <time>2010-11-28T14:51:36Z</time>
      </trkpt>
      <trkpt lat="46.29159" lon="-0.19022">
        <ele>104.6804</ele>
        <time>2010-11-28T14:51:37Z</time>
      </trkpt>
      <trkpt lat="46.29158" lon="-0.19022">
        <ele>104.7373</ele>
        <time>2010-11-28T14:51:38Z</time>
      </trkpt>
      <trkpt lat="46.29158" lon="-0.19021">
        <ele>104.7921</ele>
        <time>2010-11-28T14:51:39Z</time>
      </trkpt>
      <trkpt lat="46.29157" lon="-0.19021">
        <ele>104.8437</ele>
        <time>2010-11-28T14:51:40Z</time>
      </trkpt>
      <trkpt lat="46.29157" lon="-0.19021">
        <ele>104.8917</ele>
        <time>2010-11-28T14:51:41Z</time>
      </trkpt>
      <trkpt lat="46.29156" lon="-0.19021">
        <ele>104.9287</ele>
        <time>2010-11-28T14:51:42Z</time>
      </trkpt>
      <trkpt lat="46.29155" lon="-0.1902">
        <ele>104.9603</ele>
        <time>2010-11-28T14:51:43Z</time>
      </trkpt>
      <trkpt lat="46.29155" lon="-0.1902">
        <ele>104.9913</ele>
        <time>2010-11-28T14:51:44Z</time>
      </trkpt>
      <trkpt lat="46.29154" lon="-0.1902">
        <ele>105.0216</ele>
        <time>2010-11-28T14:51:45Z</time>
      </trkpt>
      <trkpt lat="46.29153" lon="-0.19019">
        <ele>105.0616</ele>
        <time>2010-11-28T14:51:46Z</time>
      </trkpt>
      <trkpt lat="46.29152" lon="-0.19019">
        <ele>105.1293</ele>
        <time>2010-11-28T14:51:47Z</time>
      </trkpt>
      <trkpt lat="46.29151" lon="-0.19019">
        <ele>105.2108</ele>
        <time>2010-11-28T14:51:48Z</time>
      </trkpt>
      <trkpt lat="46.2915" lon="-0.19018">
        <ele>105.305</ele>
        <time>2010-11-28T14:51:49Z</time>
      </trkpt>
      <trkpt lat="46.29149" lon="-0.19018">
        <ele>105.399</ele>
        <time>2010-11-28T14:51:50Z</time>
      </trkpt>
      <trkpt lat="46.29147" lon="-0.19017">
        <ele>105.4969</ele>
        <time>2010-11-28T14:51:51Z</time>
      </trkpt>
      <trkpt lat="46.29145" lon="-0.19017">
        <ele>105.5836</ele>
        <time>2010-11-28T14:51:52Z</time>
      </trkpt>
      <trkpt lat="46.29144" lon="-0.19016">
        <ele>105.6548</ele>
        <time>2010-11-28T14:51:53Z</time>
      </trkpt>
      <trkpt lat="46.29142" lon="-0.19015">
        <ele>105.7254</ele>
        <time>2010-11-28T14:51:54Z</time>
      </trkpt>
      <trkpt lat="46.29141" lon="-0.19014">
        <ele>105.7747</ele>
        <time>2010-11-28T14:51:55Z</time>
      </trkpt>
      <trkpt lat="46.29139" lon="-0.19013">
        <ele>105.8321</ele>
        <time>2010-11-28T14:51:56Z</time>
      </trkpt>
      <trkpt lat="46.29138" lon="-0.19012">
        <ele>105.8981</ele>
        <time>2010-11-28T14:51:57Z</time>
      </trkpt>
      <trkpt lat="46.29137" lon="-0.19011">
        <ele>105.974</ele>
        <time>2010-11-28T14:51:58Z</time>
      </trkpt>
      <trkpt lat="46.29136" lon="-0.1901">
        <ele>106.0517</ele>
        <time>2010-11-28T14:51:59Z</time>
      </trkpt>
      <trkpt lat="46.29134" lon="-0.1901">
        <ele>106.124</ele>
        <time>2010-11-28T14:52:00Z</time>
      </trkpt>
      <trkpt lat="46.29133" lon="-0.19009">
        <ele>106.1926</ele>
        <time>2010-11-28T14:52:01Z</time>
      </trkpt>
      <trkpt lat="46.29132" lon="-0.19008">
        <ele>106.2555</ele>
        <time>2010-11-28T14:52:02Z</time>
      </trkpt>
      <trkpt lat="46.29131" lon="-0.19007">
        <ele>106.3131</ele>
        <time>2010-11-28T14:52:03Z</time>
      </trkpt>
      <trkpt lat="46.2913" lon="-0.19007">
        <ele>106.3688</ele>
        <time>2010-11-28T14:52:04Z</time>
      </trkpt>
      <trkpt lat="46.29129" lon="-0.19006">
        <ele>106.4206</ele>
        <time>2010-11-28T14:52:05Z</time>
      </trkpt>
      <trkpt lat="46.29128" lon="-0.19005">
        <ele>106.4649</ele>
        <time>2010-11-28T14:52:06Z</time>
      </trkpt>
      <trkpt lat="46.29127" lon="-0.19005">
        <ele>106.5123</ele>
        <time>2010-11-28T14:52:07Z</time>
      </trkpt>
      <trkpt lat="46.29126" lon="-0.19004">
        <ele>106.5519</ele>
        <time>2010-11-28T14:52:08Z</time>
      </trkpt>
      <trkpt lat="46.29125" lon="-0.19004">
        <ele>106.5949</ele>
        <time>2010-11-28T14:52:09Z</time>
      </trkpt>
      <trkpt lat="46.29125" lon="-0.19003">
        <ele>106.6154</ele>
        <time>2010-11-28T14:52:10Z</time>
      </trkpt>
      <trkpt lat="46.29123" lon="-0.19002">
        <ele>106.6147</ele>
        <time>2010-11-28T14:52:11Z</time>
      </trkpt>
      <trkpt lat="46.29123" lon="-0.19002">
        <ele>106.6128</ele>
        <time>2010-11-28T14:52:12Z</time>
      </trkpt>
      <trkpt lat="46.29121" lon="-0.19001">
        <ele>106.6214</ele>
        <time>2010-11-28T14:52:13Z</time>
      </trkpt>
      <trkpt lat="46.2912" lon="-0.19">
        <ele>106.6315</ele>
        <time>2010-11-28T14:52:14Z</time>
      </trkpt>
      <trkpt lat="46.2912" lon="-0.19">
        <ele>106.6467</ele>
        <time>2010-11-28T14:52:15Z</time>
      </trkpt>
      <trkpt lat="46.29118" lon="-0.19">
        <ele>106.6526</ele>
        <time>2010-11-28T14:52:16Z</time>
      </trkpt>
      <trkpt lat="46.29117" lon="-0.18999">
        <ele>106.5998</ele>
        <time>2010-11-28T14:52:17Z</time>
      </trkpt>
      <trkpt lat="46.29116" lon="-0.18998">
        <ele>106.5498</ele>
        <time>2010-11-28T14:52:18Z</time>
      </trkpt>
      <trkpt lat="46.29114" lon="-0.18997">
        <ele>106.5062</ele>
        <time>2010-11-28T14:52:19Z</time>
      </trkpt>
      <trkpt lat="46.29113" lon="-0.18996">
        <ele>106.4752</ele>
        <time>2010-11-28T14:52:20Z</time>
      </trkpt>
      <trkpt lat="46.29112" lon="-0.18995">
        <ele>106.456</ele>
        <time>2010-11-28T14:52:21Z</time>
      </trkpt>
      <trkpt lat="46.29111" lon="-0.18994">
        <ele>106.4518</ele>
        <time>2010-11-28T14:52:22Z</time>
      </trkpt>
      <trkpt lat="46.2911" lon="-0.18994">
        <ele>106.4577</ele>
        <time>2010-11-28T14:52:23Z</time>
      </trkpt>
      <trkpt lat="46.29109" lon="-0.18993">
        <ele>106.48</ele>
        <time>2010-11-28T14:52:24Z</time>
      </trkpt>
      <trkpt lat="46.29108" lon="-0.18992">
        <ele>106.5113</ele>
        <time>2010-11-28T14:52:25Z</time>
      </trkpt>
      <trkpt lat="46.29107" lon="-0.18992">
        <ele>106.547</ele>
        <time>2010-11-28T14:52:26Z</time>
      </trkpt>
      <trkpt lat="46.29107" lon="-0.18991">
        <ele>106.588</ele>
        <time>2010-11-28T14:52:27Z</time>
      </trkpt>
      <trkpt lat="46.29106" lon="-0.1899">
        <ele>106.6384</ele>
        <time>2010-11-28T14:52:28Z</time>
      </trkpt>
      <trkpt lat="46.29105" lon="-0.18989">
        <ele>106.691</ele>
        <time>2010-11-28T14:52:29Z</time>
      </trkpt>
      <trkpt lat="46.29104" lon="-0.18989">
        <ele>106.7485</ele>
        <time>2010-11-28T14:52:30Z</time>
      </trkpt>
      <trkpt lat="46.29103" lon="-0.18988">
        <ele>106.8168</ele>
        <time>2010-11-28T14:52:31Z</time>
      </trkpt>
      <trkpt lat="46.29102" lon="-0.18987">
        <ele>106.8948</ele>
        <time>2010-11-28T14:52:32Z</time>
      </trkpt>
      <trkpt lat="46.29101" lon="-0.18987">
        <ele>106.9732</ele>
        <time>2010-11-28T14:52:33Z</time>
      </trkpt>
      <trkpt lat="46.291" lon="-0.18986">
        <ele>107.0544</ele>
        <time>2010-11-28T14:52:34Z</time>
      </trkpt>
      <trkpt lat="46.291" lon="-0.18985">
        <ele>107.1383</ele>
        <time>2010-11-28T14:52:35Z</time>
      </trkpt>
      <trkpt lat="46.29099" lon="-0.18984">
        <ele>107.2257</ele>
        <time>2010-11-28T14:52:36Z</time>
      </trkpt>
      <trkpt lat="46.29098" lon="-0.18984">
        <ele>107.3166</ele>
        <time>2010-11-28T14:52:37Z</time>
      </trkpt>
      <trkpt lat="46.29097" lon="-0.18983">
        <ele>107.4065</ele>
        <time>2010-11-28T14:52:38Z</time>
      </trkpt>
      <trkpt lat="46.29097" lon="-0.18982">
        <ele>107.4987</ele>
        <time>2010-11-28T14:52:39Z</time>
      </trkpt>
      <trkpt lat="46.29096" lon="-0.18981">
        <ele>107.5991</ele>
        <time>2010-11-28T14:52:40Z</time>
      </trkpt>
      <trkpt lat="46.29096" lon="-0.18981">
        <ele>107.7021</ele>
        <time>2010-11-28T14:52:41Z</time>
      </trkpt>
      <trkpt lat="46.29095" lon="-0.1898">
        <ele>107.8043</ele>
        <time>2010-11-28T14:52:42Z</time>
      </trkpt>
      <trkpt lat="46.29094" lon="-0.1898">
        <ele>107.9117</ele>
        <time>2010-11-28T14:52:43Z</time>
      </trkpt>
      <trkpt lat="46.29094" lon="-0.18979">
        <ele>108.0192</ele>
        <time>2010-11-28T14:52:44Z</time>
      </trkpt>
      <trkpt lat="46.29093" lon="-0.18979">
        <ele>108.1242</ele>
        <time>2010-11-28T14:52:45Z</time>
      </trkpt>
      <trkpt lat="46.29092" lon="-0.18978">
        <ele>108.2253</ele>
        <time>2010-11-28T14:52:46Z</time>
      </trkpt>
      <trkpt lat="46.29091" lon="-0.18978">
        <ele>108.3267</ele>
        <time>2010-11-28T14:52:47Z</time>
      </trkpt>
      <trkpt lat="46.29091" lon="-0.18977">
        <ele>108.4273</ele>
        <time>2010-11-28T14:52:48Z</time>
      </trkpt>
      <trkpt lat="46.2909" lon="-0.18976">
        <ele>108.5364</ele>
        <time>2010-11-28T14:52:49Z</time>
      </trkpt>
      <trkpt lat="46.29089" lon="-0.18975">
        <ele>108.6506</ele>
        <time>2010-11-28T14:52:50Z</time>
      </trkpt>
      <trkpt lat="46.29088" lon="-0.18974">
        <ele>108.7662</ele>
        <time>2010-11-28T14:52:51Z</time>
      </trkpt>
      <trkpt lat="46.29087" lon="-0.18974">
        <ele>108.8772</ele>
        <time>2010-11-28T14:52:52Z</time>
      </trkpt>
      <trkpt lat="46.29087" lon="-0.18973">
        <ele>108.9768</ele>
        <time>2010-11-28T14:52:53Z</time>
      </trkpt>
      <trkpt lat="46.29086" lon="-0.18972">
        <ele>109.068</ele>
        <time>2010-11-28T14:52:54Z</time>
      </trkpt>
      <trkpt lat="46.29085" lon="-0.18971">
        <ele>109.153</ele>
        <time>2010-11-28T14:52:55Z</time>
      </trkpt>
      <trkpt lat="46.29084" lon="-0.1897">
        <ele>109.2318</ele>
        <time>2010-11-28T14:52:56Z</time>
      </trkpt>
      <trkpt lat="46.29083" lon="-0.18969">
        <ele>109.3131</ele>
        <time>2010-11-28T14:52:57Z</time>
      </trkpt>
      <trkpt lat="46.29083" lon="-0.18968">
        <ele>109.3911</ele>
        <time>2010-11-28T14:52:58Z</time>
      </trkpt>
      <trkpt lat="46.29082" lon="-0.18966">
        <ele>109.4595</ele>
        <time>2010-11-28T14:52:59Z</time>
      </trkpt>
      <trkpt lat="46.29081" lon="-0.18965">
        <ele>109.5221</ele>
        <time>2010-11-28T14:53:00Z</time>
      </trkpt>
      <trkpt lat="46.2908" lon="-0.18964">
        <ele>109.5799</ele>
        <time>2010-11-28T14:53:01Z</time>
      </trkpt>
      <trkpt lat="46.29079" lon="-0.18963">
        <ele>109.6314</ele>
        <time>2010-11-28T14:53:02Z</time>
      </trkpt>
      <trkpt lat="46.29078" lon="-0.18962">
        <ele>109.6778</ele>
        <time>2010-11-28T14:53:03Z</time>
      </trkpt>
      <trkpt lat="46.29076" lon="-0.18961">
        <ele>109.7195</ele>
        <time>2010-11-28T14:53:04Z</time>
      </trkpt>
      <trkpt lat="46.29075" lon="-0.1896">
        <ele>109.7592</ele>
        <time>2010-11-28T14:53:05Z</time>
      </trkpt>
      <trkpt lat="46.29074" lon="-0.18959">
        <ele>109.7963</ele>
        <time>2010-11-28T14:53:06Z</time>
      </trkpt>
      <trkpt lat="46.29073" lon="-0.18958">
        <ele>109.8319</ele>
        <time>2010-11-28T14:53:07Z</time>
      </trkpt>
      <trkpt lat="46.29072" lon="-0.18957">
        <ele>109.8641</ele>
        <time>2010-11-28T14:53:08Z</time>
      </trkpt>
      <trkpt lat="46.29071" lon="-0.18957">
        <ele>109.8915</ele>
        <time>2010-11-28T14:53:09Z</time>
      </trkpt>
      <trkpt lat="46.2907" lon="-0.18956">
        <ele>109.9141</ele>
        <time>2010-11-28T14:53:10Z</time>
      </trkpt>
      <trkpt lat="46.29069" lon="-0.18955">
        <ele>109.936</ele>
        <time>2010-11-28T14:53:11Z</time>
      </trkpt>
      <trkpt lat="46.29068" lon="-0.18954">
        <ele>109.9545</ele>
        <time>2010-11-28T14:53:12Z</time>
      </trkpt>
      <trkpt lat="46.29067" lon="-0.18954">
        <ele>109.9713</ele>
        <time>2010-11-28T14:53:13Z</time>
      </trkpt>
      <trkpt lat="46.29065" lon="-0.18953">
        <ele>109.9872</ele>
        <time>2010-11-28T14:53:14Z</time>
      </trkpt>
      <trkpt lat="46.29064" lon="-0.18952">
        <ele>110.0016</ele>
        <time>2010-11-28T14:53:15Z</time>
      </trkpt>
      <trkpt lat="46.29063" lon="-0.18952">
        <ele>110.0141</ele>
        <time>2010-11-28T14:53:16Z</time>
      </trkpt>
      <trkpt lat="46.29062" lon="-0.18951">
        <ele>110.0259</ele>
        <time>2010-11-28T14:53:17Z</time>
      </trkpt>
      <trkpt lat="46.29062" lon="-0.18951">
        <ele>110.0377</ele>
        <time>2010-11-28T14:53:18Z</time>
      </trkpt>
      <trkpt lat="46.2906" lon="-0.1895">
        <ele>110.0491</ele>
        <time>2010-11-28T14:53:19Z</time>
      </trkpt>
      <trkpt lat="46.2906" lon="-0.1895">
        <ele>110.0601</ele>
        <time>2010-11-28T14:53:20Z</time>
      </trkpt>
      <trkpt lat="46.29059" lon="-0.18949">
        <ele>110.0746</ele>
        <time>2010-11-28T14:53:21Z</time>
      </trkpt>
      <trkpt lat="46.29058" lon="-0.18949">
        <ele>110.0877</ele>
        <time>2010-11-28T14:53:22Z</time>
      </trkpt>
      <trkpt lat="46.29057" lon="-0.18949">
        <ele>110.0877</ele>
        <time>2010-11-28T14:53:23Z</time>
      </trkpt>
      <trkpt lat="46.29055" lon="-0.18949">
        <ele>110.0999</ele>
        <time>2010-11-28T14:53:24Z</time>
      </trkpt>
      <trkpt lat="46.29054" lon="-0.18949">
        <ele>110.1072</ele>
        <time>2010-11-28T14:53:25Z</time>
      </trkpt>
      <trkpt lat="46.29054" lon="-0.18949">
        <ele>110.1151</ele>
        <time>2010-11-28T14:53:26Z</time>
      </trkpt>
      <trkpt lat="46.29053" lon="-0.18948">
        <ele>110.1198</ele>
        <time>2010-11-28T14:53:27Z</time>
      </trkpt>
      <trkpt lat="46.29052" lon="-0.18948">
        <ele>110.1201</ele>
        <time>2010-11-28T14:53:28Z</time>
      </trkpt>
      <trkpt lat="46.29052" lon="-0.18947">
        <ele>110.117</ele>
        <time>2010-11-28T14:53:29Z</time>
      </trkpt>
      <trkpt lat="46.29051" lon="-0.18947">
        <ele>110.1141</ele>
        <time>2010-11-28T14:53:30Z</time>
      </trkpt>
      <trkpt lat="46.2905" lon="-0.18947">
        <ele>110.1098</ele>
        <time>2010-11-28T14:53:31Z</time>
      </trkpt>
      <trkpt lat="46.29049" lon="-0.18947">
        <ele>110.1024</ele>
        <time>2010-11-28T14:53:32Z</time>
      </trkpt>
      <trkpt lat="46.29048" lon="-0.18947">
        <ele>110.1007</ele>
        <time>2010-11-28T14:53:33Z</time>
      </trkpt>
      <trkpt lat="46.29047" lon="-0.18947">
        <ele>110.1043</ele>
        <time>2010-11-28T14:53:34Z</time>
      </trkpt>
      <trkpt lat="46.29046" lon="-0.18946">
        <ele>110.1084</ele>
        <time>2010-11-28T14:53:35Z</time>
      </trkpt>
      <trkpt lat="46.29045" lon="-0.18946">
        <ele>110.1178</ele>
        <time>2010-11-28T14:53:36Z</time>
      </trkpt>
      <trkpt lat="46.29044" lon="-0.18946">
        <ele>110.1269</ele>
        <time>2010-11-28T14:53:37Z</time>
      </trkpt>
      <trkpt lat="46.29042" lon="-0.18946">
        <ele>110.1379</ele>
        <time>2010-11-28T14:53:38Z</time>
      </trkpt>
      <trkpt lat="46.29041" lon="-0.18946">
        <ele>110.1507</ele>
        <time>2010-11-28T14:53:39Z</time>
      </trkpt>
      <trkpt lat="46.2904" lon="-0.18946">
        <ele>110.1675</ele>
        <time>2010-11-28T14:53:40Z</time>
      </trkpt>
      <trkpt lat="46.29039" lon="-0.18946">
        <ele>110.1888</ele>
        <time>2010-11-28T14:53:41Z</time>
      </trkpt>
      <trkpt lat="46.29038" lon="-0.18946">
        <ele>110.2126</ele>
        <time>2010-11-28T14:53:42Z</time>
      </trkpt>
      <trkpt lat="46.29036" lon="-0.18946">
        <ele>110.238</ele>
        <time>2010-11-28T14:53:43Z</time>
      </trkpt>
      <trkpt lat="46.29035" lon="-0.18946">
        <ele>110.2709</ele>
        <time>2010-11-28T14:53:44Z</time>
      </trkpt>
      <trkpt lat="46.29034" lon="-0.18945">
        <ele>110.3085</ele>
        <time>2010-11-28T14:53:45Z</time>
      </trkpt>
      <trkpt lat="46.29033" lon="-0.18946">
        <ele>110.3505</ele>
        <time>2010-11-28T14:53:46Z</time>
      </trkpt>
      <trkpt lat="46.29032" lon="-0.18946">
        <ele>110.3913</ele>
        <time>2010-11-28T14:53:47Z</time>
      </trkpt>
      <trkpt lat="46.29031" lon="-0.18946">
        <ele>110.4342</ele>
        <time>2010-11-28T14:53:48Z</time>
      </trkpt>
      <trkpt lat="46.2903" lon="-0.18946">
        <ele>110.4783</ele>
        <time>2010-11-28T14:53:49Z</time>
      </trkpt>
      <trkpt lat="46.29028" lon="-0.18946">
        <ele>110.5219</ele>
        <time>2010-11-28T14:53:50Z</time>
      </trkpt>
      <trkpt lat="46.29027" lon="-0.18946">
        <ele>110.5655</ele>
        <time>2010-11-28T14:53:51Z</time>
      </trkpt>
      <trkpt lat="46.29026" lon="-0.18946">
        <ele>110.6057</ele>
        <time>2010-11-28T14:53:52Z</time>
      </trkpt>
      <trkpt lat="46.29025" lon="-0.18947">
        <ele>110.6431</ele>
        <time>2010-11-28T14:53:53Z</time>
      </trkpt>
      <trkpt lat="46.29024" lon="-0.18947">
        <ele>110.6802</ele>
        <time>2010-11-28T14:53:54Z</time>
      </trkpt>
      <trkpt lat="46.29023" lon="-0.18947">
        <ele>110.7208</ele>
        <time>2010-11-28T14:53:55Z</time>
      </trkpt>
      <trkpt lat="46.29023" lon="-0.18948">
        <ele>110.7208</ele>
        <time>2010-11-28T14:53:56Z</time>
      </trkpt>
      <trkpt lat="46.29022" lon="-0.18948">
        <ele>110.7184</ele>
        <time>2010-11-28T14:54:02Z</time>
      </trkpt>
      <trkpt lat="46.29021" lon="-0.18948">
        <ele>110.7022</ele>
        <time>2010-11-28T14:54:03Z</time>
      </trkpt>
      <trkpt lat="46.2902" lon="-0.18948">
        <ele>110.6863</ele>
        <time>2010-11-28T14:54:04Z</time>
      </trkpt>
      <trkpt lat="46.29019" lon="-0.18948">
        <ele>110.6759</ele>
        <time>2010-11-28T14:54:05Z</time>
      </trkpt>
      <trkpt lat="46.29018" lon="-0.18948">
        <ele>110.671</ele>
        <time>2010-11-28T14:54:06Z</time>
      </trkpt>
      <trkpt lat="46.29017" lon="-0.18949">
        <ele>110.6736</ele>
        <time>2010-11-28T14:54:07Z</time>
      </trkpt>
      <trkpt lat="46.29016" lon="-0.18949">
        <ele>110.6806</ele>
        <time>2010-11-28T14:54:08Z</time>
      </trkpt>
      <trkpt lat="46.29015" lon="-0.1895">
        <ele>110.6902</ele>
        <time>2010-11-28T14:54:09Z</time>
      </trkpt>
      <trkpt lat="46.29014" lon="-0.1895">
        <ele>110.7033</ele>
        <time>2010-11-28T14:54:10Z</time>
      </trkpt>
      <trkpt lat="46.29013" lon="-0.1895">
        <ele>110.7195</ele>
        <time>2010-11-28T14:54:11Z</time>
      </trkpt>
      <trkpt lat="46.29012" lon="-0.1895">
        <ele>110.7375</ele>
        <time>2010-11-28T14:54:12Z</time>
      </trkpt>
      <trkpt lat="46.29011" lon="-0.1895">
        <ele>110.7568</ele>
        <time>2010-11-28T14:54:13Z</time>
      </trkpt>
      <trkpt lat="46.2901" lon="-0.18951">
        <ele>110.7773</ele>
        <time>2010-11-28T14:54:14Z</time>
      </trkpt>
      <trkpt lat="46.29009" lon="-0.18951">
        <ele>110.796</ele>
        <time>2010-11-28T14:54:15Z</time>
      </trkpt>
      <trkpt lat="46.29008" lon="-0.18951">
        <ele>110.8162</ele>
        <time>2010-11-28T14:54:16Z</time>
      </trkpt>
      <trkpt lat="46.29007" lon="-0.18951">
        <ele>110.8387</ele>
        <time>2010-11-28T14:54:17Z</time>
      </trkpt>
      <trkpt lat="46.29006" lon="-0.18951">
        <ele>110.8593</ele>
        <time>2010-11-28T14:54:18Z</time>
      </trkpt>
      <trkpt lat="46.29005" lon="-0.18951">
        <ele>110.8714</ele>
        <time>2010-11-28T14:54:19Z</time>
      </trkpt>
      <trkpt lat="46.29004" lon="-0.18951">
        <ele>110.8806</ele>
        <time>2010-11-28T14:54:20Z</time>
      </trkpt>
      <trkpt lat="46.29002" lon="-0.18952">
        <ele>110.814</ele>
        <time>2010-11-28T14:54:25Z</time>
      </trkpt>
      <trkpt lat="46.29001" lon="-0.18952">
        <ele>110.8038</ele>
        <time>2010-11-28T14:54:26Z</time>
      </trkpt>
      <trkpt lat="46.29" lon="-0.18953">
        <ele>110.798</ele>
        <time>2010-11-28T14:54:27Z</time>
      </trkpt>
      <trkpt lat="46.28999" lon="-0.18954">
        <ele>110.8027</ele>
        <time>2010-11-28T14:54:28Z</time>
      </trkpt>
      <trkpt lat="46.28997" lon="-0.18955">
        <ele>110.8201</ele>
        <time>2010-11-28T14:54:29Z</time>
      </trkpt>
      <trkpt lat="46.28996" lon="-0.18955">
        <ele>110.8593</ele>
        <time>2010-11-28T14:54:30Z</time>
      </trkpt>
      <trkpt lat="46.28995" lon="-0.18956">
        <ele>110.9172</ele>
        <time>2010-11-28T14:54:31Z</time>
      </trkpt>
      <trkpt lat="46.28994" lon="-0.18956">
        <ele>110.9753</ele>
        <time>2010-11-28T14:54:32Z</time>
      </trkpt>
      <trkpt lat="46.28992" lon="-0.18957">
        <ele>111.0519</ele>
        <time>2010-11-28T14:54:33Z</time>
      </trkpt>
      <trkpt lat="46.28991" lon="-0.18957">
        <ele>111.145</ele>
        <time>2010-11-28T14:54:34Z</time>
      </trkpt>
      <trkpt lat="46.28989" lon="-0.18958">
        <ele>111.2535</ele>
        <time>2010-11-28T14:54:35Z</time>
      </trkpt>
      <trkpt lat="46.28988" lon="-0.18958">
        <ele>111.3591</ele>
        <time>2010-11-28T14:54:36Z</time>
      </trkpt>
      <trkpt lat="46.28986" lon="-0.18958">
        <ele>111.464</ele>
        <time>2010-11-28T14:54:37Z</time>
      </trkpt>
      <trkpt lat="46.28986" lon="-0.18959">
        <ele>111.5664</ele>
        <time>2010-11-28T14:54:38Z</time>
      </trkpt>
      <trkpt lat="46.28984" lon="-0.18959">
        <ele>111.67</ele>
        <time>2010-11-28T14:54:39Z</time>
      </trkpt>
      <trkpt lat="46.28983" lon="-0.1896">
        <ele>111.7688</ele>
        <time>2010-11-28T14:54:40Z</time>
      </trkpt>
      <trkpt lat="46.28982" lon="-0.1896">
        <ele>111.8635</ele>
        <time>2010-11-28T14:54:41Z</time>
      </trkpt>
      <trkpt lat="46.28981" lon="-0.1896">
        <ele>111.9538</ele>
        <time>2010-11-28T14:54:42Z</time>
      </trkpt>
      <trkpt lat="46.2898" lon="-0.18961">
        <ele>112.0418</ele>
        <time>2010-11-28T14:54:43Z</time>
      </trkpt>
      <trkpt lat="46.28979" lon="-0.18961">
        <ele>112.1275</ele>
        <time>2010-11-28T14:54:44Z</time>
      </trkpt>
      <trkpt lat="46.28978" lon="-0.18962">
        <ele>112.2109</ele>
        <time>2010-11-28T14:54:45Z</time>
      </trkpt>
      <trkpt lat="46.28977" lon="-0.18962">
        <ele>112.2869</ele>
        <time>2010-11-28T14:54:46Z</time>
      </trkpt>
      <trkpt lat="46.28976" lon="-0.18963">
        <ele>112.3568</ele>
        <time>2010-11-28T14:54:47Z</time>
      </trkpt>
      <trkpt lat="46.28975" lon="-0.18963">
        <ele>112.4214</ele>
        <time>2010-11-28T14:54:48Z</time>
      </trkpt>
      <trkpt lat="46.28973" lon="-0.18963">
        <ele>112.4851</ele>
        <time>2010-11-28T14:54:49Z</time>
      </trkpt>
      <trkpt lat="46.28972" lon="-0.18964">
        <ele>112.5473</ele>
        <time>2010-11-28T14:54:50Z</time>
      </trkpt>
      <trkpt lat="46.28971" lon="-0.18964">
        <ele>112.6074</ele>
        <time>2010-11-28T14:54:51Z</time>
      </trkpt>
      <trkpt lat="46.2897" lon="-0.18964">
        <ele>112.6666</ele>
        <time>2010-11-28T14:54:52Z</time>
      </trkpt>
      <trkpt lat="46.28969" lon="-0.18965">
        <ele>112.7242</ele>
        <time>2010-11-28T14:54:53Z</time>
      </trkpt>
      <trkpt lat="46.28968" lon="-0.18965">
        <ele>112.7813</ele>
        <time>2010-11-28T14:54:54Z</time>
      </trkpt>
      <trkpt lat="46.28968" lon="-0.18966">
        <ele>112.8443</ele>
        <time>2010-11-28T14:54:55Z</time>
      </trkpt>
      <trkpt lat="46.28967" lon="-0.18967">
        <ele>112.9171</ele>
        <time>2010-11-28T14:54:56Z</time>
      </trkpt>
      <trkpt lat="46.28966" lon="-0.18968">
        <ele>112.9952</ele>
        <time>2010-11-28T14:54:57Z</time>
      </trkpt>
      <trkpt lat="46.28965" lon="-0.18969">
        <ele>113.0787</ele>
        <time>2010-11-28T14:54:58Z</time>
      </trkpt>
      <trkpt lat="46.28964" lon="-0.1897">
        <ele>113.168</ele>
        <time>2010-11-28T14:54:59Z</time>
      </trkpt>
      <trkpt lat="46.28963" lon="-0.18973">
        <ele>113.4235</ele>
        <time>2010-11-28T14:55:04Z</time>
      </trkpt>
      <trkpt lat="46.28962" lon="-0.18974">
        <ele>113.5312</ele>
        <time>2010-11-28T14:55:05Z</time>
      </trkpt>
      <trkpt lat="46.28961" lon="-0.18975">
        <ele>113.635</ele>
        <time>2010-11-28T14:55:06Z</time>
      </trkpt>
      <trkpt lat="46.2896" lon="-0.18976">
        <ele>113.7385</ele>
        <time>2010-11-28T14:55:07Z</time>
      </trkpt>
      <trkpt lat="46.2896" lon="-0.18977">
        <ele>113.8351</ele>
        <time>2010-11-28T14:55:08Z</time>
      </trkpt>
      <trkpt lat="46.28959" lon="-0.18978">
        <ele>113.9184</ele>
        <time>2010-11-28T14:55:09Z</time>
      </trkpt>
      <trkpt lat="46.28959" lon="-0.18979">
        <ele>113.9907</ele>
        <time>2010-11-28T14:55:10Z</time>
      </trkpt>
      <trkpt lat="46.28958" lon="-0.1898">
        <ele>114.0599</ele>
        <time>2010-11-28T14:55:11Z</time>
      </trkpt>
      <trkpt lat="46.28958" lon="-0.18981">
        <ele>114.1264</ele>
        <time>2010-11-28T14:55:12Z</time>
      </trkpt>
      <trkpt lat="46.28957" lon="-0.18982">
        <ele>114.1847</ele>
        <time>2010-11-28T14:55:13Z</time>
      </trkpt>
      <trkpt lat="46.28957" lon="-0.18983">
        <ele>114.2413</ele>
        <time>2010-11-28T14:55:14Z</time>
      </trkpt>
      <trkpt lat="46.28956" lon="-0.18984">
        <ele>114.295</ele>
        <time>2010-11-28T14:55:15Z</time>
      </trkpt>
      <trkpt lat="46.28956" lon="-0.18985">
        <ele>114.3376</ele>
        <time>2010-11-28T14:55:16Z</time>
      </trkpt>
      <trkpt lat="46.28956" lon="-0.18986">
        <ele>114.3769</ele>
        <time>2010-11-28T14:55:17Z</time>
      </trkpt>
      <trkpt lat="46.28956" lon="-0.18987">
        <ele>114.4155</ele>
        <time>2010-11-28T14:55:18Z</time>
      </trkpt>
      <trkpt lat="46.28955" lon="-0.18988">
        <ele>114.4533</ele>
        <time>2010-11-28T14:55:19Z</time>
      </trkpt>
      <trkpt lat="46.28954" lon="-0.18989">
        <ele>114.4904</ele>
        <time>2010-11-28T14:55:20Z</time>
      </trkpt>
      <trkpt lat="46.28954" lon="-0.1899">
        <ele>114.5246</ele>
        <time>2010-11-28T14:55:21Z</time>
      </trkpt>
      <trkpt lat="46.28954" lon="-0.18991">
        <ele>114.5582</ele>
        <time>2010-11-28T14:55:22Z</time>
      </trkpt>
      <trkpt lat="46.28954" lon="-0.18992">
        <ele>114.5913</ele>
        <time>2010-11-28T14:55:23Z</time>
      </trkpt>
      <trkpt lat="46.28953" lon="-0.18993">
        <ele>114.6214</ele>
        <time>2010-11-28T14:55:24Z</time>
      </trkpt>
      <trkpt lat="46.28953" lon="-0.18993">
        <ele>114.652</ele>
        <time>2010-11-28T14:55:25Z</time>
      </trkpt>
      <trkpt lat="46.28952" lon="-0.18994">
        <ele>114.6827</ele>
        <time>2010-11-28T14:55:26Z</time>
      </trkpt>
      <trkpt lat="46.28952" lon="-0.18995">
        <ele>114.7139</ele>
        <time>2010-11-28T14:55:27Z</time>
      </trkpt>
      <trkpt lat="46.28952" lon="-0.18996">
        <ele>114.7456</ele>
        <time>2010-11-28T14:55:28Z</time>
      </trkpt>
      <trkpt lat="46.28951" lon="-0.18997">
        <ele>114.779</ele>
        <time>2010-11-28T14:55:29Z</time>
      </trkpt>
      <trkpt lat="46.28951" lon="-0.18997">
        <ele>114.8109</ele>
        <time>2010-11-28T14:55:30Z</time>
      </trkpt>
      <trkpt lat="46.28951" lon="-0.18999">
        <ele>114.8439</ele>
        <time>2010-11-28T14:55:31Z</time>
      </trkpt>
      <trkpt lat="46.2895" lon="-0.19">
        <ele>114.8799</ele>
        <time>2010-11-28T14:55:32Z</time>
      </trkpt>
      <trkpt lat="46.28949" lon="-0.19001">
        <ele>114.9149</ele>
        <time>2010-11-28T14:55:33Z</time>
      </trkpt>
      <trkpt lat="46.28949" lon="-0.19002">
        <ele>114.9503</ele>
        <time>2010-11-28T14:55:34Z</time>
      </trkpt>
      <trkpt lat="46.28949" lon="-0.19003">
        <ele>114.9833</ele>
        <time>2010-11-28T14:55:35Z</time>
      </trkpt>
      <trkpt lat="46.28948" lon="-0.19004">
        <ele>115.0138</ele>
        <time>2010-11-28T14:55:36Z</time>
      </trkpt>
      <trkpt lat="46.28948" lon="-0.19005">
        <ele>115.0438</ele>
        <time>2010-11-28T14:55:37Z</time>
      </trkpt>
      <trkpt lat="46.28947" lon="-0.19006">
        <ele>115.0729</ele>
        <time>2010-11-28T14:55:38Z</time>
      </trkpt>
      <trkpt lat="46.28947" lon="-0.19007">
        <ele>115.1026</ele>
        <time>2010-11-28T14:55:39Z</time>
      </trkpt>
      <trkpt lat="46.28946" lon="-0.19009">
        <ele>115.1307</ele>
        <time>2010-11-28T14:55:40Z</time>
      </trkpt>
      <trkpt lat="46.28946" lon="-0.1901">
        <ele>115.186</ele>
        <time>2010-11-28T14:55:41Z</time>
      </trkpt>
      <trkpt lat="46.28945" lon="-0.19011">
        <ele>115.2473</ele>
        <time>2010-11-28T14:55:42Z</time>
      </trkpt>
      <trkpt lat="46.28945" lon="-0.19013">
        <ele>115.311</ele>
        <time>2010-11-28T14:55:43Z</time>
      </trkpt>
      <trkpt lat="46.28944" lon="-0.19014">
        <ele>115.3831</ele>
        <time>2010-11-28T14:55:44Z</time>
      </trkpt>
      <trkpt lat="46.28944" lon="-0.19015">
        <ele>115.4635</ele>
        <time>2010-11-28T14:55:45Z</time>
      </trkpt>
      <trkpt lat="46.28943" lon="-0.19017">
        <ele>115.5415</ele>
        <time>2010-11-28T14:55:46Z</time>
      </trkpt>
      <trkpt lat="46.28943" lon="-0.19019">
        <ele>115.6076</ele>
        <time>2010-11-28T14:55:47Z</time>
      </trkpt>
      <trkpt lat="46.28942" lon="-0.19021">
        <ele>115.674</ele>
        <time>2010-11-28T14:55:48Z</time>
      </trkpt>
      <trkpt lat="46.28941" lon="-0.19023">
        <ele>115.7331</ele>
        <time>2010-11-28T14:55:49Z</time>
      </trkpt>
      <trkpt lat="46.2894" lon="-0.19025">
        <ele>115.7911</ele>
        <time>2010-11-28T14:55:50Z</time>
      </trkpt>
      <trkpt lat="46.28939" lon="-0.19027">
        <ele>115.8447</ele>
        <time>2010-11-28T14:55:51Z</time>
      </trkpt>
      <trkpt lat="46.28939" lon="-0.19028">
        <ele>115.8922</ele>
        <time>2010-11-28T14:55:52Z</time>
      </trkpt>
      <trkpt lat="46.28938" lon="-0.1903">
        <ele>115.9405</ele>
        <time>2010-11-28T14:55:53Z</time>
      </trkpt>
      <trkpt lat="46.28937" lon="-0.19032">
        <ele>115.9933</ele>
        <time>2010-11-28T14:55:54Z</time>
      </trkpt>
      <trkpt lat="46.28935" lon="-0.19036">
        <ele>116.2245</ele>
        <time>2010-11-28T14:55:59Z</time>
      </trkpt>
      <trkpt lat="46.28935" lon="-0.19037">
        <ele>116.3021</ele>
        <time>2010-11-28T14:56:00Z</time>
      </trkpt>
      <trkpt lat="46.28934" lon="-0.19038">
        <ele>116.3849</ele>
        <time>2010-11-28T14:56:01Z</time>
      </trkpt>
      <trkpt lat="46.28933" lon="-0.19039">
        <ele>116.4685</ele>
        <time>2010-11-28T14:56:02Z</time>
      </trkpt>
      <trkpt lat="46.28933" lon="-0.1904">
        <ele>116.5497</ele>
        <time>2010-11-28T14:56:03Z</time>
      </trkpt>
      <trkpt lat="46.28932" lon="-0.19042">
        <ele>116.6288</ele>
        <time>2010-11-28T14:56:04Z</time>
      </trkpt>
      <trkpt lat="46.28932" lon="-0.19043">
        <ele>116.7068</ele>
        <time>2010-11-28T14:56:05Z</time>
      </trkpt>
      <trkpt lat="46.28931" lon="-0.19044">
        <ele>116.782</ele>
        <time>2010-11-28T14:56:06Z</time>
      </trkpt>
      <trkpt lat="46.28931" lon="-0.19046">
        <ele>116.855</ele>
        <time>2010-11-28T14:56:07Z</time>
      </trkpt>
      <trkpt lat="46.2893" lon="-0.19047">
        <ele>116.9261</ele>
        <time>2010-11-28T14:56:08Z</time>
      </trkpt>
      <trkpt lat="46.2893" lon="-0.19048">
        <ele>116.9968</ele>
        <time>2010-11-28T14:56:09Z</time>
      </trkpt>
      <trkpt lat="46.28929" lon="-0.19049">
        <ele>117.0771</ele>
        <time>2010-11-28T14:56:10Z</time>
      </trkpt>
      <trkpt lat="46.28928" lon="-0.19051">
        <ele>117.1522</ele>
        <time>2010-11-28T14:56:11Z</time>
      </trkpt>
      <trkpt lat="46.28927" lon="-0.19052">
        <ele>117.2264</ele>
        <time>2010-11-28T14:56:12Z</time>
      </trkpt>
      <trkpt lat="46.28927" lon="-0.19053">
        <ele>117.2972</ele>
        <time>2010-11-28T14:56:13Z</time>
      </trkpt>
      <trkpt lat="46.28926" lon="-0.19055">
        <ele>117.3737</ele>
        <time>2010-11-28T14:56:14Z</time>
      </trkpt>
      <trkpt lat="46.28925" lon="-0.19056">
        <ele>117.4471</ele>
        <time>2010-11-28T14:56:15Z</time>
      </trkpt>
      <trkpt lat="46.28924" lon="-0.19058">
        <ele>117.516</ele>
        <time>2010-11-28T14:56:16Z</time>
      </trkpt>
      <trkpt lat="46.28923" lon="-0.19059">
        <ele>117.5798</ele>
        <time>2010-11-28T14:56:17Z</time>
      </trkpt>
      <trkpt lat="46.28923" lon="-0.1906">
        <ele>117.6416</ele>
        <time>2010-11-28T14:56:18Z</time>
      </trkpt>
      <trkpt lat="46.28922" lon="-0.19061">
        <ele>117.7053</ele>
        <time>2010-11-28T14:56:19Z</time>
      </trkpt>
      <trkpt lat="46.28922" lon="-0.19063">
        <ele>117.7722</ele>
        <time>2010-11-28T14:56:20Z</time>
      </trkpt>
      <trkpt lat="46.28921" lon="-0.19064">
        <ele>117.8432</ele>
        <time>2010-11-28T14:56:21Z</time>
      </trkpt>
      <trkpt lat="46.2892" lon="-0.19065">
        <ele>117.9133</ele>
        <time>2010-11-28T14:56:22Z</time>
      </trkpt>
      <trkpt lat="46.2892" lon="-0.19066">
        <ele>117.9835</ele>
        <time>2010-11-28T14:56:23Z</time>
      </trkpt>
      <trkpt lat="46.28919" lon="-0.19067">
        <ele>118.0494</ele>
        <time>2010-11-28T14:56:24Z</time>
      </trkpt>
      <trkpt lat="46.28918" lon="-0.19068">
        <ele>118.1122</ele>
        <time>2010-11-28T14:56:25Z</time>
      </trkpt>
      <trkpt lat="46.28917" lon="-0.19069">
        <ele>118.1815</ele>
        <time>2010-11-28T14:56:26Z</time>
      </trkpt>
      <trkpt lat="46.28917" lon="-0.1907">
        <ele>118.248</ele>
        <time>2010-11-28T14:56:27Z</time>
      </trkpt>
      <trkpt lat="46.28916" lon="-0.19072">
        <ele>118.3066</ele>
        <time>2010-11-28T14:56:28Z</time>
      </trkpt>
      <trkpt lat="46.28915" lon="-0.19073">
        <ele>118.3628</ele>
        <time>2010-11-28T14:56:29Z</time>
      </trkpt>
      <trkpt lat="46.28915" lon="-0.19074">
        <ele>118.3628</ele>
        <time>2010-11-28T14:56:30Z</time>
      </trkpt>
      <trkpt lat="46.28914" lon="-0.19074">
        <ele>118.4156</ele>
        <time>2010-11-28T14:56:31Z</time>
      </trkpt>
      <trkpt lat="46.28913" lon="-0.19075">
        <ele>118.4629</ele>
        <time>2010-11-28T14:56:32Z</time>
      </trkpt>
      <trkpt lat="46.28912" lon="-0.19076">
        <ele>118.5111</ele>
        <time>2010-11-28T14:56:33Z</time>
      </trkpt>
      <trkpt lat="46.28911" lon="-0.19078">
        <ele>118.5697</ele>
        <time>2010-11-28T14:56:34Z</time>
      </trkpt>
      <trkpt lat="46.2891" lon="-0.19079">
        <ele>118.6274</ele>
        <time>2010-11-28T14:56:35Z</time>
      </trkpt>
      <trkpt lat="46.28909" lon="-0.19081">
        <ele>118.6917</ele>
        <time>2010-11-28T14:56:36Z</time>
      </trkpt>
      <trkpt lat="46.28908" lon="-0.19082">
        <ele>118.7625</ele>
        <time>2010-11-28T14:56:37Z</time>
      </trkpt>
      <trkpt lat="46.28907" lon="-0.19084">
        <ele>118.8403</ele>
        <time>2010-11-28T14:56:38Z</time>
      </trkpt>
      <trkpt lat="46.28906" lon="-0.19085">
        <ele>118.9213</ele>
        <time>2010-11-28T14:56:39Z</time>
      </trkpt>
      <trkpt lat="46.28905" lon="-0.19087">
        <ele>119.0052</ele>
        <time>2010-11-28T14:56:40Z</time>
      </trkpt>
      <trkpt lat="46.28904" lon="-0.19088">
        <ele>119.0912</ele>
        <time>2010-11-28T14:56:41Z</time>
      </trkpt>
      <trkpt lat="46.28903" lon="-0.19089">
        <ele>119.1771</ele>
        <time>2010-11-28T14:56:42Z</time>
      </trkpt>
      <trkpt lat="46.28902" lon="-0.1909">
        <ele>119.2672</ele>
        <time>2010-11-28T14:56:43Z</time>
      </trkpt>
      <trkpt lat="46.28901" lon="-0.19091">
        <ele>119.359</ele>
        <time>2010-11-28T14:56:44Z</time>
      </trkpt>
      <trkpt lat="46.289" lon="-0.19092">
        <ele>119.452</ele>
        <time>2010-11-28T14:56:45Z</time>
      </trkpt>
      <trkpt lat="46.28899" lon="-0.19093">
        <ele>119.5446</ele>
        <time>2010-11-28T14:56:46Z</time>
      </trkpt>
      <trkpt lat="46.28898" lon="-0.19093">
        <ele>119.6338</ele>
        <time>2010-11-28T14:56:47Z</time>
      </trkpt>
      <trkpt lat="46.28898" lon="-0.19095">
        <ele>119.7224</ele>
        <time>2010-11-28T14:56:48Z</time>
      </trkpt>
      <trkpt lat="46.28896" lon="-0.19096">
        <ele>119.8072</ele>
        <time>2010-11-28T14:56:49Z</time>
      </trkpt>
      <trkpt lat="46.28896" lon="-0.19097">
        <ele>119.8922</ele>
        <time>2010-11-28T14:56:50Z</time>
      </trkpt>
      <trkpt lat="46.28895" lon="-0.19097">
        <ele>119.9762</ele>
        <time>2010-11-28T14:56:51Z</time>
      </trkpt>
      <trkpt lat="46.28894" lon="-0.19098">
        <ele>120.0589</ele>
        <time>2010-11-28T14:56:52Z</time>
      </trkpt>
      <trkpt lat="46.28893" lon="-0.19099">
        <ele>120.1374</ele>
        <time>2010-11-28T14:56:53Z</time>
      </trkpt>
      <trkpt lat="46.28892" lon="-0.191">
        <ele>120.2161</ele>
        <time>2010-11-28T14:56:54Z</time>
      </trkpt>
      <trkpt lat="46.28891" lon="-0.19101">
        <ele>120.2953</ele>
        <time>2010-11-28T14:56:55Z</time>
      </trkpt>
      <trkpt lat="46.2889" lon="-0.19102">
        <ele>120.3672</ele>
        <time>2010-11-28T14:56:56Z</time>
      </trkpt>
      <trkpt lat="46.28889" lon="-0.19103">
        <ele>120.438</ele>
        <time>2010-11-28T14:56:57Z</time>
      </trkpt>
      <trkpt lat="46.28888" lon="-0.19104">
        <ele>120.5129</ele>
        <time>2010-11-28T14:56:58Z</time>
      </trkpt>
      <trkpt lat="46.28887" lon="-0.19105">
        <ele>120.5894</ele>
        <time>2010-11-28T14:56:59Z</time>
      </trkpt>
      <trkpt lat="46.28886" lon="-0.19106">
        <ele>120.6684</ele>
        <time>2010-11-28T14:57:00Z</time>
      </trkpt>
      <trkpt lat="46.28885" lon="-0.19107">
        <ele>120.7433</ele>
        <time>2010-11-28T14:57:01Z</time>
      </trkpt>
      <trkpt lat="46.28885" lon="-0.19108">
        <ele>120.8128</ele>
        <time>2010-11-28T14:57:02Z</time>
      </trkpt>
      <trkpt lat="46.28884" lon="-0.19109">
        <ele>120.8806</ele>
        <time>2010-11-28T14:57:03Z</time>
      </trkpt>
      <trkpt lat="46.28883" lon="-0.1911">
        <ele>120.9486</ele>
        <time>2010-11-28T14:57:04Z</time>
      </trkpt>
      <trkpt lat="46.28882" lon="-0.19111">
        <ele>121.0192</ele>
        <time>2010-11-28T14:57:05Z</time>
      </trkpt>
      <trkpt lat="46.28882" lon="-0.19112">
        <ele>121.0924</ele>
        <time>2010-11-28T14:57:06Z</time>
      </trkpt>
      <trkpt lat="46.2888" lon="-0.19113">
        <ele>121.1709</ele>
        <time>2010-11-28T14:57:07Z</time>
      </trkpt>
      <trkpt lat="46.28879" lon="-0.19114">
        <ele>121.2538</ele>
        <time>2010-11-28T14:57:08Z</time>
      </trkpt>
      <trkpt lat="46.28878" lon="-0.19114">
        <ele>121.34</ele>
        <time>2010-11-28T14:57:09Z</time>
      </trkpt>
      <trkpt lat="46.28877" lon="-0.19115">
        <ele>121.4263</ele>
        <time>2010-11-28T14:57:10Z</time>
      </trkpt>
      <trkpt lat="46.28875" lon="-0.19116">
        <ele>121.5103</ele>
        <time>2010-11-28T14:57:11Z</time>
      </trkpt>
      <trkpt lat="46.28874" lon="-0.19117">
        <ele>121.5959</ele>
        <time>2010-11-28T14:57:12Z</time>
      </trkpt>
      <trkpt lat="46.28873" lon="-0.19118">
        <ele>121.681</ele>
        <time>2010-11-28T14:57:13Z</time>
      </trkpt>
      <trkpt lat="46.28872" lon="-0.19119">
        <ele>121.7634</ele>
        <time>2010-11-28T14:57:14Z</time>
      </trkpt>
      <trkpt lat="46.28871" lon="-0.1912">
        <ele>121.8677</ele>
        <time>2010-11-28T14:57:15Z</time>
      </trkpt>
      <trkpt lat="46.2887" lon="-0.19121">
        <ele>121.9831</ele>
        <time>2010-11-28T14:57:16Z</time>
      </trkpt>
      <trkpt lat="46.28869" lon="-0.19122">
        <ele>122.1037</ele>
        <time>2010-11-28T14:57:17Z</time>
      </trkpt>
      <trkpt lat="46.28868" lon="-0.19123">
        <ele>122.2274</ele>
        <time>2010-11-28T14:57:18Z</time>
      </trkpt>
      <trkpt lat="46.28867" lon="-0.19124">
        <ele>122.344</ele>
        <time>2010-11-28T14:57:19Z</time>
      </trkpt>
      <trkpt lat="46.28866" lon="-0.19125">
        <ele>122.456</ele>
        <time>2010-11-28T14:57:20Z</time>
      </trkpt>
      <trkpt lat="46.28865" lon="-0.19125">
        <ele>122.569</ele>
        <time>2010-11-28T14:57:21Z</time>
      </trkpt>
      <trkpt lat="46.28864" lon="-0.19126">
        <ele>122.6841</ele>
        <time>2010-11-28T14:57:22Z</time>
      </trkpt>
      <trkpt lat="46.28863" lon="-0.19127">
        <ele>122.7854</ele>
        <time>2010-11-28T14:57:23Z</time>
      </trkpt>
      <trkpt lat="46.28862" lon="-0.19128">
        <ele>122.8862</ele>
        <time>2010-11-28T14:57:24Z</time>
      </trkpt>
      <trkpt lat="46.28861" lon="-0.19128">
        <ele>122.9803</ele>
        <time>2010-11-28T14:57:25Z</time>
      </trkpt>
      <trkpt lat="46.2886" lon="-0.19129">
        <ele>123.0831</ele>
        <time>2010-11-28T14:57:26Z</time>
      </trkpt>
      <trkpt lat="46.28859" lon="-0.1913">
        <ele>123.2072</ele>
        <time>2010-11-28T14:57:27Z</time>
      </trkpt>
      <trkpt lat="46.28858" lon="-0.19131">
        <ele>123.3323</ele>
        <time>2010-11-28T14:57:28Z</time>
      </trkpt>
      <trkpt lat="46.28857" lon="-0.19132">
        <ele>123.4584</ele>
        <time>2010-11-28T14:57:29Z</time>
      </trkpt>
      <trkpt lat="46.28856" lon="-0.19133">
        <ele>123.5817</ele>
        <time>2010-11-28T14:57:30Z</time>
      </trkpt>
      <trkpt lat="46.28855" lon="-0.19134">
        <ele>123.7326</ele>
        <time>2010-11-28T14:57:31Z</time>
      </trkpt>
      <trkpt lat="46.28854" lon="-0.19134">
        <ele>123.8731</ele>
        <time>2010-11-28T14:57:32Z</time>
      </trkpt>
      <trkpt lat="46.28853" lon="-0.19135">
        <ele>123.9754</ele>
        <time>2010-11-28T14:57:33Z</time>
      </trkpt>
      <trkpt lat="46.28853" lon="-0.19135">
        <ele>124.1147</ele>
        <time>2010-11-28T14:57:36Z</time>
      </trkpt>
      <trkpt lat="46.28853" lon="-0.19135">
        <ele>124.1147</ele>
        <time>2010-11-28T14:57:37Z</time>
      </trkpt>
      <trkpt lat="46.28852" lon="-0.19136">
        <ele>124.2324</ele>
        <time>2010-11-28T14:57:38Z</time>
      </trkpt>
      <trkpt lat="46.28851" lon="-0.19137">
        <ele>124.3668</ele>
        <time>2010-11-28T14:57:39Z</time>
      </trkpt>
      <trkpt lat="46.2885" lon="-0.19138">
        <ele>124.5054</ele>
        <time>2010-11-28T14:57:40Z</time>
      </trkpt>
      <trkpt lat="46.2885" lon="-0.19138">
        <ele>124.6377</ele>
        <time>2010-11-28T14:57:41Z</time>
      </trkpt>
      <trkpt lat="46.28849" lon="-0.19139">
        <ele>124.7623</ele>
        <time>2010-11-28T14:57:42Z</time>
      </trkpt>
      <trkpt lat="46.28848" lon="-0.1914">
        <ele>124.8858</ele>
        <time>2010-11-28T14:57:43Z</time>
      </trkpt>
      <trkpt lat="46.28848" lon="-0.19141">
        <ele>125.0063</ele>
        <time>2010-11-28T14:57:44Z</time>
      </trkpt>
      <trkpt lat="46.28847" lon="-0.19142">
        <ele>125.1235</ele>
        <time>2010-11-28T14:57:45Z</time>
      </trkpt>
      <trkpt lat="46.28846" lon="-0.19143">
        <ele>125.2433</ele>
        <time>2010-11-28T14:57:46Z</time>
      </trkpt>
      <trkpt lat="46.28845" lon="-0.19144">
        <ele>125.3578</ele>
        <time>2010-11-28T14:57:47Z</time>
      </trkpt>
      <trkpt lat="46.28845" lon="-0.19145">
        <ele>125.4714</ele>
        <time>2010-11-28T14:57:48Z</time>
      </trkpt>
      <trkpt lat="46.28844" lon="-0.19146">
        <ele>125.592</ele>
        <time>2010-11-28T14:57:49Z</time>
      </trkpt>
      <trkpt lat="46.28843" lon="-0.19147">
        <ele>125.7155</ele>
        <time>2010-11-28T14:57:50Z</time>
      </trkpt>
      <trkpt lat="46.28843" lon="-0.19148">
        <ele>125.8428</ele>
        <time>2010-11-28T14:57:51Z</time>
      </trkpt>
      <trkpt lat="46.28842" lon="-0.19149">
        <ele>125.9613</ele>
        <time>2010-11-28T14:57:52Z</time>
      </trkpt>
      <trkpt lat="46.28841" lon="-0.1915">
        <ele>126.0758</ele>
        <time>2010-11-28T14:57:53Z</time>
      </trkpt>
      <trkpt lat="46.2884" lon="-0.19151">
        <ele>126.182</ele>
        <time>2010-11-28T14:57:54Z</time>
      </trkpt>
      <trkpt lat="46.2884" lon="-0.19152">
        <ele>126.2833</ele>
        <time>2010-11-28T14:57:55Z</time>
      </trkpt>
      <trkpt lat="46.28839" lon="-0.19152">
        <ele>126.373</ele>
        <time>2010-11-28T14:57:56Z</time>
      </trkpt>
      <trkpt lat="46.28838" lon="-0.19153">
        <ele>126.4509</ele>
        <time>2010-11-28T14:57:57Z</time>
      </trkpt>
      <trkpt lat="46.28838" lon="-0.19154">
        <ele>126.5185</ele>
        <time>2010-11-28T14:57:58Z</time>
      </trkpt>
      <trkpt lat="46.28837" lon="-0.19155">
        <ele>126.5776</ele>
        <time>2010-11-28T14:57:59Z</time>
      </trkpt>
      <trkpt lat="46.28836" lon="-0.19155">
        <ele>126.6323</ele>
        <time>2010-11-28T14:58:00Z</time>
      </trkpt>
      <trkpt lat="46.28836" lon="-0.19156">
        <ele>126.6794</ele>
        <time>2010-11-28T14:58:01Z</time>
      </trkpt>
      <trkpt lat="46.28835" lon="-0.19156">
        <ele>126.7227</ele>
        <time>2010-11-28T14:58:02Z</time>
      </trkpt>
      <trkpt lat="46.28835" lon="-0.19157">
        <ele>126.7227</ele>
        <time>2010-11-28T14:58:03Z</time>
      </trkpt>
      <trkpt lat="46.28834" lon="-0.19158">
        <ele>126.764</ele>
        <time>2010-11-28T14:58:04Z</time>
      </trkpt>
      <trkpt lat="46.28833" lon="-0.19158">
        <ele>126.8009</ele>
        <time>2010-11-28T14:58:05Z</time>
      </trkpt>
      <trkpt lat="46.28832" lon="-0.19159">
        <ele>126.8659</ele>
        <time>2010-11-28T14:58:06Z</time>
      </trkpt>
      <trkpt lat="46.28831" lon="-0.19159">
        <ele>126.9474</ele>
        <time>2010-11-28T14:58:07Z</time>
      </trkpt>
      <trkpt lat="46.2883" lon="-0.1916">
        <ele>127.0329</ele>
        <time>2010-11-28T14:58:08Z</time>
      </trkpt>
      <trkpt lat="46.28828" lon="-0.19161">
        <ele>127.1242</ele>
        <time>2010-11-28T14:58:09Z</time>
      </trkpt>
      <trkpt lat="46.28827" lon="-0.19162">
        <ele>127.2173</ele>
        <time>2010-11-28T14:58:10Z</time>
      </trkpt>
      <trkpt lat="46.28826" lon="-0.19163">
        <ele>127.3117</ele>
        <time>2010-11-28T14:58:11Z</time>
      </trkpt>
      <trkpt lat="46.28825" lon="-0.19163">
        <ele>127.403</ele>
        <time>2010-11-28T14:58:12Z</time>
      </trkpt>
      <trkpt lat="46.28824" lon="-0.19164">
        <ele>127.4895</ele>
        <time>2010-11-28T14:58:13Z</time>
      </trkpt>
      <trkpt lat="46.28824" lon="-0.19165">
        <ele>127.574</ele>
        <time>2010-11-28T14:58:14Z</time>
      </trkpt>
      <trkpt lat="46.28822" lon="-0.19165">
        <ele>127.6423</ele>
        <time>2010-11-28T14:58:15Z</time>
      </trkpt>
      <trkpt lat="46.28822" lon="-0.19166">
        <ele>127.7057</ele>
        <time>2010-11-28T14:58:16Z</time>
      </trkpt>
      <trkpt lat="46.2882" lon="-0.19167">
        <ele>127.7681</ele>
        <time>2010-11-28T14:58:17Z</time>
      </trkpt>
      <trkpt lat="46.2882" lon="-0.19166">
        <ele>127.8261</ele>
        <time>2010-11-28T14:58:18Z</time>
      </trkpt>
      <trkpt lat="46.28819" lon="-0.19166">
        <ele>127.8807</ele>
        <time>2010-11-28T14:58:19Z</time>
      </trkpt>
      <trkpt lat="46.28818" lon="-0.19165">
        <ele>127.9446</ele>
        <time>2010-11-28T14:58:20Z</time>
      </trkpt>
      <trkpt lat="46.28817" lon="-0.19165">
        <ele>128.0074</ele>
        <time>2010-11-28T14:58:21Z</time>
      </trkpt>
      <trkpt lat="46.28816" lon="-0.19164">
        <ele>128.0683</ele>
        <time>2010-11-28T14:58:22Z</time>
      </trkpt>
      <trkpt lat="46.28815" lon="-0.19163">
        <ele>128.1279</ele>
        <time>2010-11-28T14:58:23Z</time>
      </trkpt>
      <trkpt lat="46.28814" lon="-0.19162">
        <ele>128.1862</ele>
        <time>2010-11-28T14:58:24Z</time>
      </trkpt>
      <trkpt lat="46.28813" lon="-0.19161">
        <ele>128.2459</ele>
        <time>2010-11-28T14:58:25Z</time>
      </trkpt>
      <trkpt lat="46.28812" lon="-0.1916">
        <ele>128.3039</ele>
        <time>2010-11-28T14:58:26Z</time>
      </trkpt>
      <trkpt lat="46.28811" lon="-0.19159">
        <ele>128.3629</ele>
        <time>2010-11-28T14:58:27Z</time>
      </trkpt>
      <trkpt lat="46.28809" lon="-0.19158">
        <ele>128.4221</ele>
        <time>2010-11-28T14:58:28Z</time>
      </trkpt>
      <trkpt lat="46.28808" lon="-0.19158">
        <ele>128.48</ele>
        <time>2010-11-28T14:58:29Z</time>
      </trkpt>
      <trkpt lat="46.28807" lon="-0.19157">
        <ele>128.5387</ele>
        <time>2010-11-28T14:58:30Z</time>
      </trkpt>
      <trkpt lat="46.28806" lon="-0.19156">
        <ele>128.5975</ele>
        <time>2010-11-28T14:58:31Z</time>
      </trkpt>
      <trkpt lat="46.28805" lon="-0.19156">
        <ele>128.6572</ele>
        <time>2010-11-28T14:58:32Z</time>
      </trkpt>
      <trkpt lat="46.28804" lon="-0.19155">
        <ele>128.7179</ele>
        <time>2010-11-28T14:58:33Z</time>
      </trkpt>
      <trkpt lat="46.28803" lon="-0.19155">
        <ele>128.7777</ele>
        <time>2010-11-28T14:58:34Z</time>
      </trkpt>
      <trkpt lat="46.28803" lon="-0.19154">
        <ele>128.8344</ele>
        <time>2010-11-28T14:58:35Z</time>
      </trkpt>
      <trkpt lat="46.28802" lon="-0.19154">
        <ele>128.8875</ele>
        <time>2010-11-28T14:58:36Z</time>
      </trkpt>
      <trkpt lat="46.28802" lon="-0.19154">
        <ele>128.9384</ele>
        <time>2010-11-28T14:58:37Z</time>
      </trkpt>
      <trkpt lat="46.28802" lon="-0.19154">
        <ele>128.9847</ele>
        <time>2010-11-28T14:58:38Z</time>
      </trkpt>
      <trkpt lat="46.28801" lon="-0.19153">
        <ele>129.0327</ele>
        <time>2010-11-28T14:58:39Z</time>
      </trkpt>
      <trkpt lat="46.28801" lon="-0.19153">
        <ele>129.0719</ele>
        <time>2010-11-28T14:58:40Z</time>
      </trkpt>
      <trkpt lat="46.28799" lon="-0.19153">
        <ele>129.1144</ele>
        <time>2010-11-28T14:58:41Z</time>
      </trkpt>
      <trkpt lat="46.28799" lon="-0.19152">
        <ele>129.153</ele>
        <time>2010-11-28T14:58:42Z</time>
      </trkpt>
      <trkpt lat="46.28798" lon="-0.19152">
        <ele>129.1886</ele>
        <time>2010-11-28T14:58:43Z</time>
      </trkpt>
      <trkpt lat="46.28797" lon="-0.19151">
        <ele>129.2277</ele>
        <time>2010-11-28T14:58:44Z</time>
      </trkpt>
      <trkpt lat="46.28796" lon="-0.1915">
        <ele>129.284</ele>
        <time>2010-11-28T14:58:45Z</time>
      </trkpt>
      <trkpt lat="46.28795" lon="-0.19148">
        <ele>129.3539</ele>
        <time>2010-11-28T14:58:46Z</time>
      </trkpt>
      <trkpt lat="46.28794" lon="-0.19147">
        <ele>129.4312</ele>
        <time>2010-11-28T14:58:47Z</time>
      </trkpt>
      <trkpt lat="46.28793" lon="-0.19146">
        <ele>129.5134</ele>
        <time>2010-11-28T14:58:48Z</time>
      </trkpt>
      <trkpt lat="46.28791" lon="-0.19145">
        <ele>129.5976</ele>
        <time>2010-11-28T14:58:49Z</time>
      </trkpt>
      <trkpt lat="46.2879" lon="-0.19144">
        <ele>129.6725</ele>
        <time>2010-11-28T14:58:50Z</time>
      </trkpt>
      <trkpt lat="46.28789" lon="-0.19142">
        <ele>129.7436</ele>
        <time>2010-11-28T14:58:51Z</time>
      </trkpt>
      <trkpt lat="46.28788" lon="-0.19141">
        <ele>129.8055</ele>
        <time>2010-11-28T14:58:52Z</time>
      </trkpt>
      <trkpt lat="46.28787" lon="-0.1914">
        <ele>129.8584</ele>
        <time>2010-11-28T14:58:53Z</time>
      </trkpt>
      <trkpt lat="46.28787" lon="-0.19139">
        <ele>129.9074</ele>
        <time>2010-11-28T14:58:54Z</time>
      </trkpt>
      <trkpt lat="46.28786" lon="-0.19138">
        <ele>129.9589</ele>
        <time>2010-11-28T14:58:55Z</time>
      </trkpt>
      <trkpt lat="46.28785" lon="-0.19137">
        <ele>130.0067</ele>
        <time>2010-11-28T14:58:56Z</time>
      </trkpt>
      <trkpt lat="46.28784" lon="-0.19136">
        <ele>130.0571</ele>
        <time>2010-11-28T14:58:57Z</time>
      </trkpt>
      <trkpt lat="46.28783" lon="-0.19135">
        <ele>130.1028</ele>
        <time>2010-11-28T14:58:58Z</time>
      </trkpt>
      <trkpt lat="46.28783" lon="-0.19135">
        <ele>130.1501</ele>
        <time>2010-11-28T14:58:59Z</time>
      </trkpt>
      <trkpt lat="46.28782" lon="-0.19134">
        <ele>130.1784</ele>
        <time>2010-11-28T14:59:00Z</time>
      </trkpt>
      <trkpt lat="46.28781" lon="-0.19134">
        <ele>130.2056</ele>
        <time>2010-11-28T14:59:01Z</time>
      </trkpt>
      <trkpt lat="46.28781" lon="-0.19134">
        <ele>130.1949</ele>
        <time>2010-11-28T14:59:04Z</time>
      </trkpt>
      <trkpt lat="46.2878" lon="-0.19134">
        <ele>130.1835</ele>
        <time>2010-11-28T14:59:05Z</time>
      </trkpt>
      <trkpt lat="46.2878" lon="-0.19133">
        <ele>130.1747</ele>
        <time>2010-11-28T14:59:06Z</time>
      </trkpt>
      <trkpt lat="46.28779" lon="-0.19132">
        <ele>130.171</ele>
        <time>2010-11-28T14:59:07Z</time>
      </trkpt>
      <trkpt lat="46.28779" lon="-0.19131">
        <ele>130.171</ele>
        <time>2010-11-28T14:59:08Z</time>
      </trkpt>
      <trkpt lat="46.28777" lon="-0.1913">
        <ele>130.1682</ele>
        <time>2010-11-28T14:59:09Z</time>
      </trkpt>
      <trkpt lat="46.28777" lon="-0.19128">
        <ele>130.1582</ele>
        <time>2010-11-28T14:59:10Z</time>
      </trkpt>
      <trkpt lat="46.28775" lon="-0.19127">
        <ele>130.1779</ele>
        <time>2010-11-28T14:59:11Z</time>
      </trkpt>
      <trkpt lat="46.28774" lon="-0.19125">
        <ele>130.2109</ele>
        <time>2010-11-28T14:59:12Z</time>
      </trkpt>
      <trkpt lat="46.28774" lon="-0.19123">
        <ele>130.2536</ele>
        <time>2010-11-28T14:59:13Z</time>
      </trkpt>
      <trkpt lat="46.28773" lon="-0.19121">
        <ele>130.2902</ele>
        <time>2010-11-28T14:59:14Z</time>
      </trkpt>
      <trkpt lat="46.28772" lon="-0.1912">
        <ele>130.323</ele>
        <time>2010-11-28T14:59:15Z</time>
      </trkpt>
      <trkpt lat="46.28771" lon="-0.19118">
        <ele>130.3616</ele>
        <time>2010-11-28T14:59:16Z</time>
      </trkpt>
      <trkpt lat="46.2877" lon="-0.19117">
        <ele>130.3937</ele>
        <time>2010-11-28T14:59:17Z</time>
      </trkpt>
      <trkpt lat="46.2877" lon="-0.19115">
        <ele>130.4211</ele>
        <time>2010-11-28T14:59:18Z</time>
      </trkpt>
      <trkpt lat="46.28769" lon="-0.19114">
        <ele>130.4532</ele>
        <time>2010-11-28T14:59:19Z</time>
      </trkpt>
      <trkpt lat="46.28769" lon="-0.19113">
        <ele>130.4859</ele>
        <time>2010-11-28T14:59:20Z</time>
      </trkpt>
      <trkpt lat="46.28768" lon="-0.19111">
        <ele>130.5242</ele>
        <time>2010-11-28T14:59:21Z</time>
      </trkpt>
      <trkpt lat="46.28767" lon="-0.1911">
        <ele>130.566</ele>
        <time>2010-11-28T14:59:22Z</time>
      </trkpt>
      <trkpt lat="46.28766" lon="-0.19109">
        <ele>130.6092</ele>
        <time>2010-11-28T14:59:23Z</time>
      </trkpt>
      <trkpt lat="46.28765" lon="-0.19108">
        <ele>130.6485</ele>
        <time>2010-11-28T14:59:24Z</time>
      </trkpt>
      <trkpt lat="46.28764" lon="-0.19107">
        <ele>130.6841</ele>
        <time>2010-11-28T14:59:25Z</time>
      </trkpt>
      <trkpt lat="46.28764" lon="-0.19105">
        <ele>130.7129</ele>
        <time>2010-11-28T14:59:26Z</time>
      </trkpt>
      <trkpt lat="46.28763" lon="-0.19104">
        <ele>130.7371</ele>
        <time>2010-11-28T14:59:27Z</time>
      </trkpt>
      <trkpt lat="46.28762" lon="-0.19103">
        <ele>130.7582</ele>
        <time>2010-11-28T14:59:28Z</time>
      </trkpt>
      <trkpt lat="46.28762" lon="-0.19103">
        <ele>130.7754</ele>
        <time>2010-11-28T14:59:29Z</time>
      </trkpt>
      <trkpt lat="46.28761" lon="-0.19102">
        <ele>130.7854</ele>
        <time>2010-11-28T14:59:30Z</time>
      </trkpt>
      <trkpt lat="46.28761" lon="-0.19101">
        <ele>130.7935</ele>
        <time>2010-11-28T14:59:31Z</time>
      </trkpt>
      <trkpt lat="46.28761" lon="-0.191">
        <ele>130.8091</ele>
        <time>2010-11-28T14:59:32Z</time>
      </trkpt>
      <trkpt lat="46.2876" lon="-0.19099">
        <ele>130.8091</ele>
        <time>2010-11-28T14:59:33Z</time>
      </trkpt>
      <trkpt lat="46.28759" lon="-0.19098">
        <ele>130.8287</ele>
        <time>2010-11-28T14:59:34Z</time>
      </trkpt>
      <trkpt lat="46.28759" lon="-0.19098">
        <ele>130.8454</ele>
        <time>2010-11-28T14:59:35Z</time>
      </trkpt>
      <trkpt lat="46.28758" lon="-0.19097">
        <ele>130.8554</ele>
        <time>2010-11-28T14:59:36Z</time>
      </trkpt>
      <trkpt lat="46.28758" lon="-0.19095">
        <ele>130.8669</ele>
        <time>2010-11-28T14:59:37Z</time>
      </trkpt>
      <trkpt lat="46.28758" lon="-0.19094">
        <ele>130.8762</ele>
        <time>2010-11-28T14:59:38Z</time>
      </trkpt>
      <trkpt lat="46.28757" lon="-0.19093">
        <ele>130.878</ele>
        <time>2010-11-28T14:59:39Z</time>
      </trkpt>
      <trkpt lat="46.28756" lon="-0.19091">
        <ele>130.8799</ele>
        <time>2010-11-28T14:59:40Z</time>
      </trkpt>
      <trkpt lat="46.28756" lon="-0.1909">
        <ele>130.8791</ele>
        <time>2010-11-28T14:59:41Z</time>
      </trkpt>
      <trkpt lat="46.28756" lon="-0.19089">
        <ele>130.8809</ele>
        <time>2010-11-28T14:59:42Z</time>
      </trkpt>
      <trkpt lat="46.28755" lon="-0.19087">
        <ele>130.8823</ele>
        <time>2010-11-28T14:59:43Z</time>
      </trkpt>
      <trkpt lat="46.28754" lon="-0.19086">
        <ele>130.8853</ele>
        <time>2010-11-28T14:59:44Z</time>
      </trkpt>
      <trkpt lat="46.28754" lon="-0.19085">
        <ele>130.8911</ele>
        <time>2010-11-28T14:59:45Z</time>
      </trkpt>
      <trkpt lat="46.28753" lon="-0.19083">
        <ele>130.9119</ele>
        <time>2010-11-28T14:59:46Z</time>
      </trkpt>
      <trkpt lat="46.28753" lon="-0.19082">
        <ele>130.9326</ele>
        <time>2010-11-28T14:59:47Z</time>
      </trkpt>
      <trkpt lat="46.28752" lon="-0.19081">
        <ele>130.9326</ele>
        <time>2010-11-28T14:59:48Z</time>
      </trkpt>
      <trkpt lat="46.28751" lon="-0.19079">
        <ele>130.9485</ele>
        <time>2010-11-28T14:59:49Z</time>
      </trkpt>
      <trkpt lat="46.28751" lon="-0.19078">
        <ele>130.9597</ele>
        <time>2010-11-28T14:59:50Z</time>
      </trkpt>
      <trkpt lat="46.2875" lon="-0.19077">
        <ele>130.9837</ele>
        <time>2010-11-28T14:59:51Z</time>
      </trkpt>
      <trkpt lat="46.2875" lon="-0.19076">
        <ele>130.9984</ele>
        <time>2010-11-28T14:59:52Z</time>
      </trkpt>
      <trkpt lat="46.28748" lon="-0.19073">
        <ele>131.0098</ele>
        <time>2010-11-28T14:59:53Z</time>
      </trkpt>
      <trkpt lat="46.28747" lon="-0.1907">
        <ele>131.0207</ele>
        <time>2010-11-28T14:59:54Z</time>
      </trkpt>
      <trkpt lat="46.28746" lon="-0.19068">
        <ele>131.0418</ele>
        <time>2010-11-28T14:59:55Z</time>
      </trkpt>
      <trkpt lat="46.28745" lon="-0.19066">
        <ele>131.0658</ele>
        <time>2010-11-28T14:59:56Z</time>
      </trkpt>
      <trkpt lat="46.28744" lon="-0.19064">
        <ele>131.0883</ele>
        <time>2010-11-28T14:59:57Z</time>
      </trkpt>
      <trkpt lat="46.28743" lon="-0.19062">
        <ele>131.121</ele>
        <time>2010-11-28T14:59:58Z</time>
      </trkpt>
      <trkpt lat="46.28742" lon="-0.1906">
        <ele>131.1653</ele>
        <time>2010-11-28T14:59:59Z</time>
      </trkpt>
      <trkpt lat="46.28742" lon="-0.19059">
        <ele>131.2071</ele>
        <time>2010-11-28T15:00:00Z</time>
      </trkpt>
      <trkpt lat="46.2874" lon="-0.19057">
        <ele>131.2614</ele>
        <time>2010-11-28T15:00:01Z</time>
      </trkpt>
      <trkpt lat="46.2874" lon="-0.19056">
        <ele>131.321</ele>
        <time>2010-11-28T15:00:02Z</time>
      </trkpt>
      <trkpt lat="46.28739" lon="-0.19054">
        <ele>131.3836</ele>
        <time>2010-11-28T15:00:03Z</time>
      </trkpt>
      <trkpt lat="46.28738" lon="-0.19053">
        <ele>131.449</ele>
        <time>2010-11-28T15:00:04Z</time>
      </trkpt>
      <trkpt lat="46.28737" lon="-0.19052">
        <ele>131.5179</ele>
        <time>2010-11-28T15:00:05Z</time>
      </trkpt>
      <trkpt lat="46.28737" lon="-0.19051">
        <ele>131.5872</ele>
        <time>2010-11-28T15:00:06Z</time>
      </trkpt>
      <trkpt lat="46.28736" lon="-0.1905">
        <ele>131.6577</ele>
        <time>2010-11-28T15:00:07Z</time>
      </trkpt>
      <trkpt lat="46.28735" lon="-0.19048">
        <ele>131.7297</ele>
        <time>2010-11-28T15:00:08Z</time>
      </trkpt>
      <trkpt lat="46.28735" lon="-0.19047">
        <ele>131.7984</ele>
        <time>2010-11-28T15:00:09Z</time>
      </trkpt>
      <trkpt lat="46.28735" lon="-0.19046">
        <ele>131.8557</ele>
        <time>2010-11-28T15:00:10Z</time>
      </trkpt>
      <trkpt lat="46.28734" lon="-0.19045">
        <ele>131.9146</ele>
        <time>2010-11-28T15:00:11Z</time>
      </trkpt>
      <trkpt lat="46.28733" lon="-0.19044">
        <ele>131.9803</ele>
        <time>2010-11-28T15:00:12Z</time>
      </trkpt>
      <trkpt lat="46.28733" lon="-0.19043">
        <ele>132.0522</ele>
        <time>2010-11-28T15:00:13Z</time>
      </trkpt>
      <trkpt lat="46.28732" lon="-0.19041">
        <ele>132.1249</ele>
        <time>2010-11-28T15:00:14Z</time>
      </trkpt>
      <trkpt lat="46.28732" lon="-0.1904">
        <ele>132.1938</ele>
        <time>2010-11-28T15:00:15Z</time>
      </trkpt>
      <trkpt lat="46.28731" lon="-0.19039">
        <ele>132.2576</ele>
        <time>2010-11-28T15:00:16Z</time>
      </trkpt>
      <trkpt lat="46.28731" lon="-0.19038">
        <ele>132.3062</ele>
        <time>2010-11-28T15:00:17Z</time>
      </trkpt>
      <trkpt lat="46.2873" lon="-0.19037">
        <ele>132.345</ele>
        <time>2010-11-28T15:00:18Z</time>
      </trkpt>
      <trkpt lat="46.2873" lon="-0.19036">
        <ele>132.3849</ele>
        <time>2010-11-28T15:00:19Z</time>
      </trkpt>
      <trkpt lat="46.28729" lon="-0.19035">
        <ele>132.441</ele>
        <time>2010-11-28T15:00:20Z</time>
      </trkpt>
      <trkpt lat="46.28729" lon="-0.19034">
        <ele>132.441</ele>
        <time>2010-11-28T15:00:21Z</time>
      </trkpt>
      <trkpt lat="46.28729" lon="-0.19032">
        <ele>132.4977</ele>
        <time>2010-11-28T15:00:22Z</time>
      </trkpt>
      <trkpt lat="46.28728" lon="-0.19031">
        <ele>132.5385</ele>
        <time>2010-11-28T15:00:23Z</time>
      </trkpt>
      <trkpt lat="46.28727" lon="-0.1903">
        <ele>132.5655</ele>
        <time>2010-11-28T15:00:24Z</time>
      </trkpt>
      <trkpt lat="46.28727" lon="-0.19029">
        <ele>132.5877</ele>
        <time>2010-11-28T15:00:25Z</time>
      </trkpt>
      <trkpt lat="46.28726" lon="-0.19028">
        <ele>132.606</ele>
        <time>2010-11-28T15:00:26Z</time>
      </trkpt>
      <trkpt lat="46.28726" lon="-0.19027">
        <ele>132.6267</ele>
        <time>2010-11-28T15:00:27Z</time>
      </trkpt>
      <trkpt lat="46.28725" lon="-0.19026">
        <ele>132.6579</ele>
        <time>2010-11-28T15:00:28Z</time>
      </trkpt>
      <trkpt lat="46.28725" lon="-0.19025">
        <ele>132.7043</ele>
        <time>2010-11-28T15:00:29Z</time>
      </trkpt>
      <trkpt lat="46.28727" lon="-0.19024">
        <ele>132.7814</ele>
        <time>2010-11-28T15:00:33Z</time>
      </trkpt>
      <trkpt lat="46.28727" lon="-0.19023">
        <ele>132.8338</ele>
        <time>2010-11-28T15:00:34Z</time>
      </trkpt>
      <trkpt lat="46.28727" lon="-0.19022">
        <ele>132.8881</ele>
        <time>2010-11-28T15:00:35Z</time>
      </trkpt>
      <trkpt lat="46.28726" lon="-0.19022">
        <ele>132.9416</ele>
        <time>2010-11-28T15:00:36Z</time>
      </trkpt>
      <trkpt lat="46.28726" lon="-0.19021">
        <ele>132.9953</ele>
        <time>2010-11-28T15:00:37Z</time>
      </trkpt>
      <trkpt lat="46.28726" lon="-0.1902">
        <ele>133.0429</ele>
        <time>2010-11-28T15:00:38Z</time>
      </trkpt>
      <trkpt lat="46.28725" lon="-0.19019">
        <ele>133.0909</ele>
        <time>2010-11-28T15:00:39Z</time>
      </trkpt>
      <trkpt lat="46.28725" lon="-0.19018">
        <ele>133.1379</ele>
        <time>2010-11-28T15:00:40Z</time>
      </trkpt>
      <trkpt lat="46.28725" lon="-0.19017">
        <ele>133.1826</ele>
        <time>2010-11-28T15:00:41Z</time>
      </trkpt>
      <trkpt lat="46.28724" lon="-0.19016">
        <ele>133.2301</ele>
        <time>2010-11-28T15:00:42Z</time>
      </trkpt>
      <trkpt lat="46.28724" lon="-0.19015">
        <ele>133.2758</ele>
        <time>2010-11-28T15:00:43Z</time>
      </trkpt>
      <trkpt lat="46.28723" lon="-0.19014">
        <ele>133.3217</ele>
        <time>2010-11-28T15:00:44Z</time>
      </trkpt>
      <trkpt lat="46.28722" lon="-0.19013">
        <ele>133.3676</ele>
        <time>2010-11-28T15:00:45Z</time>
      </trkpt>
      <trkpt lat="46.28722" lon="-0.19012">
        <ele>133.4095</ele>
        <time>2010-11-28T15:00:46Z</time>
      </trkpt>
      <trkpt lat="46.28721" lon="-0.1901">
        <ele>133.451</ele>
        <time>2010-11-28T15:00:47Z</time>
      </trkpt>
      <trkpt lat="46.2872" lon="-0.19009">
        <ele>133.4817</ele>
        <time>2010-11-28T15:00:48Z</time>
      </trkpt>
      <trkpt lat="46.28719" lon="-0.19008">
        <ele>133.4994</ele>
        <time>2010-11-28T15:00:49Z</time>
      </trkpt>
      <trkpt lat="46.28719" lon="-0.19007">
        <ele>133.5062</ele>
        <time>2010-11-28T15:00:50Z</time>
      </trkpt>
      <trkpt lat="46.28717" lon="-0.19005">
        <ele>133.5081</ele>
        <time>2010-11-28T15:00:51Z</time>
      </trkpt>
      <trkpt lat="46.28717" lon="-0.19004">
        <ele>133.5075</ele>
        <time>2010-11-28T15:00:52Z</time>
      </trkpt>
      <trkpt lat="46.28716" lon="-0.19003">
        <ele>133.4932</ele>
        <time>2010-11-28T15:00:53Z</time>
      </trkpt>
      <trkpt lat="46.28715" lon="-0.19002">
        <ele>133.4723</ele>
        <time>2010-11-28T15:00:54Z</time>
      </trkpt>
      <trkpt lat="46.28714" lon="-0.19001">
        <ele>133.4556</ele>
        <time>2010-11-28T15:00:55Z</time>
      </trkpt>
      <trkpt lat="46.28714" lon="-0.19">
        <ele>133.4413</ele>
        <time>2010-11-28T15:00:56Z</time>
      </trkpt>
      <trkpt lat="46.28713" lon="-0.18999">
        <ele>133.4278</ele>
        <time>2010-11-28T15:00:57Z</time>
      </trkpt>
      <trkpt lat="46.28712" lon="-0.18998">
        <ele>133.4134</ele>
        <time>2010-11-28T15:00:58Z</time>
      </trkpt>
      <trkpt lat="46.28712" lon="-0.18997">
        <ele>133.3943</ele>
        <time>2010-11-28T15:00:59Z</time>
      </trkpt>
      <trkpt lat="46.28711" lon="-0.18996">
        <ele>133.3712</ele>
        <time>2010-11-28T15:01:00Z</time>
      </trkpt>
      <trkpt lat="46.2871" lon="-0.18994">
        <ele>133.3692</ele>
        <time>2010-11-28T15:01:04Z</time>
      </trkpt>
      <trkpt lat="46.28709" lon="-0.18994">
        <ele>133.3721</ele>
        <time>2010-11-28T15:01:05Z</time>
      </trkpt>
      <trkpt lat="46.28709" lon="-0.18993">
        <ele>133.3725</ele>
        <time>2010-11-28T15:01:06Z</time>
      </trkpt>
      <trkpt lat="46.28709" lon="-0.18992">
        <ele>133.3811</ele>
        <time>2010-11-28T15:01:07Z</time>
      </trkpt>
      <trkpt lat="46.28708" lon="-0.1899">
        <ele>133.3869</ele>
        <time>2010-11-28T15:01:08Z</time>
      </trkpt>
      <trkpt lat="46.28707" lon="-0.18988">
        <ele>133.4054</ele>
        <time>2010-11-28T15:01:09Z</time>
      </trkpt>
      <trkpt lat="46.28707" lon="-0.18986">
        <ele>133.4316</ele>
        <time>2010-11-28T15:01:10Z</time>
      </trkpt>
      <trkpt lat="46.28706" lon="-0.18985">
        <ele>133.4755</ele>
        <time>2010-11-28T15:01:11Z</time>
      </trkpt>
      <trkpt lat="46.28705" lon="-0.18983">
        <ele>133.5326</ele>
        <time>2010-11-28T15:01:12Z</time>
      </trkpt>
      <trkpt lat="46.28705" lon="-0.18982">
        <ele>133.5897</ele>
        <time>2010-11-28T15:01:13Z</time>
      </trkpt>
      <trkpt lat="46.28704" lon="-0.1898">
        <ele>133.6464</ele>
        <time>2010-11-28T15:01:14Z</time>
      </trkpt>
      <trkpt lat="46.28703" lon="-0.18979">
        <ele>133.6835</ele>
        <time>2010-11-28T15:01:15Z</time>
      </trkpt>
      <trkpt lat="46.28703" lon="-0.18977">
        <ele>133.721</ele>
        <time>2010-11-28T15:01:16Z</time>
      </trkpt>
      <trkpt lat="46.28702" lon="-0.18976">
        <ele>133.7633</ele>
        <time>2010-11-28T15:01:17Z</time>
      </trkpt>
      <trkpt lat="46.28701" lon="-0.18974">
        <ele>133.8055</ele>
        <time>2010-11-28T15:01:18Z</time>
      </trkpt>
      <trkpt lat="46.28701" lon="-0.18972">
        <ele>133.8581</ele>
        <time>2010-11-28T15:01:19Z</time>
      </trkpt>
      <trkpt lat="46.287" lon="-0.18971">
        <ele>133.9228</ele>
        <time>2010-11-28T15:01:20Z</time>
      </trkpt>
      <trkpt lat="46.28699" lon="-0.18969">
        <ele>133.9916</ele>
        <time>2010-11-28T15:01:21Z</time>
      </trkpt>
      <trkpt lat="46.28699" lon="-0.18968">
        <ele>134.0655</ele>
        <time>2010-11-28T15:01:22Z</time>
      </trkpt>
      <trkpt lat="46.28698" lon="-0.18966">
        <ele>134.1465</ele>
        <time>2010-11-28T15:01:23Z</time>
      </trkpt>
      <trkpt lat="46.28698" lon="-0.18965">
        <ele>134.2398</ele>
        <time>2010-11-28T15:01:24Z</time>
      </trkpt>
      <trkpt lat="46.28697" lon="-0.18964">
        <ele>134.3361</ele>
        <time>2010-11-28T15:01:25Z</time>
      </trkpt>
      <trkpt lat="46.28696" lon="-0.18962">
        <ele>134.4269</ele>
        <time>2010-11-28T15:01:26Z</time>
      </trkpt>
      <trkpt lat="46.28696" lon="-0.18961">
        <ele>134.5244</ele>
        <time>2010-11-28T15:01:27Z</time>
      </trkpt>
      <trkpt lat="46.28695" lon="-0.1896">
        <ele>134.63</ele>
        <time>2010-11-28T15:01:28Z</time>
      </trkpt>
      <trkpt lat="46.28694" lon="-0.18958">
        <ele>134.7267</ele>
        <time>2010-11-28T15:01:29Z</time>
      </trkpt>
      <trkpt lat="46.28693" lon="-0.18957">
        <ele>134.8214</ele>
        <time>2010-11-28T15:01:30Z</time>
      </trkpt>
      <trkpt lat="46.28692" lon="-0.18956">
        <ele>134.9104</ele>
        <time>2010-11-28T15:01:31Z</time>
      </trkpt>
      <trkpt lat="46.28691" lon="-0.18954">
        <ele>134.9993</ele>
        <time>2010-11-28T15:01:32Z</time>
      </trkpt>
      <trkpt lat="46.2869" lon="-0.18953">
        <ele>135.0923</ele>
        <time>2010-11-28T15:01:33Z</time>
      </trkpt>
      <trkpt lat="46.28689" lon="-0.18952">
        <ele>135.1741</ele>
        <time>2010-11-28T15:01:34Z</time>
      </trkpt>
      <trkpt lat="46.28688" lon="-0.18951">
        <ele>135.2494</ele>
        <time>2010-11-28T15:01:35Z</time>
      </trkpt>
      <trkpt lat="46.28687" lon="-0.1895">
        <ele>135.3264</ele>
        <time>2010-11-28T15:01:36Z</time>
      </trkpt>
      <trkpt lat="46.28686" lon="-0.18948">
        <ele>135.4049</ele>
        <time>2010-11-28T15:01:37Z</time>
      </trkpt>
      <trkpt lat="46.28685" lon="-0.18947">
        <ele>135.4883</ele>
        <time>2010-11-28T15:01:38Z</time>
      </trkpt>
      <trkpt lat="46.28684" lon="-0.18946">
        <ele>135.5654</ele>
        <time>2010-11-28T15:01:39Z</time>
      </trkpt>
      <trkpt lat="46.28684" lon="-0.18944">
        <ele>135.6341</ele>
        <time>2010-11-28T15:01:40Z</time>
      </trkpt>
      <trkpt lat="46.28683" lon="-0.18943">
        <ele>135.7002</ele>
        <time>2010-11-28T15:01:41Z</time>
      </trkpt>
      <trkpt lat="46.28682" lon="-0.18942">
        <ele>135.7609</ele>
        <time>2010-11-28T15:01:42Z</time>
      </trkpt>
      <trkpt lat="46.28681" lon="-0.1894">
        <ele>135.8163</ele>
        <time>2010-11-28T15:01:43Z</time>
      </trkpt>
      <trkpt lat="46.2868" lon="-0.18939">
        <ele>135.8693</ele>
        <time>2010-11-28T15:01:44Z</time>
      </trkpt>
      <trkpt lat="46.28679" lon="-0.18938">
        <ele>135.9234</ele>
        <time>2010-11-28T15:01:45Z</time>
      </trkpt>
      <trkpt lat="46.28678" lon="-0.18937">
        <ele>135.9727</ele>
        <time>2010-11-28T15:01:46Z</time>
      </trkpt>
      <trkpt lat="46.28677" lon="-0.18936">
        <ele>136.0197</ele>
        <time>2010-11-28T15:01:47Z</time>
      </trkpt>
      <trkpt lat="46.28677" lon="-0.18935">
        <ele>136.0651</ele>
        <time>2010-11-28T15:01:48Z</time>
      </trkpt>
      <trkpt lat="46.28676" lon="-0.18933">
        <ele>136.1096</ele>
        <time>2010-11-28T15:01:49Z</time>
      </trkpt>
      <trkpt lat="46.28675" lon="-0.18932">
        <ele>136.15</ele>
        <time>2010-11-28T15:01:50Z</time>
      </trkpt>
      <trkpt lat="46.28675" lon="-0.18931">
        <ele>136.1905</ele>
        <time>2010-11-28T15:01:51Z</time>
      </trkpt>
      <trkpt lat="46.28674" lon="-0.18929">
        <ele>136.2286</ele>
        <time>2010-11-28T15:01:52Z</time>
      </trkpt>
      <trkpt lat="46.28673" lon="-0.18928">
        <ele>136.2681</ele>
        <time>2010-11-28T15:01:53Z</time>
      </trkpt>
      <trkpt lat="46.28672" lon="-0.18926">
        <ele>136.3065</ele>
        <time>2010-11-28T15:01:54Z</time>
      </trkpt>
      <trkpt lat="46.28671" lon="-0.18924">
        <ele>136.3441</ele>
        <time>2010-11-28T15:01:55Z</time>
      </trkpt>
      <trkpt lat="46.28671" lon="-0.18923">
        <ele>136.3832</ele>
        <time>2010-11-28T15:01:56Z</time>
      </trkpt>
      <trkpt lat="46.2867" lon="-0.18922">
        <ele>136.4259</ele>
        <time>2010-11-28T15:01:57Z</time>
      </trkpt>
      <trkpt lat="46.28669" lon="-0.1892">
        <ele>136.4721</ele>
        <time>2010-11-28T15:01:58Z</time>
      </trkpt>
      <trkpt lat="46.28669" lon="-0.18919">
        <ele>136.5192</ele>
        <time>2010-11-28T15:01:59Z</time>
      </trkpt>
      <trkpt lat="46.28668" lon="-0.18918">
        <ele>136.5668</ele>
        <time>2010-11-28T15:02:00Z</time>
      </trkpt>
      <trkpt lat="46.28667" lon="-0.18917">
        <ele>136.6195</ele>
        <time>2010-11-28T15:02:01Z</time>
      </trkpt>
      <trkpt lat="46.28667" lon="-0.18915">
        <ele>136.6776</ele>
        <time>2010-11-28T15:02:02Z</time>
      </trkpt>
      <trkpt lat="46.28666" lon="-0.18914">
        <ele>136.7344</ele>
        <time>2010-11-28T15:02:03Z</time>
      </trkpt>
      <trkpt lat="46.28665" lon="-0.18912">
        <ele>136.795</ele>
        <time>2010-11-28T15:02:04Z</time>
      </trkpt>
      <trkpt lat="46.28664" lon="-0.18911">
        <ele>136.8668</ele>
        <time>2010-11-28T15:02:05Z</time>
      </trkpt>
      <trkpt lat="46.28663" lon="-0.18909">
        <ele>136.9354</ele>
        <time>2010-11-28T15:02:06Z</time>
      </trkpt>
      <trkpt lat="46.28663" lon="-0.18908">
        <ele>137.0038</ele>
        <time>2010-11-28T15:02:07Z</time>
      </trkpt>
      <trkpt lat="46.28662" lon="-0.18907">
        <ele>137.0697</ele>
        <time>2010-11-28T15:02:08Z</time>
      </trkpt>
      <trkpt lat="46.28661" lon="-0.18906">
        <ele>137.1335</ele>
        <time>2010-11-28T15:02:09Z</time>
      </trkpt>
      <trkpt lat="46.28661" lon="-0.18905">
        <ele>137.1948</ele>
        <time>2010-11-28T15:02:10Z</time>
      </trkpt>
      <trkpt lat="46.2866" lon="-0.18904">
        <ele>137.2527</ele>
        <time>2010-11-28T15:02:11Z</time>
      </trkpt>
      <trkpt lat="46.28659" lon="-0.18903">
        <ele>137.3083</ele>
        <time>2010-11-28T15:02:12Z</time>
      </trkpt>
      <trkpt lat="46.28658" lon="-0.18902">
        <ele>137.3636</ele>
        <time>2010-11-28T15:02:13Z</time>
      </trkpt>
      <trkpt lat="46.28658" lon="-0.18901">
        <ele>137.4181</ele>
        <time>2010-11-28T15:02:14Z</time>
      </trkpt>
      <trkpt lat="46.28657" lon="-0.189">
        <ele>137.4695</ele>
        <time>2010-11-28T15:02:15Z</time>
      </trkpt>
      <trkpt lat="46.28656" lon="-0.18899">
        <ele>137.5196</ele>
        <time>2010-11-28T15:02:16Z</time>
      </trkpt>
      <trkpt lat="46.28656" lon="-0.18898">
        <ele>137.5684</ele>
        <time>2010-11-28T15:02:17Z</time>
      </trkpt>
      <trkpt lat="46.28655" lon="-0.18897">
        <ele>137.615</ele>
        <time>2010-11-28T15:02:18Z</time>
      </trkpt>
      <trkpt lat="46.28654" lon="-0.18896">
        <ele>137.6603</ele>
        <time>2010-11-28T15:02:19Z</time>
      </trkpt>
      <trkpt lat="46.28653" lon="-0.18895">
        <ele>137.7105</ele>
        <time>2010-11-28T15:02:20Z</time>
      </trkpt>
      <trkpt lat="46.28653" lon="-0.18894">
        <ele>137.7105</ele>
        <time>2010-11-28T15:02:21Z</time>
      </trkpt>
      <trkpt lat="46.28652" lon="-0.18893">
        <ele>137.7725</ele>
        <time>2010-11-28T15:02:22Z</time>
      </trkpt>
      <trkpt lat="46.28651" lon="-0.18891">
        <ele>137.8412</ele>
        <time>2010-11-28T15:02:23Z</time>
      </trkpt>
      <trkpt lat="46.28651" lon="-0.18889">
        <ele>137.9132</ele>
        <time>2010-11-28T15:02:24Z</time>
      </trkpt>
      <trkpt lat="46.2865" lon="-0.18886">
        <ele>137.9729</ele>
        <time>2010-11-28T15:02:25Z</time>
      </trkpt>
      <trkpt lat="46.2865" lon="-0.18884">
        <ele>138.0402</ele>
        <time>2010-11-28T15:02:26Z</time>
      </trkpt>
      <trkpt lat="46.28649" lon="-0.18882">
        <ele>138.0992</ele>
        <time>2010-11-28T15:02:27Z</time>
      </trkpt>
      <trkpt lat="46.28648" lon="-0.1888">
        <ele>138.1492</ele>
        <time>2010-11-28T15:02:28Z</time>
      </trkpt>
      <trkpt lat="46.28647" lon="-0.18879">
        <ele>138.1962</ele>
        <time>2010-11-28T15:02:29Z</time>
      </trkpt>
      <trkpt lat="46.28646" lon="-0.18877">
        <ele>138.2424</ele>
        <time>2010-11-28T15:02:30Z</time>
      </trkpt>
      <trkpt lat="46.28645" lon="-0.18876">
        <ele>138.2885</ele>
        <time>2010-11-28T15:02:31Z</time>
      </trkpt>
      <trkpt lat="46.28645" lon="-0.18874">
        <ele>138.3342</ele>
        <time>2010-11-28T15:02:32Z</time>
      </trkpt>
      <trkpt lat="46.28643" lon="-0.18873">
        <ele>138.38</ele>
        <time>2010-11-28T15:02:33Z</time>
      </trkpt>
      <trkpt lat="46.28643" lon="-0.18872">
        <ele>138.4249</ele>
        <time>2010-11-28T15:02:34Z</time>
      </trkpt>
      <trkpt lat="46.28642" lon="-0.18871">
        <ele>138.4666</ele>
        <time>2010-11-28T15:02:35Z</time>
      </trkpt>
      <trkpt lat="46.28641" lon="-0.1887">
        <ele>138.5066</ele>
        <time>2010-11-28T15:02:36Z</time>
      </trkpt>
      <trkpt lat="46.2864" lon="-0.18868">
        <ele>138.5466</ele>
        <time>2010-11-28T15:02:37Z</time>
      </trkpt>
      <trkpt lat="46.28639" lon="-0.18867">
        <ele>138.5807</ele>
        <time>2010-11-28T15:02:38Z</time>
      </trkpt>
      <trkpt lat="46.28639" lon="-0.18866">
        <ele>138.6143</ele>
        <time>2010-11-28T15:02:39Z</time>
      </trkpt>
      <trkpt lat="46.28638" lon="-0.18865">
        <ele>138.6502</ele>
        <time>2010-11-28T15:02:40Z</time>
      </trkpt>
      <trkpt lat="46.28637" lon="-0.18864">
        <ele>138.6887</ele>
        <time>2010-11-28T15:02:41Z</time>
      </trkpt>
      <trkpt lat="46.28636" lon="-0.18863">
        <ele>138.7269</ele>
        <time>2010-11-28T15:02:42Z</time>
      </trkpt>
      <trkpt lat="46.28635" lon="-0.18862">
        <ele>138.7549</ele>
        <time>2010-11-28T15:02:43Z</time>
      </trkpt>
      <trkpt lat="46.28634" lon="-0.18861">
        <ele>138.7727</ele>
        <time>2010-11-28T15:02:44Z</time>
      </trkpt>
      <trkpt lat="46.28634" lon="-0.1886">
        <ele>138.7962</ele>
        <time>2010-11-28T15:02:45Z</time>
      </trkpt>
      <trkpt lat="46.28633" lon="-0.18859">
        <ele>138.7979</ele>
        <time>2010-11-28T15:02:46Z</time>
      </trkpt>
      <trkpt lat="46.28632" lon="-0.18858">
        <ele>138.819</ele>
        <time>2010-11-28T15:02:47Z</time>
      </trkpt>
      <trkpt lat="46.28632" lon="-0.18857">
        <ele>138.819</ele>
        <time>2010-11-28T15:02:48Z</time>
      </trkpt>
      <trkpt lat="46.28631" lon="-0.18855">
        <ele>138.8597</ele>
        <time>2010-11-28T15:02:49Z</time>
      </trkpt>
      <trkpt lat="46.2863" lon="-0.18854">
        <ele>138.8737</ele>
        <time>2010-11-28T15:02:50Z</time>
      </trkpt>
      <trkpt lat="46.28629" lon="-0.18852">
        <ele>138.8586</ele>
        <time>2010-11-28T15:02:51Z</time>
      </trkpt>
      <trkpt lat="46.28629" lon="-0.18851">
        <ele>138.8287</ele>
        <time>2010-11-28T15:02:52Z</time>
      </trkpt>
      <trkpt lat="46.28628" lon="-0.18849">
        <ele>138.7843</ele>
        <time>2010-11-28T15:02:53Z</time>
      </trkpt>
      <trkpt lat="46.28627" lon="-0.18848">
        <ele>138.7391</ele>
        <time>2010-11-28T15:02:54Z</time>
      </trkpt>
      <trkpt lat="46.28626" lon="-0.18847">
        <ele>138.6905</ele>
        <time>2010-11-28T15:02:55Z</time>
      </trkpt>
      <trkpt lat="46.28626" lon="-0.18846">
        <ele>138.6446</ele>
        <time>2010-11-28T15:02:56Z</time>
      </trkpt>
      <trkpt lat="46.28624" lon="-0.18845">
        <ele>138.6049</ele>
        <time>2010-11-28T15:02:57Z</time>
      </trkpt>
      <trkpt lat="46.28624" lon="-0.18843">
        <ele>138.5669</ele>
        <time>2010-11-28T15:02:58Z</time>
      </trkpt>
      <trkpt lat="46.28623" lon="-0.18842">
        <ele>138.5351</ele>
        <time>2010-11-28T15:02:59Z</time>
      </trkpt>
      <trkpt lat="46.28622" lon="-0.18841">
        <ele>138.5163</ele>
        <time>2010-11-28T15:03:00Z</time>
      </trkpt>
      <trkpt lat="46.28622" lon="-0.1884">
        <ele>138.4975</ele>
        <time>2010-11-28T15:03:01Z</time>
      </trkpt>
      <trkpt lat="46.28621" lon="-0.18839">
        <ele>138.4749</ele>
        <time>2010-11-28T15:03:02Z</time>
      </trkpt>
      <trkpt lat="46.2862" lon="-0.18838">
        <ele>138.4469</ele>
        <time>2010-11-28T15:03:03Z</time>
      </trkpt>
      <trkpt lat="46.28619" lon="-0.18837">
        <ele>138.4113</ele>
        <time>2010-11-28T15:03:04Z</time>
      </trkpt>
      <trkpt lat="46.28619" lon="-0.18836">
        <ele>138.3693</ele>
        <time>2010-11-28T15:03:05Z</time>
      </trkpt>
      <trkpt lat="46.28618" lon="-0.18835">
        <ele>138.3297</ele>
        <time>2010-11-28T15:03:06Z</time>
      </trkpt>
      <trkpt lat="46.28618" lon="-0.18834">
        <ele>138.2921</ele>
        <time>2010-11-28T15:03:07Z</time>
      </trkpt>
      <trkpt lat="46.28617" lon="-0.18833">
        <ele>138.2538</ele>
        <time>2010-11-28T15:03:08Z</time>
      </trkpt>
      <trkpt lat="46.28616" lon="-0.18832">
        <ele>138.2156</ele>
        <time>2010-11-28T15:03:09Z</time>
      </trkpt>
      <trkpt lat="46.28616" lon="-0.18831">
        <ele>138.1814</ele>
        <time>2010-11-28T15:03:10Z</time>
      </trkpt>
      <trkpt lat="46.28615" lon="-0.1883">
        <ele>138.1506</ele>
        <time>2010-11-28T15:03:11Z</time>
      </trkpt>
      <trkpt lat="46.28614" lon="-0.18829">
        <ele>138.1226</ele>
        <time>2010-11-28T15:03:12Z</time>
      </trkpt>
      <trkpt lat="46.28613" lon="-0.18828">
        <ele>138.095</ele>
        <time>2010-11-28T15:03:13Z</time>
      </trkpt>
      <trkpt lat="46.28613" lon="-0.18827">
        <ele>138.0617</ele>
        <time>2010-11-28T15:03:14Z</time>
      </trkpt>
      <trkpt lat="46.28612" lon="-0.18826">
        <ele>138.0335</ele>
        <time>2010-11-28T15:03:15Z</time>
      </trkpt>
      <trkpt lat="46.28611" lon="-0.18825">
        <ele>138.012</ele>
        <time>2010-11-28T15:03:16Z</time>
      </trkpt>
      <trkpt lat="46.28611" lon="-0.18824">
        <ele>137.9796</ele>
        <time>2010-11-28T15:03:17Z</time>
      </trkpt>
      <trkpt lat="46.2861" lon="-0.18823">
        <ele>137.9663</ele>
        <time>2010-11-28T15:03:18Z</time>
      </trkpt>
      <trkpt lat="46.2861" lon="-0.18822">
        <ele>137.9593</ele>
        <time>2010-11-28T15:03:19Z</time>
      </trkpt>
      <trkpt lat="46.2861" lon="-0.18821">
        <ele>137.9578</ele>
        <time>2010-11-28T15:03:20Z</time>
      </trkpt>
      <trkpt lat="46.28609" lon="-0.1882">
        <ele>137.9352</ele>
        <time>2010-11-28T15:03:21Z</time>
      </trkpt>
      <trkpt lat="46.28608" lon="-0.18819">
        <ele>137.9059</ele>
        <time>2010-11-28T15:03:22Z</time>
      </trkpt>
      <trkpt lat="46.28607" lon="-0.18819">
        <ele>137.8808</ele>
        <time>2010-11-28T15:03:23Z</time>
      </trkpt>
      <trkpt lat="46.28607" lon="-0.18819">
        <ele>137.9391</ele>
        <time>2010-11-28T15:03:29Z</time>
      </trkpt>
      <trkpt lat="46.28606" lon="-0.18818">
        <ele>137.968</ele>
        <time>2010-11-28T15:03:30Z</time>
      </trkpt>
      <trkpt lat="46.28606" lon="-0.18817">
        <ele>137.9907</ele>
        <time>2010-11-28T15:03:31Z</time>
      </trkpt>
      <trkpt lat="46.28606" lon="-0.18816">
        <ele>138.0134</ele>
        <time>2010-11-28T15:03:32Z</time>
      </trkpt>
      <trkpt lat="46.28605" lon="-0.18815">
        <ele>138.0277</ele>
        <time>2010-11-28T15:03:33Z</time>
      </trkpt>
      <trkpt lat="46.28604" lon="-0.18814">
        <ele>138.0551</ele>
        <time>2010-11-28T15:03:34Z</time>
      </trkpt>
      <trkpt lat="46.28604" lon="-0.18813">
        <ele>138.0752</ele>
        <time>2010-11-28T15:03:35Z</time>
      </trkpt>
      <trkpt lat="46.28603" lon="-0.18813">
        <ele>138.0479</ele>
        <time>2010-11-28T15:03:36Z</time>
      </trkpt>
      <trkpt lat="46.28603" lon="-0.18812">
        <ele>138.0209</ele>
        <time>2010-11-28T15:03:37Z</time>
      </trkpt>
      <trkpt lat="46.28603" lon="-0.18811">
        <ele>137.9926</ele>
        <time>2010-11-28T15:03:38Z</time>
      </trkpt>
      <trkpt lat="46.28603" lon="-0.1881">
        <ele>137.9771</ele>
        <time>2010-11-28T15:03:39Z</time>
      </trkpt>
      <trkpt lat="46.28603" lon="-0.18809">
        <ele>137.9562</ele>
        <time>2010-11-28T15:03:40Z</time>
      </trkpt>
      <trkpt lat="46.28603" lon="-0.18808">
        <ele>137.9469</ele>
        <time>2010-11-28T15:03:41Z</time>
      </trkpt>
      <trkpt lat="46.28602" lon="-0.18806">
        <ele>137.9416</ele>
        <time>2010-11-28T15:03:42Z</time>
      </trkpt>
      <trkpt lat="46.28602" lon="-0.18805">
        <ele>137.9489</ele>
        <time>2010-11-28T15:03:43Z</time>
      </trkpt>
      <trkpt lat="46.28601" lon="-0.18804">
        <ele>137.9702</ele>
        <time>2010-11-28T15:03:44Z</time>
      </trkpt>
      <trkpt lat="46.286" lon="-0.18802">
        <ele>138.0085</ele>
        <time>2010-11-28T15:03:45Z</time>
      </trkpt>
      <trkpt lat="46.286" lon="-0.18801">
        <ele>138.0517</ele>
        <time>2010-11-28T15:03:46Z</time>
      </trkpt>
      <trkpt lat="46.28599" lon="-0.18799">
        <ele>138.1113</ele>
        <time>2010-11-28T15:03:47Z</time>
      </trkpt>
      <trkpt lat="46.28598" lon="-0.18798">
        <ele>138.1689</ele>
        <time>2010-11-28T15:03:48Z</time>
      </trkpt>
      <trkpt lat="46.28598" lon="-0.18797">
        <ele>138.2207</ele>
        <time>2010-11-28T15:03:49Z</time>
      </trkpt>
      <trkpt lat="46.28597" lon="-0.18795">
        <ele>138.2684</ele>
        <time>2010-11-28T15:03:50Z</time>
      </trkpt>
      <trkpt lat="46.28597" lon="-0.18794">
        <ele>138.3105</ele>
        <time>2010-11-28T15:03:51Z</time>
      </trkpt>
      <trkpt lat="46.28597" lon="-0.18793">
        <ele>138.3492</ele>
        <time>2010-11-28T15:03:52Z</time>
      </trkpt>
      <trkpt lat="46.28596" lon="-0.18791">
        <ele>138.3816</ele>
        <time>2010-11-28T15:03:53Z</time>
      </trkpt>
      <trkpt lat="46.28595" lon="-0.1879">
        <ele>138.4103</ele>
        <time>2010-11-28T15:03:54Z</time>
      </trkpt>
      <trkpt lat="46.28595" lon="-0.18789">
        <ele>138.4482</ele>
        <time>2010-11-28T15:03:55Z</time>
      </trkpt>
      <trkpt lat="46.28594" lon="-0.18788">
        <ele>138.4795</ele>
        <time>2010-11-28T15:03:56Z</time>
      </trkpt>
      <trkpt lat="46.28594" lon="-0.18786">
        <ele>138.5072</ele>
        <time>2010-11-28T15:03:57Z</time>
      </trkpt>
      <trkpt lat="46.28593" lon="-0.18785">
        <ele>138.5254</ele>
        <time>2010-11-28T15:03:58Z</time>
      </trkpt>
      <trkpt lat="46.28592" lon="-0.18784">
        <ele>138.5414</ele>
        <time>2010-11-28T15:03:59Z</time>
      </trkpt>
      <trkpt lat="46.28591" lon="-0.18783">
        <ele>138.556</ele>
        <time>2010-11-28T15:04:00Z</time>
      </trkpt>
      <trkpt lat="46.2859" lon="-0.18781">
        <ele>138.5753</ele>
        <time>2010-11-28T15:04:01Z</time>
      </trkpt>
      <trkpt lat="46.28589" lon="-0.18779">
        <ele>138.6377</ele>
        <time>2010-11-28T15:04:02Z</time>
      </trkpt>
      <trkpt lat="46.28588" lon="-0.18777">
        <ele>138.7025</ele>
        <time>2010-11-28T15:04:03Z</time>
      </trkpt>
      <trkpt lat="46.28587" lon="-0.18775">
        <ele>138.769</ele>
        <time>2010-11-28T15:04:04Z</time>
      </trkpt>
      <trkpt lat="46.28585" lon="-0.18773">
        <ele>138.8361</ele>
        <time>2010-11-28T15:04:05Z</time>
      </trkpt>
      <trkpt lat="46.28585" lon="-0.18772">
        <ele>138.9006</ele>
        <time>2010-11-28T15:04:06Z</time>
      </trkpt>
      <trkpt lat="46.28584" lon="-0.1877">
        <ele>138.9657</ele>
        <time>2010-11-28T15:04:07Z</time>
      </trkpt>
      <trkpt lat="46.28584" lon="-0.18768">
        <ele>139.0256</ele>
        <time>2010-11-28T15:04:08Z</time>
      </trkpt>
      <trkpt lat="46.28583" lon="-0.18767">
        <ele>139.0816</ele>
        <time>2010-11-28T15:04:09Z</time>
      </trkpt>
      <trkpt lat="46.28583" lon="-0.18766">
        <ele>139.1288</ele>
        <time>2010-11-28T15:04:10Z</time>
      </trkpt>
      <trkpt lat="46.28582" lon="-0.18764">
        <ele>139.1713</ele>
        <time>2010-11-28T15:04:11Z</time>
      </trkpt>
      <trkpt lat="46.28582" lon="-0.18763">
        <ele>139.2095</ele>
        <time>2010-11-28T15:04:12Z</time>
      </trkpt>
      <trkpt lat="46.28582" lon="-0.18761">
        <ele>139.2469</ele>
        <time>2010-11-28T15:04:13Z</time>
      </trkpt>
      <trkpt lat="46.28581" lon="-0.1876">
        <ele>139.2848</ele>
        <time>2010-11-28T15:04:14Z</time>
      </trkpt>
      <trkpt lat="46.28581" lon="-0.18759">
        <ele>139.3164</ele>
        <time>2010-11-28T15:04:15Z</time>
      </trkpt>
      <trkpt lat="46.2858" lon="-0.18757">
        <ele>139.3424</ele>
        <time>2010-11-28T15:04:16Z</time>
      </trkpt>
      <trkpt lat="46.28579" lon="-0.18756">
        <ele>139.3599</ele>
        <time>2010-11-28T15:04:17Z</time>
      </trkpt>
      <trkpt lat="46.28579" lon="-0.18755">
        <ele>139.3655</ele>
        <time>2010-11-28T15:04:18Z</time>
      </trkpt>
      <trkpt lat="46.28578" lon="-0.18754">
        <ele>139.3586</ele>
        <time>2010-11-28T15:04:19Z</time>
      </trkpt>
      <trkpt lat="46.28577" lon="-0.18753">
        <ele>139.3501</ele>
        <time>2010-11-28T15:04:20Z</time>
      </trkpt>
      <trkpt lat="46.28576" lon="-0.18753">
        <ele>139.3366</ele>
        <time>2010-11-28T15:04:21Z</time>
      </trkpt>
      <trkpt lat="46.28575" lon="-0.18752">
        <ele>139.3146</ele>
        <time>2010-11-28T15:04:22Z</time>
      </trkpt>
      <trkpt lat="46.28574" lon="-0.18751">
        <ele>139.2867</ele>
        <time>2010-11-28T15:04:23Z</time>
      </trkpt>
      <trkpt lat="46.28573" lon="-0.18751">
        <ele>139.2525</ele>
        <time>2010-11-28T15:04:24Z</time>
      </trkpt>
      <trkpt lat="46.28572" lon="-0.1875">
        <ele>139.2162</ele>
        <time>2010-11-28T15:04:25Z</time>
      </trkpt>
      <trkpt lat="46.28571" lon="-0.18749">
        <ele>139.1822</ele>
        <time>2010-11-28T15:04:26Z</time>
      </trkpt>
      <trkpt lat="46.2857" lon="-0.18749">
        <ele>139.1531</ele>
        <time>2010-11-28T15:04:27Z</time>
      </trkpt>
      <trkpt lat="46.28569" lon="-0.18749">
        <ele>139.1283</ele>
        <time>2010-11-28T15:04:28Z</time>
      </trkpt>
      <trkpt lat="46.28568" lon="-0.18749">
        <ele>139.1066</ele>
        <time>2010-11-28T15:04:29Z</time>
      </trkpt>
      <trkpt lat="46.28567" lon="-0.18749">
        <ele>139.0865</ele>
        <time>2010-11-28T15:04:30Z</time>
      </trkpt>
      <trkpt lat="46.28566" lon="-0.18749">
        <ele>139.0695</ele>
        <time>2010-11-28T15:04:31Z</time>
      </trkpt>
      <trkpt lat="46.28565" lon="-0.18748">
        <ele>139.0531</ele>
        <time>2010-11-28T15:04:32Z</time>
      </trkpt>
      <trkpt lat="46.28564" lon="-0.18748">
        <ele>139.0334</ele>
        <time>2010-11-28T15:04:33Z</time>
      </trkpt>
      <trkpt lat="46.28563" lon="-0.18747">
        <ele>139.0092</ele>
        <time>2010-11-28T15:04:34Z</time>
      </trkpt>
      <trkpt lat="46.28562" lon="-0.18747">
        <ele>138.9805</ele>
        <time>2010-11-28T15:04:35Z</time>
      </trkpt>
      <trkpt lat="46.28561" lon="-0.18746">
        <ele>138.9476</ele>
        <time>2010-11-28T15:04:36Z</time>
      </trkpt>
      <trkpt lat="46.2856" lon="-0.18746">
        <ele>138.9119</ele>
        <time>2010-11-28T15:04:37Z</time>
      </trkpt>
      <trkpt lat="46.2856" lon="-0.18745">
        <ele>138.8738</ele>
        <time>2010-11-28T15:04:38Z</time>
      </trkpt>
      <trkpt lat="46.28559" lon="-0.18745">
        <ele>138.834</ele>
        <time>2010-11-28T15:04:39Z</time>
      </trkpt>
      <trkpt lat="46.28558" lon="-0.18744">
        <ele>138.7913</ele>
        <time>2010-11-28T15:04:40Z</time>
      </trkpt>
    </trkseg>
  </trk>
</gpx>